GFSWCAN_sfc_wetblb_003.txt.gz
Wetbulb
48.36 48.98 50.03 55.48 55.05 54.97 54.60 54.15 53.75 53.90 54.12 53.90 53.85 53.94 54.00 54.05 52.91 50.21 47.34 46.84 45.89 39.99 40.48 42.44 42.25 38.20 37.57 37.04 36.81 36.00 37.51 37.01 35.01 34.79 34.32 33.01 32.28 32.72 31.86 32.07 30.73 30.35 28.38 28.96 29.52 28.01 27.81 38.54 38.57 35.42 36.61 37.92 38.22 38.15
47.47 48.50 49.97 53.41 54.56 54.26 53.79 53.52 53.47 53.41 53.50 53.24 53.38 53.66 53.70 53.90 53.17 51.67 46.52 47.89 47.61 43.91 42.54 44.99 44.97 44.34 42.49 42.28 37.33 35.81 38.57 36.13 37.81 34.56 33.09 32.49 31.54 30.59 31.41 30.23 33.28 32.27 34.66 32.51 32.53 31.66 37.76 37.86 38.22 38.88 39.46 38.36 38.03 37.70
46.98 48.01 49.90 51.18 54.05 53.62 53.39 53.29 53.22 52.90 52.94 52.94 53.09 53.42 53.56 54.06 53.43 51.67 46.48 46.37 46.55 43.46 43.28 43.45 42.86 46.70 47.59 46.11 44.95 39.47 38.45 39.97 40.16 39.96 35.63 34.22 32.72 32.35 29.40 30.33 30.00 33.35 36.31 34.70 35.00 35.10 36.37 37.66 38.68 39.44 38.88 39.00 39.16 38.99
45.77 46.80 48.03 51.24 53.42 53.06 53.02 52.68 52.25 52.35 52.57 52.50 52.68 52.84 53.35 53.84 53.42 52.91 47.02 47.87 46.68 44.29 40.70 42.19 47.41 44.22 47.16 47.61 46.08 44.84 43.18 44.21 43.40 42.11 38.06 36.80 36.37 35.86 32.52 33.84 32.55 34.57 36.43 35.21 34.78 35.75 36.43 37.12 37.64 38.42 38.88 37.71 37.25 37.06
45.05 45.41 48.19 52.69 52.75 52.54 52.34 51.64 51.39 51.74 52.01 51.84 52.21 52.40 53.11 53.43 53.12 52.11 50.23 49.03 49.60 45.30 42.32 41.54 44.42 44.90 46.29 47.17 45.60 45.75 44.47 42.34 40.53 39.08 38.34 37.82 40.50 39.29 36.77 34.13 35.07 35.88 35.34 33.98 33.27 37.01 36.39 36.44 38.19 38.17 37.62 36.82 36.91 35.88
44.45 46.58 49.02 52.62 52.18 51.97 51.57 51.16 50.96 50.90 51.35 51.53 51.82 52.04 52.70 53.14 52.88 48.80 43.62 49.15 50.41 50.49 43.64 37.49 43.92 42.25 44.55 45.74 45.33 44.59 44.63 44.49 41.29 40.60 38.94 40.24 41.70 37.81 32.08 29.91 35.21 36.43 38.18 38.73 37.00 37.76 37.58 37.56 37.48 35.83 35.88 34.84 34.92 34.16
43.73 47.90 52.15 51.90 51.73 51.37 51.11 50.79 50.43 50.71 51.17 51.43 51.62 51.86 52.39 52.37 48.52 44.68 41.59 46.46 49.94 50.42 42.35 37.03 37.78 42.34 43.43 44.67 44.17 44.53 44.84 43.47 43.15 40.58 38.98 39.05 39.12 37.84 33.46 30.80 35.30 36.22 38.27 36.91 36.05 37.67 36.02 36.27 34.75 33.43 33.80 35.78 36.94 36.78
43.35 44.20 50.63 51.45 51.32 50.95 50.73 50.51 50.35 50.66 51.40 51.65 51.93 51.84 50.97 50.25 48.69 44.84 46.66 49.20 49.62 46.05 42.15 33.79 35.39 37.65 43.02 40.70 39.91 43.60 41.74 42.54 41.56 39.80 39.79 38.40 38.72 36.17 31.39 34.25 33.69 35.97 36.52 36.20 36.20 35.88 35.24 33.99 33.07 32.51 33.19 34.40 33.90 34.13
43.34 43.34 46.40 50.89 50.91 50.75 50.65 50.27 50.19 50.48 51.09 51.51 51.00 50.88 48.09 45.44 43.30 44.50 47.64 48.59 47.45 43.91 36.51 36.30 33.34 32.30 41.16 39.95 40.52 40.15 40.95 37.12 41.07 38.38 37.75 37.22 34.54 31.38 33.01 34.22 34.72 36.15 34.48 35.19 31.20 30.66 31.90 31.39 32.67 29.91 29.65 28.88 32.63 33.13
43.13 43.57 44.59 47.49 50.46 50.55 50.41 50.30 50.17 50.41 51.09 50.62 47.20 42.53 38.52 42.51 46.68 46.10 43.29 41.76 38.71 39.80 38.16 33.55 37.71 34.44 39.27 38.51 36.16 35.99 36.31 34.97 32.39 36.16 38.42 35.52 33.53 36.56 35.19 36.48 36.32 36.05 35.61 33.08 29.87 28.98 25.13 23.52 23.75 28.26 30.03 31.07 33.48 34.03
42.62 43.18 43.76 45.36 48.06 50.04 50.10 50.15 50.10 50.45 49.89 45.17 40.00 37.24 42.07 45.64 41.91 38.24 34.15 34.71 35.37 30.37 37.10 35.55 35.24 34.83 38.94 34.76 34.52 35.61 31.73 31.60 26.58 30.80 33.21 29.77 23.64 27.79 31.25 31.64 30.86 30.27 33.18 32.39 31.18 28.53 28.46 29.05 30.30 30.14 30.79 31.42 30.89 30.55
42.48 42.42 43.37 43.99 45.58 49.36 50.07 50.08 50.07 48.53 45.94 43.63 41.01 42.75 41.62 37.02 33.97 28.33 31.78 31.39 31.23 28.19 33.10 35.12 35.41 37.18 36.54 37.33 33.87 32.94 30.31 30.40 24.44 31.84 29.41 23.34 24.70 28.13 29.94 28.50 29.44 30.85 31.81 31.95 31.70 31.91 30.12 30.15 30.28 30.24 30.21 30.41 30.24 29.52
42.56 41.96 42.71 43.77 44.32 45.63 49.16 50.00 49.77 47.11 45.87 42.79 38.68 35.00 35.38 32.98 27.48 24.90 21.13 26.32 27.17 30.90 33.88 34.26 33.18 35.43 35.88 35.78 32.89 31.74 27.90 26.89 30.18 27.02 24.30 21.90 24.43 27.12 26.99 29.01 28.60 28.20 30.44 30.45 30.65 29.86 29.49 28.74 29.97 30.24 29.96 29.23 27.25 23.55
41.86 41.92 42.13 43.18 43.99 44.22 45.04 47.13 48.60 46.86 42.94 35.12 32.30 28.52 30.07 27.01 24.96 23.90 22.37 24.72 28.56 32.89 34.83 35.84 33.64 32.70 34.68 32.15 32.76 28.53 29.78 29.33 21.12 16.27 16.46 21.21 24.41 29.06 29.23 28.72 28.40 28.04 28.92 28.78 28.82 28.49 27.42 25.94 25.52 27.57 27.85 26.16 23.45 21.80
41.41 42.14 41.94 42.02 43.10 43.80 43.83 44.28 45.41 44.71 37.81 32.68 33.19 28.50 27.67 23.21 22.69 17.17 27.35 31.41 31.70 36.84 34.51 31.98 30.03 31.27 28.42 29.44 29.28 29.12 25.69 23.14 20.72 18.10 20.69 22.56 23.54 25.11 28.95 28.48 28.19 27.45 26.57 26.47 26.15 26.95 26.81 25.60 22.76 22.24 22.33 21.64 21.07 20.83
41.27 41.10 39.77 41.73 42.74 43.28 43.13 43.83 41.14 39.47 33.68 31.90 30.27 24.83 28.15 23.45 26.35 26.84 26.13 30.64 32.79 33.74 30.70 29.68 26.87 25.23 26.54 27.53 26.58 24.98 22.18 17.24 19.93 20.87 23.63 20.09 26.36 26.88 27.71 28.46 27.92 26.88 26.10 26.23 26.07 26.65 27.10 26.17 24.26 22.49 21.39 20.33 19.70 19.85
40.13 37.29 41.11 42.08 42.48 42.23 42.70 37.79 36.42 31.95 31.84 31.28 29.19 29.40 22.61 20.35 25.81 28.47 30.61 33.14 33.50 34.49 24.80 26.65 19.34 19.55 26.31 22.45 19.94 23.37 21.55 22.52 23.23 21.04 20.22 24.41 26.26 26.89 28.00 29.21 29.77 28.90 27.17 25.94 25.53 26.01 26.14 26.54 23.46 20.43 19.65 20.14 19.63 20.34
37.46 39.28 41.66 41.60 41.60 40.15 37.17 34.56 32.03 31.65 29.80 31.48 27.06 26.91 29.53 29.90 29.39 29.57 28.28 32.30 32.58 29.68 25.75 21.49 23.38 22.87 19.44 17.76 18.30 23.75 21.96 19.09 19.48 22.70 24.40 26.17 26.40 27.62 26.50 28.62 29.66 28.18 26.71 25.43 21.66 18.82 16.99 15.74 18.43 21.07 18.38 16.86 15.45 15.57
37.85 38.94 41.04 41.42 40.82 36.30 31.99 31.87 32.10 29.29 30.08 30.89 28.70 27.38 29.71 30.49 29.71 29.03 31.16 31.19 30.92 30.38 28.75 27.47 19.08 17.76 21.33 22.80 20.96 16.17 15.37 19.68 25.39 26.57 27.05 27.83 28.67 28.55 28.75 24.97 23.42 19.65 18.59 17.88 21.89 22.87 22.74 22.14 21.41 20.73 20.10 19.50 19.14 18.46
40.42 40.46 40.75 40.04 39.33 32.57 31.37 31.35 32.34 30.44 27.87 29.83 30.56 29.01 29.04 29.08 28.95 31.99 30.98 30.16 29.19 27.86 22.02 19.57 23.10 25.73 26.39 26.33 23.58 22.52 23.24 26.32 27.01 25.72 26.41 26.99 27.28 20.00 20.88 20.42 22.55 21.84 21.71 18.11 16.15 21.65 16.32 20.17 20.07 19.87 18.95 19.05 18.02 17.31
38.27 38.31 38.84 37.19 33.56 33.57 31.69 31.06 30.32 30.49 29.72 27.93 28.79 27.96 27.71 27.91 27.53 28.61 30.12 27.63 24.70 17.59 22.21 26.53 27.43 27.83 25.00 24.76 28.15 28.33 27.07 26.35 25.64 26.26 26.41 21.43 24.26 18.49 16.05 13.85 13.43 21.11 20.88 20.03 19.99 20.34 22.85 20.05 18.28 16.91 15.22 17.58 17.29 16.40
34.20 38.62 35.41 35.49 31.85 31.69 30.37 31.88 29.82 29.12 27.35 27.46 27.98 27.80 25.72 24.68 25.02 27.38 31.19 28.14 23.26 25.37 27.40 27.83 27.23 28.09 26.51 26.06 25.90 26.08 26.23 25.50 24.44 23.85 27.71 26.21 21.07 16.58 16.46 16.10 16.06 12.86 13.29 13.11 14.47 16.29 15.80 16.28 17.14 16.80 15.95 13.83 14.83 13.05
37.02 35.60 32.18 31.36 27.78 26.92 24.94 31.48 25.46 25.54 23.06 23.54 26.49 24.07 23.17 23.79 25.72 29.84 26.54 26.02 26.44 27.74 27.49 27.07 24.63 23.15 23.88 23.34 22.85 20.88 21.33 21.31 20.56 20.07 21.21 20.71 19.98 16.98 15.26 17.60 15.25 10.37 11.07 14.24 15.87 16.40 14.41 20.17 19.27 13.11 12.40 11.59 10.92 10.78
34.40 23.99 23.51 24.28 25.06 22.12 26.51 24.16 26.76 23.61 23.28 23.13 22.15 19.25 19.83 19.93 26.15 23.52 20.95 19.50 22.61 25.40 23.29 20.88 18.38 17.44 16.90 16.04 18.84 19.35 19.69 20.06 19.42 19.50 19.23 16.94 14.66 18.59 19.04 18.42 19.63 16.76 17.61 16.29 15.80 14.35 13.49 13.49 15.05 10.41 9.30 7.37 6.48 6.45
17.72 14.55 16.01 15.63 19.06 17.30 17.38 16.97 18.42 19.38 18.49 19.19 18.09 17.65 18.45 22.16 20.27 18.35 14.99 18.44 20.10 18.73 16.79 16.57 17.19 16.43 12.45 14.91 18.14 17.97 19.36 20.13 17.37 16.89 20.92 22.79 18.76 16.82 14.17 15.27 15.65 15.80 16.54 13.66 13.50 12.27 8.91 8.44 8.62 7.54 7.30 6.80 5.41 4.97
13.34 18.19 7.90 6.86 11.36 13.07 17.53 12.17 16.57 17.92 18.19 16.89 16.15 17.00 17.21 17.71 14.41 12.97 14.76 14.43 13.89 12.97 10.20 8.80 9.46 10.88 16.12 16.14 16.24 16.61 15.94 16.63 18.89 17.46 16.63 19.85 19.18 12.76 7.87 10.61 9.25 11.53 14.82 14.62 11.76 10.51 10.18 9.29 7.60 4.60 5.90 6.69 13.16 6.81
5.74 11.13 20.79 23.67 18.52 16.50 13.64 17.60 19.48 17.17 13.86 13.89 12.76 13.17 13.82 12.26 10.43 14.49 12.80 13.70 14.07 12.03 13.32 12.54 11.52 11.21 10.64 12.25 16.61 16.31 16.04 12.56 11.78 11.72 16.54 16.81 16.71 17.65 14.02 12.14 10.91 12.59 15.24 14.45 13.62 12.38 9.19 8.65 7.23 5.89 4.86 4.12 2.76 3.45
16.29 15.78 12.07 19.80 13.32 11.19 8.10 7.73 6.43 8.95 11.45 15.41 15.32 8.78 10.14 12.17 13.16 10.46 9.59 11.05 10.49 9.75 9.64 12.23 11.99 9.12 7.27 7.94 8.10 12.88 11.90 12.64 13.44 13.72 15.72 15.58 15.11 14.54 15.62 16.01 17.43 20.00 13.53 11.60 8.64 7.52 9.17 7.70 7.68 8.76 7.95 5.21 3.90 2.74
13.83 17.51 16.30 18.13 12.55 7.73 7.21 9.21 10.38 13.51 18.17 14.92 11.29 9.72 9.12 9.22 1.46 2.91 9.27 8.25 4.43 6.89 7.27 6.97 8.37 7.41 9.77 10.60 10.34 11.29 12.34 11.57 9.30 8.04 9.02 8.64 10.59 10.84 11.55 12.77 11.62 11.08 9.84 9.66 16.84 14.29 10.53 10.23 10.77 8.60 3.33 3.81 3.68 2.20
18.61 15.86 11.32 9.60 10.56 13.25 11.25 10.99 6.56 5.44 12.82 11.98 12.41 8.07 6.53 3.68 3.18 4.84 4.80 2.03 3.46 3.16 1.85 1.27 1.54 1.37 1.89 3.33 4.42 9.02 10.36 10.76 12.70 12.77 11.00 11.61 11.56 10.75 9.14 9.40 9.41 7.92 7.45 9.14 8.89 7.37 14.11 7.82 5.69 1.51 0.78 1.60 2.70 3.75
15.77 8.35 6.08 6.73 6.09 3.14 3.63 10.57 12.20 14.49 7.26 2.77 5.50 5.16 3.21 -0.53 4.43 5.25 1.07 1.11 1.05 0.05 2.61 1.70 2.72 3.22 6.72 8.03 6.17 8.41 9.02 12.50 11.85 10.99 11.68 12.98 12.18 10.72 9.16 8.81 8.19 6.46 6.64 5.45 4.42 3.61 0.07 -1.39 -3.60 -4.53 -0.84 -2.98 -1.85 2.74
20.66 20.74 15.62 7.17 5.47 4.08 6.28 5.49 4.62 4.03 2.93 3.37 0.83 2.58 3.73 6.87 5.10 4.63 4.03 0.78 2.37 3.74 8.59 7.19 7.24 7.53 11.19 12.39 12.55 13.93 16.89 11.55 12.19 12.25 12.05 12.43 12.04 11.26 12.10 10.90 7.75 6.88 6.39 5.92 3.17 2.20 -0.47 -3.75 -2.86 -1.34 1.25 -1.25 -1.50 -0.86
13.32 13.67 10.94 7.04 2.02 0.61 6.14 4.51 4.73 1.32 1.46 -0.68 1.86 4.95 3.85 7.70 5.04 1.49 7.20 6.28 4.66 6.24 7.49 7.85 9.59 11.09 11.08 11.35 11.25 12.99 13.69 11.99 16.63 21.10 22.25 20.65 18.92 15.80 11.70 7.79 7.21 6.77 6.41 6.05 4.21 2.62 0.84 -2.94 -3.27 -0.46 -0.59 -2.54 -3.29 -2.10

GFSWCAN_sfc_wetblb_006.txt.gz
Wetbulb
45.98 46.54 47.73 49.36 49.67 51.21 54.24 55.32 54.73 53.99 53.78 54.17 54.43 54.18 54.12 54.08 53.04 49.64 45.96 45.78 44.50 38.80 39.10 41.92 41.55 37.27 36.66 36.17 34.20 34.84 36.82 36.65 35.29 34.47 33.86 32.24 31.28 32.52 31.16 31.36 29.89 29.93 27.89 28.02 29.04 27.26 27.22 37.84 38.42 35.14 36.64 37.42 38.55 38.29
45.59 45.99 47.32 47.76 48.74 50.04 53.16 54.80 54.01 53.24 53.30 53.86 53.88 53.96 53.95 53.91 53.54 51.17 45.20 46.77 46.71 42.25 41.58 43.93 43.98 43.74 41.99 41.57 36.57 35.25 37.04 35.46 37.36 34.59 33.41 32.93 31.43 30.34 31.63 30.45 33.49 31.34 33.35 31.33 32.49 32.19 37.71 37.18 37.70 38.74 39.42 38.26 37.71 38.01
45.26 45.66 46.37 46.55 47.20 48.40 50.49 54.28 53.51 52.92 52.99 53.33 53.50 53.69 53.84 54.05 53.93 52.12 45.99 45.68 45.19 42.39 41.95 42.25 41.64 45.64 46.86 45.64 43.87 39.34 38.11 38.96 38.65 38.73 35.25 34.78 33.05 33.21 30.97 31.70 30.23 32.87 36.14 34.75 34.64 35.89 36.48 38.08 38.73 39.22 39.44 39.06 39.04 38.66
44.79 45.22 45.57 45.94 47.55 48.33 49.93 53.63 53.10 52.92 52.94 53.01 53.31 53.60 53.64 53.86 53.37 52.37 47.21 48.57 46.21 43.62 40.12 41.78 46.11 42.70 45.98 46.20 44.46 43.90 42.31 43.02 42.01 40.43 37.69 37.17 35.49 34.58 31.95 33.55 32.75 34.07 35.54 34.43 33.72 34.95 36.82 37.29 37.92 38.99 38.79 38.54 38.06 37.23
44.57 44.66 45.20 45.67 47.54 48.95 50.82 52.98 52.56 52.29 52.55 52.76 52.93 53.08 53.30 53.33 53.03 51.64 49.69 49.66 49.98 45.81 41.79 42.43 44.31 43.84 45.36 45.33 44.65 44.45 43.25 41.20 39.31 37.83 36.32 35.75 38.12 36.68 34.19 34.10 33.88 35.18 35.03 33.69 32.90 37.06 36.59 36.45 38.18 38.15 37.96 36.90 35.91 35.38
44.23 44.09 45.03 45.48 48.67 49.40 52.70 52.33 51.75 51.55 51.94 51.82 51.89 52.13 52.80 52.81 52.36 49.52 46.12 49.25 49.44 47.95 42.48 38.19 43.81 43.05 45.01 45.21 44.27 43.28 43.19 41.66 39.82 37.88 36.02 37.56 39.33 35.82 29.26 30.49 34.56 35.63 36.96 37.53 36.40 36.88 36.37 36.69 36.65 35.57 35.56 34.41 33.66 33.19
43.93 43.79 44.65 45.16 48.55 51.56 52.49 51.57 51.05 51.31 51.51 51.43 51.55 51.90 52.47 51.85 48.22 43.41 41.05 45.10 49.63 49.80 42.20 36.56 37.89 42.28 43.37 44.92 44.08 44.40 44.68 42.46 40.71 37.22 36.25 37.49 38.04 38.00 32.64 29.85 34.64 34.96 37.37 36.50 36.39 37.29 35.38 34.00 34.53 33.10 34.08 35.86 36.48 35.36
43.50 43.70 44.08 44.22 47.78 52.28 51.58 50.93 50.70 50.90 51.17 51.54 51.69 51.97 50.78 49.83 48.38 44.97 47.29 48.91 48.25 44.86 42.17 33.96 34.98 38.77 42.92 40.63 40.12 43.24 41.69 42.50 41.38 38.88 39.63 37.74 38.39 37.31 31.09 33.11 32.97 34.26 35.18 34.89 34.27 34.13 34.75 33.19 32.48 32.22 32.24 31.78 29.95 31.03
42.79 43.57 43.36 43.69 45.63 51.59 51.18 50.65 50.36 50.59 50.91 51.42 51.12 50.45 47.91 45.06 41.67 44.90 48.26 48.15 46.64 44.02 35.57 35.45 32.69 31.44 41.54 39.89 40.41 39.78 40.78 37.34 40.91 38.04 37.69 37.65 35.13 28.77 32.51 33.40 34.04 35.03 34.44 33.88 31.57 32.77 29.53 29.79 32.21 28.96 30.83 27.16 29.26 30.05
42.57 43.30 42.93 43.25 44.55 49.68 50.71 50.36 50.30 50.72 51.14 50.50 47.53 41.89 38.17 42.63 47.39 45.25 41.43 41.12 37.33 39.00 35.60 33.67 36.35 34.81 37.80 38.36 36.00 36.26 36.79 34.84 32.48 36.47 37.02 32.48 30.39 34.46 34.66 35.50 36.11 35.66 34.86 32.80 30.54 29.28 25.16 23.80 22.66 27.56 28.88 30.12 30.65 31.15
42.33 43.17 42.53 43.17 43.67 46.12 50.27 50.26 50.66 50.87 49.97 45.12 39.68 37.49 42.14 45.58 40.65 36.02 33.69 31.23 34.35 30.88 36.10 33.14 33.52 34.51 38.77 34.43 34.17 34.96 27.56 28.64 22.55 28.33 32.66 26.21 25.62 27.73 30.07 30.98 31.38 31.70 33.87 31.98 32.24 29.54 29.51 30.13 29.21 29.02 29.18 29.32 30.08 29.69
42.17 42.62 42.44 42.99 43.13 44.54 50.09 50.21 50.70 48.66 45.81 42.93 41.58 42.96 41.52 37.12 32.79 29.18 31.72 27.88 30.41 24.42 30.99 34.68 33.78 34.74 35.96 37.38 33.19 32.75 24.59 24.02 25.19 31.49 30.87 20.78 25.42 27.29 28.95 27.49 29.10 32.33 32.96 31.97 30.70 31.10 30.26 30.37 29.50 29.20 29.00 29.13 29.26 28.94
41.97 42.02 42.82 42.65 42.91 43.87 49.62 50.14 50.02 46.96 46.09 42.91 39.20 35.21 36.14 33.01 27.74 25.95 24.67 27.01 18.99 26.28 33.64 33.86 32.88 34.86 33.85 33.89 30.09 28.48 26.74 22.88 30.95 27.43 26.14 23.56 23.72 25.00 26.06 27.98 27.78 28.87 30.43 30.41 30.24 29.50 29.17 26.98 28.28 28.41 28.47 28.52 27.11 26.85
41.77 42.04 42.72 41.71 42.68 42.70 47.93 49.15 47.84 46.28 41.65 34.61 32.34 28.61 30.53 26.93 28.39 23.17 21.39 22.37 26.39 32.34 34.88 35.32 33.23 32.74 34.22 31.67 32.13 27.04 28.43 29.21 24.30 21.86 19.47 19.66 24.04 28.38 28.10 27.55 27.84 27.96 29.00 29.05 28.89 28.18 26.73 26.24 24.99 25.50 27.45 26.99 25.67 23.66
41.66 41.94 41.61 41.19 42.34 41.69 42.06 46.15 47.12 43.16 37.06 32.35 33.01 27.94 27.63 22.27 22.58 17.32 17.92 30.54 32.79 37.02 34.56 31.31 29.47 32.28 29.11 29.31 27.80 25.25 25.32 22.90 24.41 17.67 19.98 20.95 24.61 26.78 27.94 27.89 27.23 26.30 26.23 26.45 25.97 26.32 26.27 26.07 24.55 24.09 23.30 22.21 22.32 22.22
41.50 40.42 39.61 42.03 42.42 42.11 41.26 40.95 40.34 38.77 32.57 31.90 29.93 25.40 27.05 21.37 25.14 26.92 29.25 31.65 33.37 36.22 31.66 30.62 26.44 23.06 25.23 26.14 25.98 21.20 19.11 18.19 19.28 19.07 21.06 23.58 26.21 27.37 28.26 28.00 27.71 27.02 26.19 26.18 25.75 25.81 25.88 25.45 24.95 24.45 22.29 21.06 20.09 19.84
40.38 36.91 41.17 41.37 41.53 41.04 41.18 35.65 34.97 32.09 31.91 31.16 27.66 28.51 21.89 17.23 23.13 28.75 32.47 33.45 34.07 34.37 25.98 26.83 24.21 23.67 25.83 23.73 21.14 21.58 19.12 19.31 18.12 18.29 20.04 24.75 28.56 27.25 27.53 28.67 29.16 28.71 27.83 26.63 25.26 25.02 25.18 25.20 23.23 21.91 21.90 21.80 19.36 19.47
36.49 38.54 41.14 41.51 40.86 39.25 35.83 33.24 32.00 31.78 29.37 30.54 27.81 28.14 28.69 29.10 29.37 31.27 31.16 33.05 33.46 29.59 27.48 24.26 25.93 23.92 21.84 18.86 18.50 20.96 18.43 15.45 17.05 21.85 23.45 25.35 25.93 26.36 26.44 28.76 29.22 27.56 28.23 26.39 20.25 17.08 15.47 16.13 19.86 22.39 18.75 16.06 15.27 15.96
37.21 38.31 40.64 40.48 39.49 35.28 31.76 31.89 32.16 28.70 29.79 29.31 28.66 29.92 27.84 29.61 30.05 30.90 31.52 30.72 31.29 30.99 28.53 26.10 22.63 20.84 20.90 20.88 18.17 14.43 14.00 17.68 25.94 26.97 27.42 27.66 28.14 28.36 27.85 22.42 21.85 20.24 18.89 17.08 20.87 22.22 21.97 21.46 21.62 20.52 19.52 18.92 18.31 17.65
40.34 40.80 40.60 39.98 38.54 32.34 31.02 30.88 32.43 30.13 27.15 29.34 30.79 29.23 29.33 29.03 30.77 32.39 31.28 30.48 30.70 29.66 26.16 23.57 24.37 26.04 26.04 25.43 22.28 21.71 22.00 26.39 27.76 26.73 26.48 26.44 26.21 19.52 20.58 19.96 22.80 21.69 20.65 17.27 15.98 21.38 16.03 19.69 19.20 18.87 18.17 18.46 17.53 16.37
36.94 38.68 38.85 37.42 33.45 32.19 31.47 30.63 29.77 29.82 29.32 27.12 28.67 28.70 27.85 29.97 30.89 31.83 30.07 30.47 30.07 27.67 24.63 27.11 27.36 27.47 24.32 24.98 27.62 27.67 27.07 27.11 26.33 26.37 25.40 20.33 22.86 17.16 15.85 13.57 12.26 20.80 20.20 19.44 19.72 20.18 21.46 18.63 16.36 16.59 15.70 17.00 16.72 16.03
35.38 38.44 35.12 35.68 31.37 31.62 28.54 31.05 28.84 29.33 27.60 26.74 27.47 27.60 26.75 26.59 27.48 29.14 31.49 29.42 28.22 28.01 28.53 28.70 26.12 24.74 23.45 24.74 25.13 25.23 25.74 25.66 24.47 24.48 27.66 26.56 21.73 17.08 16.44 14.88 15.33 10.36 11.04 10.49 12.83 15.30 15.17 15.28 16.24 16.41 15.33 13.71 14.37 12.90
35.55 34.67 29.32 28.80 27.09 25.33 24.69 31.03 24.40 25.51 24.22 24.27 26.57 24.18 23.70 24.47 26.55 29.93 26.04 26.84 26.78 26.95 27.73 26.67 23.37 22.15 23.54 21.96 21.50 20.52 21.07 21.64 20.47 19.93 20.91 20.16 18.93 16.01 14.58 16.61 13.15 10.31 11.02 12.80 14.57 16.38 16.13 20.48 18.88 13.45 13.51 11.02 9.69 9.58
32.94 20.92 20.02 20.00 24.04 21.10 26.68 23.44 25.96 23.64 24.07 22.91 21.83 19.79 20.07 22.65 26.89 25.77 23.38 21.30 23.20 25.24 23.01 21.83 21.94 20.63 19.09 18.57 18.77 18.94 19.17 19.47 18.65 18.62 17.88 17.36 15.96 17.09 18.03 18.02 18.00 14.43 15.90 15.82 16.01 15.04 14.23 14.33 15.62 10.84 8.86 7.02 6.66 7.05
14.36 13.91 13.20 8.84 15.51 19.41 19.19 19.63 20.05 18.51 17.75 19.32 18.59 18.20 18.57 21.95 20.26 18.29 17.60 18.36 20.44 18.52 17.04 16.69 18.40 16.33 13.04 14.55 17.11 17.25 17.90 19.64 18.11 19.55 19.92 22.46 18.76 16.22 14.48 15.39 15.61 15.55 16.89 15.30 13.59 12.38 10.79 10.25 9.45 9.41 10.26 7.56 5.99 4.23
7.84 13.91 8.48 4.65 9.58 11.12 16.02 16.11 17.99 17.39 18.54 17.11 16.38 17.56 18.55 19.52 17.50 15.75 15.47 15.50 14.87 12.66 9.39 7.94 11.22 12.46 15.04 16.28 16.70 16.55 15.77 16.42 19.13 18.01 16.74 19.48 18.39 13.27 10.74 12.74 12.13 12.47 14.58 14.44 13.03 11.61 10.88 10.66 10.63 7.91 7.50 5.88 12.44 3.50
6.29 12.53 19.62 22.64 17.38 16.50 14.45 17.53 19.49 18.73 16.23 15.92 16.83 16.23 15.62 13.20 12.84 14.26 13.56 14.38 13.94 10.99 12.28 11.60 10.62 11.22 11.69 13.29 16.12 15.86 15.37 12.15 12.82 13.99 16.45 16.55 16.41 17.22 14.67 13.74 11.48 13.43 14.79 14.35 14.08 13.11 11.53 11.04 8.91 7.33 5.90 2.69 1.75 1.80
15.37 15.19 9.59 17.15 12.22 9.28 7.83 7.82 6.87 9.39 12.70 16.25 16.62 11.86 13.54 14.90 14.75 10.99 10.58 11.47 9.97 7.11 8.37 11.61 11.82 10.30 10.09 9.59 10.38 13.83 13.18 13.29 13.81 14.57 15.91 15.32 14.57 13.88 15.42 15.82 16.12 19.76 14.41 12.84 11.93 10.96 10.89 9.59 8.23 6.95 5.31 2.95 1.19 1.28
12.33 16.35 15.76 17.76 11.58 6.01 5.13 7.56 8.50 12.17 17.65 15.62 12.54 10.13 9.46 9.88 5.51 6.63 10.04 9.65 7.78 8.29 8.66 9.14 8.67 8.32 10.72 11.41 11.81 12.38 11.75 10.72 8.74 6.91 7.81 6.66 7.29 9.75 9.99 12.03 10.88 10.86 11.47 12.26 18.07 14.19 9.27 8.79 7.27 6.68 2.82 2.97 2.59 0.34
17.24 11.71 10.84 12.65 12.64 13.29 9.41 8.72 5.41 4.52 11.49 10.15 11.11 7.93 6.96 4.70 4.21 6.37 5.80 2.26 4.16 4.07 2.46 2.51 4.58 4.57 4.09 5.14 6.65 9.41 9.53 8.11 9.12 8.82 7.61 6.50 9.19 9.94 9.11 10.18 10.04 8.69 8.92 9.61 8.21 5.65 14.73 6.25 5.55 1.10 -0.05 0.10 0.96 1.33
13.20 8.37 4.65 5.83 5.26 0.91 1.86 10.70 9.81 12.49 4.39 -0.05 0.57 3.05 1.37 -2.65 3.34 4.28 0.17 0.49 -0.04 -1.45 2.10 0.69 1.20 0.70 5.03 4.00 0.28 3.91 5.21 8.44 7.39 9.08 10.74 12.73 11.87 10.32 8.92 9.66 9.33 8.33 6.87 5.27 3.86 2.91 -0.71 -1.87 -4.33 -5.70 -2.48 -4.50 -2.78 1.59
19.41 16.47 14.18 9.83 6.41 4.58 9.99 7.98 0.92 -0.90 0.60 0.46 -2.18 -1.00 1.01 2.17 0.96 1.03 3.16 -2.24 -1.13 1.23 6.60 2.36 2.80 3.84 5.88 7.14 8.71 9.79 16.40 11.90 12.08 13.08 13.51 12.67 11.39 11.37 11.64 10.35 7.27 7.80 7.08 5.47 3.21 1.91 -1.24 -4.12 -3.34 -2.93 0.22 -2.43 -2.50 -2.19
10.53 9.44 7.86 9.40 4.14 3.62 7.08 6.82 4.07 -0.64 -1.23 -2.41 0.63 3.95 1.95 7.25 4.49 1.37 6.32 4.98 2.30 3.62 6.27 5.89 7.82 10.33 10.59 10.84 11.55 13.52 14.35 12.06 16.73 20.11 20.59 19.36 18.02 15.11 10.20 8.49 7.55 7.29 6.68 5.78 3.88 2.22 0.32 -3.75 -4.25 -1.75 -1.45 -3.87 -4.39 -3.37

GFSWCAN_sfc_wetblb_009.txt.gz
Wetbulb
44.02 45.35 45.92 46.42 46.84 47.56 47.67 48.63 50.14 54.48 54.49 53.88 53.78 53.93 54.28 54.29 53.72 50.13 45.77 45.26 42.97 39.19 39.51 40.30 39.84 36.14 36.32 35.08 34.52 35.34 38.01 37.66 37.52 36.93 36.52 33.39 33.39 32.63 31.39 31.85 31.23 31.81 29.73 29.28 29.82 28.07 27.63 39.07 39.31 35.90 37.82 38.28 38.96 38.81
43.34 45.05 45.67 45.99 46.51 47.13 47.60 48.67 49.35 53.54 53.83 53.57 53.78 54.15 54.18 54.12 53.76 51.79 45.45 45.93 45.66 41.33 41.56 43.34 43.24 42.04 40.79 40.21 35.70 34.86 36.39 35.35 37.33 34.97 33.38 33.13 31.30 30.94 32.00 30.65 33.43 31.27 33.59 31.84 32.51 32.07 37.55 37.52 38.32 38.76 39.49 38.37 38.51 38.81
42.74 44.71 45.50 45.61 45.82 46.85 47.48 48.38 49.03 51.59 53.17 53.28 53.75 54.08 54.15 54.12 54.29 52.31 48.11 44.75 43.72 41.28 41.78 41.32 40.63 45.03 46.06 44.69 44.16 39.13 37.75 38.25 38.02 38.53 35.12 34.11 32.77 32.83 30.61 31.90 31.71 33.38 36.09 34.16 34.25 35.70 35.87 37.43 38.46 39.03 39.58 39.29 39.49 39.73
42.39 44.44 44.99 45.28 45.46 46.17 47.44 48.17 48.93 50.20 53.11 53.42 53.77 53.77 53.81 53.84 54.16 52.10 48.34 47.53 44.93 42.11 38.19 41.22 45.11 41.21 45.35 44.97 43.82 43.18 41.49 41.85 40.53 39.33 36.61 35.10 33.96 34.12 32.07 33.54 33.20 34.88 35.95 34.22 33.29 35.21 36.77 37.44 37.56 38.47 38.14 38.39 38.12 38.10
41.99 43.98 44.38 45.25 45.11 45.51 46.90 49.69 50.10 50.76 52.97 53.23 53.27 53.35 53.39 53.39 53.31 51.76 49.95 50.19 49.89 44.22 41.45 42.11 43.66 43.31 44.25 44.29 43.78 43.75 42.54 40.68 38.64 37.60 35.99 35.25 35.80 35.99 35.23 33.76 32.95 34.95 34.36 33.53 32.96 37.03 36.91 37.15 38.24 38.61 37.88 36.81 37.00 37.25
41.97 43.53 44.06 44.74 44.82 45.23 46.47 49.32 49.68 52.35 52.29 52.31 52.44 52.46 52.78 53.00 52.35 49.73 46.19 49.35 49.88 49.05 43.84 38.25 43.68 43.02 43.12 43.68 43.23 42.47 42.10 40.22 38.48 36.86 34.51 35.73 37.88 35.29 29.43 31.39 35.28 35.14 36.22 37.24 36.19 36.84 35.75 36.34 36.48 36.72 35.40 34.95 34.79 34.34
42.00 43.19 43.86 44.41 44.55 44.94 46.60 49.05 51.16 52.04 51.89 51.87 51.76 51.84 52.33 52.03 48.73 44.82 43.04 45.60 49.57 49.51 41.96 36.48 38.15 42.26 43.25 44.84 43.68 42.87 44.19 40.46 38.54 36.24 35.29 35.20 35.69 35.23 31.51 30.50 34.39 34.99 36.44 35.78 36.34 37.22 35.41 34.71 35.23 34.41 35.01 36.25 37.22 34.94
41.85 43.06 43.69 44.30 44.19 44.56 46.01 49.27 51.84 51.52 51.63 51.69 51.68 51.94 50.99 50.27 48.72 45.48 47.62 48.52 48.63 44.47 42.18 34.05 34.94 39.22 43.00 40.70 40.45 42.84 41.62 41.73 41.02 39.39 38.21 36.22 36.12 34.31 31.17 33.03 33.03 34.59 34.61 34.03 33.17 33.93 36.10 33.43 32.90 33.01 32.91 31.85 30.43 30.89
41.74 42.87 43.37 43.98 43.89 44.10 45.32 51.57 51.19 51.08 51.09 51.40 51.33 50.48 47.83 45.60 43.40 45.17 48.66 48.07 46.67 43.60 35.96 32.96 33.18 33.61 41.72 39.87 40.34 39.66 40.71 37.58 40.59 37.81 37.78 37.25 32.29 28.35 33.23 32.43 33.23 33.33 34.48 32.74 32.46 30.24 30.98 31.68 30.87 31.79 31.33 29.51 30.24 30.76
41.64 42.57 42.99 43.64 43.49 43.36 44.37 50.91 50.91 50.66 50.89 50.48 47.65 42.66 38.52 43.01 47.48 46.15 42.27 40.92 39.11 39.16 35.30 33.85 35.64 35.11 38.94 38.22 35.94 36.54 37.10 35.11 32.50 36.55 37.72 33.65 28.62 33.07 33.70 34.75 35.74 34.98 34.08 31.94 30.28 26.70 28.29 24.08 24.70 28.11 29.18 30.62 31.08 31.12
41.59 42.32 42.87 43.32 43.00 42.84 43.73 50.69 50.65 50.62 50.04 45.21 39.86 37.66 42.46 45.85 40.32 36.42 31.83 31.50 31.91 31.79 34.82 35.14 34.19 34.58 38.15 34.72 33.94 35.25 31.54 30.60 27.96 28.29 33.03 27.91 26.26 30.73 31.62 32.66 32.06 33.27 35.02 34.45 34.43 32.23 31.12 29.97 28.63 29.01 29.09 29.33 29.88 30.00
41.39 42.11 42.71 42.81 42.57 42.99 43.14 46.34 50.47 49.08 46.58 42.99 42.00 43.06 41.43 36.91 32.98 29.62 24.30 26.15 31.44 28.25 33.28 34.72 31.44 33.55 34.92 36.98 33.00 32.12 23.40 21.95 17.39 30.66 31.01 23.25 26.32 27.86 29.32 30.45 32.03 33.13 33.19 31.40 30.47 30.51 29.98 30.04 29.48 29.22 29.19 28.94 29.37 29.20
41.09 41.94 42.55 42.41 42.81 42.59 42.70 48.70 50.26 47.26 46.52 43.40 39.42 35.53 36.20 33.20 26.56 26.49 25.02 27.13 18.95 25.71 33.74 33.65 32.17 34.12 31.97 31.29 26.15 24.79 17.07 18.91 28.44 27.76 23.70 24.85 25.91 26.44 27.35 29.29 30.10 32.00 31.90 30.15 29.52 29.01 28.87 28.16 28.96 28.47 28.06 28.23 27.48 27.73
40.86 41.86 41.84 42.25 42.86 41.85 41.81 48.74 48.08 45.25 40.97 35.01 32.21 29.31 30.95 27.87 28.15 23.90 23.47 23.94 26.63 31.17 34.86 34.43 32.26 31.84 30.40 25.32 27.90 25.88 24.63 27.29 21.78 17.20 18.89 22.31 24.22 28.47 27.10 27.37 29.39 28.45 28.76 28.83 28.61 28.02 27.56 27.20 26.08 26.10 26.89 26.67 26.38 25.32
40.76 41.68 41.18 41.44 42.28 41.57 41.25 44.26 45.17 41.29 37.00 32.27 33.63 28.60 28.85 23.68 22.20 14.40 20.39 30.19 32.80 36.88 33.68 30.22 28.19 30.72 28.52 29.28 28.66 26.61 24.93 22.41 23.34 17.51 19.50 18.52 19.90 24.30 25.95 26.10 26.63 26.71 26.52 26.49 25.92 26.51 26.48 26.17 24.81 24.59 24.16 22.73 23.18 23.17
40.98 40.07 39.26 42.02 41.97 41.69 40.78 39.86 40.79 38.11 32.43 31.87 30.51 25.86 26.79 22.21 24.77 27.18 27.14 31.82 33.78 35.18 29.70 27.22 21.62 20.04 25.37 24.78 25.93 17.31 21.17 16.91 20.09 20.34 20.96 22.77 27.12 27.26 27.10 26.94 26.44 26.38 26.11 25.99 25.52 25.80 25.78 25.30 25.14 24.40 22.47 21.63 20.58 20.34
39.93 37.13 41.06 41.41 41.33 40.97 39.22 34.66 34.74 31.98 31.90 31.49 26.91 28.98 22.91 18.89 25.21 28.14 32.44 34.48 37.37 33.63 21.91 22.81 20.64 18.82 25.78 23.80 22.27 17.87 17.60 19.25 18.70 19.62 23.30 29.24 30.15 28.10 27.69 28.19 28.17 27.61 27.04 26.23 25.43 24.77 24.92 24.92 23.61 22.62 22.74 21.09 19.67 19.26
34.00 37.34 40.85 40.91 40.09 38.72 35.36 32.38 31.92 31.78 29.37 28.68 28.00 26.14 30.32 30.12 30.11 32.31 32.12 33.15 33.80 28.73 26.56 22.39 25.60 22.33 17.83 17.54 17.50 19.61 16.38 13.56 17.19 23.03 25.51 26.96 26.20 26.12 28.06 28.61 28.59 27.66 27.38 25.67 20.15 16.96 15.60 16.68 20.60 22.21 17.59 14.98 15.60 16.32
36.00 37.52 40.83 40.81 39.00 34.81 31.41 31.61 32.02 27.82 28.61 29.16 29.52 29.69 29.31 30.45 30.77 31.45 32.04 31.16 31.43 30.46 28.87 26.63 21.75 15.31 19.07 19.66 17.85 13.34 12.57 19.21 26.09 26.14 26.37 27.04 28.02 28.32 27.34 21.84 22.12 19.63 19.40 16.87 21.22 21.27 20.83 20.46 20.61 19.88 18.66 18.67 17.42 17.14
40.18 39.94 40.04 39.73 38.49 32.53 30.31 30.23 32.67 29.80 26.58 29.35 30.48 29.27 29.25 29.38 31.27 31.65 31.30 30.86 30.60 30.84 29.52 24.67 22.93 24.14 25.05 25.00 22.85 22.97 22.95 26.99 29.55 26.76 25.82 26.09 25.71 20.34 19.90 18.36 22.27 21.53 20.31 18.95 19.34 21.36 16.60 18.27 18.39 18.43 17.83 17.72 16.84 15.77
35.58 36.84 38.15 37.26 34.09 32.82 31.29 29.91 28.88 29.40 28.69 26.61 28.88 29.09 28.04 31.15 30.86 31.59 30.66 31.16 31.45 28.97 25.17 26.41 26.22 25.79 25.69 25.98 27.81 27.64 27.28 27.96 26.99 27.02 25.87 22.65 22.43 18.65 16.14 14.66 15.53 21.96 20.35 19.13 19.36 21.23 20.33 17.46 15.95 15.33 13.51 16.15 15.65 15.16
32.10 37.42 33.77 34.29 30.16 29.99 27.93 30.52 28.04 29.29 26.07 25.97 26.45 28.23 27.39 27.13 27.97 29.45 31.66 29.41 28.58 26.70 27.31 27.37 25.32 25.57 25.13 25.02 24.73 25.16 25.91 25.90 25.67 27.19 28.45 27.21 22.61 18.68 17.40 15.28 16.04 9.26 10.66 9.67 14.03 14.46 13.76 14.23 15.42 15.23 14.24 12.11 13.98 12.66
34.59 33.19 27.76 23.56 25.09 22.11 23.61 29.53 24.75 25.41 23.88 24.09 26.20 23.95 23.55 24.57 26.97 30.37 26.05 27.37 26.27 26.81 27.17 24.39 21.20 23.28 22.32 21.63 22.30 21.59 22.07 22.74 21.22 21.13 21.67 20.22 19.11 18.30 17.45 17.56 13.94 12.74 12.36 12.63 14.14 15.48 14.77 20.00 19.14 13.24 12.81 11.00 11.00 10.38
31.13 19.72 17.53 14.60 19.39 19.22 24.24 21.91 25.31 24.05 24.02 22.75 21.32 17.50 19.16 22.43 26.71 26.34 22.64 22.68 23.89 25.72 24.13 22.28 21.84 20.50 19.91 19.47 19.44 19.04 19.68 20.42 20.21 19.67 19.83 19.78 17.69 18.19 18.74 18.21 17.43 14.51 16.03 16.01 16.85 16.10 15.13 14.73 15.38 10.25 8.82 7.63 7.10 6.19
14.21 11.87 10.28 4.37 10.98 14.52 17.35 19.36 19.20 19.12 18.10 19.64 18.81 18.43 19.34 21.53 21.44 21.11 19.97 20.12 21.45 19.35 18.65 20.48 20.98 20.22 18.51 16.51 17.91 17.60 17.96 20.24 19.49 19.78 20.18 20.15 16.63 15.95 15.22 15.84 16.00 15.68 17.23 15.50 13.67 12.35 9.58 9.16 8.55 7.56 7.10 6.65 4.66 1.84
7.59 9.88 10.15 2.56 10.89 11.79 13.91 16.64 18.31 17.62 19.02 16.91 16.77 18.26 19.19 20.69 19.88 17.34 17.28 16.52 15.74 16.04 15.06 14.97 14.66 16.17 15.92 16.77 16.38 16.21 15.48 16.13 19.43 16.65 16.86 19.45 17.61 14.42 11.99 13.21 11.46 12.43 13.67 13.63 12.60 11.21 10.12 8.52 7.28 4.52 4.54 5.50 12.14 0.95
5.19 10.63 19.56 22.00 16.22 15.29 14.06 17.60 19.43 16.48 16.04 16.97 18.02 18.24 18.12 16.82 16.30 15.57 13.86 13.75 14.49 13.16 13.99 13.20 14.07 14.72 13.99 14.75 15.52 15.36 14.90 12.22 14.38 14.56 16.09 15.98 16.03 16.47 13.92 13.08 10.55 12.29 13.94 13.41 12.42 11.47 9.90 9.37 6.85 5.34 3.63 1.50 0.79 1.10
14.16 14.15 7.67 11.96 10.54 7.80 5.93 7.22 8.31 8.60 10.44 16.24 18.27 15.28 14.55 14.01 13.97 10.54 9.86 11.17 10.40 10.51 11.16 12.02 11.99 11.70 12.10 11.75 13.21 14.01 13.25 13.99 14.38 15.09 15.86 15.22 14.55 13.30 14.02 14.95 15.73 19.47 11.82 10.43 10.23 10.24 9.99 7.82 5.96 4.53 3.51 2.12 0.11 0.00
10.91 15.53 14.46 9.88 6.71 5.31 3.57 6.26 6.17 11.23 16.19 13.92 11.38 12.41 11.86 9.11 6.68 8.14 10.01 9.59 8.97 9.51 9.93 9.70 9.02 9.21 11.37 11.88 12.24 12.83 12.60 11.63 9.70 8.18 8.13 7.43 7.08 9.47 8.20 9.69 10.11 9.91 9.90 11.05 19.09 13.46 7.00 7.02 6.07 5.26 1.95 2.22 1.22 -2.43
16.77 10.69 10.48 13.79 12.54 11.80 6.43 6.61 4.03 7.53 10.12 8.77 10.86 9.03 7.72 5.75 5.98 7.67 8.19 7.04 7.82 5.90 3.86 4.31 4.25 4.16 5.39 8.08 8.50 9.90 9.86 8.29 8.53 9.13 8.21 4.86 6.04 6.66 4.55 7.25 7.82 7.31 7.89 7.44 6.55 6.22 15.01 5.78 5.54 0.77 -0.25 -0.12 -0.13 -0.49
12.41 6.95 4.75 4.55 4.64 0.38 2.19 11.03 9.37 10.83 2.87 -1.44 -1.33 2.82 2.17 0.58 5.42 5.91 3.25 3.00 2.92 2.66 4.58 3.13 2.46 1.99 6.54 6.42 2.03 4.29 6.15 7.16 5.54 6.14 6.65 10.84 10.32 9.11 9.19 8.59 6.08 4.39 4.25 4.30 3.35 2.39 -1.11 -2.47 -4.69 -5.71 -3.80 -6.60 -4.21 0.63
18.57 13.20 13.01 11.31 5.40 6.29 11.85 10.37 1.10 -2.03 1.21 -0.50 -2.28 -4.64 -2.01 1.20 -0.64 0.40 4.12 1.53 2.86 5.04 8.19 7.80 7.00 7.09 8.18 7.55 9.49 7.65 15.01 7.17 8.78 11.24 11.17 11.22 11.25 10.22 10.37 8.37 4.72 4.93 5.01 4.70 2.55 1.41 -2.01 -4.35 -3.48 -3.59 -1.06 -4.81 -3.91 -3.30
6.73 6.61 8.25 5.75 1.01 0.80 5.23 3.36 3.31 -2.39 -3.16 -5.20 -2.29 1.39 -0.48 4.45 1.77 1.63 5.94 3.72 2.79 3.85 5.72 5.63 6.58 9.49 10.44 11.10 11.54 13.74 14.89 10.98 12.89 19.64 19.63 18.50 17.57 14.04 8.22 6.77 6.21 5.99 6.16 4.94 3.07 1.69 -0.31 -4.26 -4.86 -3.09 -2.80 -5.31 -5.70 -4.62

GFSWCAN_sfc_wetblb_012.txt.gz
Wetbulb
43.58 43.68 43.05 44.37 45.79 46.38 46.81 47.33 48.21 49.05 49.77 50.34 54.23 53.63 53.64 54.20 53.62 50.94 48.93 49.51 48.27 43.29 44.88 44.99 43.68 40.12 39.25 41.22 38.29 38.58 41.40 40.89 40.85 40.06 39.08 36.65 36.31 39.16 36.91 38.44 38.05 37.02 36.46 35.87 37.98 34.68 32.66 43.31 42.22 40.63 43.28 44.51 45.07 45.42
43.16 43.51 42.88 43.87 45.48 46.13 46.52 46.73 47.59 48.53 48.97 49.93 53.89 53.54 53.74 54.20 53.88 52.26 48.09 49.13 49.43 46.24 45.53 46.75 46.99 46.56 44.38 43.70 40.47 38.16 43.29 41.37 43.71 40.00 40.22 39.39 36.78 36.51 38.26 34.46 38.18 36.79 41.43 38.08 39.54 39.21 41.37 42.39 42.86 43.67 46.66 44.26 43.93 43.95
42.90 43.21 42.78 43.59 45.21 45.95 46.27 46.44 47.28 48.95 49.02 49.69 53.74 53.75 54.23 54.46 54.43 52.49 49.12 49.01 48.23 47.09 46.75 46.01 45.06 48.30 48.66 47.69 47.92 43.46 42.76 43.28 42.81 44.73 41.90 40.79 38.87 39.42 36.90 37.82 37.78 38.00 40.61 39.78 38.30 39.76 40.17 41.45 42.38 43.96 45.48 43.92 44.31 44.49
42.92 42.84 42.67 43.29 44.99 45.67 45.94 46.06 47.15 48.44 49.70 50.07 53.95 54.16 54.05 54.13 54.28 52.68 48.59 49.95 49.67 47.63 43.37 43.97 47.88 46.37 48.52 47.97 47.20 46.65 45.35 45.30 45.15 45.77 43.66 42.21 40.35 39.27 39.21 39.63 40.13 40.77 40.99 39.58 37.45 39.26 40.71 41.53 43.16 43.27 42.69 43.25 42.84 43.00
42.93 42.73 42.96 43.02 45.09 45.30 45.70 45.70 46.54 48.54 50.34 49.94 53.48 53.69 53.58 53.51 53.68 52.39 50.67 50.19 51.52 48.58 43.33 43.50 45.95 46.91 47.74 47.41 46.51 47.16 46.82 46.32 46.07 44.67 44.24 42.43 41.04 40.92 39.29 40.07 39.48 41.02 41.04 40.45 40.73 43.46 43.68 42.99 43.18 43.60 42.90 42.41 43.05 41.76
42.99 42.75 42.82 42.91 45.01 44.92 45.39 45.44 46.40 48.35 50.41 51.06 52.82 52.82 52.90 53.00 52.70 50.20 46.10 49.65 50.68 50.80 45.34 40.90 45.82 45.06 46.67 47.54 46.87 46.12 46.01 44.99 44.73 44.63 42.33 42.46 42.35 42.51 40.95 39.69 41.94 42.16 42.07 42.64 43.13 44.54 41.90 44.52 43.77 43.56 42.10 41.20 40.99 41.24
42.69 42.69 42.62 42.84 44.70 44.66 45.11 45.02 45.91 48.66 50.29 52.32 52.32 52.27 52.34 52.50 50.64 46.00 44.57 47.59 50.35 49.90 43.25 38.01 40.32 43.96 44.95 46.69 46.48 46.59 46.85 45.25 45.64 42.46 41.75 42.26 41.80 42.14 40.10 38.93 41.47 41.55 42.38 41.26 41.89 41.70 39.09 41.64 40.54 41.38 40.90 40.33 39.85 38.80
42.43 42.56 42.49 42.74 44.36 44.45 44.66 44.58 45.45 47.65 51.79 52.25 51.99 51.90 51.87 50.55 49.23 46.29 48.84 49.13 49.79 46.11 43.22 35.10 36.37 40.37 44.39 42.69 42.98 44.82 44.68 45.47 43.67 42.61 41.57 41.50 40.91 40.55 37.71 40.75 38.77 40.77 40.50 40.51 39.46 39.47 42.87 40.35 39.53 38.77 39.18 37.58 35.68 35.96
42.15 42.35 42.22 42.74 43.93 44.06 44.14 44.35 45.24 49.08 51.71 51.55 51.57 50.91 48.57 46.65 44.40 45.98 48.47 48.10 47.35 44.79 36.97 36.72 35.15 34.74 43.15 40.40 41.10 40.52 42.24 39.28 42.15 40.61 40.13 40.65 39.15 37.10 41.53 39.91 38.78 39.03 40.11 38.09 36.25 37.28 38.28 37.59 35.96 34.91 34.93 35.07 35.60 35.40
42.02 42.13 41.89 42.64 43.51 43.62 43.99 43.80 45.75 51.27 51.10 50.71 48.81 44.26 39.95 43.92 48.20 47.73 45.93 43.68 40.79 39.98 39.25 36.82 39.85 36.68 40.08 38.96 36.96 38.15 38.46 36.35 33.83 37.25 39.05 36.01 37.84 40.04 39.47 40.81 41.56 40.47 38.78 37.03 34.51 32.56 33.05 31.82 32.78 33.65 35.54 36.44 36.54 36.02
41.88 41.88 41.61 42.79 43.01 43.63 43.64 43.37 48.70 50.87 50.16 45.69 40.46 38.75 43.69 46.56 43.24 39.20 37.41 38.46 37.46 35.32 37.44 37.38 38.54 36.95 40.17 36.04 34.96 36.80 33.89 34.24 32.80 34.34 35.83 33.29 31.52 36.08 37.31 37.76 39.25 38.80 38.34 40.43 42.10 40.39 39.40 37.88 35.48 34.30 33.99 34.91 35.32 35.49
41.59 41.65 41.49 42.65 42.77 43.66 42.87 43.27 46.45 49.05 47.19 43.77 42.81 43.41 41.80 38.90 36.32 34.52 33.76 32.60 33.42 33.51 35.34 35.76 36.14 38.26 37.30 38.86 35.26 33.89 31.73 30.97 29.52 34.41 32.42 28.98 33.25 32.72 36.29 36.62 37.84 38.43 38.75 37.29 39.06 36.64 35.74 35.50 35.80 35.21 34.61 34.27 34.58 34.78
41.40 41.19 41.76 42.38 42.76 43.07 42.54 43.05 46.01 47.80 46.55 43.47 40.38 36.10 37.94 35.13 30.52 29.78 27.66 29.79 29.20 31.95 34.45 34.45 33.51 35.63 35.86 36.88 32.66 31.84 29.25 29.55 33.72 30.01 27.77 31.65 31.34 31.88 34.27 36.07 36.27 37.53 35.77 34.88 34.35 34.71 34.46 33.29 33.88 34.19 33.46 33.71 33.91 33.69
41.23 40.75 41.89 41.88 42.63 42.84 41.75 42.08 47.60 46.44 41.72 36.08 32.69 31.17 32.38 30.56 32.08 31.47 31.66 32.03 33.43 34.86 35.26 35.69 33.42 34.89 34.59 33.42 32.11 28.12 28.99 30.59 25.42 23.19 25.24 30.57 31.54 32.50 32.76 34.98 36.25 33.98 34.30 34.06 33.23 33.18 32.81 32.74 32.02 32.10 32.70 32.98 32.67 31.86
40.69 40.95 41.27 41.67 42.16 42.15 41.03 41.24 44.17 41.57 37.29 32.92 34.78 30.99 31.60 29.17 26.56 25.13 28.34 31.90 34.53 38.12 35.06 33.63 33.60 33.80 31.30 30.79 30.73 28.15 25.83 23.72 25.76 24.77 29.48 30.80 30.42 30.46 31.63 34.48 35.04 32.84 32.89 32.54 32.43 32.12 31.51 31.21 30.93 30.00 29.55 29.48 30.01 29.26
40.39 40.01 39.02 41.84 41.84 41.79 40.10 39.47 40.70 38.15 32.34 32.12 31.59 27.90 28.11 28.22 27.27 28.61 30.42 33.12 36.39 37.00 34.66 34.35 29.46 28.99 27.25 29.78 26.62 24.94 24.20 22.91 28.02 31.09 31.35 29.61 30.94 31.36 32.00 34.30 33.46 32.54 32.98 32.20 31.85 31.36 30.52 30.42 30.27 30.23 28.19 27.57 26.61 26.78
39.49 36.46 40.57 41.68 41.58 40.84 39.20 34.87 35.91 32.25 31.96 31.38 29.01 30.62 27.39 27.91 29.05 30.09 33.77 35.38 38.77 35.16 30.94 31.10 28.71 26.81 29.16 26.02 25.45 26.54 25.37 29.71 30.12 29.15 29.82 32.91 31.55 30.72 30.93 30.51 30.08 30.18 30.66 30.70 30.03 30.25 29.51 29.08 28.70 28.32 27.59 24.47 24.84 24.13
35.27 37.69 40.74 41.36 40.58 38.29 35.80 32.38 32.01 31.94 29.05 29.91 29.49 29.60 31.35 31.29 30.97 32.45 33.95 35.81 35.86 31.50 30.24 30.15 29.82 26.68 26.02 24.32 25.01 28.71 27.98 25.03 24.72 29.39 30.58 30.90 31.34 31.36 31.95 31.73 31.26 31.08 30.30 29.34 28.31 26.28 25.58 26.42 27.43 26.45 23.65 21.95 21.84 22.43
37.46 39.06 40.27 40.58 39.32 35.00 31.85 31.89 32.20 28.34 28.66 30.08 30.64 31.12 31.58 31.60 33.34 33.89 33.83 32.09 32.19 32.26 31.07 30.37 27.34 25.55 26.29 27.53 28.00 25.66 26.40 28.49 28.63 29.74 30.01 31.08 32.14 31.77 30.25 29.73 28.47 27.89 26.87 25.80 26.29 26.41 26.23 26.57 26.79 25.41 23.55 23.52 22.80 22.70
39.46 39.42 39.52 39.46 38.79 33.16 30.54 30.67 33.18 30.57 27.58 30.25 31.69 30.41 30.60 31.07 32.58 32.58 31.92 31.86 32.92 33.17 32.26 29.28 27.05 27.51 28.34 28.75 28.18 29.37 28.79 30.92 30.87 29.30 28.40 28.80 28.79 29.13 28.89 29.23 27.76 25.37 24.44 24.34 24.98 24.78 23.53 22.62 23.23 23.35 23.15 23.21 22.46 21.35
35.50 36.53 37.22 37.04 34.54 33.19 30.76 28.78 29.14 29.93 29.63 27.85 30.08 30.57 29.57 32.42 32.07 31.98 31.83 33.15 32.79 31.76 29.39 28.20 27.84 27.51 28.83 29.42 30.17 31.17 30.13 32.12 32.71 32.92 29.95 27.22 25.70 25.19 23.65 24.11 25.60 26.16 25.95 25.49 25.44 25.83 24.13 22.85 22.28 23.18 22.77 20.76 20.63 21.20
33.30 36.97 33.36 33.38 31.01 30.08 29.08 31.00 28.77 30.03 28.16 27.89 28.44 30.03 29.08 28.85 29.71 30.85 32.26 31.27 30.06 28.75 29.42 29.18 27.86 28.27 27.20 25.72 26.31 27.72 28.05 28.97 28.83 29.58 30.07 28.23 24.84 24.42 23.77 24.15 25.37 23.32 24.05 24.80 24.68 22.25 20.54 20.44 20.48 20.08 19.61 19.38 20.06 19.80
33.89 31.10 26.17 24.55 23.62 24.34 24.13 30.42 26.11 26.55 24.69 25.33 27.23 25.11 24.69 26.08 28.11 31.74 27.11 28.11 26.79 26.89 27.41 25.74 24.53 25.19 23.85 23.89 24.09 23.35 24.52 25.50 24.32 23.87 23.24 22.39 22.19 22.42 22.40 21.77 22.90 22.52 21.12 19.12 20.98 20.25 19.58 21.95 20.51 17.83 18.26 17.14 17.12 15.76
30.40 21.40 18.92 17.49 18.07 18.19 24.86 23.14 25.89 24.58 24.81 23.24 22.02 19.19 20.40 23.80 27.08 27.36 22.76 22.90 24.48 25.62 25.37 23.82 24.21 22.96 23.72 23.28 21.47 21.11 21.97 23.38 22.47 22.20 22.92 23.28 21.73 20.18 20.93 20.52 20.52 20.32 20.70 19.64 20.01 19.27 18.43 18.21 18.47 15.99 15.92 15.48 14.83 13.81
15.87 13.34 13.23 7.39 13.27 16.24 17.45 20.51 20.75 20.73 19.14 20.69 19.90 19.71 20.78 22.63 23.27 22.17 20.58 20.94 21.27 20.60 21.87 23.46 23.99 23.41 20.95 19.54 19.91 19.77 20.57 23.47 22.71 21.49 21.63 21.46 19.42 18.81 17.95 18.06 17.83 18.38 20.34 19.06 17.07 16.15 14.69 14.97 15.29 15.25 15.08 15.06 13.32 10.95
8.48 13.96 11.11 9.94 13.97 12.56 15.67 17.21 19.27 19.23 19.81 18.10 18.14 20.10 21.39 23.05 20.76 17.45 16.79 16.29 16.47 16.97 17.10 20.43 21.88 20.96 19.44 20.53 19.46 19.44 18.71 20.37 21.85 19.71 19.57 21.20 20.41 19.55 17.62 16.98 16.93 16.98 18.00 18.70 16.70 14.58 13.90 14.07 13.87 12.88 12.63 12.83 14.69 9.98
6.62 10.15 19.98 22.15 17.73 16.17 15.40 18.90 19.95 19.66 19.19 18.53 19.15 19.84 20.77 17.60 16.64 14.75 15.25 13.22 14.86 14.54 15.40 15.81 18.46 20.04 18.56 17.07 16.83 16.85 16.94 17.28 19.04 18.20 17.79 17.68 17.84 19.14 19.27 17.90 16.20 16.41 17.27 17.27 16.83 15.90 14.35 13.71 13.15 12.73 11.89 11.18 10.43 9.73
15.07 15.22 9.40 12.08 12.26 10.83 8.40 9.73 11.70 13.60 15.52 18.37 21.08 17.76 17.31 14.77 13.74 10.39 10.88 12.36 12.71 13.92 13.99 14.28 15.11 16.45 16.51 16.21 16.71 16.14 15.88 16.32 16.47 16.90 17.04 16.27 15.57 15.58 16.68 17.40 17.90 19.57 16.68 15.96 15.83 15.33 14.99 14.41 13.43 12.45 11.06 10.62 9.66 8.85
12.42 16.45 16.03 5.58 6.41 8.58 7.38 8.75 10.85 14.59 15.39 15.80 15.94 14.91 12.27 8.69 7.47 9.12 10.21 11.10 12.04 14.18 14.06 13.41 12.54 14.43 14.36 14.45 14.80 15.34 15.62 16.12 15.45 13.12 12.18 11.71 12.96 13.52 13.91 15.57 15.62 16.10 17.72 18.72 19.56 15.37 12.34 13.18 12.85 11.63 9.29 9.17 8.64 7.24
16.67 13.25 11.54 14.09 12.78 10.18 8.51 8.85 8.79 11.30 12.53 11.12 12.31 10.38 9.01 7.12 7.19 9.05 9.76 10.06 11.02 10.86 9.85 11.68 11.00 13.08 12.74 13.34 12.83 13.19 13.07 13.29 13.95 14.88 12.73 11.71 12.62 12.06 12.11 12.57 12.21 12.13 13.02 14.87 14.90 16.67 15.93 11.15 11.06 8.21 7.42 7.33 7.24 7.23
14.30 9.60 6.31 8.94 9.66 5.00 6.32 12.10 11.66 10.85 5.62 4.50 3.49 7.44 6.40 5.46 7.27 7.09 5.86 5.75 6.67 7.57 9.68 9.56 8.54 9.85 12.01 12.02 11.75 12.77 13.38 13.34 10.86 10.95 12.20 12.90 11.73 11.25 11.35 11.21 10.56 10.62 10.73 10.59 10.32 9.80 8.20 7.07 6.30 5.38 5.66 3.26 2.23 4.84
18.18 15.74 14.43 11.80 6.61 7.56 11.99 10.68 4.25 2.46 3.12 4.20 2.62 0.71 2.92 6.05 3.37 4.00 5.52 4.57 6.34 8.36 10.62 9.34 10.05 10.55 10.57 10.94 11.54 11.54 15.80 11.65 12.26 13.30 12.71 12.28 12.38 12.53 12.23 11.06 10.05 10.76 10.63 9.85 9.12 8.19 5.58 5.22 5.77 5.20 5.05 2.81 1.49 1.07
9.86 10.55 8.09 5.37 2.42 2.03 6.07 4.39 4.35 -1.16 0.55 -0.52 1.10 2.92 2.34 6.82 3.21 3.68 7.04 6.74 5.12 6.51 8.89 9.95 10.44 12.23 12.55 13.19 13.81 15.30 15.68 13.95 15.79 19.35 19.54 18.56 17.60 15.25 12.29 11.40 11.46 11.20 10.45 9.73 8.69 7.51 5.25 3.23 3.25 2.84 2.26 -0.21 -1.02 -0.76

GFSWCAN_sfc_wetblb_015.txt.gz
Wetbulb
44.48 44.20 44.15 43.73 43.78 44.18 45.21 46.70 46.87 47.29 47.69 49.04 49.34 49.71 53.80 53.80 53.93 51.51 48.87 49.32 48.93 46.55 47.10 46.39 45.46 41.72 40.96 42.44 40.25 39.70 42.42 43.79 44.68 40.61 39.64 39.81 39.55 40.60 40.65 42.63 39.91 38.18 36.17 36.24 38.26 35.38 33.24 45.49 43.71 41.01 44.60 46.37 46.88 47.63
44.38 44.00 44.01 43.55 43.49 43.88 44.98 46.60 46.49 46.89 47.34 48.48 49.78 49.91 53.66 53.73 53.76 52.66 48.22 49.93 51.80 48.10 47.20 48.56 48.31 47.79 45.37 43.89 42.00 40.05 43.16 42.79 46.05 41.91 42.32 41.44 38.05 40.51 41.50 35.85 41.61 38.95 43.35 41.26 42.28 41.43 43.69 45.61 45.01 46.57 48.29 46.89 47.10 46.73
44.04 43.90 43.86 43.87 43.40 43.88 44.83 46.16 46.37 46.62 47.19 48.55 49.27 50.80 53.83 53.97 54.30 52.65 49.17 49.33 49.20 46.79 47.58 46.85 46.08 48.86 50.03 48.35 48.13 42.81 43.77 45.31 44.03 46.64 44.02 43.40 39.23 42.25 38.91 40.51 40.84 41.13 42.32 42.32 40.75 42.06 42.88 44.63 44.80 46.48 48.52 47.06 47.10 46.63
43.87 43.80 43.78 43.73 43.51 43.64 44.62 45.93 46.16 46.49 47.14 48.75 49.82 50.83 53.70 53.90 54.27 52.29 48.66 49.95 50.98 49.37 44.49 45.24 49.44 47.57 49.73 49.39 47.93 47.94 45.90 46.51 47.26 47.07 44.13 43.06 42.03 42.44 41.61 42.26 41.88 42.26 41.70 42.10 40.80 41.25 42.13 43.32 44.86 45.18 45.22 45.60 44.78 45.37
43.83 43.65 43.66 43.48 43.43 43.41 44.45 45.47 45.98 46.06 46.69 48.02 49.70 50.71 53.59 53.70 53.89 52.81 51.08 50.32 52.77 49.57 44.46 44.03 47.66 47.91 49.08 48.84 47.61 47.75 47.25 47.56 46.91 44.86 45.12 43.58 42.61 41.98 41.82 42.06 41.39 42.81 43.06 40.91 41.02 44.91 45.34 44.53 45.53 45.59 44.06 43.52 43.84 42.86
43.54 43.59 43.40 43.21 43.25 43.25 44.29 45.07 45.53 45.57 46.13 47.53 50.18 51.36 53.21 53.17 53.07 50.70 46.03 50.17 52.14 51.91 46.05 41.29 47.25 46.27 47.89 49.29 48.30 47.61 47.87 47.72 48.41 48.02 45.78 44.97 44.41 44.32 42.15 41.04 45.78 45.37 45.85 45.44 44.85 46.80 46.06 45.81 45.16 46.05 44.33 44.17 44.51 43.92
43.50 43.45 43.22 42.97 43.11 42.96 44.27 44.75 45.03 45.37 46.01 47.66 50.23 52.50 52.51 52.51 52.17 47.09 45.17 48.18 51.41 52.31 45.12 40.04 40.89 45.93 46.84 48.15 48.13 48.11 48.82 47.40 48.26 46.03 45.78 45.51 44.37 44.46 43.18 41.13 46.02 45.18 45.31 44.27 45.30 45.02 42.69 43.80 42.30 44.79 43.76 43.02 42.92 41.83
43.12 43.19 43.14 42.80 42.90 42.82 44.37 44.36 44.95 45.23 45.94 47.62 50.12 52.17 52.20 51.36 49.56 47.22 48.75 50.04 50.86 45.93 44.50 38.14 37.82 41.73 45.98 44.95 44.21 46.95 46.64 47.48 45.80 45.06 44.45 44.47 43.30 43.44 39.88 44.79 44.46 44.86 44.52 43.76 43.48 43.28 45.17 45.09 43.70 42.39 41.87 40.36 38.52 38.19
43.16 43.16 43.07 42.62 42.57 42.82 44.08 44.52 44.76 44.66 45.98 47.11 51.82 51.14 49.38 47.13 44.69 47.00 48.29 48.96 48.42 46.07 37.73 37.40 35.47 35.40 44.40 41.60 43.56 44.59 45.76 43.26 44.47 43.42 43.44 43.16 42.96 39.37 44.12 45.14 42.45 43.63 42.45 41.66 40.97 41.50 41.72 40.60 39.09 38.49 38.16 38.23 37.78 37.60
43.19 43.12 42.69 42.28 42.13 43.16 43.68 44.47 44.22 44.49 45.83 50.88 49.38 44.75 40.58 44.52 48.65 47.87 44.57 43.62 41.32 41.09 40.25 39.02 42.73 37.62 41.24 39.79 37.69 39.46 40.26 38.83 34.94 38.95 41.29 38.85 39.68 44.97 44.20 44.67 45.25 43.82 43.14 39.39 36.26 34.10 33.91 34.08 35.70 36.90 37.95 38.98 38.97 37.99
43.14 42.85 42.13 42.06 41.96 43.13 43.70 44.10 43.64 44.60 50.42 46.10 41.61 40.10 44.92 47.68 44.76 40.84 38.01 39.75 39.80 36.03 39.51 39.83 41.61 37.95 41.25 37.30 36.02 37.81 35.29 35.67 34.44 36.94 37.53 37.04 35.08 39.88 41.70 41.88 44.24 43.76 41.28 42.05 44.07 41.67 41.18 39.51 38.76 37.50 36.90 37.34 37.53 37.34
42.73 42.25 41.84 41.52 42.57 43.05 43.76 43.52 42.94 41.43 46.90 44.34 43.45 44.12 42.64 40.13 39.16 35.76 36.77 35.63 33.85 36.13 36.84 37.61 39.36 41.28 38.63 39.81 36.33 34.83 34.67 34.84 32.30 36.85 34.75 31.03 36.71 35.56 38.99 40.37 41.61 41.82 42.28 42.34 42.52 41.96 41.24 39.37 38.43 37.41 36.46 36.08 36.55 36.88
42.21 41.64 41.58 41.44 42.49 43.49 42.78 43.00 42.26 43.41 47.10 44.28 41.24 36.62 39.07 36.67 32.11 31.52 29.27 31.13 31.58 35.92 35.85 36.29 35.44 37.56 37.57 38.70 34.86 34.86 32.21 32.72 35.31 31.34 30.23 34.39 33.50 35.54 38.41 39.55 40.16 41.52 40.69 40.05 38.03 37.29 36.46 35.96 36.32 36.12 35.40 36.32 36.36 35.76
41.47 41.50 40.88 41.91 42.04 42.65 42.48 42.38 41.33 44.28 42.82 37.19 34.69 31.47 34.05 31.27 33.54 35.17 35.59 35.73 37.77 37.14 35.84 37.21 35.91 36.74 37.35 35.86 35.23 31.80 32.66 32.49 28.47 26.24 28.01 34.14 34.15 36.31 38.26 39.07 37.53 36.69 37.14 36.12 35.37 35.21 34.62 34.53 34.14 35.33 35.59 35.85 35.27 33.93
41.24 40.76 41.37 41.09 41.95 42.51 42.25 40.92 41.07 41.86 38.07 33.13 35.57 32.48 32.28 33.03 30.33 31.00 33.56 34.59 36.87 38.80 37.35 36.37 37.32 35.93 34.18 32.07 32.68 29.40 27.00 26.06 28.51 28.83 33.39 34.10 34.48 34.94 36.83 38.45 36.89 35.94 35.63 35.08 35.28 34.36 33.93 33.74 33.59 32.18 32.80 33.12 32.58 31.53
40.52 40.55 39.80 41.11 41.86 41.82 41.61 38.18 39.62 38.52 32.41 32.75 32.72 30.50 31.00 31.68 29.11 29.66 32.43 33.97 38.77 38.24 38.66 39.26 33.24 31.85 29.17 32.35 28.22 27.79 26.66 26.44 32.22 35.26 35.02 34.07 33.79 35.64 37.63 35.62 35.52 35.22 34.87 34.58 34.59 33.86 33.06 32.97 32.90 31.47 30.76 30.08 29.01 29.15
39.76 37.41 40.30 40.46 41.19 41.30 39.61 33.80 35.26 32.26 31.94 31.94 30.93 33.76 32.68 34.04 32.91 32.85 35.04 36.52 39.87 36.49 35.15 35.57 31.40 30.81 31.75 28.21 28.35 31.25 28.92 33.55 34.18 32.70 34.65 34.85 34.24 35.69 37.23 33.58 33.15 33.54 34.07 33.74 32.85 32.96 32.49 31.89 31.75 30.89 28.24 26.61 27.11 26.56
36.93 39.82 40.38 40.63 40.67 38.82 36.03 32.70 31.97 31.96 29.52 31.44 31.27 31.13 32.97 33.42 33.10 34.30 36.04 38.52 38.20 35.93 35.29 33.52 32.84 28.45 28.24 26.96 28.44 32.79 31.79 29.77 31.38 33.50 33.49 32.67 33.28 34.17 33.26 32.54 32.23 32.32 31.98 31.52 30.49 29.48 29.52 29.61 30.17 28.69 25.67 24.72 24.13 24.57
39.63 39.99 40.04 40.17 39.41 35.34 32.14 32.30 32.21 29.22 29.81 31.48 31.76 32.50 32.74 33.23 35.45 35.99 35.86 34.34 34.76 35.32 33.29 33.16 31.47 30.36 30.44 33.05 32.70 31.19 30.88 31.41 31.36 32.39 33.03 34.13 34.51 33.43 32.37 31.64 31.32 30.64 29.64 29.53 30.17 29.89 29.94 30.49 29.98 27.78 25.96 26.01 24.98 24.90
39.33 38.70 39.30 39.16 38.78 33.68 31.07 31.24 33.81 31.66 29.19 30.91 32.88 31.42 32.14 32.35 33.52 34.03 33.17 33.58 34.86 34.55 33.43 32.25 29.70 29.98 30.28 30.77 31.72 32.85 32.97 33.93 31.84 30.19 30.08 31.77 32.60 32.14 31.81 31.58 29.75 28.74 28.32 27.94 27.91 28.09 26.42 25.46 25.93 26.02 26.01 25.77 24.32 23.42
37.17 37.66 37.95 37.51 35.29 34.14 30.89 29.44 30.25 30.24 31.23 29.89 31.61 32.06 31.14 33.32 32.45 32.39 31.97 34.19 32.68 32.21 29.76 29.58 29.28 28.94 30.72 31.58 33.04 33.55 33.12 34.60 33.58 33.46 30.49 28.18 28.88 29.41 28.93 28.72 29.46 28.68 28.42 28.14 26.91 26.96 26.68 24.70 24.66 25.73 24.89 23.15 23.09 22.52
35.79 36.92 34.56 34.57 32.22 31.71 30.56 31.24 28.79 31.18 30.48 29.67 30.37 31.60 30.95 30.93 31.65 31.94 32.30 31.97 30.46 29.66 30.74 30.12 29.82 29.48 28.74 28.06 28.92 30.79 31.33 31.81 31.42 31.01 30.46 29.62 26.73 26.90 27.18 28.10 28.09 27.72 28.65 29.00 28.27 25.68 23.96 23.42 23.46 23.07 22.29 21.92 22.07 20.59
34.72 33.10 31.10 29.64 26.32 26.82 25.78 31.48 27.19 27.94 25.97 26.74 28.59 26.68 26.11 27.88 29.45 32.47 28.20 28.63 27.33 27.76 29.40 28.03 27.09 27.29 25.71 26.28 26.61 26.28 28.61 28.81 27.05 26.50 26.20 25.47 25.52 26.01 26.19 26.24 27.30 25.70 23.97 23.93 25.26 23.74 22.31 23.70 22.80 20.95 21.24 20.43 19.51 17.90
31.47 24.23 21.24 20.98 22.00 20.60 26.45 24.92 26.90 25.67 26.05 24.35 23.70 22.00 22.60 25.25 28.04 27.76 23.49 24.22 24.89 27.75 26.31 25.78 26.34 24.86 25.65 25.19 23.62 23.41 24.78 25.93 24.85 25.20 26.16 25.28 23.59 23.14 23.94 23.60 24.03 24.62 24.22 23.41 23.42 22.54 21.04 20.49 20.86 19.15 18.73 17.81 17.25 16.64
20.29 17.26 19.04 13.81 21.08 19.70 19.77 22.26 22.63 22.40 20.72 21.94 21.89 21.74 22.48 24.17 24.73 22.62 21.25 21.26 21.65 22.69 25.24 26.39 26.56 27.47 23.99 22.01 22.45 22.09 23.88 26.53 24.88 22.47 23.50 24.43 22.10 21.30 20.50 20.46 20.48 21.36 23.14 21.35 19.69 18.89 17.78 17.97 18.07 17.60 17.25 17.01 15.31 14.00
12.55 17.47 17.14 17.15 17.87 18.25 18.33 19.37 20.45 21.23 21.53 20.55 20.17 22.48 23.67 24.78 21.15 16.85 16.08 15.54 16.71 16.93 17.00 20.49 24.30 22.99 21.81 23.45 22.20 21.96 20.63 23.73 25.01 21.73 21.44 23.53 24.19 23.79 21.63 20.03 18.79 17.85 21.15 21.33 19.05 17.01 16.57 17.03 16.37 15.84 15.77 16.68 16.50 13.42
12.25 15.99 21.49 24.01 20.80 19.66 19.08 21.35 22.04 21.56 20.01 19.23 21.18 22.27 22.83 18.83 16.17 14.32 15.98 13.94 15.00 15.06 16.30 17.42 21.06 22.55 19.81 18.25 18.74 19.02 19.59 20.24 21.66 20.09 19.77 19.58 20.15 22.12 23.26 21.54 19.62 18.33 20.17 20.14 19.45 18.52 16.85 15.95 15.39 15.28 14.13 13.86 13.05 12.45
19.89 19.56 14.08 17.51 17.69 16.82 14.81 15.60 17.16 17.05 18.42 20.07 22.19 17.65 17.62 14.34 13.46 11.56 11.88 14.01 14.19 16.24 16.30 16.85 18.17 19.78 19.16 18.59 18.86 18.41 18.19 18.59 18.64 19.06 19.15 18.23 18.06 19.23 19.03 19.59 20.08 21.67 19.71 19.20 18.69 18.29 17.70 16.91 15.82 14.81 13.51 13.21 12.18 11.78
19.52 20.40 20.21 8.02 13.54 16.73 14.55 15.37 16.21 16.97 15.96 17.00 18.29 16.35 12.59 9.82 9.26 9.94 11.46 12.61 14.71 17.45 17.05 15.78 15.87 17.79 17.23 17.51 18.28 18.95 19.50 20.09 19.09 16.54 15.17 14.64 15.07 14.90 18.55 18.93 19.13 19.65 19.42 19.10 20.45 17.47 15.09 15.69 14.98 13.66 11.91 11.60 10.91 10.25
18.68 20.45 16.97 13.86 8.96 13.84 14.90 12.83 15.27 16.08 15.43 13.86 14.84 12.36 11.14 9.62 9.57 11.16 11.68 12.19 12.91 12.14 12.87 14.45 15.62 17.87 16.86 16.58 15.47 15.61 16.10 16.76 17.34 18.71 16.18 15.16 15.08 15.37 16.47 16.50 16.42 17.11 18.90 19.21 18.50 18.08 19.06 14.80 14.20 11.34 10.32 10.22 10.07 9.73
18.58 17.77 14.83 14.90 13.83 12.95 12.90 14.62 14.95 14.38 12.59 11.65 11.00 13.12 10.16 9.31 9.87 9.78 8.89 8.73 10.39 12.70 14.72 13.99 13.58 15.27 16.22 16.24 16.46 16.28 15.67 15.70 13.93 14.59 16.43 15.80 15.00 15.04 14.46 14.06 14.19 14.71 15.27 15.16 14.09 13.02 11.78 10.30 9.82 8.52 8.38 5.26 3.98 6.15
19.09 16.85 16.21 12.83 11.59 12.53 13.97 13.92 11.46 11.25 11.71 13.48 10.29 9.72 8.82 11.38 10.01 7.93 7.77 8.52 11.28 12.50 14.98 14.13 13.99 13.11 14.25 14.70 15.46 16.13 18.25 15.31 15.57 16.04 15.31 14.64 14.44 13.82 13.55 13.05 13.28 13.92 13.44 12.47 11.76 10.35 7.76 7.66 8.39 7.01 6.66 4.23 2.90 2.39
15.19 14.78 11.57 10.18 9.36 9.99 11.88 12.00 10.68 9.63 9.51 8.57 7.44 7.43 7.56 9.81 8.92 6.16 9.33 9.43 8.23 9.74 12.05 12.92 13.96 14.95 15.05 15.97 16.42 16.94 16.68 15.46 16.43 19.64 19.94 19.01 17.91 15.75 13.72 13.61 13.77 13.23 12.30 11.73 10.81 9.67 7.49 4.65 5.00 4.36 3.50 0.79 0.09 0.50

GFSWCAN_sfc_wetblb_018.txt.gz
Wetbulb
45.01 44.95 45.06 44.83 44.66 44.75 44.22 44.83 45.59 46.79 47.10 47.50 47.96 48.75 50.33 50.98 53.98 52.33 48.98 50.07 48.13 44.70 45.62 46.02 45.94 41.58 42.32 42.05 38.75 40.54 41.10 42.44 43.07 38.71 38.73 38.53 37.36 38.52 38.01 39.50 36.59 36.34 35.34 35.80 36.12 33.75 30.70 42.16 40.98 37.33 40.94 41.81 43.02 43.50
44.41 44.20 44.66 44.68 44.56 44.47 44.03 44.38 45.29 46.46 46.70 47.23 47.70 48.90 49.98 50.75 53.80 52.96 47.98 49.83 50.53 46.51 46.61 47.97 48.25 47.71 45.70 45.42 41.83 41.32 42.09 42.93 45.57 42.05 40.56 39.15 36.47 37.68 36.83 35.02 41.93 36.66 39.42 37.84 38.16 38.09 42.40 43.02 42.52 43.23 45.26 42.98 42.89 42.08
44.30 44.45 44.53 44.74 44.36 44.40 44.11 44.09 45.06 46.24 46.43 47.08 47.59 48.88 50.28 50.65 53.97 52.86 48.64 49.13 48.63 45.81 45.91 45.65 44.79 47.89 48.90 48.04 48.02 42.47 43.21 45.12 44.43 45.15 43.06 40.67 37.43 39.31 33.89 35.04 35.60 37.93 39.30 37.78 38.79 38.31 39.24 41.50 42.27 42.86 44.53 43.31 43.52 43.27
44.16 44.29 44.41 44.53 44.27 43.97 43.97 43.96 44.68 45.94 46.25 46.76 47.75 48.80 49.62 50.67 53.86 52.67 48.77 49.58 49.42 47.77 42.91 44.02 48.72 46.51 49.24 48.70 47.67 47.51 46.18 46.14 46.36 46.57 43.65 41.60 40.62 41.33 39.95 38.40 37.21 37.96 38.73 38.03 37.04 38.60 40.02 41.46 41.79 42.58 42.46 42.82 42.60 42.83
44.01 44.06 44.26 44.20 44.11 43.62 43.80 43.74 44.37 45.83 45.91 46.36 47.16 48.09 49.19 50.69 53.47 52.65 51.09 50.45 51.46 48.07 43.28 43.45 46.74 47.32 48.25 47.93 46.47 47.05 46.27 45.84 44.31 43.23 43.27 41.65 41.45 40.19 39.91 38.98 38.09 39.96 39.32 37.92 37.81 42.43 41.35 40.26 42.16 43.22 41.83 41.28 41.42 41.23
43.99 44.02 43.99 43.58 43.94 43.60 43.59 43.42 44.14 45.53 45.67 46.20 46.57 47.51 50.34 51.12 53.10 50.58 45.62 50.31 51.18 50.60 46.00 39.63 46.49 44.95 46.59 47.34 46.05 45.22 46.10 46.08 45.41 45.15 43.56 43.13 43.41 41.35 36.47 36.70 43.16 42.40 42.94 43.13 41.10 42.49 42.87 42.92 42.62 42.86 41.34 41.17 41.18 40.12
43.50 43.86 43.97 43.41 43.80 43.58 43.28 43.10 44.16 44.93 45.82 45.70 46.32 47.32 48.73 52.17 52.10 47.02 45.04 48.30 51.69 51.30 44.63 38.68 39.63 44.90 45.58 46.85 46.57 45.83 46.66 45.48 45.22 43.48 42.74 42.20 41.16 40.86 40.41 38.45 42.58 41.96 41.52 41.67 42.96 42.85 39.82 40.96 39.98 41.73 41.34 41.03 41.11 38.78
43.82 43.89 43.97 43.89 43.87 43.43 42.92 43.04 44.43 44.87 45.35 45.46 46.43 48.05 49.17 52.16 50.21 47.60 48.88 50.72 50.87 46.73 45.15 36.38 37.41 41.12 45.17 43.91 42.29 44.85 44.09 44.63 43.65 42.70 41.58 41.37 40.42 40.35 37.09 41.49 40.69 41.07 40.90 40.33 39.57 40.84 41.26 41.26 40.47 38.64 37.78 36.83 35.20 35.00
43.82 43.79 43.91 43.74 43.52 42.88 42.58 43.69 44.55 45.02 44.86 44.89 46.33 48.06 49.89 47.60 44.84 46.20 49.17 48.95 48.01 46.16 38.19 37.41 34.85 34.98 44.23 41.65 42.34 42.81 43.65 41.13 42.24 41.12 40.44 40.09 39.16 34.58 40.65 41.57 39.60 39.97 38.87 37.73 37.67 38.29 38.88 37.59 36.35 35.49 34.92 34.37 34.44 34.27
43.77 43.69 43.62 43.35 42.80 42.41 42.65 43.89 44.67 44.29 43.74 44.99 45.34 45.17 40.56 44.74 48.61 48.02 45.19 42.65 40.46 40.69 40.64 38.32 41.55 37.11 40.61 40.04 37.85 38.66 38.69 37.19 33.89 37.67 38.41 35.69 34.54 41.61 42.03 41.82 41.16 40.54 38.78 38.01 34.87 34.10 34.97 32.50 33.77 34.06 34.26 34.89 35.02 34.31
43.77 43.55 43.15 42.68 42.26 41.86 43.25 44.08 43.75 43.60 44.20 45.73 42.29 39.75 45.08 48.21 44.45 42.09 37.56 37.19 38.52 34.94 38.60 39.42 40.44 37.52 40.95 37.11 36.06 37.40 34.27 33.74 32.68 33.58 35.19 33.37 34.00 37.72 37.88 38.72 40.55 39.33 38.83 38.35 38.56 36.88 37.33 37.00 35.54 34.23 33.68 34.22 33.98 33.68
43.31 42.93 42.52 42.09 41.68 42.35 42.93 43.82 43.55 39.68 35.15 38.62 42.15 44.03 42.76 39.88 37.84 35.11 34.69 34.16 34.28 32.72 36.49 37.67 37.98 39.47 38.09 39.62 35.97 35.50 33.10 32.37 31.11 33.69 33.02 29.72 32.64 32.63 35.98 37.27 38.47 38.38 38.85 39.02 39.36 38.40 37.85 36.01 35.11 34.32 33.56 33.06 33.44 34.16
42.76 42.25 42.02 41.61 41.68 42.53 42.62 43.60 43.32 41.77 41.41 43.01 40.88 35.83 38.05 35.15 32.22 29.98 28.31 30.30 31.52 35.07 34.68 34.80 34.28 35.45 36.36 35.63 33.68 33.16 28.11 30.95 32.25 30.21 29.42 29.68 29.61 33.27 34.98 37.27 37.36 38.78 40.62 38.71 36.82 35.12 34.37 33.75 33.78 33.79 32.83 33.37 33.22 32.66
41.96 41.77 41.19 41.53 41.75 41.82 41.97 42.97 42.39 39.10 36.55 35.54 32.01 31.45 33.12 30.99 31.34 31.14 30.94 31.51 33.79 35.08 35.66 35.83 34.15 34.34 34.98 32.50 32.23 23.98 28.85 29.55 22.04 20.57 23.29 28.07 29.80 33.71 35.12 35.68 34.90 34.05 34.95 34.19 33.30 33.10 32.66 32.83 32.14 32.64 32.69 32.32 31.67 29.93
41.48 40.95 41.18 40.78 40.98 41.35 41.93 42.54 40.43 37.91 34.87 31.95 32.57 32.14 31.62 31.82 30.46 31.66 32.81 33.07 35.47 38.00 36.34 34.35 33.34 33.85 30.19 27.09 28.90 28.05 24.78 17.42 25.09 24.70 28.36 28.14 29.00 32.42 33.57 33.67 32.64 32.71 33.00 33.03 33.37 31.76 31.32 31.03 30.15 28.54 28.77 28.64 28.30 27.17
41.20 40.75 39.43 40.49 41.04 41.40 42.00 38.63 36.72 38.05 32.02 31.88 32.01 30.44 32.40 31.36 28.51 30.58 32.56 33.54 37.26 38.22 35.33 34.33 28.83 23.82 23.31 25.93 21.48 19.40 20.66 20.51 25.53 28.53 27.21 28.00 31.53 33.35 32.64 31.91 32.02 32.80 33.49 32.66 31.29 30.50 29.59 29.01 27.56 26.21 25.67 25.28 25.40 24.96
40.62 36.47 40.44 40.81 40.92 41.01 40.31 34.58 33.37 31.90 31.88 31.79 30.66 32.99 32.53 29.35 29.23 31.00 34.57 36.42 39.73 36.73 31.80 30.02 24.17 21.33 29.67 21.72 20.21 25.44 23.67 27.59 26.46 25.15 26.59 27.18 30.97 32.15 31.72 30.19 29.96 31.39 31.61 30.37 29.61 29.33 28.35 27.75 26.80 25.35 22.68 22.23 22.19 22.05
36.00 38.64 40.75 40.44 39.87 38.72 36.55 32.62 31.86 31.81 29.49 31.37 30.74 31.12 31.15 31.95 31.86 33.47 35.23 37.97 35.98 32.25 32.14 31.70 30.44 26.32 21.94 19.62 21.58 27.40 27.15 22.00 25.25 27.16 26.90 31.15 31.23 30.04 30.21 28.94 29.61 29.82 28.25 27.49 26.44 24.98 25.16 26.02 25.21 23.26 21.75 20.81 20.34 20.23
38.21 38.30 39.77 40.09 38.90 35.43 31.80 32.50 31.92 28.95 29.40 31.34 31.37 31.90 32.87 33.50 34.84 35.09 36.04 35.47 33.17 33.46 33.02 31.97 29.06 23.48 24.42 25.65 25.58 25.07 25.81 24.23 27.63 27.67 29.12 30.60 30.79 30.01 29.98 30.16 29.28 27.96 26.81 25.56 26.76 26.57 25.56 25.70 24.40 23.10 22.04 21.89 20.72 20.46
39.67 39.08 39.50 39.29 38.27 32.38 29.87 30.63 33.08 30.66 28.22 30.15 32.14 31.17 31.49 31.29 32.87 33.38 33.08 33.05 33.63 33.07 31.38 26.59 26.09 25.99 26.62 27.35 27.92 30.08 28.89 31.10 30.18 27.86 27.42 28.86 30.94 31.12 30.02 29.26 27.24 26.27 25.73 25.17 25.42 26.09 22.86 22.66 22.74 22.38 21.79 21.62 20.85 19.75
37.21 37.10 37.59 36.68 34.70 32.84 30.17 28.55 29.14 29.49 29.99 29.59 31.34 31.63 30.78 32.61 31.97 31.99 31.96 33.43 32.51 31.85 28.17 27.62 27.02 27.86 29.38 29.55 30.87 31.60 30.83 31.86 30.04 31.39 28.47 26.99 28.85 28.31 26.74 26.01 26.03 26.60 25.38 24.52 24.46 24.85 22.63 20.66 20.69 20.35 18.56 20.11 19.67 19.30
34.58 36.95 32.90 33.60 26.96 27.20 28.89 31.06 27.68 29.77 29.45 29.26 30.12 31.41 30.49 30.14 30.85 31.06 31.92 30.90 28.92 28.56 30.25 29.41 28.62 28.33 27.23 26.51 27.47 29.58 30.54 30.86 30.59 30.34 30.80 29.66 26.14 25.96 25.43 25.11 25.98 25.02 24.90 23.63 22.59 20.80 20.13 19.50 19.85 19.87 19.93 18.58 18.61 16.31
34.31 32.35 28.50 24.90 18.96 20.44 23.24 30.69 26.20 27.22 24.74 25.97 28.30 26.58 25.87 27.10 28.53 31.43 26.97 27.37 25.91 27.52 28.58 27.34 26.88 27.13 25.64 25.93 26.45 26.80 28.96 29.27 27.09 26.40 25.91 24.90 25.22 25.55 25.31 25.21 25.13 23.80 21.76 21.24 21.76 20.20 18.70 22.98 22.33 18.53 19.15 16.39 15.02 13.73
31.83 21.12 16.42 16.58 16.92 12.51 23.56 23.11 27.45 25.39 25.73 24.25 23.43 22.05 21.37 23.89 27.13 26.57 22.22 22.05 24.09 27.42 26.31 26.02 25.74 24.35 24.78 23.80 22.51 23.35 24.73 26.14 24.93 24.85 25.45 24.49 22.31 21.56 22.84 22.03 22.25 20.82 21.14 21.26 20.08 18.07 17.27 17.45 20.30 15.66 14.30 13.08 11.88 11.03
14.94 12.53 13.00 5.71 13.82 13.11 11.47 17.95 21.77 22.53 20.47 21.70 21.32 21.22 21.82 23.84 23.73 21.23 19.43 18.74 20.05 18.73 22.10 26.26 24.80 24.38 21.85 21.19 21.45 21.76 24.00 25.28 24.07 21.67 22.32 22.52 20.83 19.77 18.53 19.21 19.51 19.72 21.00 18.90 17.35 16.40 14.25 14.35 13.94 13.44 12.89 11.53 9.51 7.35
7.39 9.74 9.74 9.87 9.86 10.79 13.31 12.26 16.67 19.90 21.59 20.50 20.61 23.10 23.53 23.73 18.75 13.77 13.74 13.11 14.93 14.66 14.79 16.03 21.04 21.97 21.06 22.12 20.85 20.40 19.85 22.89 23.15 20.53 20.17 21.95 21.79 19.65 17.27 16.46 15.59 14.96 17.43 18.15 16.25 14.57 13.75 12.97 12.59 11.19 11.12 12.72 17.26 7.66
5.68 7.41 19.32 23.13 18.73 18.05 14.74 18.21 19.17 19.62 17.67 17.21 19.64 21.08 21.57 17.14 12.80 12.53 14.72 12.79 13.25 14.06 15.94 17.01 20.60 20.21 18.41 17.96 18.63 18.99 19.49 20.69 20.10 18.25 18.68 18.56 18.68 19.55 19.35 18.42 14.94 14.62 17.13 16.32 15.46 15.02 13.42 12.36 11.54 10.68 9.38 7.09 5.23 5.42
16.61 15.67 8.26 11.23 13.44 13.14 8.79 9.36 9.24 9.92 14.99 18.31 20.92 15.06 14.42 11.14 10.20 10.41 11.29 13.72 13.81 15.30 16.97 17.60 18.80 19.56 18.69 18.38 18.66 18.46 18.14 18.36 18.11 18.31 18.18 17.49 18.21 17.89 17.75 18.85 19.69 22.25 16.68 15.01 14.29 13.71 13.55 12.08 10.83 9.83 8.59 6.08 3.83 4.55
14.08 17.97 15.97 3.91 6.26 9.05 6.92 7.18 9.10 13.19 14.75 14.20 14.89 13.35 10.73 9.33 9.11 8.83 11.36 12.28 14.65 17.67 16.40 15.97 16.38 17.92 17.73 18.19 18.84 19.27 19.90 20.02 18.56 15.65 13.68 12.59 11.22 12.90 14.72 16.88 16.63 16.41 15.47 17.34 21.32 15.78 11.30 10.80 10.22 8.54 6.63 6.85 4.32 2.33
12.46 15.68 10.67 3.56 3.33 6.17 6.63 8.18 8.60 11.60 12.34 11.96 13.30 11.15 10.87 9.56 9.79 11.68 11.46 11.13 11.65 11.95 13.74 15.23 17.67 18.40 16.87 16.51 15.46 15.17 15.71 16.06 17.17 17.56 14.75 12.84 11.68 13.19 14.19 15.33 16.18 15.87 14.62 15.09 15.52 17.04 19.70 11.42 11.02 5.74 4.64 4.23 4.08 3.24
16.08 11.72 6.97 8.21 4.90 4.76 6.25 10.60 10.43 12.84 7.45 4.38 7.54 7.96 7.82 7.82 10.14 10.39 9.09 9.28 11.06 14.37 15.69 14.45 14.72 17.28 17.57 17.19 16.72 15.72 13.87 14.30 14.11 15.42 15.54 14.97 14.57 13.31 12.66 12.59 12.87 13.13 12.68 10.98 9.72 8.48 6.01 3.39 0.91 0.07 -0.11 -2.89 -2.61 0.15
16.75 8.85 5.42 4.38 2.57 5.63 6.92 4.41 3.15 2.42 3.01 2.82 1.10 1.57 4.35 9.87 8.38 7.30 8.05 8.53 13.28 13.32 16.71 15.87 14.37 12.69 14.92 15.33 15.78 17.61 18.64 14.53 15.12 15.23 14.36 13.14 11.99 11.32 11.54 11.10 9.96 10.44 10.40 9.05 6.88 5.34 1.52 0.35 0.72 0.37 1.07 -3.20 -4.34 -4.11
9.52 6.46 3.29 1.23 0.04 1.01 4.81 2.03 2.38 -0.04 0.54 -1.93 -0.62 1.48 -0.12 3.55 2.73 2.95 6.95 7.04 6.29 8.51 11.02 12.71 13.94 14.49 14.57 14.85 15.10 16.01 16.07 14.50 17.30 21.05 20.47 18.86 17.74 15.19 12.30 11.53 11.43 10.57 9.87 8.64 6.78 4.89 2.40 -1.68 -1.48 -1.23 -2.67 -5.75 -7.26 -5.54

GFSWCAN_sfc_wetblb_021.txt.gz
Wetbulb
44.81 44.79 45.03 45.21 45.15 45.37 45.05 45.07 44.47 44.79 45.84 46.84 47.43 47.83 48.58 49.77 50.53 51.35 48.57 50.71 48.22 43.96 45.31 45.89 44.15 40.26 42.45 42.13 38.45 40.98 41.14 42.21 42.29 38.68 38.36 38.44 37.00 37.25 35.20 38.83 35.90 35.79 35.38 35.48 35.57 33.27 28.41 39.96 38.62 34.96 38.87 39.73 40.28 39.69
44.38 44.50 44.79 44.97 44.99 45.14 44.84 44.56 44.32 44.42 45.32 46.38 47.10 47.51 48.54 49.40 50.51 52.07 47.27 50.14 50.95 46.33 45.85 48.20 46.61 46.72 45.42 46.99 43.72 41.84 42.02 42.82 44.57 40.68 38.39 40.32 37.19 35.52 35.74 34.27 38.22 36.06 38.78 37.36 36.70 37.30 42.08 40.86 40.29 42.04 42.57 40.94 39.71 39.41
44.07 44.20 44.59 44.84 44.84 44.85 44.72 44.12 44.11 44.48 44.89 46.14 46.88 47.55 48.39 49.40 50.26 52.36 48.25 49.23 48.48 45.30 44.90 45.71 44.07 45.96 48.07 47.23 48.69 42.72 43.57 45.50 44.09 44.00 42.56 40.83 36.28 37.54 32.82 33.76 35.14 37.96 39.23 36.98 37.57 38.43 37.95 39.82 40.79 42.21 42.34 41.21 40.96 40.85
43.89 44.11 44.46 44.71 44.60 44.48 44.46 44.01 43.89 44.14 44.82 46.17 46.96 47.53 47.90 49.07 50.09 51.65 48.52 49.64 49.16 46.77 41.69 42.35 47.55 44.60 48.39 48.03 47.70 48.25 46.50 46.52 46.67 45.08 43.13 40.73 38.21 39.29 37.64 36.80 35.94 36.60 38.29 37.15 35.74 36.90 38.12 39.15 39.87 40.72 40.55 41.19 40.79 40.84
44.30 44.29 44.27 44.43 44.44 44.26 44.27 44.24 43.61 43.73 44.62 45.99 46.48 46.65 47.31 48.94 50.41 52.09 50.50 50.06 51.50 47.60 42.64 42.38 45.26 45.66 46.85 47.05 46.65 47.63 47.09 46.32 44.99 44.04 42.85 41.30 42.00 38.64 39.24 38.82 36.86 37.54 37.09 36.34 36.57 40.28 39.44 38.99 40.63 41.59 41.10 40.32 41.14 40.42
44.19 44.51 44.07 44.23 44.36 44.33 44.31 44.22 43.34 43.41 44.50 45.39 46.11 46.20 46.95 48.22 49.19 50.51 45.34 50.10 51.05 50.55 44.83 38.90 45.87 43.80 45.19 45.65 45.62 45.19 45.97 45.20 45.19 44.80 43.78 43.06 43.42 41.99 34.64 34.16 40.60 39.63 41.15 42.48 41.11 42.04 41.25 41.36 40.95 40.82 40.02 39.50 40.01 39.67
44.42 44.50 44.45 44.43 44.38 44.33 44.18 43.58 42.97 43.56 44.95 45.75 45.57 45.68 46.58 48.09 48.72 46.88 44.69 46.68 51.41 51.22 44.54 37.43 39.10 44.27 44.90 45.44 45.03 45.26 45.66 45.13 44.71 42.43 42.56 40.99 40.12 40.99 39.23 36.91 41.81 40.08 40.41 40.87 41.69 42.16 39.12 39.71 38.72 40.22 40.25 39.63 39.75 38.04
44.56 44.59 44.38 44.25 44.21 43.98 43.62 42.91 42.98 44.10 45.43 44.84 44.96 45.23 46.57 48.12 50.19 47.38 48.79 50.82 51.57 47.27 45.07 35.22 36.82 40.51 44.97 43.04 40.91 43.80 43.22 44.07 42.33 42.09 41.05 40.30 39.44 39.77 36.97 40.61 38.89 38.99 39.29 38.86 39.43 40.04 40.99 39.81 38.66 37.51 37.76 37.25 35.67 35.11
44.44 44.39 44.30 44.13 43.83 43.46 42.82 42.44 43.72 44.60 44.41 44.44 44.71 45.56 46.63 47.87 45.46 46.04 48.78 48.67 48.41 46.20 38.69 37.21 34.55 34.06 43.57 41.51 41.93 41.58 41.51 38.64 40.36 38.27 38.67 38.93 38.29 34.94 38.61 39.69 38.05 38.38 38.66 37.33 36.72 37.70 38.51 37.08 35.40 34.33 34.18 34.20 34.09 33.45
44.25 44.05 43.91 43.57 43.21 42.59 42.20 42.92 43.64 44.68 44.30 44.34 43.57 43.33 40.62 45.14 48.89 48.46 45.69 43.24 40.50 40.90 41.12 38.17 41.22 37.23 40.32 39.83 37.61 36.98 37.48 36.09 33.99 37.42 36.61 34.34 34.61 40.46 41.57 41.12 39.45 38.33 37.70 37.45 35.18 31.69 33.47 32.03 33.35 32.77 33.09 33.80 34.39 33.61
43.61 43.37 43.15 42.79 42.31 41.95 42.06 43.10 43.19 44.39 41.07 40.70 40.37 39.86 45.01 48.67 44.69 42.60 37.41 37.14 38.07 34.53 38.74 39.79 39.83 37.35 40.10 36.73 36.27 35.31 33.31 33.66 32.62 34.21 35.53 33.27 33.68 37.32 36.04 37.15 37.91 37.71 38.07 37.80 37.43 36.86 37.26 36.84 34.72 32.73 32.42 33.01 33.44 33.43
43.14 42.72 42.35 42.11 41.64 42.06 42.57 42.31 42.61 41.43 36.99 35.74 35.10 38.97 43.26 40.36 37.19 35.23 35.36 34.15 34.89 34.05 37.10 37.98 38.84 40.15 38.69 40.05 36.46 35.14 32.66 32.30 30.27 33.05 32.54 30.26 32.96 32.42 34.58 34.64 35.71 36.58 37.48 36.81 37.54 36.79 35.62 33.69 33.99 33.69 32.98 33.02 32.54 32.47
42.27 42.06 41.68 41.41 41.85 41.83 41.63 42.11 42.88 43.04 40.40 39.40 36.55 34.80 34.68 34.63 31.81 31.47 29.32 31.53 31.65 34.68 35.48 35.89 34.51 35.69 36.53 37.44 33.57 30.85 25.84 25.36 31.20 25.99 27.32 29.94 30.10 32.10 33.61 35.19 35.50 36.97 37.55 37.35 36.81 35.33 34.51 32.80 33.46 33.57 32.24 32.57 32.54 32.05
41.92 41.63 41.65 41.55 41.55 41.28 41.82 41.86 43.08 39.81 33.81 32.47 31.74 30.00 31.35 28.93 29.71 30.51 32.44 30.01 32.11 33.21 34.79 36.06 34.52 34.33 35.55 33.12 32.63 25.60 28.53 28.23 21.80 21.86 22.50 27.20 29.10 32.50 33.64 34.34 34.10 32.99 34.26 34.61 34.19 34.11 33.34 32.75 31.80 32.42 32.66 32.25 31.94 30.63
41.71 41.94 41.55 40.44 40.81 41.37 41.47 41.84 41.36 37.67 33.22 31.01 31.78 30.37 31.57 30.14 29.64 31.19 30.78 34.57 33.46 37.72 36.47 33.76 32.05 31.83 26.76 30.29 27.29 26.89 22.94 18.92 23.94 23.85 26.56 22.90 26.23 29.63 30.21 30.91 31.25 31.92 33.32 32.93 33.31 32.61 32.11 31.46 30.24 28.56 28.78 28.29 27.57 25.57
41.81 40.60 37.30 40.47 41.23 41.19 41.07 39.44 36.98 37.31 31.92 31.19 31.57 30.48 32.44 30.05 28.18 30.44 32.09 33.19 35.14 38.06 33.78 31.98 25.90 20.10 21.91 23.05 19.14 16.81 20.11 19.74 25.06 27.45 24.92 25.39 30.09 30.27 29.18 30.12 31.37 33.53 33.24 32.60 32.33 31.05 29.49 28.57 27.12 25.03 24.55 24.01 23.21 23.24
41.07 33.08 39.75 40.73 40.62 40.57 40.23 35.40 34.03 31.90 31.68 31.48 29.81 32.16 31.63 23.14 24.43 29.43 33.75 35.62 39.50 36.46 30.35 26.34 20.62 21.05 23.65 16.23 16.50 20.84 21.45 25.67 28.95 22.82 22.89 24.65 29.26 28.46 29.41 29.54 29.78 31.61 31.58 30.91 29.90 28.23 26.05 25.27 24.43 23.66 21.11 20.14 21.13 21.21
33.17 35.86 39.91 40.36 39.25 38.04 36.59 33.24 31.52 31.49 28.53 30.00 29.48 30.31 32.16 31.21 28.84 32.27 34.85 37.67 35.11 30.35 29.94 26.11 27.20 19.27 19.38 17.48 17.97 23.18 22.73 18.69 20.43 24.78 27.07 28.66 27.32 28.20 29.42 28.10 29.14 29.97 29.28 28.46 26.46 25.11 24.51 23.07 22.10 20.66 19.96 19.75 19.29 19.46
37.05 37.50 39.72 39.84 38.54 34.93 30.75 31.35 31.55 27.59 28.36 30.33 29.91 31.58 32.10 33.32 33.83 34.07 35.30 33.99 32.38 33.13 32.66 28.58 22.36 19.60 22.75 23.74 22.70 18.57 18.38 21.96 26.39 26.81 27.18 27.83 28.79 28.50 28.28 28.73 29.21 28.28 27.62 26.39 26.38 25.33 24.17 23.71 22.38 21.73 21.06 21.13 19.58 19.57
39.89 39.32 39.32 38.97 37.63 31.49 21.75 24.89 32.41 29.10 26.69 29.06 31.53 30.79 31.07 31.08 32.50 32.77 32.67 32.34 31.99 31.36 28.40 22.59 24.54 25.90 25.67 26.03 24.81 24.40 25.62 28.64 29.19 27.45 26.13 27.28 28.44 29.43 29.60 29.28 27.80 26.48 25.12 24.22 24.21 25.39 22.37 21.95 22.46 21.82 20.80 20.94 20.26 19.27
35.60 34.95 36.44 33.50 29.07 31.63 20.72 22.46 24.11 28.79 28.80 27.84 30.57 30.86 30.66 31.87 31.86 31.96 32.17 33.05 32.78 31.33 23.11 26.37 26.40 26.96 27.26 27.01 29.81 30.58 30.43 31.16 29.97 29.52 27.97 26.49 28.01 28.27 27.31 27.13 27.48 26.74 24.73 23.26 22.97 23.96 22.74 21.26 20.19 20.96 19.86 19.41 19.33 19.11
31.21 36.54 29.22 28.85 19.27 18.40 20.77 26.20 23.53 28.58 27.74 28.39 28.57 29.64 29.29 29.45 30.53 30.60 31.95 29.67 27.28 27.01 28.28 27.97 27.16 26.77 26.42 25.81 27.20 29.19 29.83 30.63 30.95 30.92 31.07 29.73 26.07 26.36 26.39 26.54 26.21 22.57 21.39 20.28 21.08 20.19 19.13 19.15 19.86 19.22 18.49 17.68 17.46 15.54
32.67 29.12 21.31 16.71 14.22 13.35 16.39 22.08 18.94 23.04 22.55 24.17 26.97 25.19 24.95 26.25 27.54 31.00 25.32 25.14 24.30 27.01 27.06 26.97 26.57 26.21 25.50 25.99 27.32 27.58 29.38 29.29 27.80 27.74 27.45 25.76 25.69 26.67 26.16 24.57 24.40 21.98 19.55 18.28 20.48 19.63 18.96 23.46 21.85 17.25 17.54 14.82 14.62 13.56
30.19 17.48 14.19 11.88 9.76 8.35 17.49 12.34 22.24 20.28 22.77 22.65 21.94 20.82 22.00 23.22 26.04 24.75 19.18 19.04 20.31 23.38 25.27 25.78 25.91 24.89 25.47 24.15 23.23 23.64 24.94 26.77 25.61 25.47 26.51 25.93 23.22 21.64 22.97 22.05 21.76 20.82 20.85 20.32 19.78 19.22 18.85 19.08 20.40 15.14 13.36 11.65 10.38 10.29
12.93 10.25 8.23 1.68 5.14 9.41 5.84 9.13 9.65 15.82 15.92 20.79 19.34 19.80 21.14 23.35 22.35 18.79 15.13 14.48 16.51 15.88 16.66 21.62 24.70 24.52 22.17 21.56 22.36 22.80 24.45 26.56 24.55 21.56 22.04 22.89 21.08 20.37 19.47 19.70 19.56 20.03 21.48 19.28 17.56 16.98 14.53 14.53 13.65 12.47 11.16 10.77 9.12 6.70
5.46 5.41 7.55 3.14 3.54 7.41 8.51 4.97 6.41 10.88 17.88 18.25 20.38 22.58 23.15 22.03 15.30 11.03 11.51 10.75 12.09 13.17 12.84 13.99 15.94 21.53 19.97 22.14 21.34 21.02 20.97 24.25 24.32 20.98 20.72 22.75 22.63 21.42 19.38 18.71 18.10 17.57 18.78 19.06 17.05 15.06 14.07 13.58 12.46 10.08 10.59 14.01 17.85 6.72
3.70 4.19 16.13 21.96 16.50 15.66 11.96 14.66 15.00 12.09 9.91 12.90 18.04 18.83 20.07 15.01 11.09 11.46 13.24 12.24 11.66 13.65 14.78 16.50 18.99 19.86 18.38 18.21 19.02 19.30 19.64 20.11 19.63 18.57 19.59 19.44 19.78 20.93 21.26 19.47 17.07 16.26 17.94 17.77 17.33 16.34 14.56 13.41 12.20 10.37 7.83 5.68 3.86 4.83
13.75 13.39 7.45 7.19 10.14 8.77 5.26 4.88 3.58 2.55 9.11 15.80 17.29 12.54 12.54 9.79 10.38 9.62 10.99 13.30 13.36 14.37 16.78 17.98 19.47 19.70 18.60 18.52 18.93 18.56 18.32 18.95 19.12 19.61 19.68 18.51 18.26 18.94 19.24 19.26 19.65 21.89 17.19 15.98 15.53 15.21 14.38 12.59 10.60 8.75 7.19 5.58 1.94 2.30
11.12 14.45 12.69 2.04 2.73 3.38 2.56 3.60 4.83 10.41 13.24 11.03 10.75 11.17 9.66 9.44 8.86 8.80 11.28 11.90 14.10 16.99 16.52 16.21 16.63 18.71 18.61 18.78 18.90 19.36 20.37 20.87 20.15 16.80 15.31 14.33 14.50 14.72 15.22 17.08 16.99 18.12 18.65 18.61 21.08 15.03 10.87 10.77 10.09 8.92 6.73 6.53 3.55 -0.20
9.54 10.41 6.33 -1.79 1.58 3.88 3.18 6.27 5.18 9.13 9.31 8.46 11.10 11.45 10.29 9.28 9.74 11.67 11.01 10.98 11.79 12.80 14.71 17.16 18.55 18.49 17.31 17.09 15.83 15.51 16.02 17.19 19.67 19.24 16.08 13.86 13.16 14.05 15.61 15.97 15.84 16.36 17.44 17.99 17.97 18.42 21.00 12.64 12.15 5.49 4.94 3.76 3.07 1.74
12.80 5.12 2.66 2.33 0.76 -0.14 1.93 6.85 6.34 11.30 2.73 -1.21 -0.76 4.81 8.57 7.17 9.74 10.70 8.95 8.99 11.16 15.70 16.00 15.74 16.02 17.77 18.22 17.61 17.22 16.40 14.53 15.62 16.39 17.02 16.64 15.67 15.08 14.94 15.28 15.44 15.26 14.92 13.91 11.89 10.76 9.39 7.33 3.29 1.80 -0.26 -0.44 -3.58 -2.71 -0.93
12.16 3.53 3.10 1.07 0.87 2.12 3.53 -0.32 -2.96 -3.47 -3.76 -3.44 -3.28 -4.30 6.83 9.73 7.04 6.87 7.99 8.73 13.75 12.93 17.39 15.78 14.50 13.55 16.06 16.71 17.83 18.65 19.30 16.19 16.22 16.15 15.15 14.16 14.00 14.04 14.33 13.88 13.21 12.17 10.57 9.35 7.76 6.23 3.98 1.85 0.79 0.28 -0.38 -4.94 -5.38 -5.17
4.79 2.74 -4.63 -4.09 -2.91 -1.72 1.71 -0.23 -1.74 -3.78 -4.63 -7.02 -4.00 -1.78 -4.05 4.40 6.83 5.94 9.36 9.77 8.99 10.00 11.92 13.32 14.25 15.02 15.33 15.78 16.14 16.85 16.82 15.31 17.74 20.73 20.38 19.21 18.34 15.98 12.72 11.97 11.76 10.79 9.26 7.55 5.76 4.17 1.98 -1.36 -2.29 -2.34 -4.11 -6.34 -8.55 -7.33

GFSWCAN_sfc_wetblb_024.txt.gz
Wetbulb
45.02 45.23 44.97 44.66 45.19 45.49 45.58 45.39 45.24 44.40 44.46 45.35 46.10 47.23 47.99 48.66 49.53 49.32 49.04 49.33 48.54 44.03 44.92 45.37 44.16 41.87 42.60 42.34 38.18 41.12 41.25 41.36 42.18 38.68 37.58 38.36 36.67 36.54 34.33 38.26 33.29 36.05 35.22 34.14 33.09 28.62 25.60 39.14 38.80 33.88 37.31 38.68 38.47 37.74
44.84 44.77 44.84 44.75 44.90 45.23 45.22 45.06 44.92 44.20 44.27 44.82 45.68 47.11 47.95 48.31 49.27 50.07 47.38 50.53 51.27 46.58 45.49 48.61 47.64 47.30 45.84 46.52 43.62 42.68 41.83 42.45 44.13 40.71 40.06 37.90 37.51 34.42 33.65 31.14 35.72 33.50 37.72 35.32 35.88 34.42 39.37 39.23 38.95 40.52 40.67 39.66 38.56 37.48
44.46 44.94 45.06 45.07 44.79 45.03 44.97 44.87 44.83 44.55 43.96 44.45 45.49 46.97 47.56 47.90 49.14 49.68 48.37 49.44 48.73 45.28 45.02 45.19 44.22 47.16 48.01 48.34 49.58 42.04 43.49 45.75 44.93 45.72 42.52 40.20 37.87 38.29 35.30 34.33 34.70 36.23 38.75 37.38 37.67 37.77 37.94 39.10 40.49 41.00 41.00 39.76 38.86 39.21
44.78 44.93 44.94 44.94 44.84 44.88 44.93 44.75 44.79 44.80 43.82 44.39 45.76 46.66 47.04 47.25 48.44 49.24 48.70 49.77 48.85 46.26 41.13 42.66 47.02 44.57 47.76 48.11 48.30 48.77 47.02 46.84 47.10 46.04 42.68 40.06 38.86 38.94 38.07 35.98 35.62 37.64 37.67 36.60 36.11 36.24 37.52 38.72 39.26 39.70 39.28 39.60 38.88 38.66
44.78 44.89 45.04 44.92 45.00 44.72 44.93 44.81 44.63 44.26 43.54 44.39 45.46 46.54 46.47 46.69 47.94 48.46 50.40 50.03 51.23 46.92 42.28 42.79 44.94 45.45 46.54 46.89 46.66 47.79 47.50 46.51 45.26 43.83 42.50 41.21 42.11 39.13 37.81 36.35 35.24 36.73 37.43 36.63 36.04 40.11 39.18 38.28 39.72 40.39 39.91 39.08 39.11 38.20
44.98 44.71 45.08 44.92 44.81 44.82 44.77 44.43 44.21 43.34 43.45 44.26 45.24 45.94 45.60 45.98 46.99 46.29 45.38 49.91 51.11 50.64 44.22 39.40 45.69 44.47 44.30 45.75 45.77 46.12 46.33 45.17 45.15 44.42 43.06 42.36 42.83 40.56 34.32 34.00 40.52 40.27 40.05 41.11 40.27 40.37 40.11 40.34 39.99 40.11 39.70 39.49 39.44 38.73
45.16 45.14 44.94 44.82 44.80 44.54 44.26 43.96 43.22 42.87 44.08 44.72 45.69 45.31 45.35 45.79 45.53 44.66 44.29 47.19 51.07 51.04 44.59 37.30 38.78 44.45 45.34 43.99 44.28 44.74 45.77 45.06 44.61 43.47 42.68 41.34 40.83 41.61 38.45 36.03 41.41 39.21 39.87 39.75 40.91 41.66 39.12 39.45 38.23 39.73 39.80 39.40 39.50 38.02
45.29 44.99 44.83 44.60 44.41 44.02 43.70 42.94 42.60 43.51 44.22 44.45 45.32 44.95 45.23 45.74 47.62 45.37 49.26 50.82 51.58 47.34 45.53 35.19 36.74 40.29 44.91 42.85 41.69 44.90 43.76 44.05 42.33 41.52 40.60 40.10 39.87 39.24 36.31 40.26 38.74 38.26 38.45 38.92 38.69 39.55 40.06 38.87 38.12 37.10 37.84 37.64 35.83 34.88
44.48 44.07 43.97 43.78 43.63 43.13 42.58 42.30 43.11 43.43 43.63 44.99 44.41 45.26 44.63 45.19 44.55 46.27 49.44 49.39 48.91 45.94 39.05 37.27 34.14 33.16 43.49 41.78 41.76 41.94 42.09 39.67 41.37 38.95 38.68 38.33 37.22 34.73 38.99 39.27 37.62 37.80 38.44 36.46 36.08 37.17 37.91 36.76 35.48 35.09 34.71 34.16 33.62 32.57
43.68 43.62 43.42 42.95 42.57 42.25 42.12 42.96 42.75 42.48 44.26 43.84 43.55 42.42 39.20 45.44 49.13 48.80 46.69 43.92 40.94 41.43 41.17 38.47 40.49 37.47 40.33 39.85 37.87 38.34 38.05 36.85 33.31 37.80 38.42 34.11 33.95 39.60 40.75 40.93 39.62 38.32 37.25 37.12 35.07 31.35 32.68 32.29 33.06 32.62 33.47 33.75 33.81 32.66
43.50 42.98 42.55 42.25 41.88 41.86 42.58 42.04 42.45 43.11 42.54 38.10 34.24 36.59 38.94 47.77 45.89 43.23 38.04 37.57 38.28 34.76 39.17 40.14 39.01 36.45 39.64 36.79 36.82 37.07 33.59 33.72 32.09 33.86 35.45 31.36 33.26 35.71 35.01 36.30 37.92 37.62 37.72 36.52 37.00 36.56 36.64 36.01 33.77 32.14 31.95 32.34 32.99 34.16
42.90 42.51 42.27 42.11 42.09 42.25 41.92 42.01 42.47 40.38 39.53 38.18 36.52 36.49 37.59 40.17 37.70 35.32 35.05 34.56 34.95 34.49 37.17 38.45 38.36 38.15 38.85 40.05 36.83 35.39 31.27 31.83 31.00 32.69 32.92 30.64 33.82 32.32 33.59 33.49 33.65 35.64 36.38 36.10 36.93 35.78 34.76 33.63 33.79 33.13 32.50 32.25 33.70 33.08
42.55 42.33 42.25 42.34 42.11 41.84 41.69 42.23 42.24 42.85 40.62 38.15 34.45 31.55 33.05 34.31 32.43 32.22 30.11 31.34 32.66 35.01 36.03 35.99 34.56 36.72 37.81 38.06 34.26 33.19 31.55 31.48 31.03 28.12 27.68 30.57 29.56 31.11 32.42 33.77 34.23 35.44 35.96 35.50 33.76 33.80 33.65 32.80 33.59 33.49 33.11 33.77 33.36 31.55
42.50 42.43 42.46 42.18 40.83 41.03 41.81 41.90 41.96 40.71 35.59 32.01 31.23 28.69 30.05 30.34 32.23 32.48 32.95 31.00 32.65 31.75 35.63 36.95 34.23 34.73 35.76 33.41 32.06 22.83 29.70 28.32 22.25 22.65 25.00 26.04 29.18 32.75 33.77 33.33 34.28 33.23 33.72 33.06 33.06 33.52 33.90 33.74 33.24 33.87 33.73 33.44 32.09 30.29
42.61 42.81 43.11 40.41 40.87 41.42 41.40 41.50 41.10 38.87 33.73 30.21 31.23 27.99 30.97 32.06 30.65 30.97 31.08 32.91 34.07 37.54 36.24 33.90 33.04 33.57 31.43 30.44 27.63 26.58 24.10 21.97 24.66 25.48 26.14 23.16 25.88 27.81 30.76 31.13 31.21 31.52 32.70 32.84 33.88 33.40 32.60 32.58 31.01 29.27 29.27 29.33 28.94 27.62
42.59 41.18 36.30 40.44 41.21 41.17 40.92 39.39 37.79 37.17 32.02 30.41 31.15 29.72 32.83 30.74 30.00 30.71 32.18 32.64 35.11 37.14 32.58 33.57 28.34 29.51 28.98 26.02 19.07 19.10 21.13 20.22 26.53 25.74 23.83 23.63 29.07 28.65 28.90 29.98 30.72 32.70 33.19 33.40 33.01 32.03 31.25 30.58 28.61 25.25 24.31 23.93 23.54 23.56
41.48 31.86 39.00 40.90 40.93 40.47 39.75 35.74 34.35 31.78 31.14 31.14 29.11 31.64 31.86 30.77 29.05 31.28 33.90 35.61 38.22 36.27 31.89 24.92 26.43 24.14 22.16 15.08 17.10 20.24 21.63 23.93 21.72 22.01 21.42 24.37 27.50 28.18 29.12 29.56 30.26 31.45 31.53 31.00 30.53 29.11 26.88 25.99 25.45 24.15 21.19 19.98 20.79 20.55
32.71 35.05 40.28 40.73 39.12 36.40 35.71 33.54 30.21 30.51 26.92 27.82 27.60 25.85 32.54 32.48 31.31 30.82 33.49 35.96 35.73 31.16 30.90 28.10 28.47 23.68 19.88 18.10 18.49 23.23 24.58 24.15 19.35 23.12 24.67 26.63 26.47 27.75 29.27 28.71 29.71 30.28 29.62 28.49 27.24 25.76 24.39 23.41 22.23 20.38 19.34 19.07 18.80 18.86
37.46 38.77 39.72 39.65 37.54 33.82 30.71 30.61 30.29 20.12 22.68 29.61 29.15 31.04 32.53 33.02 34.78 33.42 33.48 34.25 33.45 33.29 32.08 29.30 22.41 19.96 23.14 22.61 18.93 21.17 14.57 20.67 25.37 26.92 26.29 26.68 27.71 27.72 27.85 28.48 29.28 28.65 27.55 26.48 26.02 24.65 22.92 22.67 22.00 21.52 20.80 21.14 19.23 18.77
40.45 38.75 39.02 38.27 37.13 30.83 20.89 20.09 28.84 23.88 18.49 24.34 31.07 30.15 30.70 31.21 32.73 32.95 32.99 32.59 32.32 32.00 28.69 23.16 24.58 26.06 26.18 25.72 24.16 23.64 23.56 26.57 28.61 25.98 26.05 26.80 26.73 27.19 27.72 28.49 28.03 26.80 25.51 24.58 24.17 24.48 21.41 20.91 21.25 20.94 20.24 20.41 19.51 18.72
34.68 33.88 35.65 31.49 26.12 30.49 22.58 23.94 17.33 25.31 24.91 21.02 26.63 29.51 30.25 31.87 31.62 31.83 32.26 32.90 32.44 28.55 22.97 25.77 26.02 26.55 26.70 25.55 28.49 28.63 28.96 31.25 30.37 29.07 28.56 26.93 27.22 27.86 26.55 27.43 28.36 27.56 25.67 23.40 22.53 24.23 23.07 20.80 20.12 21.77 20.54 19.91 19.31 18.26
30.14 35.84 28.44 26.08 17.31 14.95 17.17 23.26 20.02 22.92 22.38 20.46 24.74 28.31 27.53 28.16 30.12 30.61 31.72 28.90 26.34 24.39 27.41 26.95 25.51 25.38 25.07 25.64 27.55 28.96 29.49 29.87 29.77 30.58 31.12 29.99 26.24 26.42 26.88 27.23 26.91 25.08 22.98 21.94 21.77 19.93 18.51 18.73 19.50 19.76 19.62 18.78 18.23 16.78
32.38 27.62 19.15 14.91 13.15 11.39 14.60 17.56 13.82 12.00 15.14 17.19 22.63 24.12 24.48 24.85 27.05 30.05 24.09 23.59 22.90 23.70 25.89 26.43 23.52 24.52 24.89 26.38 28.13 28.65 30.04 29.44 28.02 28.01 27.81 26.31 26.03 26.97 27.00 25.94 25.23 22.55 20.28 18.31 20.09 19.29 18.55 23.14 22.02 17.93 18.47 16.03 15.72 14.86
29.32 17.02 13.62 11.11 8.52 7.33 14.99 7.99 16.61 13.57 12.26 16.39 16.18 20.13 22.20 23.19 25.86 23.16 18.07 18.26 18.86 19.59 18.61 19.50 25.96 24.32 25.55 24.67 23.44 23.48 25.43 27.91 26.98 26.74 27.23 26.52 24.06 22.84 23.66 22.78 22.12 21.04 20.90 20.92 20.99 20.41 18.79 18.88 20.83 15.98 14.80 13.13 11.62 10.49
13.19 9.72 7.96 2.03 2.37 7.17 2.78 6.63 4.29 9.38 6.48 10.32 13.10 18.69 21.19 23.70 20.95 16.12 14.11 13.41 14.01 14.66 14.48 15.63 20.46 24.13 22.17 21.39 22.11 22.34 24.68 26.77 25.50 23.02 24.49 24.28 22.25 21.39 20.45 20.37 20.32 20.66 21.91 20.31 19.10 18.67 16.74 15.57 14.96 13.36 12.44 11.58 9.43 7.07
5.28 4.69 6.61 2.39 1.65 7.04 6.49 3.93 3.34 4.09 9.43 8.47 14.03 18.24 21.75 20.54 15.18 11.62 11.52 10.47 11.13 13.44 12.48 12.11 13.08 15.72 20.18 22.22 21.98 21.85 22.61 25.96 26.11 22.91 22.90 25.41 26.00 24.44 20.99 19.17 18.18 17.85 19.22 21.36 19.47 16.90 14.95 14.53 13.36 11.79 11.76 15.13 17.98 6.72
4.45 4.26 14.78 20.90 15.48 14.28 10.48 12.84 13.06 8.61 2.33 6.23 11.13 12.91 15.38 12.60 12.78 11.97 12.48 12.54 11.24 13.54 14.31 14.76 15.59 18.55 19.01 18.62 19.61 20.33 21.05 21.82 23.19 20.87 21.02 21.01 21.36 22.75 23.48 21.62 19.68 18.18 20.24 20.03 18.79 17.32 15.40 13.90 13.04 12.79 10.12 8.11 5.32 5.18
13.32 12.16 7.46 6.57 9.07 7.28 4.32 3.47 1.22 1.49 5.44 12.09 14.11 6.90 8.24 9.16 9.40 9.09 11.00 13.08 12.95 13.54 14.21 17.89 19.26 19.61 18.72 18.58 19.41 19.70 19.41 20.05 20.16 20.18 19.99 19.09 19.38 20.33 20.48 20.40 20.60 22.64 18.38 16.97 17.26 17.07 16.16 14.77 12.97 10.85 9.46 6.98 2.89 1.70
10.03 13.14 12.12 1.28 1.87 1.66 1.69 3.58 4.07 9.26 12.42 8.93 4.47 9.80 7.74 9.46 6.27 7.20 10.41 11.37 12.86 15.09 16.42 16.53 17.35 19.04 18.69 18.67 18.89 19.74 21.65 22.88 22.66 19.85 17.55 16.25 16.29 15.75 18.81 19.73 19.21 19.13 19.62 19.41 21.77 16.66 12.98 12.79 11.75 10.47 8.48 7.44 3.95 -1.55
9.90 10.30 5.90 -3.42 2.08 3.90 2.63 5.26 3.43 7.46 7.91 7.61 9.88 8.79 9.28 5.91 6.05 10.64 9.74 10.12 10.57 11.77 14.85 17.67 18.52 18.72 17.91 18.03 17.00 16.88 17.39 19.73 22.22 21.93 19.10 17.17 15.45 16.11 17.56 17.45 17.19 17.53 18.15 17.97 17.89 18.83 22.18 16.10 14.04 7.10 5.00 3.56 2.64 1.32
12.19 4.91 1.15 0.71 0.05 -1.77 0.60 5.93 6.07 10.28 0.86 -3.86 -3.09 0.51 3.40 6.01 8.62 10.36 8.64 8.38 10.33 15.13 16.52 16.16 16.21 17.67 18.40 18.19 18.03 17.70 15.88 16.82 18.20 18.21 17.97 17.22 17.08 16.77 16.50 16.68 16.99 16.87 16.41 15.50 13.79 12.68 10.90 4.35 3.35 2.11 1.59 -1.11 -1.97 -1.16
11.93 1.42 2.28 0.50 0.35 1.32 2.52 -1.20 -5.07 -5.09 -5.21 -4.74 -4.34 -4.80 -0.51 6.06 6.83 7.05 7.79 8.82 13.62 12.59 17.19 15.93 14.85 14.01 16.33 16.86 18.33 19.75 20.03 17.48 17.68 17.61 17.13 16.10 15.47 15.36 15.24 14.60 13.93 13.25 12.23 10.26 8.90 7.09 4.55 2.12 0.71 0.01 -0.66 -5.60 -5.91 -5.30
3.33 0.20 -6.76 -5.70 -2.89 -1.81 0.87 -1.13 -2.46 -4.35 -5.77 -7.77 -4.74 -3.84 -4.07 3.68 6.93 5.55 9.01 10.24 9.45 10.38 12.23 13.54 14.59 15.39 15.58 16.23 16.68 17.07 17.14 16.71 19.56 21.97 21.83 20.87 19.87 17.14 13.50 12.11 11.87 11.22 9.91 8.45 6.77 5.15 2.86 -0.62 -1.97 -1.93 -3.63 -6.38 -8.36 -7.60

GFSWCAN_sfc_wetblb_027.txt.gz
Wetbulb
44.99 45.17 45.38 45.69 45.63 45.45 45.55 45.64 45.42 45.31 45.21 44.29 44.65 45.34 47.22 48.33 48.46 48.19 46.95 49.81 48.21 43.96 44.26 45.47 44.62 42.88 42.76 40.98 37.63 40.53 40.17 41.31 40.96 38.13 36.31 36.65 35.80 34.79 34.26 37.29 35.57 34.13 34.13 33.33 31.45 27.95 24.32 37.98 38.23 33.71 36.04 37.73 37.54 37.17
44.49 45.10 45.60 45.60 45.54 45.47 45.41 45.53 45.24 45.01 45.08 44.40 44.41 45.16 47.06 47.52 47.99 48.71 46.41 50.43 51.23 46.49 45.00 48.59 47.58 47.27 46.36 46.66 43.52 42.76 41.47 41.95 43.61 40.14 39.61 39.33 37.15 36.15 32.28 29.48 34.20 32.64 36.56 33.52 33.92 32.77 38.53 38.50 38.14 39.79 39.66 38.67 36.67 36.27
44.98 45.45 45.54 45.59 45.28 45.43 45.40 45.44 45.29 45.15 45.01 44.26 44.34 45.19 46.65 47.34 47.57 47.61 46.79 49.55 49.01 45.54 45.03 44.62 44.19 47.61 47.89 49.11 49.59 41.33 43.09 45.24 44.97 45.73 42.17 40.44 37.46 35.41 31.47 32.32 32.56 34.82 37.93 36.25 36.63 36.14 36.80 38.19 39.25 39.82 39.72 37.76 37.63 38.13
45.15 45.40 45.55 45.34 45.35 45.48 45.35 45.41 45.23 44.90 44.78 43.89 44.70 45.52 46.27 46.62 46.71 47.15 45.97 49.57 48.79 46.09 40.91 42.18 47.25 45.01 47.79 49.05 49.03 48.87 47.02 47.38 47.02 46.05 43.05 40.72 37.35 38.10 35.26 35.08 35.11 37.18 37.33 36.22 35.56 36.88 37.54 37.85 39.01 39.26 38.37 38.64 38.14 37.80
45.05 45.65 45.77 45.63 45.46 45.41 45.30 44.96 44.70 44.56 43.76 43.54 44.48 45.36 46.62 46.00 46.38 46.14 46.05 49.89 50.63 46.88 42.01 42.80 45.17 45.22 46.15 46.90 47.11 47.99 47.42 46.50 45.27 43.74 42.80 41.29 41.05 38.55 36.90 35.73 34.46 36.20 37.06 36.16 35.90 40.23 39.47 38.32 39.68 39.31 38.78 38.18 37.91 36.99
45.52 45.64 45.56 45.34 45.19 45.01 44.66 44.47 44.11 43.36 42.96 43.61 44.64 44.84 45.47 45.87 45.85 44.72 45.10 49.88 50.88 50.54 44.31 38.98 45.52 44.17 44.04 45.22 45.11 45.62 46.65 45.31 45.30 44.20 42.94 43.48 42.59 41.60 34.13 33.58 39.74 38.77 38.73 40.84 40.01 39.08 38.72 38.94 39.34 39.57 38.59 38.16 38.26 37.60
45.39 45.09 44.53 44.51 44.40 44.22 44.09 43.38 42.86 42.68 43.44 44.08 43.93 44.21 44.77 45.26 43.89 41.14 42.98 45.92 50.45 50.63 44.63 37.57 38.51 44.21 44.50 43.61 43.84 44.51 45.60 44.78 44.74 43.64 42.92 41.72 40.72 41.15 38.81 34.38 40.45 38.60 39.27 39.64 39.31 40.07 38.08 38.48 38.45 39.04 39.09 38.96 38.84 37.08
44.60 44.20 44.09 43.84 43.45 43.05 42.74 42.54 42.87 43.48 42.98 43.35 43.95 44.50 45.00 45.71 45.18 43.38 46.50 49.18 50.71 47.29 45.63 35.26 36.49 40.23 44.77 42.51 41.20 45.29 43.59 44.20 43.07 42.34 41.67 40.75 40.51 38.77 36.03 39.61 39.35 37.81 38.12 38.52 37.96 38.79 40.45 39.05 38.53 37.39 37.83 37.50 35.68 34.69
44.10 43.91 43.57 43.12 42.76 42.44 42.39 42.90 42.74 42.62 42.95 43.84 44.64 45.16 43.95 43.26 42.73 46.66 50.10 49.77 48.92 45.45 39.29 37.41 34.01 32.81 43.27 41.93 41.85 41.80 42.49 39.93 41.63 39.38 39.27 39.11 37.90 34.51 39.18 39.80 37.76 37.41 37.81 36.64 35.87 37.18 37.63 36.86 35.55 35.16 35.27 35.19 34.51 33.48
43.95 43.66 42.99 42.79 42.51 42.41 42.49 42.66 42.41 43.02 43.46 43.84 43.24 41.85 38.88 44.23 47.49 49.51 47.38 44.25 41.35 41.68 41.58 38.55 38.53 36.76 39.74 40.20 38.04 38.82 38.59 36.82 33.88 37.07 38.45 35.13 34.94 38.86 39.79 40.15 39.61 38.34 36.89 36.58 35.01 31.76 33.48 32.85 33.47 33.81 34.61 34.96 35.10 33.44
43.89 43.37 42.89 42.64 42.64 42.53 42.03 42.05 42.34 42.84 42.88 39.02 34.60 33.98 36.91 41.31 44.36 44.03 38.25 37.40 38.36 34.93 39.41 37.72 38.51 37.53 39.01 36.85 37.19 37.34 33.94 33.71 31.88 30.35 35.18 32.85 32.28 34.58 34.53 36.81 38.24 37.61 37.37 36.18 37.08 36.52 36.73 36.21 34.02 32.32 31.64 32.05 32.76 33.46
43.71 43.10 42.92 42.84 42.82 42.00 41.56 41.79 42.38 39.87 38.76 39.11 37.90 37.36 36.07 38.00 37.54 34.84 34.03 34.73 35.00 34.76 37.54 38.44 36.67 37.33 36.91 39.37 36.63 35.34 31.18 31.87 29.89 31.27 32.72 29.63 32.00 31.90 33.38 33.29 33.95 36.47 36.66 36.33 35.97 35.58 34.80 34.08 33.94 32.97 32.37 31.86 32.46 31.34
43.27 43.10 43.12 43.10 42.90 41.14 41.62 42.01 42.04 42.26 40.48 38.24 35.13 31.10 32.46 33.63 30.85 31.72 30.40 32.43 32.25 35.13 36.07 35.96 34.70 37.29 37.45 38.31 34.01 30.74 33.17 32.08 30.83 27.61 27.58 29.07 28.68 30.45 31.85 33.11 33.08 34.96 35.72 34.34 33.17 33.68 33.66 32.61 33.27 33.13 31.91 32.32 31.68 29.54
43.25 43.02 43.14 42.92 41.11 41.37 41.80 41.69 41.71 40.71 36.55 32.07 30.80 27.57 29.19 30.43 32.19 32.24 31.97 33.42 32.55 31.05 36.07 36.62 34.52 34.95 36.20 34.26 33.49 31.69 29.96 28.12 23.22 22.63 23.57 25.45 28.86 31.14 31.87 32.44 33.34 32.86 32.71 32.55 32.53 33.13 32.97 33.01 32.75 33.43 33.15 32.71 31.03 28.60
43.00 43.02 43.25 39.53 41.10 41.61 41.36 41.03 40.77 39.12 34.27 29.96 31.29 26.51 30.47 32.55 31.64 31.14 32.12 32.54 34.09 36.62 34.82 34.29 33.49 34.64 31.86 30.66 28.17 27.70 26.26 23.11 24.85 26.37 24.29 22.97 23.36 26.35 30.72 31.72 31.75 31.53 31.92 31.97 32.74 32.68 32.48 33.06 32.06 31.28 31.54 31.05 29.12 25.97
42.83 41.79 34.75 40.77 41.74 41.35 40.54 38.63 38.18 37.25 32.23 29.94 30.32 28.72 32.71 30.66 30.76 30.90 31.83 32.27 35.10 37.15 34.44 34.60 31.16 30.64 30.14 29.28 19.33 19.75 21.21 22.23 28.17 24.67 22.66 19.26 27.76 28.41 28.79 29.85 30.64 31.97 32.63 32.47 32.72 32.40 31.57 30.84 28.52 26.90 27.14 25.98 24.50 23.62
41.98 31.94 38.34 41.61 41.13 40.02 39.60 35.78 34.31 31.62 30.84 30.00 29.08 31.83 31.19 30.59 30.74 31.15 33.47 35.00 38.47 34.67 33.38 31.45 29.53 27.12 22.77 14.96 17.19 20.65 22.57 28.60 22.32 20.77 19.86 21.84 24.56 27.28 28.28 29.03 29.72 31.01 31.06 31.44 31.44 29.70 27.93 27.36 26.90 25.93 22.26 20.56 21.17 20.97
33.18 34.52 40.61 40.82 38.83 35.24 34.91 33.33 30.43 28.16 25.57 18.99 25.41 26.55 30.34 32.10 31.20 32.34 32.94 35.55 35.64 33.43 30.76 29.51 27.06 22.15 20.37 18.80 18.24 23.45 22.38 25.93 20.06 21.54 23.91 24.80 25.07 26.78 28.88 28.43 28.95 29.26 28.55 28.60 28.03 27.31 26.67 25.27 23.19 20.47 19.64 19.64 19.25 19.05
36.75 38.98 39.67 39.42 36.48 29.41 30.00 30.19 30.64 24.13 17.75 27.70 29.13 28.69 30.58 31.06 34.52 34.82 33.10 34.39 34.37 34.04 32.00 29.41 21.76 20.89 23.91 23.62 23.46 20.82 21.12 21.06 24.83 26.70 25.40 26.05 26.95 27.15 27.78 27.82 27.35 26.66 27.19 26.82 26.99 25.35 23.22 23.49 21.87 21.30 20.89 21.39 19.08 18.72
40.96 38.39 38.48 37.73 35.88 24.45 23.85 17.85 25.96 25.98 20.27 19.56 27.84 24.94 26.79 29.07 32.67 32.86 33.22 32.83 32.64 32.28 30.85 29.47 25.43 26.17 27.54 28.44 27.06 25.58 25.19 25.88 26.42 24.63 24.18 24.59 25.73 26.28 27.08 27.63 27.00 26.09 24.82 24.24 23.99 24.28 21.30 20.81 21.13 21.06 20.45 20.42 19.35 18.60
34.47 33.29 34.90 30.34 26.08 29.50 24.05 24.73 18.19 24.07 26.24 24.08 16.42 22.37 26.43 30.90 31.12 31.72 31.85 32.75 32.05 31.61 28.93 27.25 26.79 27.37 28.06 27.65 28.54 27.99 27.67 29.36 28.16 28.04 25.84 22.78 25.49 26.15 25.70 26.32 27.91 27.50 25.73 24.05 21.79 23.76 22.19 19.83 19.37 21.70 19.91 18.79 18.14 17.28
29.81 35.03 27.29 24.87 15.46 12.47 15.11 25.24 22.12 21.77 24.18 16.82 16.56 16.95 20.17 23.25 27.50 28.18 28.61 29.05 23.88 23.52 24.72 25.98 26.69 25.62 26.46 26.77 27.64 28.61 28.83 28.60 28.63 30.03 31.03 29.47 25.47 25.33 25.98 27.03 27.08 25.28 25.56 24.64 22.54 20.21 19.05 19.53 19.80 19.41 18.90 18.74 18.86 17.75
31.40 27.22 18.66 14.19 12.50 10.58 12.34 14.58 12.30 9.61 13.07 11.25 12.16 11.50 17.35 21.07 26.57 28.96 22.21 22.22 19.81 20.77 20.54 22.84 22.40 25.85 24.98 26.17 27.87 28.22 28.77 28.36 26.86 27.26 27.81 26.37 26.36 27.55 26.65 25.83 25.62 23.85 21.13 19.36 20.98 20.25 19.19 23.55 22.46 18.62 19.18 17.02 17.52 17.32
28.64 16.49 13.81 11.25 7.56 6.74 12.85 5.58 14.46 10.63 8.30 10.89 5.60 7.56 14.66 19.28 25.36 22.52 17.99 17.26 17.52 19.42 17.29 16.76 18.55 24.39 25.81 25.04 23.90 25.05 26.51 27.25 25.62 26.14 27.22 26.47 24.38 23.30 24.57 23.86 23.80 23.84 22.69 21.56 21.92 21.55 20.27 19.42 21.94 17.41 16.47 15.36 13.95 12.01
14.75 10.25 8.62 3.38 0.72 4.90 1.13 3.56 -0.24 7.56 4.42 4.19 6.45 5.97 15.22 19.05 18.92 16.79 14.59 14.69 14.39 14.59 14.60 15.11 16.40 17.21 20.83 22.25 22.97 23.56 25.73 27.07 25.97 24.26 23.66 25.42 22.90 22.49 21.47 21.51 21.59 22.22 23.59 21.29 19.76 19.75 18.24 16.75 16.71 15.97 14.77 13.84 11.77 8.78
6.80 5.13 5.99 2.19 0.48 6.30 6.12 3.49 1.74 2.78 4.65 2.95 8.75 13.29 14.21 15.94 11.42 12.29 12.51 11.69 11.68 12.74 12.64 11.98 11.84 13.60 16.44 21.24 22.45 23.05 23.11 25.33 25.28 23.13 23.84 26.04 25.90 24.12 21.32 19.89 19.31 19.33 21.16 22.64 20.26 17.81 16.90 16.77 15.41 13.47 13.44 16.39 18.47 8.48
5.25 4.86 13.62 19.44 14.54 13.07 9.95 11.38 11.62 7.14 0.59 1.57 3.30 4.79 9.33 6.74 8.38 11.20 12.79 13.11 11.70 13.60 13.93 14.05 13.73 14.45 16.45 19.77 20.63 21.14 21.66 22.44 23.51 22.03 22.42 23.32 25.21 26.66 26.20 23.88 21.54 20.45 22.17 22.08 21.11 19.35 17.01 15.22 14.23 14.57 13.74 11.92 10.08 8.31
13.50 11.49 8.35 6.74 8.07 6.15 3.69 2.90 0.33 1.63 4.07 10.75 10.88 2.13 4.74 11.26 10.60 6.84 6.92 12.41 12.46 12.65 13.00 15.14 18.23 19.16 19.01 19.11 20.03 20.22 19.97 20.75 20.95 21.54 21.50 20.57 21.43 21.72 21.73 21.56 22.09 24.46 21.59 20.68 19.69 18.44 16.96 16.18 15.27 14.13 12.15 8.78 4.78 2.20
10.23 12.34 11.68 0.56 1.08 1.63 2.50 5.14 4.16 8.09 11.72 7.58 3.96 4.44 5.12 9.65 2.40 0.85 5.62 6.82 10.13 12.39 14.41 16.34 17.52 19.08 18.95 19.32 19.45 20.25 21.60 22.79 22.73 20.07 17.87 16.91 17.02 16.88 21.09 21.33 20.84 21.50 21.97 20.96 22.60 18.55 15.45 15.80 14.93 12.70 10.46 8.39 4.92 3.35
10.86 9.44 5.01 -4.19 2.21 4.24 2.43 4.07 2.39 4.99 7.08 6.79 8.54 6.40 6.59 3.78 2.16 3.84 4.88 3.49 3.26 7.95 12.35 16.68 18.06 18.31 17.79 18.31 18.02 18.12 18.57 20.24 22.64 22.65 20.38 18.77 16.40 18.18 19.58 19.66 19.59 19.78 20.04 19.69 19.52 20.48 23.37 17.51 15.50 10.51 7.92 6.62 5.91 4.67
10.30 4.00 0.15 0.30 -0.06 -2.67 -1.33 3.84 5.45 9.45 -0.03 -5.22 -3.42 -0.09 1.16 -0.21 4.07 5.86 4.30 6.84 8.02 12.49 15.95 16.06 15.77 16.53 17.84 18.13 18.52 18.62 16.95 17.98 19.43 19.51 19.05 18.35 18.49 18.56 18.74 18.98 19.25 19.65 19.26 17.69 15.98 14.81 12.26 8.65 7.37 5.74 4.49 2.48 3.27 1.75
9.96 0.82 2.17 0.23 -0.29 -0.02 0.18 -3.68 -6.37 -5.21 -6.98 -4.90 -4.09 -6.79 -3.16 1.67 3.07 2.23 6.45 7.49 11.03 12.41 16.51 14.88 14.25 13.89 16.26 16.71 18.40 20.50 20.86 18.45 18.44 18.50 17.81 17.11 16.63 16.62 16.69 16.70 16.62 16.07 14.78 13.20 11.65 9.65 7.76 6.25 4.99 3.91 2.47 -0.76 -2.81 -4.07
-0.07 -2.16 -7.55 -6.51 -3.99 -2.65 -0.44 -2.16 -3.19 -6.11 -6.05 -7.49 -5.40 -5.45 -6.13 1.55 3.37 1.99 6.97 8.99 9.38 10.95 12.43 13.62 14.78 15.62 16.05 16.21 16.90 18.18 18.73 18.50 21.27 23.54 22.98 21.74 20.53 18.11 15.15 14.48 14.22 13.39 11.89 10.04 8.51 7.04 5.00 2.56 1.26 0.53 -1.17 -3.94 -7.49 -7.22

GFSWCAN_sfc_wetblb_030.txt.gz
Wetbulb
44.75 45.52 45.42 46.04 46.07 45.84 45.96 46.00 45.90 45.91 45.67 45.67 45.22 44.63 45.49 47.09 47.80 46.26 45.39 48.30 47.77 42.66 42.37 44.16 44.73 42.50 42.07 41.63 36.90 40.40 39.40 40.88 40.62 36.52 35.87 36.04 35.13 35.85 32.59 35.06 35.12 33.49 33.96 33.02 33.08 30.53 23.98 38.09 37.11 32.48 35.67 37.30 37.87 37.21
45.04 45.55 45.61 45.88 46.22 45.66 45.94 45.88 45.83 45.66 45.49 45.39 44.71 44.57 45.47 46.82 47.39 47.01 44.45 48.79 51.51 46.37 45.16 47.72 47.25 47.20 47.41 46.10 43.12 42.56 41.28 41.75 42.45 37.86 38.79 39.35 37.23 34.54 31.24 28.92 32.89 31.40 35.20 32.47 33.75 32.32 37.63 38.10 38.09 39.33 39.15 37.85 35.69 35.59
45.28 45.91 46.07 46.24 46.31 46.10 45.94 45.86 45.79 45.40 45.13 45.08 44.14 44.65 45.45 47.04 47.16 46.33 44.02 46.71 48.92 45.24 44.57 43.65 43.71 47.89 48.99 49.05 49.92 41.85 42.83 44.51 44.65 43.12 40.39 39.94 35.02 35.11 31.47 31.19 29.96 33.97 37.07 35.36 35.89 36.16 36.72 38.09 38.99 38.21 38.17 36.78 37.25 37.56
45.47 45.89 46.01 45.97 45.54 45.73 45.62 45.44 45.07 45.05 44.79 44.24 43.83 44.51 45.59 46.04 46.73 46.44 43.25 45.60 46.65 45.91 40.47 41.29 47.42 45.63 48.36 49.77 49.31 48.46 46.69 47.05 46.58 46.05 43.13 41.03 38.24 38.53 33.76 34.55 34.09 36.22 37.04 36.01 35.26 37.34 36.68 37.83 37.04 36.84 36.88 37.44 37.10 37.06
45.59 45.67 45.71 44.92 44.83 44.83 44.76 44.73 44.54 43.94 43.50 43.29 43.69 44.63 44.99 45.05 45.60 45.23 44.30 45.86 49.06 46.75 41.94 42.69 45.38 45.79 46.51 47.33 47.48 48.16 47.14 45.32 44.74 43.35 42.69 41.08 41.89 38.89 35.16 34.14 32.78 35.85 37.35 35.62 35.28 39.42 38.26 37.19 38.37 38.31 37.40 36.75 36.92 36.20
45.40 45.12 44.69 44.42 44.03 43.75 43.42 43.16 42.94 42.85 43.18 43.90 43.73 43.54 43.91 44.36 44.92 43.15 42.98 48.42 50.23 50.50 43.73 38.71 45.50 43.72 44.83 44.70 45.25 45.71 46.23 45.91 45.18 44.04 43.16 43.85 43.45 41.05 36.31 32.99 39.08 37.73 38.04 40.19 39.47 38.56 38.35 38.54 39.23 38.68 37.05 36.61 36.85 36.20
44.96 44.43 44.30 44.06 43.53 43.10 42.83 42.82 42.89 43.30 42.88 43.10 43.65 43.68 44.02 44.41 43.16 39.08 41.44 44.99 46.79 47.23 44.54 37.72 38.34 43.26 44.69 44.17 43.19 44.45 45.50 44.59 44.66 43.88 43.06 42.25 40.84 41.05 38.57 33.09 39.56 38.50 38.68 37.98 38.36 38.83 37.57 37.92 37.51 38.03 38.02 37.37 37.20 35.30
44.71 44.28 44.16 43.78 43.31 43.07 42.77 42.69 42.87 42.78 43.12 43.70 43.85 44.73 45.33 45.40 44.95 41.66 45.19 47.01 47.13 46.88 45.51 35.53 36.26 40.07 44.44 42.24 40.70 45.24 43.37 44.09 43.45 42.53 41.80 41.09 40.75 39.53 36.44 39.76 38.80 37.02 37.53 37.44 37.65 38.95 39.21 38.04 37.75 36.82 37.41 36.44 34.92 33.36
44.25 44.17 44.08 43.53 43.33 43.16 43.04 42.61 42.53 42.57 43.64 43.80 44.72 45.49 44.15 42.49 41.33 45.20 49.83 49.93 49.71 46.24 39.16 37.52 33.88 32.29 43.13 42.05 41.73 42.05 42.46 39.85 42.21 39.77 39.75 39.50 38.75 35.50 38.31 39.16 38.59 37.46 37.74 36.59 35.78 36.96 37.19 36.54 35.77 35.53 35.25 34.72 33.44 32.17
43.85 44.15 43.98 43.41 43.24 43.24 42.96 42.07 42.25 42.73 43.06 43.79 41.71 40.55 38.93 41.06 42.65 45.91 47.21 44.38 41.70 42.32 41.70 38.45 38.81 35.69 39.44 40.21 38.28 38.61 38.37 37.00 33.47 37.66 38.60 35.18 35.34 39.50 39.41 39.66 39.33 37.95 36.86 36.53 35.54 32.91 33.47 32.66 33.89 34.00 34.50 34.70 34.24 32.75
43.65 43.98 43.61 43.41 43.41 43.31 42.89 41.66 42.45 42.54 42.00 39.14 35.19 33.96 38.61 41.31 42.85 43.20 37.51 37.24 38.35 35.21 39.90 39.18 36.33 36.23 38.96 36.29 37.69 37.14 34.10 33.75 31.88 31.44 34.84 33.25 32.17 33.88 34.96 36.99 38.17 37.41 37.22 36.79 36.76 36.52 37.32 37.36 35.31 33.71 33.01 33.17 33.24 32.27
43.71 43.80 43.53 43.38 43.46 42.86 41.53 42.20 42.18 37.51 37.60 38.47 37.63 38.49 36.49 37.19 37.40 34.79 33.56 34.79 34.73 34.31 37.49 38.39 37.59 37.20 37.24 39.38 34.32 35.41 31.31 32.30 28.61 30.90 32.36 29.67 30.97 31.88 33.16 34.22 34.71 36.42 36.71 36.63 36.03 35.91 35.65 35.20 34.98 33.83 32.82 31.68 30.06 29.95
43.51 43.51 43.49 43.34 43.09 41.14 42.18 42.13 41.73 41.73 40.45 38.51 35.44 31.63 33.18 34.18 31.11 31.52 30.24 31.51 32.51 34.29 35.68 35.79 34.34 36.57 36.82 36.36 32.06 30.87 32.72 31.52 31.92 27.56 28.15 27.70 28.27 30.74 31.57 33.16 33.19 35.17 36.02 34.57 33.67 34.02 33.97 32.94 33.82 33.25 30.79 30.71 30.45 28.66
43.27 43.46 43.26 43.31 41.36 42.07 42.15 41.60 41.03 40.65 36.16 31.94 30.26 26.51 27.01 29.41 31.33 31.76 31.40 31.85 32.16 32.76 34.63 36.81 34.55 34.76 36.75 34.23 33.99 32.65 31.07 29.73 23.40 22.88 23.37 26.32 27.47 30.28 31.39 32.02 32.67 31.67 32.20 31.87 31.99 32.81 32.71 32.53 31.76 31.86 31.86 31.12 29.57 27.20
43.05 43.20 43.17 39.43 41.88 42.12 41.34 40.54 40.15 39.05 34.41 29.55 30.25 24.53 28.46 32.25 32.31 31.97 32.13 31.92 33.23 36.11 35.32 34.63 33.81 34.62 31.94 32.04 30.23 28.57 27.04 24.72 25.17 25.51 25.13 23.19 22.70 25.35 30.33 31.01 31.10 30.70 30.86 31.05 32.12 32.08 31.82 32.16 31.12 30.38 30.51 29.63 28.08 26.26
42.92 41.94 34.09 40.80 42.21 41.24 39.96 37.82 38.37 37.52 32.41 30.22 28.79 25.29 32.02 30.18 30.71 29.17 29.86 32.10 34.77 36.94 34.64 34.60 32.02 30.93 31.06 27.58 24.18 22.73 21.55 22.63 28.59 24.25 22.61 17.22 26.43 28.27 29.03 29.90 30.22 31.13 31.86 32.00 32.31 32.08 31.76 31.45 29.80 27.46 26.57 26.05 25.29 24.29
41.99 33.31 38.19 41.91 41.24 39.62 39.09 35.28 33.94 31.68 30.70 28.32 28.61 31.71 31.10 30.39 30.34 30.70 33.90 33.62 38.16 34.88 32.98 32.31 29.86 29.78 24.87 15.00 17.96 22.80 24.25 28.44 24.09 19.30 19.07 20.46 23.34 27.44 27.87 29.12 29.63 30.61 30.69 30.85 30.87 30.45 28.76 28.22 27.56 26.24 22.95 21.28 21.46 21.00
33.27 34.49 40.38 41.32 38.21 34.33 31.73 33.27 30.22 27.64 25.57 25.83 24.78 19.10 28.46 30.12 30.48 31.83 33.50 34.26 34.85 33.65 31.20 31.05 29.23 21.10 19.57 18.06 20.07 24.45 20.97 17.41 22.73 19.85 22.53 24.12 24.55 26.21 28.14 27.99 28.76 29.46 28.78 28.31 27.92 27.06 28.05 27.24 25.14 22.12 20.55 20.10 19.50 19.33
36.49 37.93 40.05 39.10 35.93 27.50 23.34 27.50 30.30 23.46 24.01 27.12 28.72 28.83 29.48 30.34 32.05 33.06 33.96 34.69 34.81 34.22 32.26 30.33 27.39 22.47 23.52 22.58 21.15 17.56 13.96 20.80 24.28 26.29 24.62 24.75 26.21 26.92 26.92 25.94 26.27 26.40 26.68 26.42 27.54 27.47 25.66 25.99 23.76 22.57 21.71 22.14 19.79 19.56
41.05 38.21 38.12 37.19 35.14 21.70 22.19 16.40 25.49 25.57 22.13 17.75 26.30 26.38 26.05 27.79 29.60 31.85 32.44 32.47 31.86 31.89 30.91 29.88 29.32 26.40 25.19 26.41 25.13 24.28 23.37 24.76 25.32 24.66 23.74 23.49 24.10 23.66 25.33 26.33 26.26 24.73 23.34 23.28 24.43 24.91 22.17 21.40 21.74 21.62 20.94 21.04 20.17 19.37
34.05 32.90 34.19 30.09 26.19 28.67 23.95 24.17 17.87 23.17 25.48 24.06 22.82 20.81 23.81 23.33 28.96 30.20 30.69 31.89 31.02 31.67 29.50 27.93 27.66 27.79 28.30 27.22 28.34 27.96 27.92 26.78 26.58 26.80 25.37 20.14 24.20 24.38 23.81 24.03 24.93 25.51 24.54 23.88 22.64 23.96 23.25 20.90 20.36 22.96 20.87 18.85 18.30 17.70
29.92 34.23 26.66 24.73 15.03 11.62 14.57 26.24 20.75 19.42 22.93 23.61 19.04 11.09 21.90 21.44 13.14 23.22 26.79 27.72 21.51 19.46 20.70 21.01 22.75 23.13 24.76 26.25 26.61 28.13 29.18 28.59 27.63 27.95 29.42 28.56 24.17 23.79 24.40 25.21 25.23 23.48 23.73 25.64 24.36 21.01 19.71 20.33 20.10 19.34 18.74 18.81 19.45 18.70
30.87 27.15 18.54 13.64 12.71 10.16 11.02 13.37 10.82 14.65 10.81 11.56 6.54 6.90 8.03 12.54 18.10 22.47 18.73 21.06 18.85 20.38 19.99 19.64 19.36 21.15 21.69 26.33 27.75 28.03 28.88 27.90 25.83 25.81 27.06 24.35 24.57 25.64 25.76 24.91 25.98 23.75 21.90 21.62 22.39 21.55 20.69 23.84 22.50 18.77 19.33 17.69 18.07 18.22
28.20 16.26 14.43 11.25 7.62 6.39 11.71 4.24 13.31 7.06 5.90 7.43 2.97 5.25 6.41 8.84 14.85 13.28 12.58 13.68 17.43 19.38 17.35 16.37 17.06 18.69 23.51 26.56 25.57 25.60 25.77 27.09 25.16 24.61 25.42 25.61 24.12 22.98 25.58 25.86 25.89 25.69 23.86 22.78 22.87 22.96 21.74 20.82 22.62 18.68 18.39 16.97 15.40 13.26
16.48 10.79 8.54 4.04 0.42 4.46 2.08 1.61 -1.42 6.01 3.67 0.79 3.66 3.85 7.21 10.72 10.44 9.15 8.49 9.05 14.15 14.63 15.00 14.73 14.69 15.26 15.74 20.60 23.93 24.60 26.16 26.48 25.24 24.02 22.27 25.16 22.71 22.51 21.77 23.09 22.90 23.21 24.63 22.57 20.96 21.09 20.39 18.67 18.73 17.89 16.94 15.55 13.66 11.32
7.91 5.86 5.67 4.36 0.67 5.72 6.22 2.59 0.46 2.19 1.66 -0.24 2.59 5.51 3.51 9.86 5.94 6.05 10.03 9.07 7.94 12.38 13.05 12.03 11.10 11.51 13.46 18.24 18.90 21.79 23.08 25.10 26.01 23.00 22.24 24.44 25.02 24.24 21.99 20.88 19.90 20.50 22.79 24.50 22.13 19.23 18.41 18.31 17.46 16.76 16.16 17.82 19.26 10.80
5.72 5.99 12.55 18.11 13.77 11.95 9.34 10.21 11.14 6.19 -1.38 0.99 1.16 2.23 1.78 1.13 2.22 11.94 13.24 10.64 7.58 9.67 13.41 13.50 13.07 12.56 13.31 15.26 18.87 22.07 22.09 22.91 23.74 22.68 23.30 24.43 26.27 26.82 26.22 23.93 22.23 21.84 23.64 23.36 22.29 20.91 18.78 17.77 17.39 17.18 15.92 14.90 11.87 11.12
14.02 11.78 7.81 6.79 7.62 5.41 3.37 2.76 0.17 2.46 4.80 10.14 9.45 0.23 0.09 4.91 8.15 6.74 5.96 6.88 5.98 8.86 10.83 13.31 15.33 16.39 17.54 18.76 19.98 20.50 20.23 21.17 21.52 22.23 22.42 21.94 22.40 23.67 24.11 23.89 24.05 26.29 23.38 22.48 21.50 20.89 20.13 19.15 17.23 15.26 13.31 10.39 7.68 7.80
9.80 11.68 11.81 0.67 0.02 1.12 3.04 5.50 5.26 7.72 11.56 8.50 5.71 4.71 4.86 9.05 2.00 0.41 4.63 3.40 5.03 5.19 8.09 12.89 16.39 19.32 19.12 19.54 19.71 20.59 21.04 21.23 21.34 20.61 19.50 16.62 17.68 18.58 23.90 24.10 22.58 22.67 23.00 22.20 24.38 20.90 18.21 17.02 15.44 12.83 11.30 9.78 7.52 6.69
9.17 8.82 5.83 -3.81 2.23 4.46 2.57 3.23 1.73 1.51 6.42 6.33 7.77 5.92 6.21 4.24 2.10 0.92 1.74 -0.97 0.19 4.25 7.09 9.81 15.40 17.83 17.44 17.80 17.86 18.13 19.00 19.99 23.67 23.28 19.99 18.32 16.52 19.72 21.35 21.61 21.20 21.39 21.70 21.46 21.17 22.00 24.44 18.01 16.31 11.09 8.88 7.99 7.48 5.75
9.78 4.02 0.60 0.37 0.14 -3.49 -2.85 1.98 3.80 8.07 -1.30 -5.71 -4.33 -0.46 1.44 -0.13 3.68 2.52 0.21 -0.46 2.25 6.66 10.23 11.31 12.76 15.14 16.50 16.97 17.56 18.54 17.49 18.82 20.35 21.15 20.47 19.97 20.08 20.14 20.37 20.73 21.33 21.93 21.76 19.98 17.25 15.57 13.53 11.27 9.95 8.81 8.10 7.25 8.35 4.70
10.06 1.66 1.88 -0.37 -1.29 -1.95 -1.19 -5.08 -7.70 -5.26 -7.05 -4.99 -4.53 -7.42 -4.26 -1.00 0.92 0.87 0.73 -2.47 3.55 9.82 14.99 13.78 12.74 13.36 15.93 16.88 17.41 19.63 21.01 19.26 19.65 19.64 19.22 18.85 18.89 19.41 19.79 19.89 19.90 19.27 17.37 15.04 13.49 12.53 11.51 10.47 9.27 7.88 6.06 4.08 2.37 1.24
-1.28 -5.14 -9.25 -7.31 -5.22 -4.02 -1.62 -3.39 -3.99 -7.05 -6.53 -7.60 -5.67 -5.69 -6.65 -0.05 3.16 2.44 2.13 1.22 2.78 8.17 11.49 13.60 15.11 16.04 16.61 17.16 17.59 18.86 19.59 19.67 22.06 24.02 23.71 22.86 22.16 20.38 17.67 16.89 16.23 15.28 13.93 12.46 11.52 10.76 9.47 8.10 6.72 5.22 3.61 1.62 0.11 -1.22

GFSWCAN_sfc_wetblb_033.txt.gz
Wetbulb
44.73 45.07 46.06 46.16 46.74 46.64 46.64 46.45 46.25 46.27 45.88 45.62 45.70 44.61 44.93 46.26 47.83 45.57 43.47 47.10 45.80 40.67 42.74 43.48 44.13 41.97 42.06 40.96 37.71 40.21 39.48 39.91 39.28 36.19 34.44 35.80 33.87 35.63 33.28 33.09 33.23 33.96 33.35 34.12 33.72 30.46 26.03 37.69 37.78 34.04 36.69 37.72 38.81 38.72
44.13 45.23 46.13 46.46 46.37 45.70 46.08 46.09 45.92 45.56 45.35 45.51 44.94 44.19 44.57 46.04 47.00 46.95 42.13 46.27 47.38 46.12 43.29 47.12 47.73 47.23 46.64 45.74 42.90 42.32 40.88 41.16 42.39 38.50 36.11 38.54 34.50 35.92 31.14 28.47 33.24 31.17 35.15 33.71 33.68 32.94 38.05 38.48 38.77 39.10 38.60 37.46 36.84 37.24
44.22 45.65 46.27 46.25 45.52 45.12 45.22 45.20 45.22 45.10 44.91 44.47 44.10 43.98 44.52 45.72 46.20 45.61 43.22 44.80 46.62 45.15 44.01 42.71 42.57 47.23 49.21 49.22 49.86 41.86 42.63 44.42 43.61 44.72 41.44 38.90 36.11 37.65 33.19 32.15 30.06 33.66 36.50 35.57 36.58 37.86 38.19 38.62 38.54 37.64 37.67 36.78 36.44 36.57
44.31 45.66 45.75 45.56 44.96 44.47 44.07 43.90 43.71 43.46 43.41 43.34 43.58 44.12 44.70 44.75 45.11 45.19 41.94 44.27 43.09 44.83 39.61 40.25 47.06 45.64 48.73 49.24 49.22 48.69 46.85 47.12 46.05 45.28 40.12 40.27 37.45 37.24 33.39 34.40 33.65 35.96 36.51 36.10 35.52 37.84 37.80 37.58 37.45 37.22 36.96 36.99 35.68 34.85
44.90 45.52 45.14 44.95 44.62 44.04 43.47 43.27 43.14 43.09 43.13 43.80 43.45 43.31 43.65 44.10 44.61 43.82 43.03 44.22 45.13 44.30 41.11 42.12 45.23 45.21 46.82 48.45 48.13 48.71 47.48 45.49 43.53 42.96 41.84 40.48 41.21 37.45 36.95 34.87 32.53 35.80 36.96 35.71 35.66 39.34 38.48 37.43 38.45 38.37 37.43 36.26 35.89 34.52
45.00 44.92 44.91 44.69 44.39 43.85 43.48 43.22 43.00 42.98 43.04 43.24 43.31 43.77 43.86 44.03 44.37 42.26 40.86 47.34 47.97 48.57 44.01 38.65 45.40 43.72 44.84 45.70 45.72 45.80 45.91 45.23 44.79 43.34 42.79 43.42 42.11 40.14 36.84 35.29 38.68 37.83 38.04 40.18 39.48 38.09 38.07 38.62 39.14 38.95 37.08 36.75 36.47 35.14
44.94 44.55 44.65 44.64 44.32 43.74 43.54 43.42 43.24 42.95 42.92 43.06 43.58 44.15 44.33 44.45 41.78 38.39 40.44 44.01 45.99 44.75 44.20 37.80 38.60 43.49 44.80 44.37 43.96 44.63 45.86 44.83 44.34 43.83 42.82 42.78 41.11 42.40 39.07 33.70 39.06 38.72 38.86 37.95 38.54 38.62 37.39 37.81 37.64 37.92 37.61 36.84 36.30 34.37
44.51 44.05 44.32 44.58 44.24 43.80 43.58 43.51 42.96 42.70 42.98 43.56 43.76 44.92 45.58 45.81 44.51 40.96 44.46 46.82 46.23 44.35 45.44 35.90 36.26 39.32 44.20 41.98 40.55 44.91 43.39 44.10 43.66 42.58 42.22 41.22 40.79 39.82 36.54 38.87 37.65 37.28 37.03 36.89 37.61 38.08 38.91 37.88 37.08 36.04 36.31 35.86 33.58 32.08
44.41 43.90 44.10 44.46 44.09 43.85 43.76 43.55 42.61 42.65 43.01 43.26 44.28 45.24 43.57 41.29 39.88 43.97 44.99 47.18 47.72 46.16 38.79 37.51 32.00 30.74 42.89 42.13 41.65 41.84 42.60 39.29 42.47 39.99 40.00 39.44 39.09 34.91 38.92 38.78 38.86 37.42 37.40 37.14 36.33 37.22 37.92 36.41 35.77 35.42 35.35 34.89 32.66 31.44
44.29 43.75 44.00 44.24 43.85 43.75 43.67 42.73 42.40 42.72 42.50 43.39 41.46 39.68 38.43 40.35 43.03 43.33 46.27 44.13 41.81 42.41 41.88 38.40 35.82 33.75 38.48 40.18 38.52 38.37 38.54 37.38 33.55 37.63 38.77 36.04 36.41 40.25 40.19 39.79 39.39 38.67 37.81 36.87 34.99 33.72 34.75 34.08 34.37 34.32 34.69 34.63 33.57 31.72
43.89 43.68 44.14 43.94 43.70 43.65 42.38 42.45 42.60 42.12 40.97 36.30 35.07 33.97 39.02 41.84 41.99 42.75 37.41 37.45 38.68 35.57 39.95 38.52 34.85 34.28 37.83 35.41 37.31 36.70 34.10 33.75 32.30 32.40 34.14 33.13 32.33 34.37 34.96 35.40 37.86 37.42 37.21 37.03 37.42 36.88 37.59 37.46 35.62 33.99 33.06 32.67 32.21 30.76
43.50 43.77 43.77 43.89 43.67 43.53 41.93 42.69 42.25 36.21 37.55 37.82 37.43 39.09 37.39 37.88 37.59 35.02 33.28 34.78 35.17 33.95 36.65 37.86 37.17 35.94 36.12 37.12 32.79 34.24 31.85 33.08 29.66 31.28 32.14 29.33 31.82 32.72 32.89 34.25 34.71 36.15 36.82 36.61 36.55 36.47 36.51 36.14 35.84 34.33 32.77 31.11 30.10 29.29
43.29 43.45 43.70 43.78 43.62 42.10 42.78 42.36 41.52 41.06 39.27 38.57 35.55 32.30 33.16 33.60 30.84 31.58 29.92 32.50 28.53 32.69 35.08 35.74 34.94 37.79 35.36 36.11 31.96 30.63 32.21 31.04 32.63 29.93 27.89 27.74 29.75 31.59 31.65 33.21 33.19 34.73 35.95 34.75 33.83 34.16 34.46 33.77 34.23 32.79 30.15 30.19 30.31 28.88
43.18 43.16 43.50 43.48 41.82 42.63 42.24 41.26 40.48 40.21 36.00 31.54 29.33 20.94 22.03 28.97 31.33 30.62 30.90 29.44 31.01 32.91 34.87 36.90 34.51 34.88 36.76 34.13 32.99 32.94 30.88 30.87 26.65 24.77 21.77 25.12 26.54 29.67 31.20 31.73 32.52 32.28 32.79 32.42 32.27 33.09 32.96 32.47 30.90 31.24 30.91 30.71 29.12 26.80
43.24 43.06 43.41 39.97 42.41 42.21 40.91 39.96 40.19 39.01 34.26 29.16 29.04 19.47 23.30 31.78 32.01 32.14 32.11 32.16 31.77 35.18 35.42 34.59 33.87 34.70 32.10 31.58 30.98 30.17 28.19 26.34 26.62 24.72 25.53 22.60 22.24 23.54 29.90 30.78 30.53 30.00 30.25 30.98 31.74 31.70 30.89 30.63 29.68 28.65 29.66 29.58 27.76 25.81
42.86 42.12 33.93 40.46 42.51 41.12 39.39 37.36 38.16 37.74 32.56 30.60 29.36 22.30 28.60 29.04 29.83 28.05 23.82 30.26 31.80 35.60 34.54 34.35 32.64 30.78 31.84 25.30 28.32 28.21 22.58 22.92 27.64 26.04 22.62 16.63 25.44 27.94 29.07 29.77 29.83 30.53 30.78 31.15 31.76 31.61 30.71 29.91 28.64 26.60 26.52 25.86 25.31 24.71
42.10 33.79 38.59 41.92 41.42 38.98 38.88 35.24 34.07 31.52 30.77 28.17 28.23 30.55 30.49 27.07 27.96 28.37 33.54 33.38 36.65 34.87 32.98 32.67 30.40 31.21 25.35 16.64 18.79 23.04 23.88 27.76 24.28 19.90 18.69 19.78 22.44 27.67 27.75 29.25 29.77 30.35 30.42 30.64 30.97 30.46 28.08 27.11 26.94 25.70 22.44 21.62 22.67 22.34
33.84 34.87 40.25 41.72 37.61 33.76 30.27 33.12 30.10 27.97 25.83 26.70 25.78 18.54 28.87 28.13 27.54 30.28 32.21 34.89 34.23 33.04 32.21 31.67 29.48 24.71 19.41 17.92 20.17 24.29 20.88 17.08 25.18 23.06 22.55 23.77 24.05 25.54 27.91 28.38 29.05 28.98 28.39 27.96 27.76 28.19 27.14 26.63 25.57 22.83 21.32 20.90 20.32 19.95
36.65 36.92 40.18 39.01 35.14 26.66 18.21 21.98 28.98 23.10 24.31 26.86 27.89 28.71 28.31 28.98 30.95 30.84 31.56 32.93 34.07 33.58 31.62 30.74 28.22 27.36 24.53 21.64 19.99 22.09 20.23 22.54 24.04 26.38 24.62 24.02 25.40 26.57 26.66 25.35 25.75 25.42 25.59 25.60 27.77 28.36 27.12 26.25 24.13 23.35 22.63 23.29 20.66 20.11
40.74 38.59 37.36 37.30 34.37 20.97 19.47 16.07 27.64 24.71 21.75 18.67 25.96 24.78 26.39 26.35 26.39 28.46 30.49 31.48 32.05 31.86 30.20 29.34 29.74 26.70 25.62 24.64 24.88 26.60 25.68 25.51 24.85 24.69 24.46 24.00 23.37 21.14 23.55 24.58 26.08 24.74 23.33 23.04 24.04 25.57 23.43 22.60 23.50 23.60 22.61 21.92 20.59 20.10
33.93 32.96 33.54 30.81 26.37 26.59 23.88 23.96 16.04 23.08 24.55 23.41 24.68 22.57 21.82 23.26 21.13 21.92 29.80 30.42 30.66 30.58 29.03 24.85 24.38 23.80 25.12 25.81 27.13 27.99 27.90 26.59 25.04 26.08 26.44 21.07 23.90 22.10 21.09 21.32 22.48 24.81 23.96 23.55 22.80 25.32 25.19 22.51 21.29 24.07 23.06 20.18 19.64 18.97
30.15 33.78 26.54 25.64 16.30 13.25 19.46 25.51 19.85 18.39 18.99 19.79 19.40 12.51 19.48 20.54 20.60 18.56 26.12 22.95 20.14 15.75 19.28 19.24 20.18 19.99 20.00 21.69 23.99 25.86 27.31 28.33 28.34 27.99 29.26 28.50 23.56 21.91 22.47 23.49 24.37 22.69 23.01 23.45 24.72 22.63 21.63 21.68 21.20 20.27 19.74 19.97 20.83 20.24
31.32 27.11 20.39 17.09 14.28 10.45 9.34 13.23 11.59 16.27 13.11 10.43 2.81 5.09 5.04 6.30 12.01 15.36 12.25 11.15 11.77 16.17 18.46 19.02 18.60 19.20 19.10 21.84 25.34 27.89 28.97 28.34 27.50 27.42 27.13 25.11 24.39 24.81 24.78 23.30 24.00 23.87 22.91 23.11 23.81 22.53 21.00 23.93 23.03 19.89 20.63 19.27 19.24 19.49
28.35 17.00 15.88 13.31 10.47 6.66 11.10 3.63 12.44 5.69 4.82 5.98 13.20 2.51 3.55 3.27 11.87 7.13 8.92 6.73 10.27 15.59 15.47 14.33 16.36 16.12 18.61 20.85 22.84 24.51 25.87 26.76 26.91 26.65 26.47 25.55 24.21 23.04 25.45 25.17 25.42 25.21 25.12 23.70 23.13 22.94 22.21 21.14 23.21 20.07 20.02 18.65 16.82 14.99
16.84 12.24 11.40 7.47 1.53 5.14 3.29 2.11 -1.77 5.83 3.57 -1.14 10.81 4.52 4.05 8.25 5.74 0.51 4.78 6.84 7.20 7.47 9.05 11.13 13.14 14.66 13.39 15.45 18.68 20.89 24.44 24.96 24.55 25.48 25.32 25.73 23.19 22.63 22.32 23.44 23.71 23.86 25.27 23.59 21.68 21.46 21.60 20.30 20.06 19.28 18.24 16.89 15.10 13.97
10.91 9.15 8.95 7.84 0.67 5.94 5.56 1.97 0.51 1.52 0.83 2.33 5.42 2.90 -0.48 5.16 4.40 4.10 8.86 7.26 4.24 3.91 4.82 5.46 8.94 10.23 12.61 15.87 15.76 16.79 19.04 22.52 22.05 23.92 24.51 25.19 25.05 24.08 22.13 21.24 21.10 21.23 24.84 25.26 23.58 20.70 19.67 19.88 19.01 18.14 17.42 18.98 20.61 13.30
9.99 8.91 12.30 17.09 12.91 11.13 8.87 9.68 10.72 5.90 -2.53 4.10 0.88 1.39 -0.28 0.15 -1.12 9.02 9.16 7.01 4.57 3.42 3.97 4.64 9.06 10.60 11.48 13.79 16.51 18.48 20.99 22.14 21.31 23.71 24.84 25.41 25.25 26.07 26.29 24.39 23.47 23.33 25.18 25.32 23.96 22.52 20.24 19.30 18.66 18.71 18.29 18.03 15.17 14.40
15.84 13.15 8.80 8.01 7.59 5.28 3.59 2.81 0.42 2.69 4.71 9.58 8.98 0.69 1.74 4.93 8.61 8.73 7.23 3.13 0.77 -0.96 2.04 6.85 9.00 11.56 13.59 15.17 18.02 19.18 20.04 21.08 21.58 22.41 23.07 22.90 23.42 25.36 26.33 25.98 25.31 27.80 25.36 24.58 23.79 22.81 21.63 20.68 19.59 18.35 16.15 13.77 12.15 12.47
10.00 11.02 11.87 0.25 -0.14 0.75 3.14 6.08 5.54 7.69 11.66 9.38 6.51 4.89 5.44 9.46 3.67 1.48 4.20 2.21 -3.77 -4.24 -1.40 3.47 8.69 10.09 16.37 19.27 20.05 19.93 20.53 20.11 18.81 18.75 19.40 17.24 18.13 19.93 24.77 25.74 26.14 24.85 25.10 24.77 26.05 23.58 21.19 20.47 19.21 16.63 14.48 12.37 9.93 8.92
8.83 8.27 5.41 -2.73 4.03 5.13 3.79 3.87 0.17 -0.41 5.81 5.74 6.98 5.95 6.34 5.11 2.73 -0.30 0.45 -2.20 -2.31 -1.37 -1.28 2.14 6.47 9.49 12.82 15.69 17.72 18.83 19.60 19.98 21.02 20.34 20.77 19.23 18.94 21.42 22.85 22.92 22.99 23.34 23.55 22.83 22.54 23.64 26.11 19.87 17.85 12.94 10.29 9.10 8.42 7.10
9.49 2.91 0.50 1.20 0.81 -3.71 -3.46 0.08 1.19 6.96 -2.59 -6.43 -5.70 -0.88 2.14 0.94 3.84 1.21 -1.22 -3.01 -4.47 -5.71 -2.51 1.92 6.45 9.69 11.30 11.28 15.03 16.39 18.32 19.95 20.13 23.01 21.87 20.81 21.56 21.73 22.03 22.44 23.03 23.58 23.62 22.17 18.99 17.20 15.97 13.31 11.53 9.58 8.55 7.12 8.45 6.54
9.24 0.19 2.61 0.18 -1.56 -3.33 -3.06 -6.49 -8.41 -5.92 -7.81 -6.27 -5.06 -8.23 -4.28 -1.72 1.25 1.92 -0.85 -4.33 -2.91 -0.11 7.27 7.01 8.03 10.43 13.63 14.77 16.78 17.15 21.03 19.13 20.04 21.66 21.44 21.03 21.16 21.95 22.65 22.68 21.97 20.82 19.46 17.72 16.06 14.86 13.71 12.42 11.31 10.54 9.30 7.34 5.77 4.83
-3.77 -6.04 -9.13 -5.78 -5.06 -4.58 -2.43 -4.53 -4.44 -7.10 -7.03 -8.17 -5.80 -5.12 -7.37 -0.63 4.46 3.33 0.45 -1.71 -0.67 0.26 1.66 9.12 12.90 15.12 16.73 18.14 18.16 19.08 19.73 19.73 22.42 24.50 24.54 24.17 23.66 22.34 20.30 19.69 19.04 17.93 16.65 15.40 14.32 13.40 12.10 10.96 9.89 8.51 6.77 5.02 3.72 2.39

GFSWCAN_sfc_wetblb_036.txt.gz
Wetbulb
44.24 44.45 45.23 45.92 46.20 45.63 45.44 45.53 45.61 45.75 45.83 45.78 45.38 44.83 44.57 45.16 46.70 45.33 43.73 46.89 43.17 43.13 45.50 45.89 46.32 44.06 43.63 43.51 38.52 41.28 39.85 40.44 39.90 36.10 35.73 35.49 35.12 38.12 36.86 38.53 37.72 35.65 34.21 34.45 34.99 32.74 30.50 42.68 45.04 39.27 42.19 43.47 42.58 42.51
43.95 44.37 45.54 45.95 45.74 45.11 44.83 44.50 44.40 44.53 44.49 44.42 44.25 44.19 44.27 45.01 45.94 45.94 41.69 45.76 45.90 43.32 46.70 49.21 49.36 49.16 48.02 47.33 44.34 42.63 40.87 40.64 41.01 38.20 38.63 40.03 36.86 39.64 37.82 35.01 39.97 35.87 39.84 38.72 38.30 38.90 43.92 44.35 44.32 44.80 43.01 41.73 41.83 41.20
43.87 44.15 45.40 45.45 45.22 44.76 44.43 44.03 43.68 43.48 43.42 43.43 43.64 44.16 44.95 44.72 44.77 44.85 42.25 43.78 44.74 45.89 46.17 46.48 45.19 49.17 50.86 50.05 50.31 41.92 42.45 44.69 43.16 45.71 42.53 41.69 37.90 42.02 37.13 37.90 38.85 41.08 42.32 40.67 40.68 44.27 44.14 43.93 43.91 42.09 41.68 40.49 39.88 40.68
43.48 44.58 45.89 45.17 44.80 44.56 44.22 43.92 43.68 43.41 43.51 43.65 44.00 44.02 43.63 44.17 44.55 44.63 42.33 43.65 42.35 40.75 41.19 42.96 48.76 47.16 49.37 49.46 49.77 49.11 47.30 47.34 46.54 45.37 42.88 41.16 39.52 43.21 40.59 40.30 40.22 43.17 41.81 41.21 41.29 44.38 45.30 42.66 42.40 41.54 39.82 39.38 38.36 38.42
43.21 44.71 44.99 45.01 44.73 44.45 44.08 43.93 43.85 43.71 43.65 43.63 43.44 43.41 43.41 44.02 44.39 44.57 44.29 43.64 44.14 41.09 40.63 42.85 46.34 47.03 47.44 48.90 48.34 48.84 47.59 45.49 43.97 41.65 41.28 40.22 43.50 40.72 42.77 40.86 40.04 42.66 42.63 40.75 41.11 44.29 43.63 42.58 41.67 41.29 40.00 37.90 37.62 36.83
43.25 44.56 44.69 44.65 44.65 44.63 44.16 43.99 43.94 43.77 43.43 43.20 43.32 43.63 44.31 44.79 44.04 42.45 40.74 46.12 47.56 46.66 42.98 39.29 45.72 44.57 45.94 47.10 46.37 46.40 46.51 45.47 44.68 43.41 42.60 43.92 45.24 43.09 40.34 37.69 44.32 44.28 44.19 46.29 45.02 43.10 42.13 42.07 41.62 40.90 39.03 38.30 37.79 36.74
43.42 44.87 44.49 44.07 44.50 44.57 44.15 44.06 44.03 43.70 43.39 43.21 43.82 44.27 44.54 45.01 43.53 38.08 40.05 43.74 45.87 44.77 43.34 39.31 40.03 44.96 46.04 45.21 44.85 44.97 46.13 45.30 44.62 43.47 42.80 43.94 42.96 43.89 41.68 38.22 44.74 44.75 45.02 44.68 44.39 43.29 41.24 41.42 40.85 40.43 39.15 37.58 37.01 35.52
43.45 44.59 44.48 43.88 44.23 44.32 44.10 44.07 43.80 43.04 43.25 43.60 43.94 44.74 45.72 45.76 44.21 40.86 44.62 46.45 47.18 43.77 45.35 37.88 37.75 40.94 45.22 42.48 41.43 45.11 43.44 44.02 43.73 43.03 43.06 42.03 41.78 40.97 37.86 44.00 45.50 44.90 43.06 42.50 42.66 42.49 42.39 41.51 39.80 38.17 37.60 36.59 34.68 33.40
43.48 44.23 44.08 43.94 44.38 44.01 44.06 43.97 42.83 43.18 43.13 43.17 44.38 44.84 44.85 42.31 39.21 43.01 44.86 46.29 47.56 45.80 40.47 38.40 35.92 35.98 44.58 43.18 42.84 43.15 43.41 39.62 43.12 40.57 40.91 39.94 39.49 37.86 42.80 43.99 44.28 44.22 42.59 41.59 40.09 40.32 40.24 39.46 37.97 37.28 37.08 36.20 34.12 32.30
43.42 44.33 43.76 44.06 43.97 43.89 43.92 43.33 43.07 42.97 42.37 42.77 42.72 40.28 39.08 41.33 43.50 43.58 44.94 43.76 42.97 43.58 44.24 39.29 40.45 37.81 42.05 42.38 40.77 40.15 39.98 38.38 34.16 38.29 39.32 36.77 38.02 44.04 45.22 43.92 43.43 43.30 41.94 39.95 37.82 36.29 36.90 35.81 36.11 36.68 37.18 37.45 35.85 33.90
43.38 43.97 43.72 43.87 43.84 43.65 43.69 42.64 43.07 42.25 41.33 39.03 35.68 34.91 39.63 42.14 41.86 42.70 37.68 38.03 39.20 36.50 41.72 40.98 40.03 38.45 42.07 38.44 39.35 38.96 36.85 35.54 33.96 34.86 35.68 36.09 35.59 39.02 39.07 38.96 40.47 42.08 41.24 41.22 41.39 41.30 39.90 39.46 38.60 37.23 35.69 35.32 34.33 33.30
43.94 43.35 43.53 43.62 43.77 43.57 42.52 43.07 42.40 38.76 38.18 38.36 38.27 39.53 38.39 38.92 38.15 35.42 34.15 35.45 35.38 35.41 39.17 38.77 39.92 40.06 40.47 41.39 38.73 37.36 35.84 35.46 31.73 35.43 33.40 31.59 36.97 37.52 36.72 37.91 38.99 40.35 40.59 40.21 40.33 40.52 40.71 39.76 38.84 37.33 35.32 33.82 33.35 31.81
43.82 43.10 43.30 43.48 43.50 42.48 42.86 42.26 41.18 40.52 40.11 39.35 36.59 33.20 34.53 35.09 32.10 31.71 30.05 32.79 33.21 34.21 36.18 36.70 36.31 39.36 39.62 40.22 35.49 36.47 33.26 32.76 35.43 32.13 30.35 34.52 36.85 35.54 35.62 36.88 37.59 38.55 39.71 38.53 37.75 39.13 39.16 37.84 37.28 36.00 33.95 33.18 31.95 30.59
43.66 43.23 43.13 43.26 42.36 42.68 42.22 40.92 40.40 40.14 37.78 33.01 31.67 26.02 29.48 30.16 32.02 31.60 31.51 32.40 34.36 34.36 35.48 37.73 36.27 36.69 37.97 36.07 36.22 33.70 33.35 32.93 30.43 28.12 30.57 36.38 33.95 32.98 35.19 35.89 36.67 36.73 36.99 36.87 36.55 36.85 36.39 36.05 34.76 34.46 33.85 33.31 31.77 29.47
43.28 43.13 42.87 40.74 41.99 42.44 40.71 39.60 40.43 39.74 35.10 30.31 30.96 26.03 28.38 32.25 32.92 33.40 32.81 33.67 35.46 36.11 36.26 35.98 35.48 36.01 34.12 33.76 33.50 32.84 31.10 29.70 30.14 31.54 35.91 35.05 31.28 30.04 34.61 35.53 35.85 35.55 35.45 35.53 36.02 35.74 34.91 33.91 33.32 32.48 33.04 32.72 31.10 29.26
42.89 41.78 36.77 39.87 42.44 40.90 39.32 37.98 38.79 38.41 33.15 31.83 30.81 28.62 31.03 30.20 31.99 31.02 30.43 32.43 36.73 37.36 35.94 34.96 33.64 32.93 33.34 33.69 31.33 31.96 29.84 28.45 34.30 35.41 35.57 30.41 30.66 32.94 33.89 34.22 34.34 34.57 34.88 34.71 35.03 34.41 33.76 32.98 32.13 30.61 30.47 29.82 29.15 28.25
41.93 36.74 38.97 41.46 41.34 38.40 38.66 36.65 35.31 32.33 32.11 29.40 29.31 30.33 30.57 29.23 29.19 30.90 32.35 32.31 36.36 34.07 33.69 32.95 30.79 32.85 30.56 28.24 28.40 31.33 29.90 34.28 33.49 33.08 30.64 29.10 29.90 32.66 32.93 33.09 32.94 33.38 33.62 33.85 33.32 33.27 31.80 30.38 30.09 29.03 26.08 26.76 27.62 27.16
37.32 37.09 39.93 41.52 37.78 34.85 33.07 34.62 31.50 28.83 26.85 28.81 26.74 27.84 29.10 29.55 29.24 29.95 31.85 33.81 34.13 32.47 33.21 32.06 30.90 29.83 28.63 27.69 29.84 30.29 29.59 28.86 29.21 28.78 29.05 30.04 30.56 30.89 31.29 32.73 32.26 32.50 32.34 31.93 30.53 29.35 29.29 29.27 29.01 26.53 25.05 24.94 24.19 24.24
38.38 38.09 39.90 38.80 35.98 30.83 25.56 26.57 30.23 24.09 25.77 28.06 28.19 29.09 28.75 28.91 30.94 31.16 30.92 31.94 33.28 34.16 32.03 32.03 30.02 30.01 30.26 28.20 26.61 27.02 27.65 27.99 27.33 28.14 29.24 29.25 29.02 30.32 30.66 30.10 29.70 29.64 29.86 29.94 29.84 29.56 29.73 29.61 26.88 26.41 25.51 26.27 24.14 24.02
41.38 39.41 38.22 37.90 34.84 27.46 20.41 22.32 29.19 25.12 22.62 24.65 26.51 25.37 25.96 26.00 28.01 28.82 30.05 31.25 31.53 31.49 30.60 29.77 30.01 27.75 26.21 26.56 26.83 26.21 27.22 28.78 28.22 27.62 30.18 31.04 28.67 26.94 28.57 29.61 29.68 28.83 28.29 28.15 28.17 27.90 25.96 25.62 26.24 26.61 26.87 25.45 23.82 23.25
35.54 34.82 34.64 31.81 29.01 27.55 24.78 24.54 21.40 24.47 24.93 23.60 25.73 23.69 22.44 24.44 24.57 25.21 29.33 31.10 30.79 29.76 29.97 23.88 23.29 23.24 23.51 23.80 24.83 26.84 27.30 27.79 27.61 28.23 28.38 29.14 29.80 27.89 27.07 27.10 27.70 28.04 28.12 27.82 27.09 27.06 26.68 25.20 25.33 26.51 27.44 25.02 24.07 23.20
32.44 34.47 27.89 27.12 21.31 19.33 22.50 25.02 21.58 22.72 20.95 21.75 22.44 17.52 19.33 20.59 22.58 25.23 25.39 25.20 26.42 21.34 21.44 21.03 21.59 20.86 20.76 21.64 22.86 24.15 25.24 26.53 29.15 30.05 31.59 31.56 27.93 26.30 26.03 26.68 27.33 26.98 27.64 28.11 28.71 26.29 24.58 25.46 25.36 24.06 23.12 22.82 23.61 23.46
32.23 28.84 23.32 20.20 17.08 15.24 13.97 18.15 18.37 18.80 15.97 17.10 12.45 14.54 15.92 17.77 19.92 19.43 22.90 19.86 19.23 20.31 20.99 20.21 19.31 18.69 18.15 19.98 22.22 25.85 27.70 26.91 26.41 28.16 29.46 29.89 29.07 28.28 27.72 27.01 28.27 26.85 26.37 26.49 27.13 24.86 23.92 25.91 25.71 23.39 23.66 22.41 21.94 21.77
29.24 22.21 18.53 16.41 15.36 11.44 14.38 10.12 15.29 12.84 12.90 14.80 15.78 13.13 11.53 14.55 17.35 17.28 19.64 17.25 18.36 18.88 18.82 16.78 16.19 15.51 17.49 18.11 19.70 20.85 23.20 23.82 24.48 26.28 28.73 27.98 27.14 26.94 27.68 27.72 27.30 28.52 27.94 25.44 25.33 24.89 25.08 23.55 25.22 22.66 22.43 22.12 20.47 18.11
21.78 17.95 15.53 9.30 8.79 9.91 8.36 9.15 7.88 11.85 8.10 6.17 12.74 10.18 12.43 12.11 14.39 12.45 14.30 17.21 15.19 16.16 15.98 15.29 13.87 13.92 12.76 13.83 16.45 19.06 21.70 21.83 20.85 20.20 22.67 27.71 27.29 25.85 26.02 26.85 26.84 26.37 26.45 25.05 24.30 23.68 23.61 23.87 22.59 22.45 21.33 19.94 18.35 17.47
15.97 13.56 11.82 14.13 9.96 10.69 10.57 7.92 8.30 8.70 7.48 8.87 10.29 10.22 8.61 12.46 10.31 12.05 14.23 16.74 15.36 13.92 13.13 12.56 11.10 10.76 12.05 14.46 14.51 15.87 18.04 20.77 20.17 19.42 21.70 26.86 26.73 26.39 25.29 23.76 22.93 23.21 26.94 27.11 24.75 23.37 22.07 22.46 21.60 20.82 20.05 20.99 22.39 17.05
13.90 12.30 14.56 18.05 14.82 12.71 11.61 12.70 12.94 10.33 6.01 6.26 9.97 8.82 8.95 4.96 6.76 13.93 16.18 14.27 14.80 12.88 11.98 11.61 10.39 10.04 10.63 12.44 15.15 16.90 18.85 20.43 20.47 20.66 22.55 22.93 25.28 28.08 27.71 25.60 24.39 25.52 26.93 26.48 25.59 23.82 22.38 21.54 20.88 21.03 20.69 21.14 18.60 17.74
18.80 17.16 14.84 14.35 11.65 10.03 9.10 8.16 7.09 7.59 9.80 12.18 12.50 5.29 6.68 9.29 13.32 16.51 15.83 12.94 11.62 8.98 8.36 8.48 9.17 9.70 10.31 11.91 14.57 16.38 18.17 20.49 21.75 22.45 22.94 23.60 24.57 27.34 28.66 29.03 28.06 28.29 27.75 27.32 26.11 25.70 23.99 22.98 22.25 21.42 19.99 17.52 17.13 18.12
16.57 14.58 15.30 6.72 6.27 7.54 8.88 10.41 10.01 11.63 13.85 12.91 11.57 10.24 10.35 12.97 12.81 12.10 11.26 9.18 4.93 6.09 7.43 8.91 10.73 9.08 10.32 13.19 15.87 18.71 20.03 19.81 18.28 16.55 17.94 20.09 20.64 22.65 26.15 26.68 27.48 27.92 27.10 27.41 28.63 26.19 24.56 23.84 22.45 20.18 18.38 16.85 16.29 16.58
14.32 14.76 11.66 7.63 8.75 9.68 9.30 7.26 6.62 4.81 8.61 9.25 9.27 10.37 10.56 10.55 9.98 6.32 6.98 6.03 7.13 8.75 7.69 5.24 5.29 5.32 7.70 10.81 12.62 15.31 20.20 21.05 20.71 19.23 18.37 20.86 22.24 23.70 25.69 26.14 25.33 25.94 26.36 25.76 24.86 25.33 27.70 22.86 20.54 15.99 14.32 13.65 13.73 13.31
11.61 11.08 7.38 7.56 7.06 1.38 0.47 1.68 3.20 7.54 1.66 1.38 -0.74 5.72 8.18 6.12 8.06 6.58 5.10 5.47 5.10 1.90 3.40 7.60 7.91 7.80 8.96 10.61 11.58 12.28 13.53 20.54 21.20 21.25 21.95 23.72 23.36 23.62 23.99 24.67 25.25 25.28 24.93 24.66 23.76 20.42 18.78 16.57 15.50 14.13 13.14 12.19 12.50 10.82
11.92 8.52 8.23 3.97 1.76 -1.79 -1.10 -2.51 -3.42 -1.11 -2.30 -0.66 1.33 -3.01 1.49 4.99 6.44 9.96 5.19 2.64 3.64 6.83 10.17 9.43 7.36 9.44 11.65 13.90 15.75 16.50 19.97 19.06 19.36 20.69 22.75 23.28 22.96 23.38 23.81 24.43 25.07 25.06 23.19 21.00 19.37 17.36 16.70 15.47 14.43 13.19 12.48 11.78 9.86 9.50
2.53 0.55 -2.43 -2.12 -4.21 -3.10 -1.20 -1.30 -2.20 -2.85 -3.18 -4.50 -0.24 -0.66 -0.92 3.51 7.69 8.95 4.51 2.73 6.27 7.32 7.26 7.29 8.56 11.65 15.25 16.80 19.20 20.02 21.00 20.25 21.35 24.24 24.88 25.21 25.48 24.57 22.72 22.15 21.41 20.10 19.09 18.45 17.78 16.83 15.85 14.67 13.38 12.28 10.83 9.75 8.96 8.54

GFSWCAN_sfc_wetblb_039.txt.gz
Wetbulb
45.02 44.68 44.87 45.85 46.37 45.73 45.39 45.03 44.48 44.12 44.05 44.05 44.09 44.14 44.41 45.19 45.58 44.60 43.25 46.68 42.05 39.44 45.52 46.84 47.46 45.21 44.70 44.84 39.52 42.33 40.51 40.59 39.63 36.19 35.49 36.07 35.90 38.57 37.43 39.77 38.30 36.21 34.54 33.42 33.87 32.07 30.58 45.40 45.98 40.46 43.83 45.33 44.74 43.23
44.62 44.42 44.66 45.69 45.81 45.48 45.16 44.77 44.29 43.94 43.73 43.64 43.67 43.89 44.82 44.36 44.58 44.92 41.45 44.91 44.99 40.92 46.25 49.54 50.17 49.81 48.87 47.80 45.12 44.19 41.98 41.14 41.88 37.88 37.90 39.52 37.80 39.79 38.96 34.52 42.25 36.54 40.54 38.46 38.95 39.21 47.32 48.56 46.56 47.30 45.11 43.61 43.87 43.06
44.30 44.41 44.43 45.97 45.63 45.36 45.14 44.74 44.37 44.05 43.88 43.73 43.84 43.93 44.21 43.90 44.65 44.30 42.73 43.90 43.34 44.16 47.31 47.67 46.61 50.37 51.59 51.06 51.85 43.04 42.86 44.96 43.09 46.27 42.45 41.53 38.12 42.65 36.94 38.03 40.53 43.21 45.39 41.13 41.69 45.21 46.70 48.02 48.11 45.35 43.80 42.15 42.25 43.17
43.85 44.16 44.66 45.92 44.91 45.22 45.21 44.80 44.41 44.33 44.22 44.26 43.99 43.85 43.96 43.56 43.90 44.20 42.03 44.23 41.85 40.74 40.16 44.26 50.43 48.47 50.74 50.91 50.26 49.49 46.94 47.21 46.85 45.92 42.33 40.64 39.35 44.76 40.81 41.10 41.19 44.00 44.23 43.03 42.96 45.73 47.04 45.18 44.48 43.58 41.79 41.32 40.61 41.46
43.74 43.84 44.25 45.66 44.37 45.02 45.24 44.92 44.48 44.34 44.27 44.18 43.57 43.77 44.07 43.83 43.79 44.27 44.33 44.30 44.49 39.81 39.03 43.44 48.32 48.17 48.91 48.95 48.49 49.13 47.70 45.65 43.95 41.76 40.39 39.73 42.98 43.09 44.16 42.66 40.68 45.36 43.25 41.43 41.11 45.61 45.10 44.03 44.01 43.30 41.32 39.15 39.72 39.43
43.61 43.61 44.07 45.37 44.57 44.69 44.74 44.78 44.47 44.37 44.08 43.63 43.39 44.03 44.42 44.67 43.89 42.12 40.79 44.82 45.90 44.47 40.60 40.29 47.45 45.50 47.07 47.93 47.14 46.80 46.73 45.34 44.14 42.25 42.26 44.40 47.09 44.47 40.82 39.11 44.67 47.60 48.36 48.04 46.05 45.88 45.14 44.51 43.33 42.65 40.36 39.50 39.29 38.54
43.46 43.29 44.24 45.12 44.67 44.56 44.92 44.55 44.43 44.09 43.50 43.79 44.11 44.29 44.42 44.52 44.04 38.07 39.51 43.11 45.52 44.50 41.76 39.90 42.14 45.94 47.08 46.18 45.37 45.31 46.40 45.07 44.03 42.47 42.35 43.57 44.14 44.32 41.65 38.50 45.23 47.38 48.01 47.94 48.13 45.85 43.73 43.48 42.44 41.33 39.55 38.56 38.72 37.63
43.16 43.41 44.38 44.95 44.42 44.55 44.69 44.39 44.28 43.51 43.90 43.71 43.99 45.20 45.67 45.50 44.53 40.61 44.78 46.25 46.62 43.17 44.49 38.96 39.57 42.17 46.56 43.15 42.07 46.11 43.26 43.92 43.74 42.73 43.59 42.54 43.48 42.31 37.80 44.21 46.67 48.08 48.32 46.85 46.55 46.54 45.53 44.42 41.57 38.82 37.77 37.12 35.12 34.16
43.01 43.43 44.29 44.58 44.20 44.46 44.46 44.32 43.76 43.65 43.28 43.23 43.94 44.97 44.83 43.10 40.57 43.02 44.94 45.43 47.30 44.97 41.12 39.28 36.66 36.89 45.83 44.12 44.17 43.91 44.17 39.39 43.39 40.39 41.29 40.56 40.07 38.05 42.96 45.10 46.37 47.41 45.24 45.46 44.32 43.63 42.87 40.96 38.83 37.60 37.51 37.14 35.21 34.07
43.04 43.25 44.55 44.02 44.19 44.21 44.07 44.02 43.41 43.36 42.36 43.01 44.51 42.07 39.13 42.31 43.50 44.04 44.79 43.05 44.51 44.31 44.31 39.74 43.21 39.42 43.42 43.27 42.53 41.61 40.95 38.56 34.14 38.21 39.32 36.93 38.02 44.23 46.54 47.73 46.98 46.11 45.61 43.25 40.07 38.09 39.54 38.23 37.72 37.80 38.00 38.14 36.70 34.84
42.71 43.15 44.38 43.72 44.00 44.11 43.84 43.20 43.31 42.28 42.17 41.10 38.84 37.24 39.97 42.58 43.41 43.03 38.03 39.85 40.07 36.79 42.64 41.78 41.12 40.10 44.33 39.66 40.32 41.20 38.43 37.41 34.21 35.01 35.60 36.70 36.90 41.81 41.75 40.95 42.50 43.58 45.27 44.09 44.32 43.77 42.53 41.16 39.91 39.08 38.28 37.53 36.43 35.31
42.73 43.65 43.77 43.53 43.73 43.68 42.90 43.08 41.98 40.36 38.82 38.34 38.18 40.16 39.17 39.88 38.97 35.86 34.71 36.98 35.60 35.97 40.19 39.35 40.27 41.05 43.02 43.68 39.83 39.61 36.80 36.76 32.35 37.19 34.05 32.48 39.41 39.49 38.50 38.62 39.98 41.42 43.15 42.93 42.93 42.83 42.85 41.95 41.55 39.92 37.76 36.24 35.85 34.29
42.77 43.80 43.61 43.58 43.56 42.61 42.87 41.77 40.93 40.63 41.18 41.03 37.44 34.56 37.57 36.33 32.66 32.02 30.61 33.58 33.67 35.45 35.63 36.15 37.78 40.06 40.72 41.77 37.68 37.65 33.62 33.41 37.07 33.06 31.89 36.19 39.54 37.68 37.40 38.54 39.86 40.17 41.42 40.98 40.42 42.10 42.62 41.27 40.52 38.46 36.51 36.15 33.97 32.43
42.70 43.85 43.46 43.33 42.82 42.53 41.99 40.43 40.30 40.92 39.65 35.74 32.55 30.50 32.82 31.59 32.54 33.52 33.41 34.08 36.02 36.22 36.48 37.15 36.74 37.93 39.34 38.03 37.61 33.98 35.68 34.70 31.41 29.42 31.61 39.53 36.78 34.52 36.82 38.47 39.05 38.96 39.22 39.14 38.87 39.57 39.19 38.13 37.50 37.40 36.24 34.78 33.34 31.80
42.93 43.69 43.26 42.40 41.65 42.17 40.04 39.46 40.36 41.65 37.35 32.81 33.01 29.29 29.72 33.87 34.37 33.84 33.54 33.93 36.71 37.60 37.02 37.33 36.78 36.73 35.68 34.19 35.25 34.54 32.17 30.23 31.85 33.30 38.81 36.29 34.25 33.95 36.15 37.89 38.59 39.00 38.93 38.68 38.77 38.40 38.10 37.50 36.06 35.16 35.00 34.76 33.67 31.87
43.14 42.80 39.64 40.61 42.29 40.32 39.25 39.40 40.39 39.91 35.03 33.45 32.22 30.36 32.20 31.75 33.20 33.64 31.71 33.76 37.53 36.46 37.16 35.69 34.52 33.61 34.16 35.91 32.13 32.19 30.60 30.20 35.65 35.77 36.11 34.36 33.50 35.10 36.00 36.57 36.69 37.28 37.78 37.85 38.41 38.10 37.11 36.33 35.23 34.57 34.41 33.09 32.11 31.65
42.56 39.40 39.52 40.72 40.59 38.16 38.98 38.48 37.47 33.53 31.42 31.47 30.22 31.92 31.88 30.91 31.23 32.43 32.52 32.28 35.60 34.62 33.52 34.27 31.71 33.13 33.15 31.70 30.69 34.03 32.12 33.35 31.63 32.31 33.67 33.44 31.79 31.93 32.57 34.63 34.97 35.38 36.27 37.03 36.84 36.49 36.07 35.44 33.86 31.96 29.75 30.12 30.11 29.09
40.05 40.17 40.03 41.20 38.77 36.27 36.61 36.61 33.28 31.12 27.86 31.57 28.46 30.34 30.28 30.77 30.24 32.16 33.18 33.91 33.44 32.82 32.81 31.80 31.65 31.17 30.92 30.49 33.14 31.65 30.93 31.70 32.59 32.44 32.14 32.96 33.04 32.83 33.52 33.74 34.14 34.34 34.81 34.88 33.57 31.69 31.59 31.03 30.99 29.78 28.41 27.92 26.75 26.68
41.22 40.90 40.48 39.41 37.47 34.15 30.87 30.46 32.14 25.78 27.58 29.54 29.78 30.44 29.93 29.94 31.67 32.18 31.56 32.43 33.46 34.19 32.16 32.13 30.42 30.61 31.61 30.81 29.14 29.27 28.16 27.92 27.70 29.86 31.73 34.43 33.55 31.54 31.21 31.75 31.84 32.19 32.12 31.52 31.39 31.52 31.64 32.24 29.26 27.66 26.82 27.70 25.86 25.90
43.09 41.10 38.89 38.54 36.17 31.55 26.60 27.00 31.04 27.05 25.61 27.52 28.07 26.89 27.48 27.33 28.76 28.86 30.32 31.51 32.11 31.93 30.45 28.49 30.09 29.62 28.38 27.64 27.74 27.32 27.49 28.67 28.23 28.12 30.71 33.99 34.26 31.31 31.49 30.88 32.14 31.99 31.67 31.73 31.76 31.48 28.29 27.31 28.04 27.88 28.38 27.31 25.87 25.24
37.93 36.88 35.74 34.30 31.20 30.55 28.25 26.63 24.57 26.47 26.67 25.61 26.96 25.31 24.22 25.80 25.09 26.56 29.48 31.70 30.66 29.82 28.70 30.82 28.31 27.43 26.49 25.76 25.87 26.51 27.11 28.02 27.49 27.98 28.16 28.67 32.04 32.80 31.43 31.00 30.39 30.64 30.61 30.47 29.45 28.99 28.73 27.01 27.42 28.85 28.75 27.33 26.99 26.05
34.65 35.33 30.46 29.96 27.63 25.42 25.94 26.02 25.48 25.46 24.22 24.82 24.35 21.86 22.07 23.02 24.08 26.08 26.26 25.44 26.56 30.10 27.85 26.41 25.98 24.61 23.78 23.79 24.21 24.44 24.80 25.43 26.83 27.92 30.37 31.28 30.06 31.31 31.25 30.69 29.58 29.74 30.42 31.13 30.60 29.23 27.65 27.57 28.29 28.60 26.92 25.80 25.67 24.89
33.60 31.07 27.36 26.23 23.62 22.16 19.41 22.52 21.85 21.44 20.42 20.81 19.62 20.45 21.04 21.03 23.98 23.95 22.62 26.32 26.52 25.91 25.33 24.25 23.04 21.35 20.20 21.53 22.33 23.29 25.29 26.12 25.33 26.30 27.47 28.13 29.61 31.63 31.29 30.86 30.16 30.31 29.77 29.84 30.90 28.01 26.54 28.61 27.85 25.78 25.74 24.81 24.19 23.55
31.07 26.90 24.81 23.26 22.08 19.27 18.62 18.28 20.21 19.46 19.13 19.57 19.33 18.43 19.09 21.21 20.79 22.29 21.49 24.90 25.59 23.75 22.75 21.47 20.61 20.02 21.79 21.04 20.77 22.42 22.78 23.94 23.02 24.06 25.91 25.09 26.14 28.59 30.79 30.12 30.21 30.19 30.29 28.56 26.71 26.13 25.93 25.87 27.19 25.62 24.31 23.59 23.25 21.20
25.31 22.42 21.03 17.94 15.81 16.12 16.51 15.86 15.76 17.48 17.27 16.06 17.03 16.75 18.09 18.14 19.69 19.20 19.06 23.96 22.50 22.57 23.25 21.20 19.78 18.89 17.39 18.28 19.95 21.02 22.87 21.71 20.59 20.34 22.03 23.77 24.21 26.93 27.81 28.78 28.97 29.33 28.37 26.35 24.72 25.22 25.20 25.82 25.02 24.10 24.02 22.96 20.79 20.20
21.05 19.86 17.34 19.71 16.50 16.66 17.10 13.42 13.21 15.35 16.60 13.89 15.15 16.45 16.68 18.74 15.51 15.12 20.05 24.35 23.70 23.65 22.18 20.37 19.91 18.50 17.93 18.77 17.54 18.43 19.85 21.58 20.29 18.46 20.42 23.07 23.97 24.30 25.39 26.14 25.30 25.72 27.79 28.02 26.76 25.09 24.52 24.41 24.06 23.64 22.52 23.12 24.51 20.00
20.23 18.92 17.54 19.75 18.21 16.30 15.13 16.36 17.44 16.83 13.41 12.53 16.11 14.77 16.11 11.64 13.56 19.52 23.40 22.43 23.09 22.43 21.11 20.35 18.43 16.94 16.71 17.01 18.22 18.97 19.78 20.17 19.14 19.48 21.63 22.17 22.80 23.52 23.04 23.25 26.25 28.03 28.22 28.52 27.81 26.40 24.83 24.08 23.17 22.94 22.41 22.92 21.85 20.33
22.00 19.87 15.94 16.84 15.96 15.64 14.10 14.66 14.14 13.28 16.30 17.83 18.37 11.67 11.83 14.18 17.03 24.00 23.87 21.52 21.30 17.85 17.00 16.36 15.91 15.36 14.92 15.42 16.61 16.63 17.03 18.64 19.47 20.61 21.74 22.52 23.73 24.31 24.86 26.71 29.69 30.70 28.89 28.95 28.27 27.22 26.22 24.94 24.12 23.35 22.65 20.98 19.77 20.59
19.02 18.46 19.05 13.44 13.52 13.99 14.74 15.69 16.47 18.26 18.59 18.15 17.64 16.93 16.88 19.36 21.41 20.82 18.47 16.21 14.45 14.00 13.75 15.10 16.89 15.82 14.34 15.08 15.99 16.66 17.43 18.34 17.65 15.46 15.01 16.25 19.36 24.15 26.86 28.29 29.15 29.48 28.60 28.42 30.09 28.37 26.80 25.95 25.09 23.71 21.55 20.47 20.16 20.26
18.40 21.10 17.19 13.47 12.21 13.30 16.05 13.71 14.35 11.67 13.50 14.32 13.79 15.63 15.96 17.14 18.28 15.38 14.16 12.46 11.76 13.27 15.59 14.48 12.78 10.84 11.38 11.99 13.30 14.74 17.93 19.00 19.75 18.68 16.97 17.26 20.29 25.72 26.30 26.51 27.45 28.11 27.99 27.80 27.26 27.49 30.37 27.49 25.38 20.56 18.43 17.95 17.76 17.79
17.55 17.54 15.11 15.86 15.00 10.54 7.40 6.94 8.77 11.18 10.29 10.57 8.02 11.57 14.92 13.23 14.56 14.55 12.21 12.97 13.20 11.13 10.51 12.22 13.79 14.40 12.82 12.92 13.62 13.26 13.35 18.17 19.52 20.23 20.96 21.19 21.95 22.99 24.51 26.34 27.14 27.40 27.27 26.35 26.10 25.63 22.53 18.67 17.87 17.12 16.57 16.02 16.70 15.09
16.20 16.14 14.46 11.59 10.86 5.34 6.00 7.35 7.93 9.85 9.11 8.89 11.50 5.41 9.72 11.40 12.60 18.74 11.22 9.45 9.85 11.71 14.41 15.19 12.91 13.73 15.51 15.51 15.88 16.59 19.94 18.74 18.73 19.05 19.10 19.69 21.45 24.44 25.37 26.15 26.48 26.42 25.90 25.08 21.78 19.93 19.25 18.27 17.81 16.88 16.01 15.68 13.58 13.18
8.07 8.03 7.13 8.25 7.24 6.93 6.16 7.85 7.95 8.01 6.91 8.22 8.94 6.67 7.85 9.27 11.40 15.95 9.70 9.46 12.53 13.58 13.57 13.73 13.60 13.47 13.95 14.41 17.48 20.64 23.83 22.88 21.47 25.14 25.76 25.95 25.88 25.74 25.42 25.55 25.52 24.35 22.17 20.94 20.17 19.94 18.86 17.77 16.78 16.27 14.74 13.29 12.62 12.29

GFSWCAN_sfc_wetblb_042.txt.gz
Wetbulb
45.66 45.46 45.18 45.02 45.44 46.87 46.16 45.82 45.35 44.98 44.65 44.26 44.37 44.18 44.46 45.02 44.80 43.39 42.69 45.53 41.39 38.85 41.32 46.93 46.96 44.63 43.89 43.70 38.81 41.68 40.52 40.67 39.67 35.95 35.02 33.77 31.99 35.34 33.28 38.11 34.81 33.35 32.95 31.91 31.25 29.59 25.90 42.76 43.26 36.88 39.40 40.83 40.95 42.25
45.46 45.34 45.01 44.90 45.20 46.79 45.97 45.69 45.35 44.91 44.82 44.57 44.55 44.47 44.35 44.58 44.51 44.66 41.56 45.00 44.75 39.71 42.90 49.50 49.78 49.74 48.37 46.74 44.61 43.24 41.69 40.22 41.59 38.01 37.98 37.30 35.23 35.06 34.77 32.36 38.82 34.20 37.08 35.69 35.32 34.09 42.50 44.89 42.37 42.29 41.40 39.80 39.44 39.99
45.18 44.80 44.56 44.61 45.48 46.49 45.67 45.34 45.41 45.03 44.84 44.70 44.57 44.48 44.14 44.19 44.19 43.60 41.46 43.67 42.61 42.35 45.76 46.66 45.88 49.33 51.04 50.04 50.75 42.72 43.11 43.92 42.86 44.52 41.81 40.07 35.29 38.49 34.78 33.71 36.60 38.59 41.44 37.47 38.70 41.86 43.29 41.96 43.23 41.26 39.70 38.61 39.27 40.84
44.88 44.45 44.23 44.39 44.91 46.17 45.04 45.36 45.42 45.10 44.95 44.85 44.86 44.44 44.06 43.55 43.70 43.61 41.08 44.20 41.72 40.60 39.40 43.18 49.69 47.37 49.89 50.26 49.70 49.00 46.43 47.04 46.54 45.37 41.43 39.65 37.78 42.49 36.97 38.29 37.40 39.86 40.23 38.97 38.68 41.38 41.94 41.40 40.69 40.46 39.42 39.49 39.37 39.68
44.55 44.32 44.16 44.03 44.67 46.00 44.82 44.77 45.00 45.06 44.90 44.79 44.30 43.91 43.87 44.46 43.73 42.93 42.68 44.60 43.74 39.97 38.28 41.84 47.02 47.20 48.35 48.64 48.64 48.88 47.07 45.30 43.75 41.68 39.94 38.17 40.96 40.29 39.87 39.12 37.50 40.80 39.42 36.98 35.70 41.72 41.20 39.86 40.48 41.29 38.52 38.02 38.60 37.75
44.35 44.02 44.01 43.94 44.86 45.74 45.07 44.89 45.10 44.85 44.76 44.12 44.14 44.48 44.79 44.89 44.88 41.49 39.29 44.32 45.97 44.07 39.62 38.62 46.08 44.47 46.40 47.76 47.20 47.06 46.91 45.43 44.22 42.03 40.94 42.39 43.56 41.92 35.78 35.70 41.75 42.68 43.96 44.06 41.12 41.86 41.58 41.15 40.33 39.64 37.54 37.36 37.82 36.79
44.19 43.85 43.65 43.68 44.68 45.45 44.79 44.73 44.91 44.77 44.58 44.28 44.49 44.57 44.88 44.75 42.96 37.89 38.67 43.09 45.25 44.57 40.99 38.22 40.88 44.63 46.59 45.83 45.09 45.12 46.44 44.46 43.72 41.74 40.75 41.70 42.43 41.97 38.84 35.74 41.60 43.02 44.01 43.85 44.19 42.64 39.82 40.45 38.43 37.53 37.10 37.34 37.71 35.86
44.14 43.77 43.33 43.85 44.96 44.92 44.40 44.71 44.71 44.69 44.20 44.17 44.48 45.51 45.72 45.20 44.01 40.52 45.01 45.80 46.08 42.67 43.29 36.86 37.11 40.59 46.08 42.77 41.31 45.41 42.97 43.36 42.52 41.61 42.78 41.72 42.09 42.05 37.50 41.02 43.22 44.67 44.42 43.26 43.00 42.98 41.68 39.90 37.12 35.57 35.66 35.05 33.38 32.70
43.74 43.40 43.37 43.84 45.08 43.88 44.46 44.66 44.56 43.99 43.96 43.25 44.11 45.39 44.31 42.38 39.83 42.66 45.09 45.56 46.30 43.78 39.03 38.74 34.94 35.08 44.36 43.04 43.68 43.17 43.89 38.79 42.75 39.47 40.56 40.52 39.51 36.84 39.71 41.71 42.84 42.67 42.07 41.04 40.59 40.83 39.64 37.27 35.20 34.60 34.63 34.95 32.91 32.21
43.43 43.20 43.10 43.64 44.59 44.28 44.42 44.48 43.86 43.84 42.85 43.35 43.06 41.59 38.98 42.49 43.61 44.08 43.29 42.34 41.91 43.52 43.16 39.04 41.88 37.94 41.55 41.63 40.18 40.62 40.88 37.95 33.49 37.78 39.17 36.67 37.21 41.41 42.47 41.96 41.10 43.19 42.10 40.48 37.21 33.97 34.42 32.47 34.22 35.06 35.88 35.89 34.08 32.84
43.25 42.90 43.07 44.09 43.92 44.03 44.14 43.82 43.71 42.50 43.02 39.88 38.31 37.86 40.50 43.22 43.22 42.55 37.83 38.42 39.65 36.38 41.47 40.90 39.84 38.73 42.65 37.94 38.95 39.86 36.27 34.97 32.26 34.07 34.90 34.41 35.38 38.55 37.54 37.38 38.57 39.55 40.50 41.28 40.95 39.68 39.70 38.71 37.99 36.83 36.00 34.88 34.03 33.28
43.01 42.70 43.13 44.33 43.72 43.62 43.67 43.35 42.48 39.58 38.61 37.90 38.04 40.22 39.44 39.84 38.55 35.31 34.24 36.07 35.17 34.56 38.85 38.62 39.08 39.72 41.11 41.66 37.86 38.07 34.30 34.26 31.18 35.66 33.21 30.97 36.57 36.95 35.33 35.94 37.57 38.68 39.85 40.79 40.95 40.28 41.17 40.60 40.14 38.77 36.39 34.68 33.33 31.21
43.00 42.65 43.05 44.25 43.75 43.65 43.15 42.95 41.28 41.10 41.48 40.52 37.69 34.09 36.60 36.18 32.42 31.83 30.79 32.64 33.00 35.12 35.09 35.36 35.94 38.97 40.01 39.88 36.01 34.55 32.74 32.52 35.59 31.89 31.01 32.52 33.85 33.82 33.35 36.36 36.88 39.03 39.64 39.68 39.30 40.73 41.28 40.10 39.35 37.46 35.05 34.19 31.32 30.38
42.80 42.54 43.34 43.82 43.43 42.32 42.86 41.28 40.82 40.78 38.18 34.83 31.67 25.33 31.08 30.82 32.72 33.31 33.25 33.24 34.89 35.26 35.71 36.87 35.67 36.79 38.49 35.91 36.05 31.64 34.70 32.40 29.84 28.08 27.61 32.30 31.47 32.69 34.01 36.36 37.10 37.42 37.85 37.95 37.89 38.71 38.22 37.55 36.40 36.01 34.65 32.19 31.13 29.74
42.59 41.95 43.38 43.30 42.17 42.26 41.34 39.94 40.50 39.93 35.40 32.10 30.60 26.47 29.68 33.24 33.42 32.80 32.71 33.86 35.40 36.80 36.51 36.14 34.11 35.43 33.88 32.70 33.62 32.48 31.10 28.53 30.35 27.13 32.44 30.90 30.93 31.28 33.15 34.20 34.96 35.36 35.84 36.38 36.69 36.37 36.14 35.85 34.54 32.74 32.48 31.95 31.02 29.81
42.31 42.22 40.64 41.51 41.95 40.50 39.37 39.56 38.91 38.85 32.33 31.97 29.59 29.72 32.40 31.85 31.69 32.09 31.33 32.89 35.61 35.79 35.85 34.46 33.44 32.76 28.74 32.20 30.53 30.51 29.00 28.11 30.23 28.52 27.60 30.05 30.32 30.77 31.13 31.92 33.43 34.15 34.67 35.27 35.95 35.97 34.83 33.53 32.02 31.28 31.16 30.17 29.40 29.31
41.80 38.64 40.54 40.28 40.18 38.31 38.99 36.53 35.30 31.66 30.64 29.09 28.60 32.12 31.91 31.40 31.39 31.39 32.61 32.20 34.92 33.55 32.60 32.90 31.83 31.24 32.33 30.30 29.21 32.73 30.79 29.89 27.10 25.63 25.83 27.76 28.30 29.54 29.67 31.48 32.71 33.02 33.63 34.28 34.29 34.02 33.44 32.58 30.96 29.59 26.89 26.24 26.15 25.95
38.88 40.17 40.99 40.90 38.81 36.38 35.55 33.29 29.24 29.66 26.64 29.70 27.40 29.51 30.51 30.91 30.38 31.23 32.12 33.31 33.07 32.02 31.96 31.55 31.01 29.95 29.37 29.74 29.51 28.87 28.08 27.73 24.51 24.84 26.84 28.63 29.25 29.62 29.60 28.79 29.72 29.51 30.49 29.66 26.65 26.34 26.00 26.47 26.42 25.54 24.48 24.38 24.71 24.96
40.65 41.04 41.25 40.48 37.44 34.10 29.87 28.52 29.59 24.87 27.70 29.02 29.63 29.66 30.24 30.20 31.47 31.79 31.00 31.59 32.59 33.47 31.28 30.89 28.87 29.17 29.61 28.90 28.23 26.33 24.18 26.43 26.42 26.79 27.31 29.23 29.84 28.93 27.90 26.93 27.95 26.35 26.12 25.59 27.93 27.98 27.58 27.82 26.11 25.70 26.14 26.55 24.55 23.97
42.37 42.21 40.44 38.93 36.58 31.76 26.45 26.10 29.78 26.71 24.05 26.68 28.53 27.22 27.25 26.99 28.46 28.54 27.11 28.09 29.31 29.24 28.46 26.79 28.42 29.11 27.28 25.56 23.49 23.83 25.10 25.53 26.03 25.74 25.69 28.12 28.94 26.26 27.52 24.98 27.00 26.83 27.77 26.91 25.30 28.13 23.42 24.45 25.75 27.06 26.96 26.01 24.85 24.14
38.29 37.33 36.10 34.92 31.70 31.01 28.12 26.29 25.06 26.53 26.73 24.40 26.76 25.78 24.32 25.35 23.86 24.53 26.88 30.59 27.41 18.54 19.52 24.96 25.36 23.87 23.13 22.62 23.92 23.74 23.35 23.77 22.54 23.92 24.55 24.60 27.45 29.27 30.30 29.67 23.48 27.50 27.24 27.09 25.60 25.02 26.93 24.22 24.83 25.12 28.65 26.85 26.31 24.98
34.88 35.96 30.87 31.10 28.48 26.27 25.11 25.91 25.29 25.86 23.84 23.83 23.01 22.01 19.38 17.77 20.18 22.45 26.28 25.12 24.99 21.97 22.65 22.65 20.80 21.03 20.91 20.47 19.65 20.00 20.85 21.55 22.12 24.78 28.44 28.29 26.38 27.30 28.38 30.26 27.41 22.05 23.96 25.97 27.60 27.44 24.75 25.29 26.89 26.04 26.66 25.85 25.82 24.98
34.08 32.04 28.91 28.04 24.69 23.03 18.54 23.52 22.03 22.33 20.71 19.96 18.45 15.17 15.25 19.45 22.93 22.38 20.50 23.16 20.24 20.45 20.19 19.72 17.44 17.04 16.26 18.06 19.75 19.82 20.92 20.26 20.68 21.76 22.70 22.69 24.61 26.16 27.29 28.61 28.50 26.52 26.00 26.15 25.90 28.25 27.37 28.59 29.40 25.88 25.68 24.18 24.47 24.41
32.28 28.70 25.77 24.21 23.56 18.65 18.80 16.88 21.04 20.71 19.84 18.76 17.40 13.04 12.11 13.27 15.02 19.85 18.56 18.33 18.55 18.41 17.84 15.43 14.82 14.48 15.62 13.17 13.77 16.71 18.30 18.60 17.99 17.77 18.19 18.09 19.50 20.77 22.66 24.37 27.48 27.00 29.40 27.30 24.85 25.52 27.09 27.37 28.29 25.79 24.60 23.97 23.71 22.04
25.39 22.95 23.09 17.53 15.29 13.93 15.18 14.32 16.72 17.77 16.55 17.24 15.01 12.71 10.74 12.60 9.80 9.01 10.09 14.22 14.21 13.50 14.99 14.82 13.94 12.83 8.51 8.35 14.56 15.68 17.20 17.00 14.79 15.45 15.69 15.96 18.09 19.37 19.74 22.26 25.77 27.17 26.95 26.60 25.41 24.49 25.96 25.92 25.45 24.45 23.85 23.56 22.25 20.78
21.48 20.59 18.02 17.24 10.71 13.10 15.85 15.07 15.23 15.90 16.31 10.11 11.97 11.52 10.44 11.10 6.06 6.48 11.83 13.89 14.16 16.22 17.84 16.88 13.72 10.44 14.06 16.31 13.44 11.96 14.15 15.44 14.74 14.23 15.17 16.46 17.63 19.25 20.11 18.80 18.26 21.67 26.01 28.78 27.15 25.74 25.57 25.87 24.95 23.93 23.61 24.57 25.81 21.08
20.45 17.64 17.15 19.74 17.51 17.08 15.46 17.31 18.46 16.97 13.43 10.52 11.58 8.65 8.43 3.78 3.89 12.11 15.67 15.16 15.70 14.08 14.32 15.08 15.59 14.16 12.80 10.87 13.23 13.77 13.20 10.67 12.03 13.75 16.68 17.40 18.24 18.94 18.39 17.86 17.09 20.28 25.81 28.37 28.32 27.37 25.63 25.23 24.29 24.36 23.91 24.07 24.09 21.34
20.85 17.04 12.78 15.36 16.11 16.64 15.53 14.51 14.06 13.77 14.53 16.98 16.35 6.78 6.70 8.28 9.73 14.04 14.10 12.90 10.88 9.01 8.13 8.48 8.58 8.31 7.76 7.96 8.46 10.69 9.76 10.95 11.03 13.24 16.96 18.17 18.94 19.23 19.58 20.75 22.38 25.31 25.14 27.70 28.69 28.36 27.19 25.95 25.24 24.56 23.85 23.55 21.43 21.81
16.18 19.35 19.42 15.47 15.36 15.14 14.98 14.81 14.90 16.35 17.12 15.11 12.57 11.57 11.55 14.86 12.17 11.72 11.31 9.01 6.03 5.79 5.06 5.01 6.24 4.95 4.71 6.26 9.00 11.28 11.20 8.71 10.57 11.14 11.01 11.94 13.27 13.32 16.38 20.78 22.99 25.10 26.84 28.67 31.45 30.11 27.40 26.88 25.98 25.20 24.63 22.30 21.86 21.28
18.52 21.51 18.07 15.06 14.87 14.37 14.66 13.18 12.60 9.66 11.98 11.39 12.07 11.36 11.29 10.75 10.28 8.93 7.66 4.16 3.98 4.80 3.80 3.94 2.48 0.81 0.97 1.15 3.87 6.35 9.05 12.30 13.94 14.15 13.15 13.36 12.92 12.05 13.44 16.38 21.63 24.17 27.82 27.72 27.80 28.79 31.41 29.18 28.71 24.36 21.25 20.32 20.06 19.78
20.24 19.81 16.95 16.48 14.91 10.50 7.44 6.63 7.48 10.65 7.53 4.39 2.71 3.55 6.64 6.13 9.17 8.24 5.76 4.91 3.78 0.78 0.23 -0.18 0.29 1.29 3.53 4.55 2.02 8.15 10.62 9.36 10.65 13.20 16.09 18.35 17.93 16.41 17.32 18.88 21.95 24.51 27.21 27.20 27.01 26.69 27.04 24.00 20.57 19.41 19.07 18.77 19.52 18.10
17.50 14.76 13.52 10.70 9.16 4.22 2.24 1.75 3.10 4.51 3.46 0.77 1.78 -0.51 2.41 3.46 4.52 9.33 3.48 1.20 0.09 1.03 7.37 5.68 2.66 5.48 6.06 5.70 8.32 12.49 18.86 17.03 16.99 18.00 17.83 17.71 17.11 16.75 17.80 20.29 23.34 25.81 26.40 26.17 26.24 23.22 20.11 19.45 18.98 18.80 18.32 17.91 15.92 15.75
8.97 10.69 10.56 8.13 1.42 -0.18 2.08 1.83 3.46 2.10 1.38 1.94 3.37 2.23 0.58 2.91 5.56 7.60 3.95 2.07 3.19 4.10 4.47 4.23 3.86 4.75 6.01 7.24 11.58 15.43 19.73 19.23 21.35 26.74 28.10 27.62 27.21 24.75 23.49 24.62 25.22 25.38 23.63 21.45 20.68 20.22 19.25 18.88 17.95 17.70 16.80 16.35 15.62 15.03

GFSWCAN_sfc_wetblb_045.txt.gz
Wetbulb
45.98 45.43 45.61 45.47 45.47 45.39 46.17 46.89 45.98 45.49 45.06 44.96 44.63 44.67 44.48 44.38 44.71 42.34 41.09 45.27 40.49 38.69 40.56 43.83 46.10 42.22 42.78 42.33 36.42 39.87 40.12 40.44 39.33 35.53 33.51 32.56 30.53 32.97 32.25 36.21 33.87 32.24 31.91 32.33 32.74 28.93 25.30 39.31 40.14 35.87 38.58 39.24 38.87 40.34
45.92 45.46 45.56 45.07 44.97 45.25 46.36 46.35 46.07 45.52 45.17 44.60 44.65 44.26 44.53 43.83 44.15 43.39 39.76 44.51 44.75 38.45 40.91 46.51 47.92 49.15 46.84 44.32 43.74 40.49 39.04 38.90 41.26 37.90 36.98 34.64 32.80 33.32 32.66 31.83 37.27 33.08 34.99 33.42 32.57 31.88 38.69 40.57 40.57 39.51 39.55 38.84 37.89 39.29
45.51 45.09 45.35 45.02 44.75 45.00 45.72 45.90 45.77 45.62 45.32 44.46 44.41 44.28 44.14 43.81 43.76 42.19 39.48 42.65 42.04 40.05 42.95 45.09 44.59 49.09 50.41 49.58 49.53 40.01 40.89 42.59 40.17 43.40 39.34 39.02 33.29 36.00 31.12 31.55 35.98 39.51 41.69 37.75 36.96 40.28 40.59 40.09 38.61 38.53 38.16 37.00 37.89 41.15
45.00 44.54 45.03 44.85 44.53 44.68 45.34 45.85 44.72 45.18 45.43 44.72 44.59 44.45 43.88 43.79 43.74 43.10 37.35 42.85 41.30 38.66 38.28 43.08 49.27 46.77 48.34 48.85 47.53 46.65 44.40 45.49 45.20 44.94 40.75 38.50 37.02 40.48 36.78 36.37 36.44 37.66 39.95 38.01 37.17 39.69 39.30 38.84 38.39 38.15 37.72 38.30 38.27 39.51
44.75 44.87 44.91 44.75 44.52 44.47 45.63 45.92 44.53 44.86 44.92 44.79 44.90 44.37 44.73 44.71 44.67 42.10 38.93 42.36 43.42 37.54 37.63 40.17 44.60 44.95 47.19 46.90 46.76 47.00 45.38 44.74 43.62 41.72 40.10 38.12 39.75 37.55 37.16 36.70 34.98 39.55 38.34 36.83 35.96 40.18 39.97 38.71 38.67 39.27 37.20 36.77 38.21 37.31
44.39 44.89 44.76 44.43 44.05 44.36 45.46 45.29 44.21 44.63 44.59 44.85 44.42 45.06 44.98 45.05 45.08 39.25 37.39 44.46 45.22 43.92 39.26 37.93 45.12 42.27 45.21 47.50 45.37 46.05 46.90 45.57 44.36 42.10 40.83 41.86 43.44 42.12 36.75 35.43 39.67 40.18 41.66 42.58 40.01 40.83 40.33 39.33 38.67 37.89 36.79 36.24 37.06 36.41
44.26 44.71 44.80 44.06 43.75 44.58 45.75 44.52 44.21 44.34 44.73 44.27 44.43 45.02 45.16 45.04 40.90 37.33 38.20 42.60 45.11 44.53 40.12 37.61 39.07 44.24 45.80 45.04 43.95 44.69 46.37 44.19 43.13 41.42 40.10 40.79 41.62 42.77 38.19 34.00 39.26 41.30 42.35 42.59 42.57 41.55 38.84 38.49 36.97 36.46 36.43 36.00 36.27 34.23
44.16 44.78 44.23 43.62 43.77 44.64 44.87 43.84 44.10 44.51 44.18 44.06 44.30 45.63 44.96 44.22 43.21 39.63 43.77 45.58 45.34 41.84 42.51 36.02 36.31 38.78 45.51 42.47 41.17 44.99 42.99 43.05 42.27 41.02 41.99 40.02 41.19 40.31 37.40 39.05 41.40 43.63 43.46 42.49 41.08 40.91 40.67 37.12 35.13 33.76 33.44 33.21 32.03 31.19
44.66 44.03 43.66 43.59 43.69 44.79 44.35 44.27 44.33 44.01 43.74 43.27 43.71 45.40 42.68 41.96 39.26 41.97 45.55 45.62 45.77 42.84 38.34 38.02 34.12 33.69 43.93 41.97 43.35 42.85 43.39 38.68 42.27 38.44 39.66 40.07 39.13 36.36 37.91 40.02 41.03 42.13 40.59 39.46 39.13 37.93 36.47 34.73 33.06 32.43 32.56 32.43 31.15 31.20
43.88 43.50 43.45 43.32 43.66 44.58 44.08 43.88 43.96 43.42 42.97 43.64 42.37 40.55 37.71 41.73 43.69 43.94 42.83 41.48 41.11 42.10 42.12 38.70 40.41 37.04 40.08 40.92 37.66 40.54 40.89 37.82 32.66 37.45 39.40 36.68 36.69 41.48 36.83 36.53 37.43 38.55 38.63 39.26 36.91 33.55 31.80 29.93 31.80 32.31 32.89 33.81 33.67 31.90
43.45 43.28 43.32 43.22 44.20 43.86 43.78 43.68 43.46 41.92 41.87 36.47 36.85 36.83 40.09 43.12 42.12 40.94 37.78 37.82 38.82 35.93 41.15 40.57 38.06 37.55 42.35 36.73 38.35 39.52 35.21 34.46 32.20 33.59 34.53 32.38 34.35 34.11 34.31 34.15 36.99 37.72 37.87 37.90 39.47 39.64 38.99 36.79 35.98 34.62 34.35 34.05 33.01 32.26
44.02 43.25 43.13 43.34 44.40 43.85 43.69 43.31 42.21 36.27 37.34 37.03 36.95 39.68 39.08 39.61 38.19 35.11 34.05 35.06 35.10 33.52 38.40 38.23 38.62 39.24 39.90 41.08 37.87 37.41 33.72 33.65 30.22 35.61 33.32 30.30 34.30 32.87 33.12 33.51 36.30 37.06 37.30 38.07 39.94 40.49 39.62 38.97 37.75 37.28 34.95 33.62 32.48 29.96
42.49 43.32 43.00 43.34 44.17 43.61 42.97 42.78 41.06 40.86 40.77 39.88 37.34 33.59 35.93 35.28 31.84 31.58 29.92 32.53 33.02 34.68 34.93 35.24 35.41 38.39 39.62 39.57 34.07 33.49 32.40 32.39 35.54 30.79 30.78 31.86 31.78 32.16 32.18 34.55 35.21 37.00 38.03 38.99 39.15 40.46 40.82 39.97 39.70 37.23 34.28 33.26 31.05 29.34
42.46 42.98 42.09 42.78 43.81 42.58 42.56 41.47 40.43 39.44 37.61 34.01 31.69 26.06 30.31 30.30 31.32 32.45 31.85 32.18 33.89 33.83 34.93 36.61 35.09 36.43 38.24 34.75 34.53 31.23 34.11 32.37 28.95 27.74 27.36 30.65 30.66 31.23 31.97 33.12 33.45 33.98 35.10 36.52 36.92 38.06 38.34 38.47 36.95 35.26 33.55 31.84 30.53 29.05
42.02 42.67 42.20 42.68 42.51 41.90 41.55 39.83 40.18 37.37 35.15 31.12 30.27 25.00 28.90 31.09 32.47 31.99 32.32 33.12 34.34 35.96 36.10 35.64 34.43 34.31 32.87 31.85 31.05 31.28 30.09 28.03 29.58 28.60 28.99 25.82 28.87 29.86 30.59 31.27 31.79 33.08 33.70 34.41 36.00 36.09 35.48 34.87 33.41 31.07 31.00 30.93 30.45 29.43
42.49 40.82 40.44 41.75 41.81 40.29 39.28 39.11 37.35 35.15 30.04 30.67 27.21 28.34 31.76 30.95 30.73 31.21 31.53 32.43 34.09 35.10 35.21 34.25 32.94 32.34 31.63 31.65 30.30 29.73 28.33 27.04 29.92 26.90 23.15 24.10 27.48 28.21 29.12 30.12 31.45 32.58 33.10 33.95 34.90 35.63 34.57 32.87 30.98 29.82 29.76 29.69 29.36 28.90
41.32 38.34 41.33 40.61 40.26 38.66 39.35 35.14 32.99 27.54 23.52 27.58 26.97 31.49 30.47 29.94 28.56 30.73 32.71 32.24 34.73 33.27 32.40 32.46 31.25 30.39 32.11 29.64 28.65 31.50 29.91 28.96 27.72 22.09 22.35 24.85 25.59 26.53 27.32 28.61 29.74 30.46 31.33 31.93 32.39 33.11 33.03 31.40 29.25 28.16 25.66 25.63 25.95 25.53
38.13 40.25 41.00 40.66 38.76 36.43 34.62 32.82 27.54 26.97 24.75 27.65 26.20 28.52 30.53 30.78 30.35 31.29 31.80 32.91 32.52 31.99 31.79 31.66 31.13 29.46 28.91 28.95 26.90 28.52 28.12 28.32 23.24 22.60 24.16 25.68 26.51 27.85 28.24 27.75 28.89 28.26 28.58 28.93 26.55 26.02 25.19 25.61 25.82 24.89 23.76 23.22 22.93 24.14
40.15 40.29 41.44 41.18 37.11 32.85 27.59 27.22 27.99 23.94 23.23 27.77 28.71 29.13 29.95 30.13 31.25 30.95 30.94 31.40 31.80 33.24 30.86 30.54 28.15 28.02 27.87 29.42 29.02 26.54 18.13 20.89 23.03 24.52 26.39 27.30 26.91 26.72 26.84 27.42 29.33 26.32 26.47 25.69 27.61 27.92 27.24 26.90 25.77 24.61 24.27 25.10 24.29 24.63
42.12 42.08 41.77 39.26 36.69 29.56 23.80 23.36 28.96 23.60 22.20 24.65 27.57 26.72 27.33 27.18 28.02 28.31 28.42 29.37 29.47 27.12 26.24 26.07 27.89 26.38 25.53 23.95 22.22 21.30 21.85 23.86 23.04 21.74 22.71 24.96 25.61 23.08 25.61 29.14 29.99 27.64 26.12 26.43 24.74 27.91 22.15 24.53 24.99 25.04 25.80 25.81 24.28 23.95
38.87 37.49 36.69 34.28 30.71 29.43 25.39 24.08 22.51 22.15 24.42 23.11 23.94 25.69 24.23 25.33 23.86 23.08 24.03 25.61 26.53 19.48 14.60 21.96 24.50 23.47 21.38 21.28 23.36 22.98 22.17 21.44 20.65 20.70 20.30 18.48 22.78 26.73 27.55 28.45 29.88 29.28 27.61 25.22 25.02 25.67 28.06 24.20 24.04 24.37 24.33 26.75 25.32 25.13
35.35 36.66 30.78 31.13 26.80 24.81 23.19 24.37 22.08 23.66 20.81 20.63 21.55 22.57 19.66 19.07 20.20 22.58 20.98 24.72 24.58 19.10 21.05 21.78 18.71 19.75 19.92 19.95 18.72 18.83 20.11 20.33 20.34 20.42 24.70 24.89 20.77 19.64 21.67 24.95 26.43 27.36 28.06 28.18 24.12 25.26 27.88 27.37 26.78 26.65 26.93 25.36 25.76 24.70
34.88 32.24 28.82 26.84 23.33 19.84 16.23 20.45 16.37 17.10 17.07 15.67 17.49 17.32 16.34 17.60 20.52 24.21 20.46 22.43 19.94 19.89 19.00 17.99 15.36 14.45 15.84 16.38 18.62 18.59 19.43 17.75 17.53 18.89 20.18 19.56 19.65 20.92 20.45 20.49 21.74 24.29 25.93 27.55 25.38 27.50 28.77 29.34 29.10 27.38 26.45 25.96 24.55 24.81
33.65 29.68 25.42 23.48 20.78 17.47 16.35 10.59 18.18 15.18 16.24 17.05 15.76 16.38 14.54 15.85 18.29 18.97 17.69 17.09 19.17 16.07 17.10 13.49 12.55 12.90 12.74 9.62 11.18 14.35 17.15 17.28 16.35 14.58 14.68 14.23 15.47 18.12 19.60 20.17 21.14 21.32 22.99 25.14 26.37 27.24 27.73 27.62 29.28 27.11 25.52 24.15 24.37 24.37
25.72 22.34 20.64 13.04 11.60 10.04 6.06 9.21 10.37 16.54 15.78 18.37 17.44 15.10 11.81 14.47 9.22 7.74 13.47 14.83 9.94 10.57 11.88 11.48 11.06 10.07 6.91 2.58 11.64 13.21 14.77 15.80 14.33 13.76 12.53 14.96 15.27 16.37 15.90 16.86 19.30 21.22 22.49 23.31 26.28 25.63 26.18 27.26 27.50 25.37 24.27 24.21 23.82 22.22
19.96 18.36 15.97 14.45 8.69 10.39 10.46 11.41 13.04 14.55 16.82 16.09 16.28 12.13 13.30 13.53 8.01 10.15 14.36 11.39 10.63 11.92 13.48 15.93 14.23 7.78 10.65 13.94 11.14 9.73 12.56 13.09 12.50 11.52 13.19 13.72 14.53 13.76 9.84 14.73 15.81 16.91 19.65 22.03 25.27 25.43 24.46 26.18 26.12 24.68 23.93 25.05 26.74 22.10
18.03 13.29 17.91 20.46 16.39 15.95 14.36 16.36 17.30 15.15 14.45 13.63 11.66 12.82 12.74 6.85 9.82 14.84 15.18 14.76 15.42 13.76 14.43 16.02 15.27 14.93 15.17 9.82 11.20 11.32 10.44 6.19 9.64 11.40 12.36 12.67 14.57 15.58 15.14 14.10 13.73 16.94 18.72 17.82 20.96 25.34 25.00 25.00 25.75 24.86 24.55 25.31 25.49 23.32
18.42 15.39 11.47 11.72 13.07 15.65 13.51 13.11 12.45 11.48 13.79 16.14 16.29 12.81 11.48 11.12 14.77 15.41 15.65 11.48 8.07 3.50 2.96 3.34 4.99 6.44 6.24 5.61 5.32 7.52 6.17 4.21 3.62 6.52 11.36 13.91 15.32 15.79 15.69 16.98 18.24 22.32 21.46 22.01 22.28 22.18 24.38 26.27 26.29 25.53 24.93 24.47 24.80 23.48
13.91 15.65 15.74 10.44 13.12 14.72 15.35 14.54 14.05 15.35 17.99 18.04 14.91 13.11 13.23 16.80 13.28 11.24 11.93 8.27 1.10 4.68 4.99 4.05 4.62 -2.15 0.14 0.80 1.42 2.48 3.34 3.11 4.42 7.29 7.33 9.44 11.16 10.27 10.51 13.90 16.53 19.40 20.96 22.34 26.34 28.02 26.68 26.97 27.02 26.34 25.95 25.43 23.71 22.66
11.75 17.53 14.04 13.30 13.73 13.73 14.60 13.86 13.11 12.66 13.77 13.05 13.46 13.39 14.05 13.69 11.80 7.59 6.25 1.71 4.53 7.07 2.57 -0.19 -1.86 0.23 1.05 -1.39 0.00 2.31 2.68 7.44 9.77 10.83 10.27 10.17 10.53 9.76 6.79 11.10 15.07 16.70 17.21 20.30 22.31 25.40 29.72 31.75 30.24 28.07 24.72 21.95 21.03 20.69
19.50 18.65 15.68 15.61 13.72 10.38 8.86 9.22 10.00 11.90 9.57 7.59 6.20 8.67 10.91 9.87 10.26 7.86 5.25 1.39 -0.34 -4.24 -1.02 -1.18 -3.33 -7.24 -1.82 -1.44 -1.98 -1.63 7.07 6.72 5.43 9.15 12.08 14.80 15.78 16.12 16.77 16.30 15.74 15.92 16.97 19.50 21.77 24.84 26.62 27.38 25.23 21.28 20.28 19.92 20.36 20.88
16.16 15.89 15.73 12.36 9.23 6.81 7.90 6.50 7.21 7.22 7.34 4.02 5.22 0.94 2.61 4.13 5.31 9.58 1.49 -1.07 -3.03 -0.62 7.62 3.05 -2.00 3.47 3.50 4.14 2.16 7.55 17.40 15.16 15.10 15.44 14.54 16.42 17.27 18.31 18.32 16.81 15.20 16.21 18.28 20.02 23.46 25.81 24.52 20.53 20.50 20.13 19.58 19.88 19.84 18.14
9.11 7.28 9.56 9.37 6.85 2.94 4.23 6.43 4.30 2.76 1.98 -1.67 -0.57 -1.17 -3.23 1.83 6.88 8.77 3.03 -1.11 1.81 2.54 3.28 3.42 3.30 0.96 1.96 1.87 5.93 9.35 16.24 13.83 13.90 22.17 24.06 25.35 26.93 26.96 19.75 17.31 18.81 20.28 21.44 23.19 22.88 21.72 21.04 20.33 19.70 19.54 19.52 17.61 17.45 17.43

GFSWCAN_sfc_wetblb_048.txt.gz
Wetbulb
46.43 46.45 46.17 45.82 45.51 45.25 45.54 46.47 46.86 45.76 45.73 45.24 44.54 44.55 44.55 44.48 44.11 40.21 40.20 44.59 40.21 37.22 38.98 42.97 45.28 39.57 42.33 41.72 37.45 40.73 39.39 40.11 38.79 34.83 33.71 31.69 30.35 32.18 32.17 34.34 33.07 31.10 29.68 30.74 31.31 29.03 23.98 37.44 38.88 35.29 38.47 38.04 38.52 38.88
46.71 46.50 46.01 45.45 44.99 45.16 45.30 45.96 46.53 45.44 45.93 45.29 44.78 44.89 44.79 44.44 43.76 42.36 38.49 43.60 44.66 37.81 38.86 43.13 44.97 46.61 45.35 45.60 43.11 41.42 39.52 38.85 40.77 37.43 36.00 33.25 30.99 32.21 31.27 32.17 35.76 30.54 33.14 32.19 33.36 31.69 37.33 38.66 39.74 39.23 38.91 37.85 37.69 38.12
46.64 45.89 45.36 45.03 45.11 44.92 45.28 45.43 46.67 44.79 45.21 45.46 45.04 44.90 45.12 44.66 43.76 42.28 38.45 41.39 41.67 38.27 41.40 42.33 42.66 49.15 49.37 49.06 49.67 41.43 41.93 43.06 39.33 42.06 37.52 35.76 32.91 34.26 30.05 30.82 34.66 37.35 39.36 36.38 36.20 38.96 39.18 40.15 38.71 38.16 37.24 36.86 37.78 39.77
46.46 45.83 44.85 44.80 44.64 45.14 44.91 45.23 46.43 45.07 44.87 45.49 45.00 45.04 44.94 44.21 43.74 43.17 37.69 42.21 40.08 37.59 35.59 42.67 48.83 45.42 46.92 48.83 47.32 46.58 45.20 45.63 43.65 43.05 40.89 38.31 36.83 40.60 35.92 35.53 36.08 37.74 39.43 37.66 37.15 38.76 38.42 38.71 38.73 38.23 36.85 37.01 37.40 40.74
46.21 45.39 44.96 44.57 43.97 44.94 44.59 45.16 46.10 44.58 44.74 45.17 44.77 45.00 44.98 45.17 45.48 43.30 38.78 41.04 41.90 37.02 36.09 40.21 43.82 44.28 45.68 46.18 45.45 46.22 45.09 44.49 43.47 41.23 39.93 38.37 40.08 37.87 36.25 35.71 33.77 37.51 37.85 36.20 36.17 41.15 39.58 39.45 38.92 38.91 36.69 36.47 37.42 37.80
45.73 44.94 44.86 43.90 44.19 44.79 44.38 45.06 45.43 44.14 44.64 44.40 44.54 44.75 45.17 45.31 45.21 38.04 35.88 42.63 42.98 42.94 37.82 36.61 44.77 40.45 44.86 46.77 46.60 46.28 46.19 45.08 44.10 42.07 40.60 41.57 42.92 41.54 36.64 35.28 38.12 39.32 39.79 41.17 39.87 40.54 40.21 38.64 37.77 36.71 35.91 36.14 36.59 36.11
44.98 44.50 43.85 44.46 44.58 44.22 44.47 45.57 43.90 44.54 44.08 44.08 44.47 44.95 45.82 45.37 40.43 35.95 37.55 42.17 45.62 44.30 39.25 37.09 37.70 44.03 44.47 44.73 44.49 44.65 46.47 44.38 43.29 41.43 40.01 40.67 41.26 41.75 37.64 34.34 39.16 41.27 43.01 42.46 42.52 40.53 38.40 37.58 37.54 36.48 35.86 35.69 36.38 33.69
45.18 43.87 43.72 44.55 43.94 44.00 44.37 45.02 43.88 43.94 44.23 44.15 44.02 45.21 45.15 44.59 42.14 38.70 42.66 44.68 44.97 41.27 41.85 35.68 35.43 38.62 44.82 42.21 41.23 44.78 43.05 43.23 42.54 41.02 41.70 39.76 40.55 39.79 36.05 39.97 40.27 41.25 41.88 40.79 39.10 39.53 38.43 36.45 34.64 33.40 32.91 32.21 30.98 30.02
44.17 43.53 43.83 43.30 43.77 43.79 44.48 44.38 43.93 43.93 43.82 43.37 43.67 45.23 41.02 41.71 38.43 41.35 45.91 46.27 45.71 42.36 38.10 38.10 33.62 32.20 44.28 42.07 43.15 42.92 43.25 38.58 42.09 38.19 39.23 40.05 39.02 35.32 33.46 33.22 34.76 36.95 37.43 38.37 39.16 36.67 35.71 34.37 32.79 31.76 31.35 30.92 29.64 29.18
44.23 43.85 43.12 43.21 43.55 43.85 44.43 43.97 43.58 43.65 42.53 43.99 41.52 39.73 37.53 41.23 44.17 44.07 42.75 41.18 40.60 41.45 41.00 38.46 39.01 35.38 39.71 40.49 38.99 40.51 41.17 38.11 33.25 37.15 39.52 36.55 36.63 36.97 34.74 34.09 33.02 35.22 36.91 37.49 37.19 34.47 31.54 29.84 31.34 31.29 31.45 31.74 31.29 31.42
43.95 43.25 42.63 43.12 43.39 44.17 43.94 43.89 43.42 42.01 40.81 35.56 36.11 36.36 40.19 43.10 41.67 40.07 37.04 37.17 38.40 35.68 40.01 40.27 39.44 35.40 40.42 35.33 36.69 39.43 35.24 34.38 32.05 33.71 34.26 32.19 33.38 32.55 32.61 31.97 33.54 35.48 36.03 36.73 37.01 37.96 38.78 37.92 35.64 34.22 34.15 34.31 33.28 32.25
43.44 43.37 43.00 42.39 43.24 44.41 43.67 43.25 42.30 35.84 34.73 35.45 35.80 38.67 39.37 38.92 37.82 34.81 34.13 34.67 34.91 33.99 38.37 38.10 38.28 39.15 39.84 41.24 37.63 37.33 33.60 33.59 29.87 36.04 33.04 30.32 33.93 31.69 31.43 31.46 33.30 34.44 35.44 36.50 37.74 38.10 39.19 39.21 38.19 36.76 35.34 33.22 33.05 31.61
42.81 42.35 42.10 41.37 43.13 44.32 42.99 42.72 40.99 40.89 40.90 39.53 37.24 33.83 35.72 35.38 31.67 31.30 29.73 32.25 32.71 35.03 35.30 35.43 35.19 38.22 39.35 39.47 35.38 34.04 32.24 32.19 35.11 30.47 29.81 32.33 31.30 31.43 31.17 31.87 32.24 33.95 35.53 36.35 37.71 39.06 40.53 39.17 38.14 36.45 34.28 33.51 30.94 29.33
42.95 42.40 42.73 42.34 43.08 43.97 42.80 42.00 40.11 39.06 37.95 33.28 26.75 29.26 30.87 30.11 31.20 31.98 26.37 30.84 34.09 33.98 35.10 36.68 35.30 36.37 38.20 35.27 35.46 31.70 33.72 32.34 28.85 27.77 27.54 29.74 29.35 29.57 30.74 31.62 31.26 31.65 33.40 34.12 35.82 37.13 37.45 39.89 38.79 37.33 35.03 32.05 30.57 28.83
42.63 42.64 42.18 41.86 42.93 42.55 41.79 39.96 40.12 36.87 33.61 27.88 30.49 24.71 28.85 31.31 32.19 31.71 32.31 33.53 34.05 36.12 36.16 35.47 34.26 35.50 32.95 32.66 33.01 31.06 29.62 27.38 29.10 28.64 29.60 24.85 28.06 28.22 29.10 29.85 30.14 31.12 31.90 32.79 34.25 35.16 35.58 35.26 34.35 31.88 31.54 31.27 30.09 28.85
42.12 42.11 40.44 41.99 41.28 40.49 39.72 38.94 36.74 34.32 29.04 27.34 25.76 25.36 31.43 30.54 30.51 30.87 31.66 32.27 34.11 35.03 35.23 34.39 32.84 32.26 31.43 31.84 30.02 28.95 28.07 26.64 25.45 28.68 22.82 22.34 26.08 27.11 27.83 28.59 29.35 30.16 30.87 31.67 32.41 33.33 33.85 33.30 31.73 30.56 29.89 29.74 29.34 28.77
41.74 38.07 41.86 40.79 41.02 39.23 39.68 34.84 32.11 25.85 19.56 20.88 20.96 28.94 27.28 25.50 30.29 30.71 33.07 32.60 34.67 33.22 32.60 32.68 31.34 30.47 32.06 29.88 28.44 31.27 29.65 29.73 28.97 24.89 20.91 23.50 24.48 25.54 26.15 27.90 28.84 29.05 29.23 29.95 30.38 29.89 29.77 31.26 29.52 28.17 26.35 26.22 26.41 26.40
38.26 40.65 42.20 40.63 39.25 36.74 34.25 32.02 26.97 24.54 21.36 23.00 20.90 22.06 30.36 30.87 30.51 31.31 31.74 32.66 32.96 32.10 31.86 31.49 31.10 29.63 29.12 28.48 24.13 24.18 28.69 28.85 28.77 28.16 27.39 24.41 25.04 25.82 26.99 26.42 28.11 28.94 27.72 27.75 26.70 26.47 25.77 24.80 26.08 26.40 24.40 24.15 23.87 23.81
40.05 40.73 41.75 41.39 37.26 32.84 28.19 27.53 27.59 21.87 22.98 26.01 26.69 26.65 29.77 30.10 31.15 30.69 30.96 31.51 32.15 33.41 30.81 30.36 28.06 28.04 27.14 24.52 28.60 26.88 27.33 27.51 27.03 27.00 27.15 28.00 27.64 25.08 25.08 24.72 29.05 29.87 26.82 25.42 25.79 26.74 27.05 26.82 26.05 25.40 24.27 24.11 23.87 23.53
42.27 42.54 42.18 40.21 36.86 29.14 24.33 24.48 28.57 22.89 20.24 24.95 26.92 25.87 27.38 27.13 27.70 27.89 28.48 29.33 29.58 26.75 25.65 25.72 26.88 28.68 26.14 24.95 22.03 26.33 23.16 24.32 23.41 21.47 21.57 22.79 22.89 18.38 21.90 22.64 26.54 26.69 27.66 27.73 24.88 29.50 23.31 25.14 25.48 25.05 24.24 24.15 23.34 23.35
38.90 37.33 37.35 33.65 29.95 27.97 22.98 21.14 19.73 20.44 21.34 21.27 22.38 24.10 21.19 25.13 24.35 23.66 24.10 28.16 26.29 21.42 17.69 21.80 23.84 24.43 21.17 21.43 24.24 23.97 22.89 21.12 20.40 20.08 19.70 15.63 20.34 19.87 20.36 19.78 17.85 25.03 26.68 27.52 27.39 27.75 26.88 26.00 26.73 26.56 25.01 25.13 24.62 25.66
35.53 36.90 31.57 31.01 24.65 21.57 18.83 22.53 20.06 22.95 20.57 19.35 20.68 21.64 17.64 17.21 18.85 21.80 21.47 23.24 22.17 20.96 21.49 22.24 20.00 20.14 19.37 20.21 18.69 18.76 20.52 20.84 19.88 19.56 23.26 22.40 18.58 16.72 17.53 18.14 17.98 15.27 16.60 23.13 26.84 26.69 25.76 26.80 29.02 27.14 26.28 25.97 27.21 24.79
35.45 32.54 28.18 24.15 17.54 13.98 13.90 20.79 16.54 17.39 16.22 14.99 17.37 15.59 15.24 16.08 17.83 22.98 17.95 17.75 22.37 23.28 21.46 20.48 16.99 14.81 17.98 15.92 18.50 18.20 18.62 16.84 16.46 17.40 18.43 18.04 17.91 18.38 17.40 16.87 17.42 12.31 17.34 19.22 20.25 22.54 23.60 28.37 30.38 29.92 26.82 27.04 24.40 24.15
34.51 28.62 21.27 17.50 14.14 12.74 15.18 11.73 19.35 18.05 15.71 16.41 15.38 14.08 11.96 10.34 17.81 18.05 12.26 18.93 22.59 14.73 16.56 17.13 15.55 15.58 15.18 11.58 11.92 13.89 15.93 16.64 15.28 12.65 12.84 11.94 12.23 15.49 17.92 18.54 19.29 18.20 18.82 20.45 20.36 23.72 25.82 26.61 29.03 28.82 26.04 24.95 24.29 24.09
26.45 19.59 17.39 8.69 11.43 9.20 6.24 8.16 9.38 13.17 9.66 14.53 14.94 14.45 12.20 12.54 9.44 8.96 10.79 18.78 13.65 10.89 13.54 14.19 14.64 11.72 11.40 6.32 10.71 11.96 13.00 15.56 13.92 12.80 11.55 13.36 12.08 13.22 13.89 14.74 16.92 18.13 19.29 15.02 18.88 19.10 22.30 25.25 24.95 25.42 24.91 24.43 23.98 24.49
21.04 18.40 18.57 12.32 5.12 8.73 10.30 7.58 10.33 10.31 14.85 13.25 13.82 12.39 9.97 9.81 4.59 7.76 14.09 20.12 15.98 13.77 15.18 17.39 17.87 11.90 12.16 13.04 10.50 8.34 12.54 13.64 12.46 10.47 10.00 12.99 12.84 10.10 5.31 10.23 13.23 15.07 17.67 18.87 14.23 15.53 19.64 22.50 23.43 23.13 23.66 24.99 28.03 25.35
19.98 14.11 17.98 20.98 15.71 14.31 11.75 14.98 16.87 15.94 11.97 11.56 8.51 8.21 9.64 7.86 8.31 15.05 18.41 18.51 17.78 17.14 16.34 19.80 18.60 17.86 16.59 10.63 11.09 10.74 8.51 6.80 10.61 10.27 9.78 8.54 10.82 12.82 12.75 12.91 12.74 15.64 16.21 14.41 14.35 15.46 17.65 18.87 21.18 23.21 23.37 23.71 25.73 25.67
19.68 16.11 13.20 12.48 10.52 10.45 7.41 10.66 10.81 11.76 13.44 15.98 14.96 9.29 9.14 9.81 13.16 16.64 16.22 14.63 12.19 11.86 8.70 7.68 9.80 11.56 9.79 8.11 6.54 7.91 3.95 0.60 -0.57 2.30 6.54 9.53 11.89 12.66 12.80 14.91 16.11 20.45 19.25 18.96 19.27 19.22 19.36 19.40 19.11 21.66 23.74 23.72 24.46 25.79
13.16 13.55 14.32 4.58 5.75 6.65 9.61 13.03 14.34 16.49 18.99 16.63 12.20 12.32 12.39 15.40 15.29 11.36 12.21 10.03 7.28 10.08 11.28 11.15 9.13 -0.05 0.43 -0.59 -0.66 -0.54 0.02 1.82 3.40 3.50 5.88 10.46 7.67 7.63 8.05 9.91 11.91 12.17 16.19 17.99 22.79 24.37 23.52 23.71 22.75 22.69 24.35 24.89 25.79 25.38
9.65 13.91 8.87 4.17 7.66 9.02 13.09 14.11 12.57 11.39 13.38 13.02 12.97 11.17 11.59 13.45 12.42 5.95 7.23 4.72 8.07 12.51 12.59 7.71 2.08 4.57 4.08 2.50 0.54 0.57 -0.73 2.44 5.68 7.61 6.73 10.14 9.23 5.85 4.10 8.34 11.93 13.86 14.79 12.59 14.13 15.76 22.25 22.77 25.87 28.25 28.23 24.90 22.12 21.79
16.04 9.21 7.16 8.68 9.39 7.50 7.68 9.55 8.81 11.19 5.57 2.72 2.66 4.95 9.62 9.13 11.88 11.97 11.61 8.05 6.56 4.93 4.63 2.04 -1.32 -7.30 -0.81 -3.73 -3.69 -3.80 3.71 2.61 1.01 4.51 7.16 10.78 12.51 13.53 14.03 15.17 16.80 17.30 16.21 14.82 13.71 14.19 15.82 19.44 22.51 24.67 20.51 19.90 20.62 21.22
10.95 8.96 12.16 9.89 7.46 7.62 8.66 5.35 7.15 4.57 1.14 0.32 1.47 0.23 4.84 6.35 9.81 14.61 5.02 3.96 4.16 2.35 9.40 5.19 -0.25 3.53 1.79 1.63 -0.32 1.54 15.79 10.61 9.71 11.85 11.43 13.69 14.44 14.82 15.81 16.88 19.64 18.92 16.25 14.95 14.32 15.48 17.57 19.99 20.62 20.53 20.57 20.23 20.77 20.26
6.08 8.31 7.83 4.69 1.36 2.60 4.88 9.47 4.13 1.32 1.08 0.64 3.54 3.19 3.24 6.52 10.41 12.41 3.56 -1.32 1.92 3.24 3.30 3.45 1.93 -0.12 0.33 1.49 2.65 3.42 12.85 7.44 11.13 20.05 22.27 22.87 24.77 26.41 26.16 24.70 19.15 16.80 16.04 15.84 17.27 18.72 20.44 20.35 21.09 20.72 20.35 20.36 19.62 19.06

GFSWCAN_sfc_wetblb_051.txt.gz
Wetbulb
47.81 47.31 46.53 46.65 46.37 45.98 45.52 45.83 46.38 46.97 45.67 46.05 45.62 44.61 44.42 44.45 44.20 39.00 36.72 44.25 40.16 37.21 38.02 40.33 43.13 39.08 39.09 39.97 34.56 38.95 37.90 39.82 38.55 34.91 33.29 31.08 29.45 33.51 31.94 33.32 31.98 31.10 29.77 29.96 30.40 28.57 24.27 36.85 38.54 34.79 38.42 38.17 38.89 38.21
47.94 47.29 46.68 46.53 46.04 45.63 45.24 45.74 45.75 46.65 45.18 45.50 45.52 45.46 44.72 45.15 43.70 42.18 33.63 43.18 43.74 37.93 38.06 41.93 42.72 44.14 43.42 43.88 42.59 41.37 39.34 39.56 40.70 37.07 35.86 34.75 30.96 31.33 30.56 30.80 34.30 29.98 31.16 29.81 31.17 30.67 37.12 37.32 39.89 40.97 39.49 38.10 37.47 38.27
47.98 47.35 46.89 46.15 45.63 45.51 45.16 45.53 45.31 45.85 46.11 44.77 45.28 45.71 44.79 45.40 44.74 42.40 38.14 39.19 40.55 37.78 39.27 40.45 42.03 47.64 46.77 47.36 48.97 39.34 40.80 42.72 40.84 40.91 37.78 34.05 32.39 32.99 28.82 29.49 32.88 36.35 38.05 34.21 35.04 38.35 38.51 39.63 39.27 39.61 39.05 37.99 37.52 38.42
47.59 47.38 46.71 45.79 45.23 45.21 45.31 45.16 44.96 46.00 45.91 44.61 44.97 45.46 44.82 45.30 45.31 43.30 37.94 39.09 39.68 36.90 34.37 40.59 48.06 45.81 48.56 47.62 46.77 45.94 45.03 45.47 44.51 43.26 39.66 38.55 36.56 38.22 34.68 33.90 35.07 37.36 38.72 36.87 36.27 39.08 39.31 38.62 39.04 39.53 38.02 37.30 37.03 39.40
47.56 47.24 46.63 45.54 45.27 44.86 44.89 44.88 44.73 45.60 44.74 44.40 44.78 44.70 44.89 45.08 45.27 44.02 40.38 39.48 41.59 35.36 33.87 38.74 44.15 45.61 46.76 45.92 43.90 44.16 44.42 44.35 43.13 40.66 39.78 38.32 39.76 38.02 35.68 36.67 32.97 36.01 35.90 34.42 35.69 40.45 38.47 38.82 38.00 38.51 37.12 36.24 36.74 38.65
47.34 47.09 46.20 45.37 44.97 44.67 44.73 44.56 44.66 45.63 43.83 44.51 44.40 44.41 45.04 45.31 44.87 38.44 33.79 40.66 42.13 40.42 35.62 35.62 43.57 42.50 42.59 44.84 46.51 45.37 45.23 44.65 43.69 41.97 40.77 41.73 43.04 39.98 36.75 35.10 38.22 38.57 39.13 39.50 38.22 40.16 39.87 39.66 37.71 37.21 36.24 36.00 36.25 37.16
47.37 46.82 45.62 44.89 44.80 44.82 44.40 44.31 45.28 44.39 44.15 44.29 44.22 44.59 45.23 45.51 38.26 32.97 36.71 41.31 43.00 41.64 36.47 36.18 37.54 43.49 45.29 45.03 44.48 45.02 46.59 44.84 43.72 41.76 40.20 40.69 40.81 41.09 37.76 31.91 37.31 38.39 38.99 40.24 40.27 39.37 37.86 37.52 38.05 36.72 35.77 35.20 36.74 33.98
47.25 45.91 45.03 44.34 44.56 44.29 44.05 43.76 45.20 43.82 43.61 44.03 43.80 44.73 45.17 45.33 41.28 36.99 41.02 44.01 45.03 39.88 40.70 35.32 35.68 38.46 44.04 41.03 40.77 44.66 42.90 43.11 42.59 41.07 41.61 39.59 40.30 40.16 35.43 35.99 34.81 36.78 37.80 39.47 38.16 38.30 36.80 36.11 34.52 33.54 32.85 32.03 31.13 30.58
46.74 45.70 44.36 44.22 44.02 43.71 43.31 44.37 44.37 43.28 43.76 43.03 44.07 43.96 40.66 41.00 37.10 40.34 46.44 45.66 44.80 41.25 37.23 37.73 33.49 32.36 44.24 42.33 42.55 42.72 43.30 38.43 42.13 38.23 38.79 39.99 37.74 35.03 33.45 31.70 33.74 33.77 34.83 35.91 37.43 38.37 36.22 35.21 33.96 32.28 31.33 30.65 29.92 28.96
45.86 44.49 44.08 43.83 43.48 43.38 43.76 44.68 43.86 43.53 42.33 43.46 41.74 39.02 36.96 40.96 44.58 44.44 42.49 40.16 39.72 40.67 40.27 37.46 38.01 34.18 39.53 39.30 38.88 40.43 41.06 37.97 32.74 37.09 39.51 36.57 36.01 35.35 34.82 33.77 33.83 33.24 34.63 34.93 33.50 33.91 35.11 31.55 32.33 32.04 31.26 31.51 30.88 29.80
45.04 44.34 43.98 43.47 42.32 43.43 44.60 43.87 43.33 41.62 40.28 36.13 36.91 36.63 40.06 43.31 41.69 40.12 36.65 36.66 36.99 35.33 39.86 37.16 37.59 35.87 39.16 34.07 35.81 38.84 35.23 34.32 32.04 34.01 34.43 32.33 33.00 34.10 32.39 30.23 31.23 32.35 34.51 33.75 34.32 35.62 36.66 37.43 37.69 35.84 33.44 33.63 32.83 31.65
44.77 43.64 43.32 42.31 41.33 42.76 44.86 43.06 42.05 35.54 33.87 34.63 36.01 39.13 39.42 39.07 36.88 33.88 33.12 34.99 34.60 31.64 37.65 38.39 37.85 38.69 39.01 40.68 35.83 36.21 33.45 33.49 30.88 36.13 32.58 29.33 33.77 30.27 29.84 29.74 30.88 32.08 33.40 34.89 36.31 36.48 37.23 38.02 38.71 38.10 35.82 34.58 33.49 32.42
43.93 42.86 42.82 41.86 41.46 42.84 44.39 42.65 41.29 40.31 40.77 39.62 37.11 33.39 35.32 35.30 30.87 31.43 29.31 30.88 32.54 34.81 35.17 35.44 35.14 37.95 39.19 39.13 35.19 34.55 32.22 32.04 35.46 31.64 28.02 32.08 30.25 29.24 29.06 30.51 30.97 32.78 34.37 34.84 35.72 37.09 38.23 38.45 37.52 36.29 34.35 33.75 32.33 30.45
43.57 43.13 42.64 42.33 42.44 43.22 43.85 42.24 40.13 39.13 37.96 33.83 31.35 30.22 30.78 30.22 30.39 30.88 25.93 31.55 34.12 34.26 35.39 36.84 35.56 36.21 38.19 35.25 35.38 32.24 33.30 32.28 28.62 27.36 27.72 28.99 27.43 28.42 30.00 30.66 30.59 30.34 31.71 32.67 33.82 35.09 36.41 38.91 38.95 37.10 35.16 32.96 31.22 29.11
43.42 42.94 42.99 42.42 42.22 42.38 41.13 39.99 40.42 36.68 33.45 28.98 30.10 24.42 29.32 30.98 32.14 32.01 32.40 33.25 33.70 36.37 36.14 35.43 34.16 35.49 32.94 32.41 33.26 31.98 29.58 27.63 28.85 27.34 27.94 25.28 26.46 27.01 28.35 29.27 29.49 29.76 30.17 31.17 32.12 32.13 33.22 34.71 35.23 33.92 34.00 32.90 31.97 29.48
43.57 42.41 40.92 41.88 41.28 40.17 39.51 38.85 36.98 33.85 26.18 26.49 26.09 21.70 30.64 30.67 30.19 30.82 31.99 32.18 34.30 35.31 35.39 34.29 32.74 30.91 30.19 31.74 29.94 28.93 27.53 26.34 24.70 28.76 29.41 23.84 25.37 26.00 26.59 27.58 28.39 29.47 29.58 29.93 30.71 31.06 30.81 31.43 31.14 31.13 31.27 30.61 29.49 28.56
42.19 37.83 41.50 41.89 40.07 40.16 39.08 34.59 32.65 26.33 21.71 18.50 18.92 25.28 29.01 18.25 22.70 30.16 33.28 33.05 34.77 33.92 32.52 32.77 30.93 27.72 31.83 30.16 28.79 31.00 29.85 29.23 23.10 28.54 26.83 23.51 24.38 24.73 24.49 26.95 27.64 29.11 28.98 28.65 28.72 29.19 29.27 28.79 28.65 28.58 27.29 27.11 27.56 27.74
38.19 40.50 41.86 40.70 39.47 36.89 34.02 31.73 27.14 24.29 21.53 22.00 21.33 20.03 27.98 28.38 30.06 31.33 31.76 32.75 33.45 32.29 32.34 31.87 31.66 29.55 29.44 27.79 27.86 28.13 28.51 28.92 29.14 28.81 27.66 25.82 24.56 24.90 25.99 25.13 26.70 28.31 29.04 27.27 26.21 26.34 26.81 27.20 26.99 26.86 25.17 24.26 24.10 24.12
40.28 41.29 41.79 41.61 37.34 32.94 28.44 27.71 27.90 22.49 23.31 25.91 26.57 25.70 26.64 27.82 30.59 30.35 31.01 31.63 33.17 33.68 30.76 30.14 26.86 28.01 24.44 24.27 22.78 15.94 18.20 22.22 28.09 27.93 27.76 27.24 25.47 24.25 24.08 22.83 24.96 24.02 24.00 24.29 25.11 26.91 26.25 25.95 25.93 25.70 25.40 24.73 24.21 23.90
42.32 42.17 42.15 41.54 36.76 29.50 25.35 25.60 28.84 24.35 21.95 25.37 26.82 25.70 26.09 25.66 26.26 27.99 28.91 29.64 29.98 28.35 26.03 25.85 26.69 26.88 26.20 25.34 22.58 22.69 22.65 25.25 24.36 22.91 21.82 21.48 21.62 15.76 19.32 19.38 22.02 21.66 22.73 23.24 23.67 29.56 28.28 26.43 26.38 26.13 24.95 24.20 23.25 22.97
38.65 37.38 37.55 34.32 30.36 28.70 25.23 23.91 23.04 23.47 24.15 23.61 23.84 25.34 23.47 23.49 24.18 24.28 25.06 28.61 26.75 24.64 20.07 23.12 24.38 25.34 20.46 20.71 25.23 25.23 24.10 22.22 21.68 21.23 19.66 14.96 19.40 18.05 17.27 16.28 13.59 21.20 20.49 20.13 20.82 23.26 26.62 26.03 25.11 27.23 27.79 26.61 25.81 24.31
35.69 37.93 32.41 31.62 23.98 20.40 22.04 23.88 21.70 24.13 21.55 21.13 21.35 22.30 19.25 17.84 17.88 19.47 25.14 23.76 24.08 23.78 22.89 21.80 19.97 21.96 20.17 21.19 19.05 18.49 20.83 21.57 20.39 19.88 23.12 21.82 17.63 15.32 16.05 16.23 15.17 10.56 11.61 10.86 16.35 18.96 20.96 22.40 23.96 26.48 28.69 27.57 28.11 25.48
35.68 32.42 26.58 20.68 17.90 15.95 14.78 21.01 17.21 17.47 13.91 14.61 16.71 13.99 14.31 14.48 15.77 23.07 20.98 20.37 21.68 25.03 21.21 20.45 17.16 16.15 20.87 17.47 19.82 19.34 19.37 17.80 16.74 17.00 17.62 17.70 17.40 17.04 14.78 15.03 15.52 7.89 11.69 15.14 16.87 17.35 17.39 23.13 26.02 26.63 27.06 28.23 25.77 24.59
35.05 26.56 20.79 15.94 13.45 12.50 15.75 10.74 18.27 14.58 12.80 14.36 11.64 10.70 11.12 11.17 16.30 16.70 13.14 15.92 22.35 20.08 17.91 16.20 14.82 14.77 14.17 12.69 13.64 16.23 17.69 17.31 15.38 12.46 12.06 11.58 9.81 13.98 16.62 16.74 17.84 16.28 17.13 18.12 15.95 15.85 18.20 20.37 24.23 24.33 25.16 25.94 24.23 24.32
26.93 18.71 18.45 9.57 11.73 8.46 5.22 6.95 6.36 9.85 7.16 8.71 10.16 8.67 8.60 9.77 6.31 6.20 11.22 18.10 19.21 16.48 15.76 15.95 15.29 14.35 16.45 13.26 12.57 13.30 13.07 16.35 14.75 14.34 12.17 12.86 10.51 9.40 9.92 13.03 16.08 17.03 17.51 10.86 15.40 16.25 14.93 15.10 21.33 22.80 23.32 24.63 23.56 23.20
17.51 15.51 19.50 12.82 5.05 9.13 9.02 2.99 4.50 5.33 6.71 4.91 7.03 6.27 4.60 5.15 2.98 8.63 13.11 14.93 11.38 11.97 13.57 15.61 19.13 14.26 11.36 12.71 11.45 9.81 14.83 15.75 14.09 11.87 11.81 13.59 13.28 10.02 4.57 8.25 12.41 13.02 16.22 17.39 12.37 12.86 13.71 13.05 13.85 14.31 18.17 20.73 25.82 26.63
15.73 13.40 18.70 20.54 15.66 13.42 10.53 12.57 14.07 9.72 4.07 6.27 7.61 7.99 5.37 3.21 5.70 13.38 15.38 14.70 14.81 12.97 13.27 17.87 20.06 19.84 19.91 16.66 14.23 12.41 9.30 11.99 12.87 11.97 10.78 10.15 10.77 12.96 11.93 10.76 11.24 14.30 14.71 12.17 11.62 13.25 13.77 14.96 15.34 15.49 15.85 18.27 20.98 23.21
21.90 16.80 14.02 13.21 10.23 8.91 7.08 7.41 6.08 7.12 9.32 15.35 14.99 8.33 9.14 8.10 12.49 15.72 15.18 12.97 9.97 8.33 6.29 10.04 10.13 13.45 14.27 11.07 9.84 12.00 7.72 4.45 4.40 5.88 6.71 9.00 9.69 9.06 10.50 13.11 14.19 19.57 18.04 14.92 15.44 15.90 15.43 15.54 16.38 16.46 16.39 17.46 19.54 21.21
15.90 13.40 14.23 3.05 3.58 4.77 8.89 10.29 10.00 13.67 18.27 15.53 12.14 11.68 11.98 14.95 14.71 11.46 13.67 10.08 4.67 8.46 9.74 9.70 8.49 1.65 2.47 0.86 0.97 3.55 5.81 8.05 8.68 7.41 7.92 11.98 4.74 7.22 5.47 6.87 7.96 8.52 9.60 11.73 19.29 22.31 21.42 20.08 19.86 20.03 19.40 20.03 21.43 23.49
10.88 11.88 7.92 1.90 6.51 8.02 10.02 11.59 7.96 8.22 11.88 12.14 12.33 10.39 10.83 12.35 14.26 7.80 5.53 3.75 8.44 12.22 11.38 8.64 5.84 9.46 7.92 8.35 7.87 3.81 0.98 4.31 8.46 11.41 8.63 9.85 7.10 3.21 0.90 5.31 10.19 11.57 9.85 12.64 14.29 13.55 19.63 17.62 16.79 15.94 17.83 20.58 23.22 21.39
13.55 7.19 4.47 6.11 7.49 2.69 0.89 4.27 5.12 10.63 3.06 0.35 -0.34 4.33 7.85 6.60 9.63 10.14 10.85 9.32 7.17 2.19 2.95 1.79 -1.22 -2.57 6.02 2.95 2.83 1.12 6.11 3.11 2.29 4.13 4.10 4.41 5.77 8.48 10.55 12.02 13.02 13.24 13.43 14.77 14.91 13.90 12.96 11.60 9.04 12.74 16.49 20.00 20.44 22.60
7.22 5.75 8.15 3.96 2.88 -0.89 3.72 2.88 2.00 0.75 -2.73 -1.32 0.07 -3.98 0.53 3.00 6.26 12.31 5.90 1.70 3.27 7.88 13.09 12.16 10.17 11.48 6.75 4.95 0.71 1.05 15.28 2.90 3.40 4.89 4.97 8.28 10.24 12.03 12.97 14.34 15.71 15.42 15.37 16.73 15.59 14.17 13.40 11.12 11.98 14.16 17.52 17.80 20.59 20.35
9.66 4.07 1.19 1.72 -0.14 0.52 4.07 6.18 3.68 -0.07 -2.73 -3.34 -0.56 -0.99 -2.02 3.70 8.11 12.27 5.71 0.86 6.13 8.79 9.04 7.45 3.40 1.01 0.36 0.75 1.52 1.89 11.16 2.04 4.33 18.29 21.33 21.82 22.75 22.84 22.48 21.73 22.73 21.20 19.23 17.28 14.65 14.59 13.55 13.57 14.51 16.60 18.29 19.85 20.53 19.10

GFSWCAN_sfc_wetblb_054.txt.gz
Wetbulb
49.00 48.52 47.76 47.60 46.62 46.41 46.05 45.83 46.02 46.27 46.95 46.08 46.10 45.63 44.70 44.30 44.58 38.84 35.67 43.31 39.83 36.60 37.56 40.43 41.27 40.78 37.89 37.23 33.91 36.55 35.23 37.49 37.81 34.40 33.07 31.92 30.37 33.59 31.31 33.08 32.71 30.31 27.86 29.55 28.96 27.56 23.30 36.35 38.97 36.49 38.83 38.68 37.41 37.60
49.18 48.50 47.71 47.36 46.83 46.62 46.09 45.78 45.79 45.85 46.08 46.66 45.32 45.28 45.82 44.50 44.83 41.93 33.06 41.06 42.58 36.47 37.64 41.36 41.18 42.16 43.26 41.80 40.11 40.54 36.36 38.46 38.97 35.34 34.36 35.32 31.81 32.68 29.75 31.35 35.43 29.72 30.44 28.23 29.67 28.47 36.48 38.71 38.59 41.49 39.93 38.69 36.43 36.87
49.12 48.41 48.27 47.35 47.02 46.50 46.00 45.74 45.75 45.84 45.85 46.77 45.78 45.02 45.42 45.13 44.82 42.78 37.82 36.87 35.94 35.70 36.64 39.04 38.69 44.09 43.75 42.77 46.47 39.21 41.47 42.26 40.73 41.76 38.76 35.14 30.36 32.19 28.48 28.61 29.56 35.11 36.26 32.63 33.97 38.66 38.92 40.46 40.80 39.37 39.54 38.45 37.96 38.65
49.17 48.99 48.27 47.44 46.98 46.27 45.82 45.66 45.73 45.46 45.64 46.60 45.33 44.85 45.33 44.89 45.30 44.88 37.66 39.97 35.36 36.05 31.93 36.70 46.49 45.91 48.35 47.32 46.30 44.32 42.99 44.05 44.04 43.04 39.46 36.98 35.36 35.61 31.91 32.62 34.79 35.39 36.64 34.05 33.64 38.46 40.02 39.28 39.82 39.44 38.84 37.80 36.68 38.32
49.09 48.70 47.96 47.55 46.82 46.01 45.74 45.42 45.36 45.16 45.28 46.04 44.35 44.66 44.58 44.95 45.11 43.26 40.83 40.75 40.34 34.90 31.07 34.79 41.37 44.69 47.01 47.29 45.38 43.63 44.24 44.10 42.72 40.41 39.16 37.33 39.61 37.29 33.72 33.22 31.16 35.48 37.24 36.52 35.24 38.63 37.91 38.31 38.71 38.25 37.84 37.18 36.90 37.29
48.93 48.59 48.01 47.45 46.62 45.97 45.33 45.13 44.94 44.88 45.93 44.44 44.37 44.49 44.45 44.96 44.68 38.42 32.57 36.38 40.31 39.12 32.63 31.44 44.19 42.52 43.77 45.76 45.41 44.55 44.89 44.30 43.51 41.54 40.28 40.82 42.45 40.18 35.47 34.06 36.47 38.98 37.78 38.25 36.63 38.03 39.20 39.59 38.84 36.97 36.35 36.97 36.08 36.80
48.84 48.39 47.74 47.27 46.27 45.79 45.14 44.85 44.57 44.64 45.43 44.04 44.00 43.82 44.59 45.28 37.70 31.55 33.37 40.79 41.99 40.12 33.47 32.21 38.09 43.80 45.92 45.63 45.24 45.35 46.09 44.51 43.58 41.97 40.64 40.54 40.56 41.62 37.88 31.43 35.49 35.05 37.68 38.16 39.50 37.64 37.03 36.32 36.71 37.35 36.07 35.19 36.88 34.41
48.58 48.29 47.53 46.77 45.92 45.24 44.73 44.31 44.02 44.70 44.32 43.40 43.73 44.29 45.25 44.87 41.02 35.78 41.59 43.99 41.78 37.18 37.02 33.83 35.81 39.50 43.95 41.39 40.68 44.35 42.92 42.98 42.58 41.11 41.32 39.35 40.24 39.77 34.89 37.24 33.86 33.91 34.51 36.94 36.92 37.93 36.66 36.28 34.58 33.58 32.59 32.47 31.86 31.75
48.22 48.00 47.21 46.12 44.99 44.70 43.83 43.70 44.22 44.63 43.71 43.50 43.46 43.68 40.94 38.95 35.91 39.10 44.83 44.71 43.17 39.16 34.89 37.22 32.58 31.06 42.75 42.07 42.21 42.43 42.76 37.48 41.99 38.37 38.51 40.02 37.79 34.66 35.63 33.10 32.13 33.41 32.63 33.61 35.66 35.52 37.16 36.77 34.78 33.09 31.48 30.85 31.24 30.44
47.75 47.36 46.46 45.11 44.63 43.70 43.55 43.82 44.65 43.68 42.87 42.65 41.90 38.11 35.73 40.74 45.14 45.20 42.07 37.70 37.06 38.88 38.92 36.72 38.66 35.02 40.80 40.62 39.68 40.57 40.99 37.62 32.33 37.40 39.70 35.77 35.82 36.01 34.87 33.35 33.08 32.60 33.21 32.49 32.31 32.75 34.57 31.73 35.48 34.40 31.96 32.10 31.81 31.13
47.52 46.44 45.11 44.61 43.90 43.18 43.15 44.59 43.19 41.57 40.31 35.56 36.10 36.35 39.94 43.32 41.33 39.50 36.37 35.72 37.04 34.01 38.75 38.14 36.89 34.74 38.21 35.13 36.64 37.25 35.03 34.50 32.03 33.84 34.26 32.43 33.10 34.93 32.72 29.94 29.96 30.42 31.98 34.15 34.80 34.68 33.98 34.19 35.14 36.84 37.18 34.72 33.32 32.17
46.53 45.15 44.67 44.07 42.90 42.53 43.42 43.62 42.01 35.94 34.43 35.19 35.55 39.23 39.13 38.72 36.68 33.09 33.23 34.52 33.72 30.91 36.64 38.17 37.45 38.17 39.04 40.38 35.40 34.79 33.49 33.45 30.48 36.13 32.69 28.18 33.32 29.73 28.11 28.88 29.74 30.00 33.25 34.68 35.60 35.89 36.46 35.83 36.99 37.33 38.17 36.11 34.24 33.27
45.86 44.98 44.03 43.15 42.33 42.37 42.71 43.65 41.85 40.28 40.39 39.09 36.97 33.30 34.91 34.85 30.16 29.06 28.48 30.54 32.28 35.10 34.96 35.64 35.13 38.32 38.65 38.81 34.84 34.65 32.28 31.76 35.58 31.84 28.11 30.10 29.71 28.40 27.86 28.79 29.22 31.08 33.57 33.16 34.64 35.42 36.39 36.45 38.56 35.13 34.54 33.92 33.08 31.33
45.13 43.88 43.31 42.67 42.22 41.59 42.37 42.90 40.64 39.86 37.91 33.70 31.96 29.20 30.21 30.06 30.17 31.78 25.54 23.85 33.68 34.43 35.57 37.07 35.76 36.31 38.20 34.69 35.36 32.26 33.69 32.33 28.67 27.03 27.73 29.54 28.46 27.55 28.80 29.57 29.49 29.89 30.55 31.51 32.16 32.98 33.48 35.23 36.27 37.91 34.38 32.87 31.49 30.03
44.05 43.83 43.26 42.50 42.57 42.78 41.60 40.28 40.64 37.02 34.67 30.07 29.98 23.22 28.58 31.47 32.01 32.10 32.40 32.95 34.11 35.81 36.54 35.40 34.06 35.77 33.05 32.55 33.34 32.10 29.89 27.79 28.96 27.13 27.28 28.46 25.85 26.14 27.21 27.92 27.98 29.18 29.40 29.60 30.38 30.85 30.95 31.52 32.62 34.16 34.35 34.01 32.54 30.86
44.07 43.03 41.12 42.97 42.49 41.11 39.78 39.29 37.02 33.67 27.07 28.00 27.79 24.65 28.37 30.53 30.17 30.85 32.09 32.22 34.48 35.89 35.56 34.00 32.89 27.83 31.28 29.02 29.82 28.88 27.28 25.93 23.60 26.86 28.50 27.85 24.91 25.49 26.14 26.85 27.07 28.46 29.23 29.04 29.24 29.57 30.10 29.71 28.93 29.07 31.21 32.41 31.96 30.54
42.06 38.14 42.49 42.08 41.08 40.54 39.19 34.59 32.80 26.37 22.72 18.38 18.83 25.03 29.10 26.90 28.46 30.61 33.22 33.35 34.83 34.41 32.33 32.64 29.98 28.41 31.60 30.05 28.51 30.81 28.72 25.55 21.75 28.65 28.36 27.76 24.79 25.17 24.01 26.00 26.91 27.76 28.25 27.77 27.42 28.00 28.20 28.44 28.69 28.57 26.92 27.38 27.69 28.54
37.97 40.41 42.75 41.66 39.16 37.03 34.07 31.82 27.13 24.07 21.05 20.33 20.99 20.40 28.05 30.21 30.15 31.42 31.75 32.94 34.07 32.14 31.99 31.90 32.38 29.64 29.20 27.45 22.97 25.21 21.69 20.48 25.54 28.98 28.43 27.17 24.45 24.19 25.56 24.60 25.69 25.73 24.89 24.88 23.92 24.29 25.79 26.04 26.40 26.03 25.27 24.80 24.58 24.39
40.06 40.95 41.76 40.76 37.25 33.16 28.80 28.20 28.15 22.20 22.38 25.64 25.54 23.55 24.91 27.12 28.42 28.72 30.95 32.15 33.73 33.78 31.22 30.31 28.55 28.13 24.91 24.14 20.69 16.17 14.92 21.10 24.71 26.11 28.37 27.89 26.87 24.34 23.66 21.58 23.33 21.96 20.83 20.33 22.25 23.67 25.75 27.72 25.24 25.35 25.08 24.71 23.78 23.86
42.85 41.97 41.92 39.89 36.56 29.70 25.92 25.96 29.32 24.92 22.75 25.41 27.00 25.35 23.96 23.89 24.83 25.68 29.11 29.80 30.03 28.52 26.54 25.65 26.68 27.51 25.99 25.61 23.03 22.70 22.51 25.43 24.66 22.79 22.17 21.16 21.06 15.04 18.79 18.29 20.82 18.66 19.11 19.59 18.94 24.50 20.59 23.65 24.85 25.21 25.51 26.83 25.61 24.42
38.44 39.11 38.38 35.31 30.74 29.20 26.24 24.50 23.79 24.35 24.94 24.37 24.70 25.67 23.59 23.80 21.63 19.31 24.73 28.64 26.87 25.71 19.33 22.83 23.92 25.78 21.45 20.92 25.37 25.81 24.81 23.57 23.40 23.67 21.60 15.32 19.66 16.99 15.76 14.55 11.75 19.50 18.18 16.77 16.51 17.58 20.41 20.47 21.29 22.46 20.05 26.08 26.06 25.83
36.15 38.65 32.48 31.71 24.36 22.35 22.50 24.04 22.94 24.98 23.25 22.23 22.67 22.81 20.85 19.42 19.70 20.64 23.20 21.27 23.19 24.39 25.09 22.10 19.34 21.06 20.22 22.11 20.39 19.28 22.23 22.35 20.69 21.17 23.21 22.63 17.49 14.70 15.03 14.92 13.31 8.09 7.58 9.45 12.68 15.18 16.56 17.71 19.84 22.80 25.48 26.09 28.48 26.06
36.30 31.62 23.27 20.08 18.26 16.43 13.72 20.61 17.05 17.61 16.64 17.26 17.60 17.75 17.36 16.85 17.39 22.27 19.02 21.12 22.69 25.81 22.90 19.94 15.89 14.80 19.54 17.81 20.80 19.84 20.26 19.24 19.14 18.12 18.19 17.57 16.88 15.84 13.80 14.00 13.78 7.17 8.43 13.53 15.30 14.78 12.06 19.58 21.32 21.93 22.39 24.49 25.56 23.96
34.08 22.19 18.02 14.04 13.58 11.89 15.06 9.10 17.43 14.48 13.71 15.39 12.29 12.12 13.16 13.56 17.91 17.09 14.31 16.33 21.12 19.93 18.46 17.64 15.81 13.88 13.77 14.02 15.18 17.11 17.75 16.96 15.01 12.43 13.08 15.17 13.06 14.47 16.30 15.90 16.85 15.20 15.92 16.73 12.80 13.52 14.62 16.15 20.70 17.17 21.20 22.97 23.57 24.57
21.65 17.08 18.14 8.76 12.46 8.51 6.99 6.60 4.43 10.42 8.44 8.56 8.29 8.71 10.40 11.40 6.79 7.11 11.16 17.36 15.27 12.77 15.02 14.12 14.67 15.08 15.00 12.36 13.91 15.03 14.74 16.66 14.58 14.97 13.43 14.38 12.04 10.09 11.33 13.08 15.46 16.55 16.77 9.59 14.47 14.17 13.30 11.88 13.13 13.68 14.53 15.62 15.48 17.64
19.07 15.11 19.49 18.68 8.58 9.29 8.29 2.29 4.01 6.72 7.31 5.81 7.73 6.91 4.34 5.03 2.47 8.02 12.27 12.19 9.92 8.00 7.91 13.77 15.73 12.67 13.59 14.73 14.37 11.76 14.88 15.88 14.17 11.87 11.09 13.90 14.40 12.20 8.79 10.76 12.58 13.10 14.18 15.25 9.95 11.40 12.59 11.85 12.21 10.98 12.45 13.93 20.25 18.14
12.49 12.90 19.66 20.27 15.31 12.94 9.73 11.42 12.41 7.99 2.65 6.41 6.61 5.50 4.09 3.42 4.21 12.38 14.18 12.50 12.66 10.71 8.30 11.17 17.73 19.51 18.72 16.13 14.00 12.22 9.51 15.36 13.26 12.72 11.42 10.84 11.55 12.94 12.36 11.43 12.08 14.35 13.68 11.14 11.49 11.95 12.60 13.81 13.04 12.32 12.31 11.85 11.27 13.35
20.65 16.61 14.55 12.73 9.20 7.71 6.12 6.17 4.72 6.13 7.64 12.47 12.04 4.31 5.69 9.24 14.13 15.78 15.38 13.11 9.61 5.31 4.61 6.46 7.98 11.75 13.69 12.59 10.65 12.93 7.03 3.19 6.00 7.58 10.51 11.80 10.99 9.55 8.87 12.06 12.77 19.46 17.36 12.89 12.47 13.55 14.02 13.66 13.56 13.63 13.87 13.60 13.96 13.67
16.77 13.31 14.48 2.23 2.34 3.28 7.86 9.81 9.23 12.07 16.54 14.44 11.59 8.90 10.34 13.83 13.35 12.83 11.87 8.32 2.61 7.16 11.20 10.27 9.94 5.06 2.48 1.33 1.85 2.84 5.42 11.07 11.39 10.98 12.36 15.23 6.22 8.34 2.74 5.45 5.50 4.94 7.25 9.07 17.68 20.38 16.89 17.17 17.78 17.40 16.59 16.07 16.73 16.60
12.15 11.92 8.05 1.27 8.32 8.94 11.22 11.07 6.44 4.01 10.14 11.93 11.81 10.30 10.61 10.85 11.40 7.19 5.97 3.00 7.07 12.48 14.82 12.37 8.62 11.98 11.38 10.81 6.71 4.54 1.44 3.98 9.81 13.99 13.11 14.05 11.52 3.88 -0.74 0.86 4.88 9.32 9.83 8.34 9.52 10.09 18.38 16.41 14.69 11.57 11.34 11.79 14.12 15.05
12.49 6.17 3.88 5.35 6.82 3.63 0.49 1.83 2.10 9.04 1.30 -1.37 -2.54 4.39 7.61 5.84 9.28 9.88 10.98 11.36 9.84 1.84 3.93 3.35 -0.18 -0.03 5.32 5.17 4.98 3.42 7.51 4.97 6.45 8.33 6.46 2.16 1.77 1.76 4.45 6.85 9.32 10.26 10.03 11.22 11.66 11.51 11.97 12.10 9.37 10.57 10.17 8.78 9.12 16.94
5.57 8.53 8.04 3.36 4.02 -1.70 -2.68 -1.77 -3.04 -1.13 -4.69 -2.59 0.13 -6.34 -0.32 2.17 5.99 12.75 4.46 2.10 1.40 4.27 12.18 10.64 7.72 8.84 7.38 4.79 4.55 6.49 16.31 6.09 3.34 3.31 1.79 3.17 4.71 7.83 10.23 12.02 12.49 12.15 12.40 13.33 13.89 13.81 13.20 11.32 11.14 11.06 11.57 8.37 9.42 13.97
-1.95 -3.09 -4.63 -0.33 0.48 -1.22 -0.00 0.26 -0.93 -1.47 -3.75 -4.14 -0.68 -1.57 -2.44 3.58 8.96 11.81 5.27 -0.27 3.33 4.30 4.86 4.38 3.56 3.20 4.93 5.63 5.80 3.21 9.67 -1.09 3.96 17.01 20.70 21.88 23.07 21.64 22.00 21.57 18.98 18.42 17.74 17.68 15.95 15.82 13.28 11.83 11.48 11.34 12.18 12.64 15.07 16.27

GFSWCAN_sfc_wetblb_057.txt.gz
Wetbulb
51.68 50.60 49.44 48.38 48.12 47.32 46.80 46.51 46.39 46.14 46.34 46.53 46.92 45.90 45.92 45.14 44.36 39.53 36.83 41.06 38.19 35.78 36.13 39.44 40.75 40.34 39.37 35.55 32.73 35.43 34.69 35.55 35.50 33.97 32.96 32.26 30.31 32.74 31.29 32.43 30.74 28.94 27.53 27.42 27.17 25.86 20.31 35.74 38.06 37.07 39.94 40.01 39.25 39.02
51.65 50.60 49.32 48.31 48.19 47.37 47.15 46.87 46.47 45.93 46.26 46.11 46.49 46.56 45.51 45.64 44.97 41.83 35.25 40.75 41.96 34.51 36.26 40.61 40.16 41.80 42.59 44.46 38.69 36.93 34.27 35.44 36.34 34.22 34.58 35.06 30.90 34.43 29.91 30.89 35.34 29.63 30.30 27.82 28.60 27.79 35.60 38.21 39.76 42.05 41.74 40.11 39.06 38.25
51.44 50.11 49.25 48.34 48.07 47.52 47.47 46.93 46.39 45.97 46.22 45.93 46.48 46.82 45.66 45.18 45.74 42.78 37.76 37.66 36.57 32.95 32.37 34.73 33.98 40.68 43.11 42.35 44.34 36.51 38.09 40.20 40.23 40.26 36.79 35.79 29.81 31.47 27.59 27.78 29.66 34.13 36.11 32.44 33.76 36.89 36.68 39.55 41.40 40.72 40.20 39.41 39.78 39.42
50.94 49.96 49.02 48.62 48.15 47.72 47.32 46.86 46.24 46.10 46.12 45.79 46.06 46.62 44.95 45.21 44.72 44.30 37.76 38.93 37.18 33.01 28.60 31.48 42.55 40.62 47.51 43.52 43.11 44.23 41.84 42.51 41.58 41.06 38.89 37.17 34.53 34.59 30.48 31.27 31.35 34.28 35.55 35.32 33.20 36.00 38.74 40.90 41.37 41.08 39.91 39.07 38.28 38.49
50.46 49.90 49.51 49.05 48.21 47.75 47.22 46.71 46.20 46.00 45.70 45.45 46.23 44.98 44.74 44.66 44.65 41.80 38.29 38.14 39.70 32.45 29.13 30.17 37.09 41.19 46.26 46.53 46.15 44.47 43.09 42.79 42.38 40.14 38.71 36.79 39.19 37.10 33.31 32.39 30.57 34.91 34.97 34.90 35.94 37.89 36.61 38.82 40.44 41.07 39.42 38.53 38.50 37.46
50.25 49.74 49.18 48.39 47.97 47.80 47.09 46.54 45.94 45.47 45.04 45.25 45.49 44.77 44.63 44.50 44.39 37.22 34.32 35.31 40.76 39.59 30.78 28.21 39.92 43.27 45.31 46.42 45.06 44.31 43.92 42.72 41.35 41.80 39.97 40.79 42.20 39.30 35.21 32.88 35.11 35.54 36.83 37.68 36.89 36.14 37.24 39.05 39.34 37.76 37.14 37.29 36.88 36.56
49.92 49.44 48.63 48.14 48.50 47.67 46.99 46.21 45.32 44.95 44.74 45.48 44.36 44.25 44.13 44.25 37.91 32.07 30.61 39.95 41.80 40.39 32.76 29.38 33.34 43.72 46.01 45.37 45.29 44.33 44.34 43.79 42.97 41.96 40.25 39.76 40.37 41.02 37.98 33.69 35.16 34.43 34.83 35.57 38.77 37.88 35.53 36.16 36.05 35.82 35.53 35.43 36.48 34.82
49.66 49.13 48.56 48.16 48.03 47.47 46.69 45.71 44.89 44.37 44.41 44.77 43.76 43.86 44.75 44.70 41.73 37.46 40.87 43.03 41.65 36.26 34.31 30.34 33.11 39.82 44.91 41.61 40.68 44.83 43.03 43.37 42.74 41.38 41.14 39.39 40.45 40.00 34.48 38.48 33.22 33.81 33.58 34.35 34.52 35.84 36.79 37.82 36.68 34.77 33.39 33.20 32.82 32.91
49.11 48.84 48.77 48.30 47.77 47.06 45.88 44.96 43.98 43.99 44.78 43.90 43.38 44.22 39.60 36.70 34.90 37.49 44.18 43.64 41.50 37.02 32.49 34.68 31.46 32.46 43.11 41.51 42.30 42.49 42.38 37.61 41.90 38.62 38.55 39.86 37.20 34.20 36.76 35.68 34.63 33.35 32.55 32.31 33.22 34.17 35.94 35.16 36.28 36.22 33.88 32.77 31.45 31.87
48.63 48.56 48.29 48.07 47.27 45.86 45.10 44.07 43.70 44.45 42.88 42.02 41.56 37.24 35.17 39.43 44.85 45.27 40.60 35.96 35.53 36.68 36.19 34.61 38.06 35.98 38.89 39.09 38.23 39.94 40.45 37.68 32.55 37.49 39.77 35.93 35.12 36.30 33.95 32.35 32.71 31.81 32.27 31.21 32.32 32.37 31.68 33.43 34.56 35.16 36.31 35.14 33.42 32.36
48.46 48.28 48.03 47.40 45.70 44.94 44.07 43.88 44.41 41.85 41.13 37.52 35.76 36.00 40.22 43.48 41.27 38.69 35.00 33.55 34.90 33.62 37.71 37.70 37.50 36.82 40.09 36.36 37.04 38.61 34.84 34.83 31.88 33.86 34.53 32.46 32.84 34.39 31.86 31.19 31.17 30.44 30.44 31.37 33.28 33.83 34.83 34.96 34.05 33.97 35.03 38.01 36.20 34.18
48.08 47.75 47.32 45.84 44.89 44.19 43.80 44.44 43.20 35.74 34.90 36.82 36.47 39.25 39.12 38.04 36.18 32.91 32.64 34.01 33.28 30.30 35.70 37.32 37.22 38.38 39.02 39.84 34.33 34.76 33.20 33.43 29.14 36.07 32.90 29.71 32.55 29.84 29.75 28.40 28.71 28.95 31.61 34.51 35.30 35.25 35.61 36.02 36.57 35.22 35.84 37.61 37.72 35.30
47.59 47.21 46.04 45.06 44.24 43.63 44.29 43.88 42.72 40.06 40.46 37.92 36.46 32.56 34.60 34.54 29.36 29.06 26.96 30.41 31.51 35.37 35.54 35.93 35.22 38.07 37.82 38.25 34.38 33.56 32.28 32.12 35.66 31.83 29.50 28.59 30.20 28.64 27.74 28.65 28.61 29.80 33.20 33.89 33.65 34.15 34.56 35.28 37.10 36.73 32.47 32.72 33.53 32.41
46.66 45.82 44.97 44.20 43.16 43.03 43.10 43.84 42.11 40.46 37.00 33.44 31.15 27.78 29.89 29.64 30.33 30.94 27.36 29.99 30.65 34.27 35.37 37.34 35.90 36.36 38.20 33.83 35.39 32.30 34.05 33.25 28.59 27.10 27.15 29.19 29.27 27.67 28.31 28.84 29.61 29.62 30.21 30.65 31.11 31.66 31.89 32.09 33.14 35.72 35.81 33.15 31.79 30.72
45.31 44.89 43.80 42.73 42.65 42.62 42.91 41.94 41.32 37.37 34.91 30.50 30.79 24.73 28.60 31.08 31.45 32.12 32.42 33.24 34.39 36.03 36.43 35.65 34.63 35.83 33.18 32.67 32.98 31.87 30.04 27.22 29.21 26.56 25.56 28.75 27.62 26.50 26.69 27.18 27.09 28.25 28.88 28.94 29.57 29.77 30.22 30.64 30.01 30.60 33.10 34.51 33.54 31.66
44.63 43.72 41.10 43.12 43.13 43.03 41.90 40.46 36.87 33.67 28.12 29.02 28.46 25.16 26.63 28.94 29.31 30.40 32.08 32.31 34.60 36.30 35.63 34.81 32.96 26.46 30.63 27.55 29.77 27.38 25.18 21.21 23.86 22.90 24.65 28.27 25.83 26.14 25.96 26.32 26.10 27.43 28.23 27.96 28.08 28.91 29.17 28.77 28.50 28.57 29.46 29.36 31.17 32.43
42.29 38.57 42.96 43.42 42.23 41.23 39.96 34.08 32.29 26.77 25.52 19.49 18.38 25.87 28.01 25.43 21.10 27.22 32.96 33.46 35.19 34.71 32.26 32.76 30.22 28.87 30.74 28.17 26.93 29.84 22.15 23.62 22.34 21.85 25.70 29.19 28.08 25.03 24.61 25.77 26.64 27.15 25.76 25.32 25.89 26.59 27.63 28.06 27.84 27.46 26.22 26.50 25.95 26.33
37.77 41.12 42.48 41.87 38.88 37.10 34.32 30.38 26.90 23.46 18.30 17.87 21.53 22.12 26.50 28.55 27.26 29.57 30.65 33.36 34.28 32.54 31.94 31.64 32.31 30.09 29.06 27.32 23.26 24.46 20.17 16.31 19.98 24.11 24.98 27.49 26.59 24.64 25.25 24.50 25.57 24.44 22.89 23.14 21.44 22.11 22.89 25.92 25.28 25.51 25.04 24.82 24.28 24.19
39.66 41.55 41.96 40.35 37.32 32.75 28.64 27.92 26.12 19.31 21.16 24.74 26.30 26.11 25.93 25.69 27.98 27.34 27.95 31.76 34.12 34.05 31.16 29.78 29.34 27.70 26.60 23.87 21.66 15.52 16.65 19.60 24.55 25.55 25.52 25.79 27.27 27.07 24.83 21.55 22.33 20.33 18.61 17.15 19.64 20.37 21.82 24.00 24.25 24.20 24.24 25.55 24.87 24.47
42.73 41.90 41.10 39.91 36.42 29.24 25.21 24.23 29.41 24.97 21.09 24.87 26.37 24.82 25.27 24.09 24.15 23.43 25.20 27.25 29.88 28.65 25.55 23.83 23.90 27.04 26.31 25.93 23.09 22.77 22.47 24.88 24.79 23.35 22.67 21.82 21.00 14.89 19.00 18.59 20.52 17.84 17.52 17.29 15.87 21.63 16.45 19.70 21.79 21.78 22.04 23.85 26.47 25.44
39.54 39.51 38.85 35.30 30.85 29.52 26.81 24.90 24.37 25.29 25.44 24.65 25.18 26.13 24.72 24.15 20.48 17.64 17.62 24.35 26.80 24.97 19.43 23.86 24.22 26.30 22.01 20.50 25.32 26.12 25.18 24.12 24.33 25.29 24.47 16.73 20.51 17.79 14.81 13.18 10.54 17.63 16.94 15.72 15.39 16.48 18.54 17.43 18.21 19.30 16.44 24.38 26.09 27.18
36.24 38.38 32.69 31.55 23.73 22.22 21.92 23.89 23.94 25.49 24.03 23.02 23.29 23.24 21.58 20.04 20.51 21.15 22.97 20.91 21.32 23.95 25.37 23.48 19.39 20.75 21.23 21.99 20.84 19.81 22.20 23.32 21.61 22.38 24.37 23.41 17.50 14.54 14.44 14.99 12.45 8.36 7.29 8.78 10.63 13.42 15.03 15.27 17.43 19.07 20.89 20.92 24.98 25.54
36.05 30.76 23.20 20.05 16.91 15.01 12.42 19.57 16.21 17.02 16.76 18.02 18.98 19.10 19.04 18.45 18.66 21.53 16.20 18.24 22.37 26.00 24.72 19.20 15.83 14.44 19.29 18.79 21.76 20.56 20.46 19.29 19.56 19.41 20.15 18.04 17.19 15.74 14.92 14.53 13.99 7.77 7.36 12.43 13.64 13.45 11.23 18.67 19.26 19.22 18.36 18.62 22.48 23.63
32.49 22.06 20.20 16.20 12.32 10.38 13.91 7.72 16.59 13.82 14.16 15.90 13.24 13.22 14.29 15.15 18.31 16.73 14.74 18.42 21.86 19.64 18.39 18.20 16.90 15.40 16.63 15.92 17.05 17.15 18.14 18.19 15.08 12.08 12.02 14.66 11.66 13.42 16.54 16.32 16.97 15.65 16.22 16.08 12.72 13.03 13.31 14.47 18.53 14.73 14.74 14.16 15.39 15.44
22.88 18.48 21.33 14.83 13.19 7.75 5.61 5.27 3.64 9.63 7.95 8.63 9.19 10.66 11.12 13.07 11.66 11.92 14.21 18.51 16.33 14.53 15.11 14.52 16.14 15.12 15.53 13.42 14.47 15.10 14.65 17.25 16.22 15.97 12.84 13.78 12.38 10.92 10.64 11.95 15.55 16.66 17.01 10.82 14.44 14.70 13.17 11.59 11.52 10.97 12.07 12.64 12.03 11.67
13.93 16.08 18.66 19.35 15.32 8.85 7.41 2.65 2.45 5.08 5.92 4.92 6.22 6.64 5.34 7.56 7.94 11.56 15.22 16.01 13.87 12.82 11.77 11.61 12.74 11.73 14.43 16.83 16.74 14.61 17.72 17.34 16.39 14.33 12.69 16.00 15.88 12.70 7.15 10.27 9.42 12.75 13.88 15.61 10.93 11.17 11.32 10.77 9.89 8.46 10.54 11.76 18.08 14.70
13.17 12.37 19.93 19.59 14.65 12.34 9.25 10.46 11.44 7.02 1.52 5.86 6.08 5.82 5.09 5.07 6.28 14.12 15.76 14.81 14.16 14.05 11.66 9.36 14.49 18.70 18.95 17.46 16.71 14.71 12.45 17.01 15.99 14.93 12.65 13.43 14.43 15.46 15.66 14.17 13.18 14.80 14.84 12.76 10.49 11.32 10.63 10.74 10.77 10.52 10.54 10.10 8.30 9.82
21.71 15.89 15.14 12.70 8.72 6.93 5.90 5.35 3.46 4.78 7.10 11.44 11.47 5.26 6.89 10.19 15.37 16.72 16.31 14.14 11.53 5.54 4.58 6.53 9.85 12.94 14.00 14.66 10.88 12.42 6.87 3.49 3.62 6.32 9.29 10.56 8.04 7.06 6.61 11.35 11.35 19.35 15.81 13.31 11.65 9.31 11.05 12.71 12.47 11.72 11.32 11.54 12.46 11.72
21.00 17.49 14.12 2.95 2.84 3.03 6.42 9.02 8.71 11.40 15.68 13.48 11.05 8.70 10.07 13.38 11.22 10.16 12.01 7.69 0.88 3.84 7.65 8.01 8.11 2.63 3.80 2.75 1.93 2.14 3.94 11.89 13.27 11.90 11.51 14.98 9.12 11.52 2.60 3.69 5.32 4.41 4.22 4.98 16.68 19.71 13.99 13.50 15.24 15.12 14.61 14.95 15.24 13.86
16.09 15.38 8.11 -0.12 5.76 8.25 11.11 10.46 6.07 3.05 8.90 10.96 11.25 9.91 10.12 10.31 10.55 5.46 4.81 2.15 6.87 12.24 14.24 10.46 8.06 10.64 12.78 11.53 10.17 8.25 5.19 6.75 11.89 16.64 15.54 16.91 13.37 4.29 -2.24 -0.36 0.74 1.31 1.91 3.71 6.54 8.00 17.26 14.63 13.81 11.94 12.23 11.31 10.88 11.55
12.66 7.95 4.42 4.65 7.24 4.89 0.40 0.10 0.31 7.95 -0.31 -2.97 -4.23 3.69 7.59 4.84 8.94 9.52 10.77 12.90 15.92 1.97 3.87 6.16 1.20 1.84 8.91 8.18 9.89 7.48 12.41 8.49 8.53 8.01 4.97 2.10 -0.12 -0.49 1.28 2.24 4.38 5.28 5.18 5.60 7.20 9.43 10.59 10.11 9.53 10.32 10.66 8.77 7.24 14.51
5.58 7.27 7.55 3.65 4.92 -2.63 -4.95 -2.97 -4.37 -1.47 -5.62 -3.32 -0.19 -8.73 -1.25 1.13 5.15 12.64 4.14 0.82 0.88 5.14 11.86 10.89 9.37 11.97 8.46 5.41 4.18 3.80 15.96 3.47 2.07 3.97 3.24 3.42 1.35 3.27 5.66 6.92 6.89 7.72 8.03 10.20 10.97 11.82 11.57 10.54 11.07 11.15 10.87 7.83 8.60 9.45
-1.56 -3.61 -7.05 -2.47 -0.11 0.13 -0.78 -0.05 -1.75 -1.55 -4.53 -4.67 0.38 -0.22 -1.68 4.37 10.10 12.65 2.57 -1.31 2.63 3.34 3.84 5.84 3.19 1.82 2.35 4.13 4.84 2.73 10.28 0.19 2.36 15.65 19.19 20.88 22.87 19.85 18.11 17.15 15.58 13.04 11.17 12.20 13.58 13.96 12.09 12.62 12.13 10.77 10.69 10.02 11.20 12.36

GFSWCAN_sfc_wetblb_060.txt.gz
Wetbulb
53.49 53.09 51.50 50.42 49.35 48.66 48.06 47.82 47.15 46.88 46.52 46.54 46.42 46.82 45.96 45.70 45.29 43.00 41.13 43.60 39.97 35.62 36.65 39.49 41.04 39.84 41.18 40.24 38.52 40.93 40.76 40.91 40.59 36.78 35.55 34.01 32.85 34.16 33.63 35.11 33.17 31.87 30.39 29.00 29.67 27.80 25.22 39.86 41.53 38.46 42.15 43.99 43.96 43.99
53.60 52.78 51.67 51.08 49.83 48.72 48.27 47.69 47.59 47.07 46.42 46.33 46.34 46.37 46.75 45.79 45.63 44.20 39.46 42.52 43.47 35.97 34.13 40.29 40.86 42.32 42.42 41.96 40.46 42.12 39.74 40.05 42.70 39.55 39.36 38.57 35.10 36.08 35.08 30.96 38.06 31.98 35.92 33.95 33.95 33.95 39.88 42.11 41.82 44.27 43.79 43.80 44.23 43.60
53.30 53.01 52.26 50.98 49.60 48.90 48.34 47.95 47.82 46.99 46.47 46.34 46.36 46.18 46.86 46.17 45.40 44.83 40.90 40.61 39.01 34.13 33.81 34.27 33.17 38.03 41.03 41.58 44.26 40.16 42.99 43.82 43.37 45.62 42.42 40.11 34.88 39.06 33.42 34.74 36.69 38.78 40.24 36.68 36.23 40.61 40.71 42.17 43.42 43.58 43.83 43.68 44.29 44.00
52.89 52.77 52.08 50.77 49.87 48.89 48.61 48.14 47.82 47.18 46.80 46.55 46.49 46.05 46.49 45.40 45.10 45.08 41.42 42.15 38.90 34.66 27.97 30.54 40.84 39.57 44.00 43.56 42.01 43.62 44.63 46.05 45.82 46.02 42.87 40.85 37.03 39.94 37.13 37.00 36.63 40.31 39.62 38.63 38.31 40.78 42.48 44.49 44.96 44.19 43.32 43.92 43.01 42.66
52.53 52.34 51.75 50.79 49.73 49.29 49.16 48.16 47.69 47.09 46.72 46.32 45.70 45.63 45.87 45.03 44.91 44.92 43.27 42.27 42.72 35.45 28.12 30.10 36.00 38.73 39.62 44.75 41.61 43.23 43.64 44.49 45.14 43.08 41.63 39.10 41.51 39.21 39.85 38.38 36.84 40.60 39.73 37.89 37.19 42.93 43.25 43.40 42.94 41.52 42.69 42.89 43.37 42.41
52.05 52.12 51.38 50.55 49.76 49.52 48.86 47.86 47.50 46.91 46.38 45.48 45.12 45.83 44.85 44.81 43.58 41.50 34.78 40.83 42.30 41.02 32.71 25.16 38.53 39.15 43.58 45.33 43.40 43.44 44.99 45.01 45.72 44.22 42.30 43.18 44.18 41.58 36.29 34.04 40.10 40.79 41.18 41.90 42.10 41.71 41.95 42.78 42.72 40.94 40.26 41.32 41.31 41.39
50.28 51.65 51.45 50.29 49.69 49.13 47.99 48.13 47.23 46.60 45.59 45.04 45.01 44.73 44.35 44.32 41.98 37.02 34.51 40.53 42.10 41.67 33.18 29.10 31.88 38.94 44.07 45.24 45.18 44.64 45.50 45.01 45.38 43.87 42.20 41.69 42.19 42.20 38.24 33.40 40.71 41.36 41.11 40.09 40.90 40.85 41.14 41.09 41.01 40.97 40.36 39.88 39.86 40.08
49.12 50.12 50.94 50.12 49.35 48.61 48.48 47.84 46.95 46.01 45.17 44.45 44.70 43.99 44.02 44.20 43.05 38.64 42.26 43.64 42.75 37.02 35.55 29.37 31.40 38.65 44.88 37.32 40.83 45.78 43.12 44.48 44.22 43.16 41.85 40.52 41.98 40.62 35.31 39.67 40.19 39.01 38.20 38.12 38.14 38.12 38.69 39.15 39.00 39.98 39.70 38.38 38.03 38.70
47.97 49.00 49.95 49.79 49.02 48.67 48.37 47.36 46.44 45.31 44.23 44.66 43.84 43.31 42.31 39.97 36.91 39.22 43.85 43.55 42.64 37.25 31.39 32.89 32.14 33.07 43.75 42.27 42.85 43.22 43.20 38.28 42.68 39.26 39.57 39.85 37.80 34.28 38.17 39.56 39.23 38.41 36.42 36.72 35.97 36.44 37.27 37.86 37.86 38.57 38.72 36.89 36.14 38.11
47.15 47.98 49.15 49.37 48.67 48.39 47.72 46.60 45.62 44.52 44.54 42.32 41.92 37.47 34.14 38.64 43.53 43.46 39.92 35.10 34.56 35.44 34.05 31.72 38.40 34.81 40.18 40.58 39.46 39.74 41.44 37.81 33.54 37.47 40.23 36.69 35.18 38.72 35.46 34.60 35.27 34.53 34.38 34.42 33.84 34.38 34.80 34.96 35.89 37.28 38.01 38.67 38.55 36.78
46.96 47.69 48.43 48.83 48.31 47.84 46.77 45.77 44.88 44.32 42.52 39.50 36.88 36.00 40.71 43.95 41.72 38.11 33.60 31.64 33.24 31.86 35.74 37.20 37.98 37.21 41.76 37.12 37.36 39.86 33.98 34.88 32.59 35.06 35.20 33.33 33.81 35.51 33.79 32.48 32.56 32.58 33.04 34.09 35.17 35.75 36.27 36.23 36.14 36.85 37.96 39.14 39.30 39.39
46.89 47.33 48.30 48.54 47.87 46.74 45.21 44.83 44.80 38.73 38.34 38.89 38.80 39.75 39.14 37.73 34.87 32.25 32.34 34.29 33.51 31.73 36.18 37.22 38.02 38.95 39.90 40.96 37.70 37.49 35.12 34.78 31.30 36.63 33.75 31.08 35.08 31.64 31.54 30.96 31.86 32.96 34.45 34.98 35.71 35.51 35.44 35.53 36.44 37.07 37.76 36.94 38.78 40.43
47.14 47.46 48.34 47.96 46.63 45.09 44.66 44.70 43.06 40.12 40.74 39.60 36.64 32.67 33.85 33.98 29.99 29.56 27.78 31.10 31.88 35.94 37.31 37.44 36.58 38.84 39.54 40.24 36.64 36.44 32.42 31.98 36.89 32.82 30.67 33.32 32.08 30.60 30.93 31.51 31.65 32.97 34.40 34.39 34.67 34.56 34.04 34.01 35.55 36.29 35.66 34.47 35.18 36.27
47.57 47.92 46.72 46.06 45.10 44.33 44.23 44.45 42.43 41.56 38.57 33.71 31.53 28.85 30.14 30.10 31.88 32.48 32.36 32.83 35.16 36.34 36.80 38.24 36.63 37.26 39.06 35.84 36.73 32.03 34.14 34.92 30.65 28.74 30.13 33.82 31.97 30.85 30.99 31.37 32.17 31.11 31.71 31.74 31.93 32.64 32.68 32.30 32.03 33.13 34.45 35.73 33.33 32.81
47.44 46.38 45.63 44.53 44.48 43.95 43.73 43.97 42.33 39.62 36.51 32.23 32.00 26.88 29.69 33.42 33.25 33.58 33.72 34.71 35.71 37.28 37.55 37.15 35.23 36.42 34.55 33.87 33.77 32.81 30.50 29.08 30.56 30.04 33.27 33.23 31.20 30.36 29.59 29.65 30.66 30.79 30.61 30.54 30.95 31.27 31.60 31.76 31.59 31.63 31.82 33.57 34.32 33.18
45.87 43.97 41.57 43.85 43.32 43.30 43.30 41.06 38.27 35.71 31.11 30.71 29.77 26.94 29.34 30.24 31.72 32.63 32.59 33.57 36.47 37.64 36.98 36.78 33.27 32.09 31.18 31.91 30.16 28.49 27.97 26.77 32.10 33.66 33.77 31.55 30.28 29.99 29.40 28.90 28.90 29.69 30.07 29.21 29.40 29.64 30.48 30.39 29.87 30.11 31.57 30.47 29.94 31.15
42.02 39.17 43.07 43.16 43.49 42.57 40.49 36.47 34.57 30.41 29.36 24.89 24.04 28.22 28.47 29.37 30.19 32.28 34.50 35.05 36.78 35.89 32.96 32.71 29.81 30.14 32.50 28.90 27.75 31.45 30.93 34.04 34.76 32.70 32.41 31.74 30.37 30.37 30.35 28.97 28.95 29.09 27.22 27.33 27.91 28.26 28.49 29.45 29.92 29.76 28.43 29.09 28.97 28.72
39.21 41.93 43.76 41.98 38.84 37.49 34.72 32.91 29.55 26.88 23.35 24.70 24.49 26.54 27.96 30.48 30.44 32.22 33.67 35.09 35.02 33.84 33.00 32.14 32.92 31.34 29.80 28.91 30.55 34.32 33.40 30.32 29.11 31.54 31.87 31.63 30.68 28.88 28.98 28.43 28.20 27.05 25.70 25.85 25.00 25.74 26.76 27.17 27.44 27.11 26.09 26.59 28.88 29.39
41.37 40.94 41.38 40.36 37.79 33.55 29.73 29.41 30.04 22.71 23.34 26.65 27.98 28.16 28.81 28.97 29.89 29.99 30.88 33.92 34.78 34.79 33.66 32.13 31.03 29.58 30.91 32.71 33.32 31.98 29.83 30.91 31.78 30.75 30.75 30.29 30.11 29.52 27.92 27.35 26.80 25.28 23.43 23.83 24.38 24.55 24.62 24.99 25.68 25.05 24.45 25.63 26.73 28.32
42.37 41.79 40.88 39.52 36.83 30.57 26.17 25.60 30.09 25.80 23.10 26.31 28.26 27.32 27.50 27.47 27.10 26.84 28.81 30.30 30.78 31.07 29.59 27.92 28.50 31.57 32.13 32.75 31.84 32.48 31.19 30.37 30.16 28.75 28.01 27.31 27.38 25.49 26.06 26.27 26.09 24.36 22.92 22.45 22.18 23.94 24.02 23.60 23.93 23.16 23.90 25.54 25.71 26.02
39.90 38.91 38.54 35.18 31.70 30.63 27.35 25.63 25.19 26.11 26.22 25.44 26.55 27.48 25.85 26.10 25.36 24.87 25.97 28.01 27.94 27.21 25.41 27.75 29.33 31.13 28.36 28.09 29.31 30.31 29.92 29.52 30.30 31.80 31.03 28.29 26.04 26.13 24.55 23.88 22.72 21.55 22.55 22.63 22.46 22.65 21.92 21.92 22.14 22.33 23.76 25.02 25.55 26.76
36.36 38.38 33.11 32.30 26.67 24.70 23.83 24.25 25.26 26.32 25.37 24.44 24.73 24.84 23.27 22.16 22.83 23.89 25.14 25.49 25.58 26.93 27.69 28.05 27.43 27.28 26.59 27.23 27.65 26.60 28.56 28.18 26.91 27.21 27.88 27.70 23.85 22.68 22.66 23.35 21.61 22.28 21.89 22.11 21.47 21.44 21.75 21.73 21.65 22.87 23.59 23.77 24.92 24.94
35.57 31.00 24.87 22.36 18.16 17.74 15.75 21.50 19.79 19.82 20.47 21.05 21.94 21.06 21.12 20.85 21.51 24.19 21.20 22.83 24.26 27.43 27.35 25.27 23.92 20.98 23.97 23.81 24.36 24.53 24.67 25.81 25.29 24.97 25.52 23.97 22.71 22.78 22.98 22.68 22.46 21.08 20.72 21.42 20.87 21.32 21.29 21.97 22.34 21.96 22.63 22.44 23.00 23.27
32.05 23.63 20.37 18.31 15.51 11.41 15.33 11.67 17.80 17.14 17.91 18.28 17.36 16.78 17.20 18.34 20.26 19.55 18.07 21.12 24.90 25.23 24.02 24.59 21.22 22.05 21.20 20.33 23.38 24.62 24.24 24.54 23.98 21.76 21.93 21.68 21.08 20.37 21.11 21.99 21.91 21.04 21.37 21.55 20.19 20.37 20.25 19.98 21.32 20.67 19.92 19.47 19.57 19.02
24.18 19.30 21.83 17.70 15.12 10.62 7.57 8.35 7.94 13.00 11.11 11.37 13.37 14.83 15.05 15.70 16.29 15.89 17.81 22.68 22.95 22.99 22.95 20.62 20.96 22.26 23.68 23.29 22.05 22.21 20.41 23.35 23.00 22.75 20.99 20.53 20.05 18.21 18.85 18.90 19.96 20.94 21.10 19.55 19.21 19.10 19.04 18.64 18.48 18.55 18.17 17.71 17.21 17.16
16.57 18.39 19.57 19.88 16.70 12.20 10.65 7.86 6.12 8.72 9.21 6.94 10.45 10.74 11.35 14.02 13.22 16.34 19.39 22.53 22.08 22.30 22.34 21.93 21.59 20.22 19.97 21.28 23.12 22.44 23.02 21.20 21.98 22.19 22.32 20.15 20.85 21.82 21.37 19.92 20.26 21.10 19.61 20.30 19.50 18.57 18.24 17.88 17.10 16.03 16.35 16.58 18.87 17.82
19.04 17.99 20.50 19.57 16.19 13.66 11.96 12.74 13.18 11.42 4.98 8.39 10.85 10.18 10.27 8.74 11.65 17.90 20.41 20.44 21.63 22.15 21.08 21.22 21.07 21.91 23.70 22.55 21.82 21.24 18.61 20.76 20.98 21.78 18.77 20.41 21.73 22.42 22.29 20.61 19.75 21.51 19.24 19.00 18.71 18.44 18.14 17.54 16.88 16.70 16.29 16.75 15.85 15.35
22.27 17.00 14.62 14.15 12.18 10.39 9.37 8.01 6.67 7.71 11.23 13.62 13.95 8.17 10.80 13.14 18.56 21.21 20.36 19.83 18.65 16.06 16.46 15.87 15.27 16.81 19.23 21.07 21.26 18.64 15.07 14.17 12.45 15.40 17.72 18.30 16.42 16.53 16.05 17.72 17.65 20.81 17.79 18.32 18.41 18.10 17.16 16.78 16.48 16.08 15.43 14.97 15.96 17.17
21.49 19.36 16.72 7.78 5.50 6.41 8.20 12.14 11.87 13.99 16.94 15.05 13.94 13.20 13.71 15.98 17.16 16.23 17.12 14.84 9.90 13.87 16.82 18.39 18.86 11.72 12.48 11.90 10.80 12.76 13.99 15.16 16.38 14.68 16.09 19.53 19.66 21.03 15.62 14.12 13.68 14.35 14.89 15.59 19.64 20.66 16.54 16.26 16.76 17.08 17.19 17.12 17.66 17.90
19.63 14.80 9.55 1.48 6.00 10.74 14.90 13.04 11.35 7.99 11.78 13.74 13.48 13.28 13.49 14.46 15.57 12.12 11.80 10.28 13.10 17.20 20.44 18.78 16.45 14.28 17.84 16.06 18.00 14.81 11.03 13.51 18.73 21.64 20.84 21.56 20.97 16.78 12.19 12.31 12.57 12.30 11.60 12.29 13.29 13.58 17.33 17.57 16.28 14.55 14.66 14.78 15.55 15.66
12.17 10.05 7.23 5.85 7.83 9.16 3.36 2.40 3.76 9.31 5.41 4.54 2.32 9.75 12.98 11.44 11.82 13.41 13.61 16.78 18.75 12.73 11.73 14.95 12.57 10.41 14.18 13.89 14.93 16.22 18.07 15.80 13.77 14.73 13.86 12.49 11.49 12.04 11.62 11.60 12.67 12.42 11.85 11.72 11.76 11.69 12.07 12.54 12.50 12.52 12.76 12.20 11.25 15.36
8.51 8.56 9.94 6.04 8.34 2.08 -0.15 -0.06 -0.71 1.89 0.95 1.42 6.48 -1.93 3.84 6.06 8.57 15.91 12.56 7.58 7.96 10.41 16.15 16.79 12.68 16.17 12.80 15.27 13.32 14.88 18.19 13.30 10.78 10.25 8.87 12.80 12.48 11.70 11.55 11.28 10.45 10.45 10.76 10.52 11.02 11.52 11.56 10.94 11.94 12.36 12.55 11.52 11.10 10.90
2.60 0.60 -4.11 0.16 2.44 3.69 1.96 2.98 0.96 1.06 -0.86 0.38 5.06 3.71 3.50 7.59 11.70 16.48 6.73 3.73 8.68 9.63 9.98 9.97 10.12 9.43 7.26 6.91 9.45 10.86 13.27 8.09 7.80 16.08 17.52 18.34 19.61 18.50 15.39 14.10 13.85 13.25 12.36 12.45 13.18 13.38 12.47 12.38 12.54 13.05 13.40 12.84 12.46 12.49

GFSWCAN_sfc_wetblb_063.txt.gz
Wetbulb
54.78 54.39 53.72 53.17 51.91 50.26 49.66 48.93 48.49 47.83 47.44 46.80 46.82 46.74 46.72 46.57 45.72 44.35 42.90 44.76 40.17 35.55 36.62 38.51 39.89 38.21 39.72 41.27 38.51 42.53 41.47 42.20 41.54 36.72 35.13 33.85 33.98 36.07 34.95 36.77 34.73 33.06 31.59 30.33 31.52 27.69 26.08 41.57 41.12 37.04 42.61 45.92 45.23 45.58
54.73 54.41 53.86 53.07 51.99 50.95 49.99 49.12 48.54 47.93 47.57 47.05 46.61 46.79 46.69 46.75 46.96 45.80 40.01 44.70 44.41 37.21 36.19 40.35 39.70 40.34 39.53 39.35 38.10 43.05 41.98 42.11 43.32 39.74 39.98 39.23 35.91 37.59 35.97 30.81 39.79 32.59 37.06 34.65 34.64 34.67 41.75 43.71 43.92 45.41 45.67 44.99 45.84 45.14
53.25 54.02 53.96 53.18 52.14 51.49 50.59 49.27 48.67 48.17 47.77 47.06 46.70 46.89 46.51 46.85 46.94 45.21 42.81 42.66 40.76 35.75 35.05 36.50 35.41 39.96 41.71 40.31 42.73 37.98 44.06 45.52 44.13 46.93 43.65 41.20 36.23 40.12 33.95 34.64 37.59 40.03 42.61 37.22 37.49 41.37 41.80 42.92 45.19 45.49 45.84 44.56 45.55 45.70
51.52 52.37 53.55 53.42 52.63 51.61 50.51 49.93 48.80 48.49 48.10 47.17 47.06 47.04 46.74 46.56 46.82 45.52 43.25 43.83 40.86 36.59 29.38 32.51 40.86 38.04 43.44 43.70 40.03 40.67 41.38 45.23 46.44 46.56 43.37 41.05 37.59 42.17 37.97 38.09 38.52 40.34 41.79 39.23 39.21 42.29 44.03 45.77 46.62 46.68 45.09 45.87 45.31 45.41
49.88 50.81 52.01 52.89 52.83 51.48 50.54 49.91 49.48 49.18 48.19 47.30 46.99 46.48 46.01 46.29 45.66 45.72 45.15 44.17 43.88 36.51 29.99 31.75 37.19 38.97 40.09 40.51 40.26 39.62 39.31 39.57 42.18 43.02 41.59 39.38 42.90 40.88 41.62 40.53 37.91 42.49 40.51 38.36 37.70 43.60 43.59 44.28 46.07 44.61 44.16 44.69 44.84 44.41
48.19 49.65 50.44 51.49 52.08 51.70 50.60 49.83 49.55 49.00 48.23 47.27 46.61 45.72 45.64 45.58 44.40 42.38 36.09 43.10 43.90 42.22 34.26 27.54 37.80 37.54 42.42 41.86 37.75 39.98 39.82 40.78 43.51 43.65 42.51 43.92 45.53 42.21 37.23 34.94 41.20 43.50 44.78 44.59 42.40 44.42 44.45 44.91 43.78 42.89 42.75 42.86 43.08 42.67
47.28 48.42 49.13 49.81 50.97 51.31 50.67 49.87 49.34 48.17 47.42 46.98 45.89 45.32 45.51 44.97 44.07 37.33 35.45 41.03 43.17 41.78 34.49 29.11 30.93 38.68 40.58 41.32 41.81 42.18 42.55 43.26 44.33 43.72 42.18 42.53 42.94 42.81 38.90 34.54 41.07 43.55 44.05 43.97 43.71 42.99 42.01 44.24 43.48 43.02 42.70 42.81 42.40 41.98
45.94 47.36 48.07 48.68 49.33 50.45 50.51 49.61 48.66 48.01 47.37 46.24 45.23 44.94 44.65 44.41 43.90 39.57 42.86 43.74 43.10 37.98 35.97 28.67 30.37 34.87 42.89 38.26 37.45 43.47 40.86 41.97 43.76 42.80 43.22 41.47 42.78 41.89 36.14 40.42 42.68 43.91 43.32 41.64 41.69 41.40 41.45 41.82 41.86 41.69 42.15 41.77 40.24 40.52
45.82 46.38 47.02 47.87 47.69 49.35 50.09 49.36 48.74 47.78 46.40 45.31 44.69 43.59 43.66 41.38 38.00 40.17 45.04 44.23 43.52 38.05 31.13 31.70 30.22 31.96 41.72 38.15 41.14 42.32 43.49 35.29 43.08 40.09 40.49 40.93 37.90 35.18 38.88 40.36 41.98 42.62 40.12 40.26 39.25 38.11 38.68 38.59 39.80 40.02 40.41 40.72 39.37 39.93
45.53 46.16 46.51 47.17 47.35 48.22 49.39 48.88 48.05 46.72 45.23 44.73 41.55 38.41 34.40 39.39 44.17 43.46 39.08 35.22 34.73 34.05 33.89 29.25 35.42 33.52 39.43 38.10 38.60 39.00 40.95 38.15 33.67 38.11 41.28 37.21 35.66 41.39 40.96 38.73 38.81 39.74 38.07 36.94 36.19 36.33 36.57 36.28 37.03 38.46 39.08 40.42 40.61 40.66
45.04 45.62 45.95 46.29 46.67 47.46 47.78 48.65 47.13 45.35 43.96 39.20 35.78 35.72 41.42 44.31 39.63 37.09 32.86 30.70 31.37 30.53 33.22 33.90 36.74 35.10 41.53 37.55 37.37 39.65 35.72 36.74 32.88 35.45 35.85 33.37 33.06 37.74 35.53 33.67 33.68 33.85 34.19 34.71 35.97 36.96 37.45 37.40 36.96 37.31 38.10 39.34 40.67 40.89
45.49 45.84 45.98 46.31 46.84 47.18 47.69 47.83 45.70 41.65 39.74 39.42 40.19 41.01 39.62 37.30 35.03 31.61 31.54 33.14 31.95 31.97 37.15 37.06 38.74 39.03 39.98 42.03 37.64 38.49 35.08 34.45 32.11 37.43 34.03 30.55 35.88 34.78 34.24 32.51 32.79 34.77 36.03 35.91 36.82 36.40 36.19 35.35 35.79 36.12 37.34 37.59 37.29 38.10
46.35 46.76 46.74 46.51 46.81 47.85 47.65 45.84 44.86 42.29 42.26 40.87 37.25 33.25 33.57 33.52 28.54 29.22 27.94 31.49 32.59 36.74 39.07 39.01 37.18 39.09 39.85 40.73 37.48 36.65 33.12 32.88 37.20 32.81 30.97 34.49 34.30 32.84 32.99 33.45 33.51 34.68 35.14 35.05 34.85 34.97 34.83 33.67 34.50 34.81 35.11 36.30 35.40 35.75
46.79 47.02 47.06 46.83 47.20 47.39 46.37 45.89 43.14 41.39 39.41 34.01 31.64 28.88 30.04 30.27 31.08 33.10 33.97 36.25 37.45 38.62 38.13 39.04 38.12 37.43 39.23 36.73 37.09 32.30 34.87 34.81 30.36 28.94 30.59 36.49 34.30 33.24 33.27 33.93 33.81 33.23 33.18 33.09 33.18 33.76 33.51 32.97 32.59 33.37 32.41 34.79 34.97 32.84
46.85 47.48 47.31 47.18 46.57 45.39 45.17 43.64 42.50 40.93 37.17 32.49 32.49 27.68 30.36 34.23 34.90 34.07 34.63 35.79 37.31 39.49 38.32 37.19 35.54 37.66 35.68 33.91 34.61 33.64 30.13 29.03 30.75 30.70 35.58 36.31 33.52 32.41 32.18 33.19 33.69 32.81 32.25 31.83 32.15 32.43 32.64 33.10 32.91 32.92 33.06 32.85 32.47 33.47
47.13 46.49 43.61 44.97 44.31 44.69 43.63 42.21 39.19 37.90 34.03 32.45 31.22 29.29 32.12 30.86 32.78 33.77 33.36 34.18 37.88 38.78 37.33 37.31 33.50 32.85 32.35 32.78 30.87 29.97 28.45 28.05 33.88 37.82 36.87 34.27 32.81 32.55 31.88 31.57 31.87 32.08 31.70 30.60 30.99 30.70 31.01 31.27 31.15 31.76 33.10 32.13 31.39 30.69
42.35 39.09 43.68 44.02 44.26 42.56 40.72 36.95 35.46 32.17 31.67 28.38 27.56 31.09 31.22 31.04 31.95 34.33 35.16 35.55 37.54 36.94 33.77 32.64 30.57 30.08 33.63 29.71 28.44 31.79 31.45 37.68 39.25 36.92 36.30 34.88 33.08 32.53 32.03 31.09 30.98 30.94 29.37 29.40 29.68 29.66 29.46 30.06 31.25 30.65 28.50 28.75 30.38 30.74
39.44 42.40 44.04 42.20 39.76 37.98 35.41 34.91 32.39 29.33 25.38 27.57 26.51 29.84 30.40 31.83 32.72 33.87 34.17 34.58 34.52 33.97 33.54 32.13 34.06 30.92 28.99 27.61 31.04 37.25 38.41 35.99 34.17 35.29 35.28 34.29 33.89 32.74 31.89 31.03 30.36 29.50 28.05 27.88 26.91 27.05 27.76 27.88 27.95 27.52 26.52 26.67 28.14 30.53
41.25 41.83 41.67 41.45 39.19 35.50 32.20 31.08 32.47 26.09 26.22 29.05 29.82 30.75 31.38 31.57 32.10 32.09 33.23 34.60 34.08 34.77 33.78 32.89 31.39 29.34 32.03 36.24 36.71 36.91 36.20 36.07 35.34 33.64 34.15 34.79 34.37 32.56 31.33 29.68 29.05 27.33 26.04 26.20 26.86 26.66 26.53 26.00 25.94 25.80 25.58 26.48 26.49 27.92
42.66 42.19 40.55 39.27 37.98 32.63 28.35 28.50 31.69 28.67 25.95 28.50 29.67 29.34 30.21 29.76 29.61 30.21 31.50 32.47 33.22 33.07 31.53 29.49 29.93 34.05 35.11 35.33 34.84 35.36 34.66 35.12 34.07 32.03 31.38 31.33 31.94 30.17 29.87 29.13 28.77 28.24 26.15 25.35 24.89 25.32 25.66 25.56 25.45 24.96 25.01 25.95 25.99 26.00
38.90 38.36 38.05 36.52 33.51 32.42 29.48 27.70 27.09 28.11 28.25 27.24 28.33 28.68 28.02 28.94 28.47 29.06 29.86 30.67 30.37 29.50 28.95 31.48 32.51 34.87 32.76 33.27 32.61 33.02 33.57 33.53 34.08 35.21 34.58 32.24 30.58 30.09 29.59 28.58 27.52 25.68 25.20 25.63 25.26 25.69 24.46 24.40 24.89 24.55 24.94 25.73 26.36 26.47
36.68 37.82 33.82 32.93 29.07 27.33 26.23 26.30 26.78 28.19 27.49 26.74 26.80 27.34 25.86 25.05 25.86 26.92 26.96 27.11 28.35 30.54 31.22 30.89 31.89 31.45 30.86 30.35 31.58 30.93 32.24 31.83 31.97 30.91 30.94 31.60 27.90 27.40 27.52 28.06 25.93 25.48 25.44 26.77 25.90 25.17 25.18 25.10 24.25 24.27 24.74 25.20 26.00 25.69
35.74 32.80 28.91 27.53 23.28 23.48 19.65 25.44 23.17 23.58 23.13 23.51 24.77 23.34 23.48 23.60 23.64 25.78 23.49 26.44 27.42 29.84 31.09 29.37 28.62 26.54 26.55 28.28 26.86 28.13 28.39 29.05 30.54 30.25 29.79 29.94 28.74 28.85 28.34 27.82 27.07 26.49 25.36 25.31 24.92 24.58 24.57 24.54 24.54 23.81 24.13 24.11 23.85 23.75
33.11 26.41 24.18 21.44 22.43 17.42 20.23 18.12 21.32 21.14 21.75 21.25 20.89 19.75 20.35 21.85 22.55 22.12 21.38 24.96 28.44 28.94 27.20 27.49 26.03 24.95 25.26 22.96 24.42 27.71 28.71 28.40 29.62 29.25 28.43 27.19 25.86 25.13 25.48 25.54 24.74 25.41 25.55 25.19 24.05 23.66 23.53 22.90 23.20 22.97 22.55 21.56 21.48 21.01
27.30 21.86 24.59 19.13 19.44 18.01 17.07 17.17 16.13 18.22 17.30 16.86 17.46 18.16 18.05 18.89 19.36 19.50 21.20 26.61 27.26 27.40 28.03 26.52 24.37 24.36 24.36 26.78 26.35 26.39 25.12 27.06 27.42 27.43 28.07 26.89 26.75 23.17 22.98 23.30 23.92 24.64 24.84 23.30 21.87 21.71 21.95 21.80 21.18 20.98 20.77 20.20 19.42 18.64
19.04 21.15 21.37 21.08 19.85 19.27 18.55 16.78 15.17 15.97 15.75 14.64 15.91 15.51 16.52 18.01 16.62 19.25 23.86 27.51 27.79 28.27 28.17 27.27 26.72 25.29 24.39 24.56 25.18 26.51 27.16 25.43 26.44 26.27 28.37 25.34 24.94 25.48 25.74 23.89 23.59 24.56 23.69 23.28 23.58 22.10 21.24 20.87 20.13 19.02 19.25 19.09 21.22 20.65
20.90 20.61 22.01 21.54 20.56 17.92 16.91 17.09 17.89 17.64 14.35 13.24 16.84 14.45 15.60 12.49 16.39 22.84 26.18 26.21 27.08 28.22 26.53 26.72 26.12 25.85 27.20 27.09 26.11 26.25 23.99 24.48 25.63 24.60 22.75 24.73 25.87 26.52 27.60 25.64 23.12 24.83 22.58 22.36 22.16 21.61 21.09 20.50 19.65 19.29 18.88 19.50 19.22 18.25
23.59 20.96 18.60 19.23 16.92 16.84 15.48 15.84 15.36 14.50 18.32 19.20 18.72 12.75 13.94 17.22 22.06 26.81 26.10 25.49 25.70 23.21 23.28 23.03 22.71 22.99 23.62 25.17 26.00 24.58 22.40 20.67 18.87 19.24 21.87 22.52 21.84 23.23 22.41 23.85 22.37 23.26 22.29 21.97 21.77 21.14 20.44 19.80 19.24 18.93 18.27 17.43 17.65 19.09
23.04 21.25 20.17 8.26 12.10 15.70 16.39 18.51 19.14 21.09 21.71 19.94 20.28 19.96 20.14 21.74 25.25 24.52 23.57 22.10 18.58 20.18 22.12 24.00 25.84 20.34 19.53 19.20 18.40 19.43 21.76 19.63 19.78 18.30 18.76 22.87 24.78 24.36 21.42 21.00 20.40 20.41 21.60 21.49 23.10 23.45 18.77 18.44 18.68 18.75 18.62 18.78 19.43 19.85
20.63 22.45 17.31 11.41 10.19 16.26 21.86 19.70 20.10 16.20 17.33 19.23 18.12 18.92 19.24 20.94 23.44 22.12 20.30 18.50 18.78 21.39 24.37 26.07 26.45 21.36 21.94 22.04 22.63 20.94 18.47 19.55 21.16 23.76 23.60 23.38 25.34 22.58 19.28 17.96 17.57 17.27 16.93 17.00 17.22 17.39 20.17 20.19 18.89 16.75 16.06 16.45 16.75 16.77
18.79 19.26 16.84 16.83 16.94 21.14 15.58 10.16 11.10 13.12 14.26 14.87 13.59 15.00 19.42 19.96 18.80 21.02 20.42 22.89 23.65 24.00 23.34 22.18 22.48 19.67 19.81 19.85 20.11 20.65 21.16 20.89 18.32 19.72 21.66 20.31 18.84 18.81 18.46 18.16 18.57 17.88 16.64 15.73 15.61 15.47 15.23 14.95 14.54 13.69 13.49 12.78 11.97 16.04
17.05 16.37 16.34 11.16 17.48 13.39 9.59 11.92 13.61 13.78 14.56 11.73 15.50 12.42 12.93 13.42 15.13 22.85 23.72 19.84 19.37 19.34 22.41 23.54 20.63 22.66 19.90 20.53 21.00 21.47 23.02 19.25 17.54 16.41 15.01 18.91 18.70 17.45 16.81 15.78 14.64 14.86 14.83 14.35 14.26 13.90 12.62 11.43 12.38 12.85 13.24 12.19 11.73 11.75
12.24 12.22 9.48 11.65 13.62 15.25 12.11 11.86 13.06 12.36 10.88 11.39 13.81 13.97 14.25 14.91 15.55 22.69 15.34 12.23 16.38 17.00 16.32 16.62 16.25 15.48 12.79 11.37 14.31 16.35 18.02 14.25 13.18 17.88 18.54 18.53 18.74 17.80 15.79 15.86 16.22 15.59 14.21 14.30 14.48 14.35 12.75 12.44 12.72 12.41 12.01 12.31 12.62 12.47

GFSWCAN_sfc_wetblb_066.txt.gz
Wetbulb
55.23 55.13 54.68 54.27 53.71 53.31 52.09 50.85 50.05 49.38 48.63 48.10 47.44 47.22 47.12 46.99 46.93 44.10 41.93 44.08 38.25 33.37 34.27 36.64 36.95 33.87 34.99 37.83 36.92 40.38 40.63 40.14 38.75 35.75 34.97 32.85 31.76 34.16 31.13 32.86 32.34 30.52 28.27 27.93 29.71 27.07 21.78 39.75 38.15 34.38 40.04 42.39 42.60 41.82
54.10 54.73 54.68 54.33 53.79 53.33 52.29 51.21 50.84 50.07 49.58 48.35 47.74 47.07 47.04 47.07 47.12 46.76 40.45 44.14 43.55 37.35 34.35 39.08 38.64 38.88 38.28 37.73 35.71 38.10 39.03 40.32 40.99 36.32 35.85 35.00 31.98 32.87 31.80 29.53 35.23 29.97 32.85 29.83 30.73 30.14 38.77 40.18 40.14 42.45 42.76 43.37 42.01 41.22
52.05 53.04 53.86 54.12 53.82 53.42 52.59 51.91 51.15 50.17 49.59 48.48 48.04 47.29 47.03 47.26 47.15 46.36 42.38 43.00 41.07 36.42 34.09 34.16 34.33 39.16 40.93 39.45 40.43 33.34 39.58 44.51 42.50 43.46 39.81 38.79 32.67 35.38 31.33 32.63 35.10 36.93 38.27 33.60 33.98 37.05 37.64 39.24 41.23 42.60 42.28 41.78 43.95 43.25
50.13 51.10 51.84 52.53 53.41 53.47 52.94 52.38 51.35 50.47 49.43 48.84 48.50 47.45 47.21 47.38 46.96 46.80 42.20 43.57 40.68 36.98 29.16 30.54 39.05 36.60 40.28 40.83 39.15 39.62 38.84 41.49 40.41 42.41 39.81 37.30 34.28 38.15 33.59 36.11 34.16 37.09 37.26 35.28 34.62 37.65 38.96 41.61 41.46 42.23 42.34 42.59 42.43 42.90
46.89 48.28 49.61 50.52 51.33 52.17 52.86 52.46 51.64 50.59 49.63 49.15 48.60 47.48 47.16 46.69 46.34 45.58 43.86 43.38 42.97 35.89 28.13 29.81 35.90 37.95 39.16 38.23 38.26 39.20 37.53 36.21 34.98 38.61 38.95 36.54 38.79 36.94 36.34 36.05 33.38 37.59 36.40 33.88 33.13 39.52 38.98 39.68 41.57 42.26 41.73 41.06 41.28 41.19
46.14 46.94 47.40 47.89 48.85 50.38 51.08 51.56 51.52 50.61 49.93 49.43 48.35 47.25 46.24 45.75 45.24 42.13 35.05 41.65 42.93 41.47 33.44 26.29 35.90 34.64 37.22 39.66 35.75 37.61 36.03 36.32 36.58 39.78 40.21 40.71 42.96 38.77 32.32 32.53 37.46 38.55 40.47 40.85 37.66 40.72 41.17 41.81 40.91 40.00 39.52 39.46 40.10 39.80
45.34 45.71 46.30 47.05 47.66 48.03 49.42 50.21 50.80 50.79 50.10 48.83 47.73 46.80 45.58 45.66 43.74 37.19 34.04 40.17 43.12 41.31 33.25 26.40 28.78 37.03 40.60 39.30 34.09 34.98 38.56 37.39 37.42 37.93 40.46 40.12 40.81 41.22 35.97 31.71 37.32 39.37 39.21 39.49 40.95 39.88 38.30 41.22 39.79 39.91 39.62 40.74 41.26 38.75
44.68 44.98 45.24 45.59 46.25 46.90 47.88 48.71 49.73 50.20 49.88 48.37 47.49 45.37 44.70 45.20 43.60 38.89 41.44 43.56 42.41 36.61 35.76 26.04 26.10 33.53 40.67 36.01 34.18 38.81 36.44 38.49 37.91 40.13 41.43 39.67 41.02 39.95 34.95 38.08 39.29 39.91 40.00 39.67 38.96 38.66 38.13 38.45 38.47 38.29 38.91 39.18 37.44 37.45
44.28 44.40 44.55 44.80 45.25 45.75 46.30 46.87 48.90 49.56 48.92 47.80 45.59 44.20 42.53 40.37 37.14 39.01 45.07 44.52 42.55 37.37 30.59 29.93 26.97 28.57 40.97 38.32 38.67 37.04 39.96 33.51 40.13 38.20 39.07 39.67 37.35 34.54 37.23 38.49 38.34 38.86 37.90 37.45 37.78 36.80 36.35 36.25 36.59 37.29 37.03 37.10 36.97 37.10
44.17 44.12 44.20 44.32 44.73 45.40 46.05 46.26 47.58 48.70 47.70 45.23 41.60 37.89 34.12 39.54 44.33 43.25 39.23 35.24 34.18 35.05 34.23 27.77 33.22 30.33 38.39 37.41 35.09 35.79 37.95 34.79 32.14 36.00 40.10 36.43 35.43 39.27 40.22 36.88 35.00 35.74 36.51 36.48 34.23 32.65 33.85 32.43 34.78 35.17 35.89 37.07 37.15 37.27
44.07 43.98 44.07 44.42 45.07 45.89 45.90 46.48 47.40 47.17 43.43 38.90 35.40 34.04 41.37 43.72 38.70 36.27 32.22 30.21 30.68 28.75 31.87 31.07 31.95 32.85 40.68 34.05 33.71 39.02 33.71 34.81 31.39 34.24 34.27 32.88 31.98 36.10 33.04 31.90 32.35 34.16 34.61 34.78 35.54 36.25 36.76 36.37 34.65 34.96 35.43 36.42 37.94 38.83
43.95 44.12 44.41 44.97 46.12 46.28 46.26 46.69 46.43 41.04 38.90 38.90 39.22 41.17 40.15 36.24 33.82 31.22 30.11 31.07 29.97 28.29 34.57 34.09 36.76 37.14 39.76 41.49 36.58 37.33 32.48 32.96 30.81 37.02 33.59 29.28 34.00 32.71 32.01 31.05 32.57 34.27 35.60 35.99 36.43 35.94 35.87 35.22 35.07 35.10 35.91 36.89 36.72 35.38
44.56 44.64 45.04 45.75 46.67 46.89 46.75 46.48 44.87 43.14 41.39 39.66 36.87 32.79 33.18 32.72 27.18 26.57 23.97 29.94 30.95 35.04 36.54 36.90 36.02 38.86 39.72 40.05 36.31 35.37 31.74 31.34 36.62 31.60 29.65 32.24 32.54 32.47 31.96 32.91 32.98 34.95 35.50 35.32 35.01 35.28 35.24 34.11 34.53 34.06 33.26 34.57 35.71 34.95
45.33 45.51 45.98 46.37 46.98 47.09 47.23 46.01 43.30 41.38 37.54 32.27 30.19 26.87 28.14 28.55 29.64 30.69 30.31 33.00 36.03 36.39 36.82 38.60 36.18 36.24 38.54 35.70 36.39 30.76 33.96 34.06 28.73 27.33 26.96 31.83 31.96 31.22 31.87 33.18 33.71 33.21 33.82 33.73 34.24 33.92 33.76 33.59 32.76 33.68 32.90 32.89 33.05 33.86
46.03 46.17 46.26 46.37 47.06 46.99 45.23 43.97 42.24 40.25 35.96 30.89 31.87 25.93 28.35 30.76 33.55 33.23 33.32 34.20 36.34 37.99 38.03 36.54 34.44 37.09 33.67 32.53 33.13 30.62 29.44 27.47 29.09 27.64 29.60 30.45 30.71 30.62 30.84 32.54 33.66 32.13 31.75 30.98 31.32 31.01 31.31 31.67 31.49 31.40 31.69 31.27 30.65 30.22
46.68 46.60 45.03 46.51 47.25 47.13 44.28 41.17 38.33 38.17 33.14 32.19 31.45 28.67 30.64 29.65 30.30 32.25 32.14 32.88 37.06 38.01 37.09 36.11 32.68 31.91 31.34 31.52 29.53 28.23 27.43 24.86 26.61 29.60 29.43 29.41 29.87 29.85 30.04 31.34 31.36 30.61 29.32 28.75 29.04 29.13 28.91 28.60 28.51 29.21 30.57 29.34 29.54 29.17
46.95 40.59 45.11 46.69 45.53 42.53 40.66 35.68 35.18 31.84 30.89 29.00 26.91 30.84 30.97 30.30 30.17 32.65 34.75 35.06 36.52 35.50 32.19 31.87 30.23 29.34 31.66 28.95 27.66 30.44 25.30 29.45 30.52 27.61 27.90 29.73 31.28 29.22 28.45 28.52 28.64 28.68 27.29 27.23 27.45 27.14 27.05 27.63 27.62 27.01 23.77 23.85 24.68 28.41
40.26 43.92 44.12 42.64 39.83 37.84 34.55 33.74 31.79 28.51 23.08 25.60 24.65 28.64 29.89 31.02 31.74 33.72 34.38 34.04 33.26 31.91 32.02 31.89 32.70 29.27 28.07 26.47 25.59 28.37 28.00 27.40 26.73 27.82 28.34 29.81 29.54 28.62 28.02 27.72 28.67 26.60 25.30 24.96 23.34 22.09 22.27 21.62 23.28 22.82 21.26 21.22 21.75 23.25
41.25 40.63 41.91 41.72 39.41 35.27 31.15 30.61 31.72 23.09 23.52 27.86 28.81 29.49 29.14 30.19 31.18 30.58 32.61 34.50 33.73 33.37 32.00 31.73 31.00 29.15 28.93 29.75 28.66 30.52 26.00 26.74 28.12 28.73 29.57 31.00 30.39 29.04 28.09 25.56 25.37 22.96 21.88 21.30 22.87 21.72 21.51 21.99 21.31 21.84 21.25 22.37 22.37 23.29
42.97 42.17 40.62 39.93 38.87 32.56 28.50 27.58 30.74 26.01 21.83 26.28 29.17 27.92 28.79 28.77 28.09 27.31 29.12 31.08 31.93 31.96 30.66 29.39 29.50 31.27 31.71 29.99 27.00 26.48 26.69 29.16 28.75 26.91 26.80 27.20 27.89 22.28 24.52 23.92 24.73 23.86 22.11 20.76 19.61 23.39 18.42 21.09 21.50 21.45 21.06 22.39 22.57 21.82
38.93 38.14 38.18 36.45 33.16 31.78 28.64 27.83 26.58 27.54 27.54 26.35 27.40 27.67 26.61 27.56 27.25 27.50 28.37 28.98 26.22 23.31 23.21 26.57 29.74 31.73 30.15 27.90 28.77 28.70 28.86 29.05 28.10 28.86 28.19 23.75 26.39 23.72 22.78 21.47 20.06 22.98 20.69 19.70 18.89 19.27 23.35 20.13 19.70 19.21 13.67 21.71 23.05 22.94
36.17 37.94 33.56 33.06 28.81 26.17 23.97 25.03 26.47 27.29 26.50 25.79 25.23 25.75 24.45 23.33 24.27 25.26 25.01 25.18 24.53 27.16 27.82 27.43 25.94 25.83 24.86 25.70 24.82 24.37 26.59 26.97 27.66 27.18 30.01 29.95 23.68 21.39 21.63 22.18 21.53 18.12 17.48 16.30 16.79 17.21 18.51 18.40 18.80 18.95 19.50 19.25 22.07 20.97
35.73 33.19 29.87 28.55 21.26 20.08 16.72 23.35 18.98 18.48 21.62 21.33 17.48 17.48 14.96 14.70 15.80 20.68 17.07 22.27 25.06 28.32 27.83 25.56 22.38 21.10 21.20 22.15 23.54 23.97 24.58 22.19 23.71 25.47 26.21 25.53 24.83 22.63 21.44 23.09 22.57 18.87 16.70 17.73 18.05 17.91 15.89 23.08 20.94 19.92 18.65 19.06 19.00 18.53
33.21 27.03 24.19 20.30 19.38 13.53 18.58 13.35 19.84 17.00 15.80 15.54 13.17 13.31 15.03 17.87 19.00 18.44 16.39 21.22 25.81 27.06 25.81 24.05 21.27 19.07 18.73 16.31 17.18 19.91 22.13 22.24 22.15 20.75 19.82 19.38 17.65 19.51 23.44 23.07 22.66 21.34 20.27 18.84 17.00 16.23 16.25 17.02 21.82 17.23 16.71 15.57 14.88 14.50
24.12 21.42 21.20 15.90 16.26 12.92 10.20 10.00 8.86 12.83 9.66 11.17 9.85 10.41 12.34 14.38 15.54 18.35 20.26 24.98 26.42 26.33 26.70 25.40 23.70 23.34 19.73 16.93 19.69 20.34 20.30 21.05 19.62 19.22 19.66 19.76 17.82 15.75 15.87 17.75 20.07 20.13 20.09 14.68 16.61 16.69 15.06 14.65 15.04 14.83 15.32 14.89 13.23 11.57
16.74 20.61 18.14 16.60 14.61 12.86 12.45 6.54 6.38 7.04 8.57 4.66 8.43 9.79 10.52 12.08 10.19 12.44 19.34 22.49 23.27 24.52 24.50 23.83 23.90 22.86 22.34 22.71 20.92 21.38 22.49 21.68 21.87 20.92 22.14 22.72 22.12 19.51 16.43 15.13 14.01 17.00 20.05 19.69 16.56 16.95 15.79 15.45 14.84 12.91 13.59 15.32 21.36 15.98
18.66 19.22 21.52 21.07 18.09 16.31 13.37 14.72 15.40 11.54 3.79 3.92 7.03 6.59 7.30 5.27 7.41 16.82 20.19 19.98 20.53 22.23 22.56 23.24 23.43 23.39 23.47 23.60 23.50 22.98 21.08 21.10 21.86 20.77 18.92 18.59 20.07 19.73 20.29 20.12 18.33 19.77 18.76 18.21 18.11 16.92 15.79 15.55 14.45 13.78 13.00 10.36 10.86 11.05
21.52 18.08 11.61 14.42 13.21 12.86 9.36 9.84 6.99 5.68 9.56 15.51 14.21 3.48 5.43 10.83 15.26 19.21 18.24 17.69 17.54 16.35 17.34 18.46 19.72 21.29 21.50 22.56 22.33 21.28 19.34 17.81 16.26 16.27 18.55 19.82 20.12 18.83 17.46 17.29 17.50 25.77 15.03 15.55 15.21 14.25 14.91 14.54 13.11 11.05 10.03 10.13 9.22 9.00
16.71 18.35 16.74 5.24 6.51 8.96 8.69 10.11 10.28 15.22 18.00 14.64 10.74 10.81 11.74 16.99 15.48 15.71 17.06 14.96 12.20 12.95 13.45 16.31 20.03 19.00 17.34 13.59 13.97 15.41 16.50 16.11 15.19 15.43 14.70 17.85 15.21 19.19 16.85 16.66 15.92 14.32 13.74 13.39 24.28 19.20 12.31 10.52 10.39 10.98 10.52 12.25 12.99 12.61
13.55 17.56 11.67 5.01 7.77 10.09 11.92 12.70 11.28 9.40 12.98 14.27 14.89 12.75 13.22 13.69 16.27 14.89 12.32 9.72 10.63 14.59 19.27 20.24 21.37 16.42 17.91 14.61 15.40 13.89 15.84 17.94 19.33 20.80 20.19 20.02 19.07 13.02 9.50 10.72 10.86 8.63 8.32 9.64 9.62 8.86 21.35 14.81 14.64 10.03 9.80 7.45 6.73 7.37
16.67 14.54 10.38 10.59 8.89 10.77 5.86 5.75 5.97 10.67 8.07 5.37 6.11 7.32 10.81 11.02 13.19 13.63 16.22 18.84 20.66 19.56 12.56 19.11 21.02 12.60 14.17 13.16 13.31 11.55 16.16 14.89 17.09 18.19 18.44 11.35 9.84 8.92 8.70 8.88 8.93 9.45 8.38 7.27 6.73 6.72 5.85 5.79 4.55 4.37 4.91 4.97 5.23 13.26
13.48 7.58 8.36 7.40 8.39 6.09 3.64 3.42 2.92 3.46 4.55 2.26 4.06 2.94 3.18 4.73 6.76 14.36 15.93 14.08 10.72 14.66 22.29 21.63 11.62 16.99 12.71 11.83 9.79 10.86 23.05 10.71 9.07 9.04 9.54 10.05 10.33 9.09 8.72 7.62 6.02 6.63 5.93 5.65 5.08 5.01 4.05 4.04 3.84 5.01 7.17 6.36 5.85 5.67
5.25 3.98 2.81 3.03 4.37 5.22 4.97 4.26 3.67 3.17 1.79 0.30 4.87 6.95 5.45 8.25 10.86 16.87 8.55 5.42 10.98 9.90 6.43 4.93 3.37 4.06 3.62 3.83 4.57 5.93 13.64 4.59 9.21 19.06 19.83 19.89 20.36 14.64 7.34 6.31 7.52 7.44 6.96 6.60 5.80 5.95 5.10 5.09 6.53 6.68 7.57 7.69 7.11 7.50

GFSWCAN_sfc_wetblb_069.txt.gz
Wetbulb
55.35 55.29 55.06 54.76 54.26 54.02 53.59 52.88 51.76 50.85 49.64 48.77 48.29 47.51 46.98 46.99 46.67 41.35 38.35 41.40 35.71 29.89 31.23 34.28 34.24 30.44 30.37 31.05 30.60 36.85 37.52 40.27 38.04 34.24 32.95 32.73 29.95 33.27 29.28 30.52 29.79 28.92 29.43 27.36 27.13 26.98 21.66 38.25 36.99 34.52 38.84 40.62 41.27 41.04
54.46 54.86 54.77 54.60 54.30 54.04 53.78 53.23 52.06 51.37 50.64 49.82 49.00 48.09 47.26 47.09 47.19 46.10 40.19 43.66 42.87 36.53 32.70 37.19 37.56 37.70 36.01 34.93 32.78 34.75 36.62 35.79 41.11 35.68 34.24 33.30 30.30 29.80 28.82 26.22 31.92 27.50 31.42 28.88 29.19 28.93 36.18 38.48 38.22 40.93 42.03 43.10 42.20 41.29
53.40 54.04 54.19 54.18 54.15 54.04 53.89 53.48 52.39 51.73 51.01 50.29 49.17 48.50 47.89 47.18 47.39 45.85 39.65 42.32 40.56 36.34 33.73 32.32 31.94 36.87 39.41 38.33 39.16 30.39 33.87 38.50 38.70 38.16 38.56 36.81 32.02 33.02 27.68 29.52 34.15 35.81 35.91 31.86 32.21 35.20 36.27 38.27 39.64 41.92 42.33 41.21 41.93 43.02
51.39 51.59 51.74 51.75 52.19 52.93 53.14 53.09 52.67 52.36 51.65 50.45 49.63 48.98 48.29 47.37 47.58 46.69 40.14 42.86 40.74 37.08 30.44 28.75 36.72 33.35 37.48 37.96 37.06 37.21 35.67 36.88 37.07 34.18 33.49 37.09 34.65 36.15 31.70 33.20 32.12 34.56 35.03 33.12 32.45 35.64 37.07 38.52 39.24 41.14 41.16 41.66 41.11 40.83
48.40 48.66 48.87 49.04 49.52 50.26 50.79 51.34 52.18 51.83 51.99 51.27 50.25 49.53 48.46 47.30 46.29 43.71 41.12 41.92 42.58 36.48 27.43 29.06 35.19 36.67 37.35 36.77 35.81 36.21 35.83 34.72 34.04 30.95 34.02 36.71 37.53 36.27 34.51 34.04 31.98 35.87 34.83 31.92 31.38 36.99 37.06 38.92 39.84 41.22 40.97 40.84 40.80 40.41
46.31 46.36 46.50 46.76 47.11 47.54 47.99 49.19 50.18 50.59 51.18 50.90 50.17 49.53 48.00 45.89 45.03 39.50 34.30 38.07 41.33 41.60 33.35 26.16 33.09 32.73 34.54 35.44 35.31 34.83 35.91 35.72 34.80 31.71 32.84 38.85 41.98 38.25 31.80 30.44 36.22 36.90 37.66 38.83 36.85 39.27 40.01 40.47 39.92 39.89 39.44 39.13 39.13 38.70
44.98 44.94 44.79 44.84 45.33 45.89 46.57 47.14 47.86 48.47 49.97 50.47 50.21 48.95 46.98 45.77 42.68 35.66 33.37 39.22 41.90 38.16 32.18 26.07 23.04 32.63 38.51 38.02 33.85 35.30 36.57 36.17 35.15 33.28 32.69 33.22 36.94 40.85 35.57 31.12 36.84 37.47 38.71 39.10 40.06 39.74 37.40 39.57 38.88 38.76 39.32 39.33 39.95 38.00
43.81 43.73 43.93 44.31 44.46 44.73 45.30 45.84 46.27 46.94 48.21 50.12 49.74 48.11 46.15 45.05 43.66 39.33 41.40 43.95 40.59 34.92 33.46 26.56 22.50 27.47 39.88 34.43 28.77 34.28 34.13 35.44 35.14 34.71 37.01 37.44 40.19 39.06 35.15 37.48 38.75 38.03 37.47 37.81 37.97 38.07 38.16 37.97 37.89 37.62 38.10 38.39 36.50 36.57
43.44 43.56 43.79 43.96 43.99 44.12 44.51 44.97 45.83 46.20 47.42 49.05 48.27 45.75 42.55 40.15 34.53 35.39 44.42 44.95 40.98 36.24 28.76 28.31 18.46 18.50 39.22 37.01 36.00 32.96 36.12 30.14 35.69 33.51 34.73 38.28 36.48 33.17 36.35 38.00 38.64 37.42 37.47 37.46 36.52 36.41 36.29 35.98 35.83 35.81 35.39 35.32 34.63 35.72
43.86 43.98 44.00 43.83 43.96 44.25 44.74 45.17 45.65 46.26 47.23 46.83 41.39 36.61 33.39 36.79 44.42 42.24 39.06 35.15 34.39 34.96 34.02 28.07 28.70 24.89 34.08 36.75 34.76 33.95 34.75 33.53 29.51 33.09 39.61 36.08 34.23 38.23 39.58 38.67 35.55 36.42 37.14 36.44 34.43 31.95 31.84 30.66 33.46 33.08 33.88 35.85 35.62 35.36
43.95 44.03 43.88 43.93 44.10 44.56 45.42 45.76 45.93 45.78 42.95 38.59 35.45 34.33 40.80 43.38 38.66 35.56 32.09 30.27 30.74 27.40 30.56 30.87 29.58 26.62 37.32 33.86 33.55 35.04 32.66 33.69 31.01 33.73 33.66 32.26 32.03 35.44 32.74 31.11 31.86 32.64 33.76 34.26 35.47 36.30 36.01 36.23 35.11 33.82 33.76 35.00 36.83 37.37
43.88 43.81 43.86 44.13 44.52 45.04 45.90 46.43 46.28 40.74 38.45 38.09 38.05 41.19 40.13 35.81 33.13 29.57 28.81 30.27 28.17 25.47 31.70 30.68 32.84 33.42 36.42 39.88 35.64 36.70 32.11 32.79 29.64 37.10 33.78 30.08 33.49 30.78 30.39 29.98 31.59 33.79 34.45 35.38 36.60 36.03 35.58 35.27 35.01 35.04 35.63 36.16 36.28 36.68
43.71 43.74 43.98 44.35 44.92 45.57 46.17 46.63 45.47 43.45 41.66 39.24 35.74 32.19 32.94 32.18 25.62 25.49 16.04 27.23 29.15 33.15 35.17 36.08 34.79 38.21 39.18 39.78 36.15 34.68 31.10 30.41 36.65 31.58 28.82 31.68 31.97 31.21 30.59 32.08 33.01 34.46 35.75 35.35 35.24 35.51 35.02 34.37 34.85 34.35 33.31 34.18 34.88 35.30
43.74 44.11 44.56 44.94 45.45 45.86 46.42 46.67 45.31 41.95 36.84 31.10 30.23 25.64 27.79 25.78 27.90 27.17 28.59 32.20 35.17 35.56 36.49 37.46 34.82 34.37 37.23 35.47 36.01 28.85 34.22 33.80 28.21 26.81 26.44 31.30 31.62 30.70 31.34 33.21 34.28 34.15 34.45 34.38 33.89 33.95 33.87 33.34 32.94 33.59 32.54 31.95 31.38 30.95
44.81 45.44 45.77 45.68 46.22 46.45 46.81 45.75 43.46 39.49 34.44 28.90 30.09 21.63 23.50 27.81 32.37 33.00 32.55 33.02 34.69 36.73 37.08 36.33 34.14 35.62 32.34 31.77 32.91 30.49 28.38 25.71 28.33 27.66 29.13 29.95 30.39 30.17 30.92 32.65 33.49 33.09 32.88 31.61 31.95 31.35 31.30 31.54 31.20 30.74 30.65 30.50 29.84 28.87
45.84 45.99 44.69 46.15 46.49 46.59 45.59 42.29 38.90 36.99 32.14 31.90 30.36 28.06 28.54 26.30 26.83 31.94 32.16 32.17 36.52 37.28 37.13 35.58 32.21 31.41 31.36 31.36 27.10 26.50 24.90 24.86 25.98 30.15 29.86 28.23 29.28 29.54 30.01 32.01 32.23 30.55 29.27 28.73 28.70 28.78 28.59 28.36 28.31 28.30 27.80 25.75 26.52 28.74
46.93 42.81 46.08 46.49 46.47 44.70 41.75 35.48 34.46 31.36 29.64 28.80 22.83 29.97 27.96 26.67 27.95 30.24 34.67 34.91 36.00 34.98 32.04 31.86 29.76 27.78 31.45 27.89 26.24 29.72 27.92 26.86 32.31 29.20 25.60 27.99 29.98 29.22 29.20 29.21 29.24 28.26 27.26 27.07 26.94 26.70 26.74 26.77 26.69 24.44 22.30 22.73 22.99 26.02
41.18 43.88 46.63 46.38 41.10 38.29 34.49 32.70 30.90 27.51 22.68 22.85 23.84 24.30 29.46 30.07 29.04 32.15 33.55 34.45 33.14 31.95 31.88 31.49 32.09 26.13 27.66 26.28 26.74 29.38 29.39 29.50 23.90 24.89 26.20 28.00 28.12 26.75 27.68 27.34 28.02 27.06 26.03 25.40 24.17 21.82 21.15 20.33 22.65 21.87 19.88 19.62 20.33 21.39
43.08 44.51 45.61 42.20 39.40 34.51 30.44 30.22 30.76 21.93 19.51 23.82 26.65 26.58 26.79 28.24 30.86 30.61 31.36 34.12 34.08 33.78 31.68 31.55 30.33 21.34 26.41 31.54 31.27 31.77 29.20 25.77 27.79 28.22 28.34 29.34 28.47 26.86 26.50 23.95 23.96 21.83 21.14 20.22 21.86 21.14 21.05 21.41 20.85 21.15 20.33 21.31 21.30 22.02
42.94 42.36 41.49 40.99 38.25 31.43 26.77 24.28 29.09 19.78 16.93 23.27 24.71 24.10 23.92 25.84 28.13 25.53 25.32 29.47 30.32 30.89 29.64 28.54 27.21 28.39 29.41 31.77 30.55 29.78 28.03 27.62 27.72 26.74 26.99 26.74 26.62 19.84 23.20 23.40 24.46 22.77 21.46 19.56 18.30 22.85 17.38 20.22 20.63 20.69 20.02 20.95 21.75 21.05
38.59 38.02 38.01 35.40 31.86 29.90 26.44 27.07 26.40 27.00 26.72 24.50 24.75 27.22 25.54 27.37 25.97 26.16 27.07 28.54 24.72 22.67 21.10 26.29 29.05 30.32 26.98 28.26 29.59 28.93 28.95 29.00 27.91 27.67 27.36 23.05 25.81 22.92 20.73 20.03 18.30 21.87 20.67 19.25 18.82 18.99 23.43 19.30 18.99 18.05 10.20 20.24 22.05 22.22
36.01 38.05 33.11 32.48 27.80 26.13 22.84 24.73 25.39 27.27 25.99 24.95 24.88 25.59 23.60 22.20 22.85 24.10 23.93 23.07 24.89 21.96 25.45 27.78 26.06 25.42 23.66 25.42 24.31 23.82 26.35 26.71 26.09 26.43 30.44 28.90 23.56 20.42 20.44 21.42 19.61 19.55 18.73 17.66 17.39 16.84 16.97 17.63 17.80 17.83 18.13 17.84 21.17 19.67
36.00 33.34 29.66 28.31 22.96 20.88 18.90 22.37 18.45 22.41 20.79 21.31 16.02 19.26 11.24 8.60 10.60 13.23 15.97 14.52 20.22 21.66 22.22 23.06 22.28 20.21 20.99 21.04 21.63 22.34 22.69 21.11 23.13 23.83 24.76 24.54 23.99 21.17 19.49 20.82 22.08 19.52 17.50 18.60 17.52 16.78 13.78 21.94 21.19 19.08 17.21 17.78 17.26 16.92
33.94 27.14 24.12 21.63 21.22 16.87 18.37 11.87 18.60 13.75 11.43 13.81 7.41 8.39 7.84 7.92 9.78 8.73 9.92 15.21 21.91 22.79 22.87 22.62 20.61 20.91 19.59 16.48 15.29 17.60 19.74 20.86 20.83 17.58 17.19 18.18 16.55 19.41 22.96 22.78 23.41 21.51 21.62 18.36 17.07 16.15 14.59 16.56 22.31 16.52 14.52 13.89 13.27 13.03
26.39 22.54 22.36 16.01 16.18 15.32 12.17 9.59 6.67 8.90 4.79 3.35 4.98 5.37 6.52 7.38 7.69 7.42 12.60 20.26 22.99 23.63 24.27 23.97 23.82 23.58 21.92 20.16 20.53 20.15 18.34 19.16 17.76 16.96 18.00 17.64 15.63 14.03 14.77 16.26 20.62 20.87 19.86 15.07 16.15 16.21 14.15 12.74 14.36 14.19 14.06 13.87 13.39 11.00
17.81 20.28 18.12 16.45 14.75 14.47 12.76 9.17 5.47 5.85 4.38 1.67 2.69 3.09 2.18 5.36 4.93 8.84 14.10 17.15 18.39 20.83 21.41 21.05 22.13 21.92 22.28 23.36 22.26 21.74 23.70 21.34 20.30 18.77 20.71 20.30 20.88 19.99 17.48 15.73 14.56 18.49 19.21 20.80 15.71 16.44 15.73 14.50 14.23 12.84 13.63 15.10 21.89 16.63
17.86 18.70 20.96 21.28 18.38 16.30 13.19 13.79 14.35 9.01 1.22 2.92 1.77 2.95 0.88 2.45 3.09 13.64 17.34 16.00 17.01 17.13 18.80 20.10 21.27 21.15 21.39 22.20 23.41 23.41 21.82 21.76 22.75 21.55 19.15 17.16 17.61 20.55 21.26 19.63 18.91 20.80 18.36 18.30 17.84 16.86 16.35 15.57 14.89 14.32 13.55 8.75 9.61 10.78
20.39 17.31 12.90 12.20 11.94 10.50 8.57 7.58 5.01 5.31 6.48 12.17 11.05 2.63 3.99 8.14 12.79 16.48 16.25 14.38 12.89 11.52 12.22 13.23 16.68 20.12 20.04 20.17 18.20 18.95 16.90 15.16 14.50 15.01 17.40 19.79 20.47 20.57 19.70 21.59 21.56 26.16 18.33 17.72 17.35 15.96 15.66 15.63 14.30 12.50 10.95 10.54 8.51 6.02
14.79 16.69 15.54 7.18 5.82 7.30 7.74 9.27 9.10 12.08 16.51 12.62 8.50 7.67 9.12 14.77 12.53 12.14 15.04 12.06 5.87 8.75 11.16 15.08 18.83 12.68 15.22 10.08 11.14 12.27 13.66 14.56 15.34 15.68 16.24 18.75 16.44 21.07 17.27 18.98 19.04 17.08 13.05 14.48 25.56 18.74 12.33 9.82 10.13 10.86 10.27 9.63 9.50 6.33
13.15 14.17 10.76 3.63 7.67 9.81 9.77 9.87 8.39 5.42 10.17 12.71 13.41 11.06 11.62 12.19 14.47 10.78 9.29 5.85 8.93 14.46 19.14 18.26 14.24 11.09 18.68 11.08 13.74 10.61 12.66 16.89 18.69 19.52 18.78 19.59 19.33 14.15 8.51 10.56 13.31 12.93 11.89 13.07 11.85 10.77 22.58 15.01 14.14 12.60 13.42 7.56 4.54 3.76
12.96 7.55 5.37 4.52 6.28 4.43 3.52 2.92 1.69 9.17 3.84 1.27 0.34 6.43 9.98 8.57 11.61 12.61 17.05 20.33 21.08 19.34 7.24 15.42 17.88 13.93 14.34 11.01 8.11 8.09 14.68 13.13 16.03 17.00 17.98 11.76 9.93 9.30 8.14 6.14 6.67 8.28 8.97 8.82 7.83 6.92 6.03 4.24 3.03 2.39 2.34 0.61 3.20 9.18
10.60 4.05 6.24 8.41 7.65 3.22 -0.21 -0.73 -3.24 -1.48 -3.09 -2.03 2.45 -4.74 1.05 2.78 5.34 12.99 8.98 7.06 6.81 12.36 20.20 20.00 13.53 19.55 9.74 10.83 6.93 8.98 22.98 9.50 7.15 8.62 8.37 8.86 9.28 8.65 8.17 6.61 4.09 6.41 6.64 5.41 3.65 2.99 1.30 0.72 0.56 0.67 2.26 2.45 2.95 3.22
-1.84 -2.71 -1.81 -1.35 3.10 3.57 2.22 1.42 0.71 0.74 -2.38 -3.83 0.59 -0.75 -1.49 4.94 9.46 13.98 7.00 1.79 6.33 5.70 4.77 2.89 -0.19 0.26 1.15 1.83 2.43 3.05 11.99 1.99 5.66 18.62 20.20 20.27 19.62 14.23 5.14 4.30 5.05 5.45 5.63 3.61 2.24 2.41 1.70 0.01 -0.13 -0.42 0.84 3.78 4.87 4.73

GFSWCAN_sfc_wetblb_072.txt.gz
Wetbulb
55.11 54.84 54.59 54.58 54.50 54.37 54.13 53.53 52.69 51.47 50.79 49.77 48.89 48.25 47.47 46.90 46.39 40.79 37.17 39.18 34.95 29.54 30.38 33.29 33.41 29.13 28.59 28.47 26.05 30.08 30.89 39.26 38.94 34.65 33.43 32.94 29.01 30.25 27.81 29.45 28.92 29.05 29.58 28.89 29.29 26.86 22.25 36.91 36.00 33.29 37.11 39.06 39.62 38.65
54.93 54.91 54.72 54.55 54.36 54.05 53.99 53.53 52.90 51.94 51.47 50.96 50.13 48.97 48.32 47.47 47.13 46.28 39.14 42.17 42.06 36.54 34.69 35.99 36.77 37.52 35.48 34.99 30.93 31.28 30.92 32.45 35.71 35.51 35.23 33.16 29.26 28.96 27.88 25.03 30.14 28.00 30.17 28.85 29.56 29.01 35.31 37.33 36.77 39.25 41.20 41.32 41.96 40.81
54.58 54.74 54.61 54.26 54.09 54.07 53.96 53.63 53.27 52.33 51.79 51.38 50.46 49.58 48.95 48.18 47.50 46.25 41.76 41.94 40.46 36.40 35.78 33.93 32.26 36.84 39.05 38.05 38.54 28.93 31.07 35.20 35.38 33.90 31.70 36.03 30.16 31.51 26.43 27.66 29.53 31.96 33.90 31.56 30.86 34.29 35.22 37.30 38.65 40.49 41.90 41.11 41.97 42.28
53.26 53.74 53.88 53.71 53.44 53.26 53.14 53.00 52.69 52.66 52.35 51.96 51.38 50.63 49.46 48.81 47.87 47.28 42.07 40.95 40.49 37.55 30.33 30.01 36.25 33.05 35.83 36.44 36.19 36.41 34.63 36.47 36.05 35.05 30.37 29.85 34.84 35.64 30.58 32.10 31.16 32.54 33.97 32.11 31.06 34.27 36.32 38.17 38.66 40.39 40.87 41.05 40.65 40.71
51.80 51.84 51.72 51.36 51.14 50.90 50.69 50.50 50.72 51.39 51.70 51.61 51.47 51.38 50.37 49.26 47.78 44.79 42.97 40.16 40.99 37.33 29.34 30.72 35.22 35.97 36.08 35.94 35.04 34.56 34.16 33.47 31.89 30.05 29.27 28.93 35.43 36.22 34.22 33.67 31.52 35.30 33.73 31.28 30.66 36.12 35.87 36.25 38.34 39.43 39.82 39.83 40.23 40.37
49.63 49.28 48.87 48.55 48.23 48.09 48.01 48.07 48.48 48.54 49.46 49.92 50.72 51.06 50.31 48.75 45.41 40.64 32.25 36.05 39.60 41.38 33.48 24.03 31.44 31.66 33.63 34.49 32.89 32.81 33.63 33.00 33.97 31.77 30.91 33.32 35.82 35.54 32.86 30.45 36.05 36.92 37.41 37.73 36.21 38.78 39.37 40.15 39.47 40.47 39.92 39.27 38.93 38.60
47.19 46.84 46.66 46.64 46.55 46.54 46.63 46.47 46.41 46.53 46.92 47.57 49.07 50.37 49.82 46.67 42.22 36.38 32.40 37.20 41.88 39.90 31.25 24.29 22.07 29.58 35.43 36.53 35.11 34.89 34.55 34.71 33.84 32.07 30.49 33.58 34.46 35.17 34.78 29.79 36.63 36.56 37.29 37.55 38.78 39.49 36.61 38.37 39.65 40.16 39.98 39.02 40.18 37.28
45.64 45.45 45.38 45.19 45.00 44.85 44.77 44.82 44.74 45.13 45.65 46.69 48.19 50.09 48.41 46.43 43.89 39.63 41.29 43.81 40.46 36.11 33.53 23.33 22.88 24.75 38.13 33.78 28.30 33.16 32.13 34.85 34.11 31.95 32.53 33.05 36.73 35.03 33.02 37.06 38.61 37.17 35.99 36.18 37.83 36.71 37.33 37.85 37.08 37.18 37.26 37.59 35.66 36.44
44.70 44.61 44.52 44.32 44.13 44.01 43.81 44.00 44.44 45.11 46.36 48.22 47.34 45.62 42.94 40.55 36.95 35.72 43.30 44.74 40.69 35.70 27.58 26.86 19.72 17.30 37.56 36.17 34.83 32.35 32.05 27.68 31.43 28.54 31.63 34.03 32.69 31.92 35.42 37.07 38.58 38.70 36.53 36.40 35.89 35.71 35.96 35.81 35.80 35.64 34.86 34.19 33.61 34.51
44.40 44.40 44.31 44.01 43.80 43.73 44.06 44.33 44.63 45.75 46.44 44.50 40.12 36.47 33.78 37.84 43.53 42.29 38.27 35.89 34.24 34.33 33.64 27.35 28.99 24.12 31.70 33.26 33.75 30.97 33.62 30.88 26.09 29.63 36.29 32.06 32.13 36.72 39.23 37.91 37.34 37.96 36.76 35.93 33.87 32.07 32.31 31.39 34.12 33.13 32.77 34.42 34.41 34.26
44.55 44.30 44.04 43.91 43.84 43.97 44.69 45.22 45.44 45.36 43.01 38.41 35.79 34.95 40.12 43.60 38.76 35.15 30.35 28.77 30.17 25.32 30.06 29.48 28.92 25.68 34.40 28.82 32.98 35.23 32.01 32.19 28.60 30.35 32.45 31.71 31.93 34.66 31.92 31.50 32.15 32.79 34.02 34.39 35.50 35.68 36.14 36.69 35.52 34.89 34.18 34.25 34.85 35.69
44.11 44.01 43.86 43.75 44.09 44.47 44.76 45.62 46.16 40.29 35.97 37.39 37.94 41.24 39.57 35.58 32.81 28.98 27.48 29.23 26.28 22.62 30.03 29.05 30.83 31.14 32.80 37.15 33.65 34.88 31.42 32.23 29.64 34.54 31.78 29.06 33.50 30.75 30.11 29.23 30.77 34.40 35.91 36.00 36.77 35.88 35.64 35.43 35.23 35.43 35.63 36.20 36.07 36.43
43.84 43.69 43.69 43.96 44.16 44.43 44.93 45.92 44.40 43.11 41.55 38.91 35.85 32.19 31.90 31.74 25.45 22.89 12.83 20.28 21.95 30.74 33.60 33.22 32.88 36.52 36.59 38.74 35.69 34.15 31.25 30.01 36.54 31.95 28.34 30.32 30.07 29.30 28.87 31.04 32.97 35.12 35.73 35.45 35.32 35.55 34.96 34.45 35.03 34.36 33.43 33.87 33.84 34.83
43.55 43.68 44.04 44.45 44.60 44.86 45.34 45.76 44.52 41.94 36.76 27.27 29.06 23.92 26.05 23.52 23.31 22.20 21.61 27.75 34.41 35.00 34.48 34.91 35.25 33.90 35.39 33.37 35.05 30.35 34.09 33.89 28.15 26.34 23.90 30.17 30.18 30.05 30.45 32.67 34.45 34.20 34.92 34.93 34.55 34.68 34.31 34.16 33.66 33.43 32.35 31.62 30.68 29.53
43.68 43.94 44.36 44.68 45.26 45.73 45.85 45.81 43.28 38.31 34.41 25.51 28.76 20.65 23.40 25.08 25.14 32.63 32.54 33.23 34.57 36.87 35.74 35.30 34.58 35.23 32.21 31.35 32.46 30.79 27.66 23.61 26.77 25.75 27.21 28.54 31.02 29.70 30.82 33.04 33.98 34.18 34.47 33.67 32.99 32.15 32.08 32.28 31.73 30.74 30.50 30.04 29.84 29.41
44.52 44.51 43.28 45.19 45.53 46.04 46.36 43.83 39.15 37.01 32.29 30.59 27.91 25.41 27.31 27.95 16.91 29.74 32.02 31.71 35.51 36.18 36.30 35.07 31.91 30.97 31.18 31.12 27.32 26.74 26.57 24.20 28.38 30.53 31.79 26.43 28.58 28.96 30.96 33.20 33.11 33.80 32.25 29.33 28.99 28.88 28.64 28.49 28.42 28.39 26.14 24.83 25.99 28.43
46.27 42.90 45.83 45.99 46.15 46.13 42.83 36.53 35.18 32.04 30.36 27.87 23.05 27.60 22.78 23.16 20.66 26.89 32.32 33.76 35.67 33.97 31.38 31.80 29.31 26.64 31.30 24.34 22.66 27.30 26.30 31.15 32.14 31.59 26.97 27.82 30.40 30.30 29.28 31.41 30.57 28.92 27.92 27.44 26.68 26.68 26.47 26.62 26.97 24.07 22.18 22.40 23.26 24.92
42.75 43.55 46.36 46.78 44.96 39.48 35.04 33.42 30.71 28.52 23.13 17.55 17.96 19.34 26.93 28.18 26.60 29.92 31.87 34.44 33.11 31.86 31.88 31.12 30.84 25.33 24.31 20.80 22.42 29.25 31.86 31.91 29.39 26.75 27.45 27.43 27.45 27.20 29.39 29.16 28.76 27.54 26.57 26.19 25.00 22.89 21.84 21.29 22.89 21.99 20.20 19.86 20.38 20.73
42.94 44.61 46.64 43.92 40.24 34.78 30.68 30.18 31.21 23.95 18.07 16.71 20.94 22.39 24.36 26.61 28.81 28.06 29.42 32.82 34.19 33.93 30.88 30.91 28.77 27.40 26.82 30.63 31.45 31.86 31.06 29.49 29.36 28.76 28.39 28.36 27.62 26.49 26.81 23.41 23.60 21.80 21.50 19.90 21.24 21.27 21.39 21.42 20.79 20.97 20.31 20.99 20.71 21.28
46.00 44.60 43.43 42.28 38.71 31.42 26.98 26.33 29.97 22.58 17.21 19.83 19.16 18.24 22.68 24.90 26.36 26.36 27.82 30.15 30.07 29.83 29.22 28.17 26.80 28.82 29.67 30.86 29.19 28.94 27.80 29.65 28.89 28.26 28.19 27.79 26.68 19.03 22.86 23.14 24.43 22.65 21.40 18.90 17.41 22.18 17.04 19.59 20.03 20.04 19.38 19.77 20.59 20.31
38.68 38.44 38.26 35.58 31.75 30.76 27.26 25.39 25.65 21.27 21.08 17.52 17.24 20.49 20.68 22.34 25.77 25.43 25.61 29.02 27.22 24.89 24.05 24.53 27.58 29.50 28.23 30.78 29.80 28.87 28.66 28.78 28.36 28.99 28.65 24.99 26.43 22.47 20.08 18.61 17.16 21.47 20.90 19.78 19.37 19.38 24.19 19.43 18.31 17.27 9.87 19.60 20.76 21.42
36.25 38.66 32.79 33.10 28.34 26.34 23.89 24.72 19.94 25.50 22.14 22.40 24.90 25.53 23.29 22.18 22.69 23.71 24.34 22.95 23.87 21.58 21.44 24.58 22.10 23.13 23.71 25.29 24.99 23.43 26.00 26.54 26.27 26.39 30.00 28.90 25.25 20.62 20.24 20.65 18.28 20.25 19.95 19.42 18.39 18.36 17.74 17.36 16.83 17.01 17.15 16.55 19.88 18.30
36.52 33.75 30.27 28.56 24.07 22.79 19.08 22.07 16.58 22.85 18.57 20.30 19.47 20.79 17.36 13.91 14.75 17.24 18.37 16.57 19.30 20.61 20.95 20.82 18.32 17.24 20.28 21.49 22.20 23.13 22.76 21.38 22.90 23.76 24.23 24.16 24.08 21.77 18.97 19.24 21.05 19.09 18.26 19.59 17.76 17.34 15.07 20.79 20.75 18.77 16.07 17.02 15.98 15.79
34.04 27.63 24.11 21.19 18.10 13.03 17.70 14.28 20.20 18.12 16.89 15.32 11.10 13.70 10.27 9.14 9.16 7.61 9.53 11.25 17.98 17.69 19.46 18.48 15.65 17.61 17.04 16.67 18.40 19.70 20.93 21.42 20.47 17.51 16.50 16.87 16.64 20.35 22.42 22.33 23.13 21.17 21.79 18.09 16.58 17.24 16.18 16.50 22.33 16.62 14.05 13.03 12.38 12.52
26.22 22.17 22.64 12.77 14.22 13.09 13.80 15.35 14.69 14.51 12.35 8.87 8.19 7.34 7.31 6.13 5.34 3.80 8.94 15.45 15.15 16.21 18.70 20.97 22.32 22.18 21.38 20.68 21.39 22.09 21.44 21.56 19.30 17.80 17.84 17.39 15.55 13.60 14.75 15.67 20.78 22.24 19.90 15.30 17.17 16.43 14.50 12.15 13.80 14.30 13.92 13.49 13.58 11.59
18.06 16.20 14.21 14.22 15.71 17.88 16.54 14.17 11.88 10.75 10.08 6.10 5.54 3.62 1.25 2.61 2.58 6.46 10.54 11.96 12.47 15.06 16.23 19.19 19.27 19.83 20.67 22.63 21.28 21.00 23.10 22.86 22.25 20.73 21.53 18.43 18.96 17.93 14.06 14.69 14.61 19.80 19.09 21.48 17.06 17.28 16.10 13.72 13.19 12.49 13.59 15.23 22.33 18.01
13.50 14.82 19.78 21.83 19.44 17.40 14.79 15.03 15.55 11.95 5.00 6.23 4.78 3.48 0.82 1.78 1.70 12.35 14.09 12.63 13.70 13.75 16.92 17.91 20.52 20.27 20.10 19.51 20.39 21.06 19.67 20.33 22.27 21.76 18.95 18.10 19.05 20.42 20.82 18.62 18.64 21.13 18.61 18.19 17.89 17.22 16.92 15.75 14.67 14.06 13.87 8.97 9.73 11.03
19.81 19.01 15.66 14.84 13.89 12.34 11.11 9.21 8.05 9.01 9.52 12.11 11.55 6.03 4.99 7.33 11.99 15.76 16.09 13.49 10.67 7.60 8.63 11.45 16.68 20.23 19.89 19.76 16.48 17.21 15.94 13.13 13.04 14.76 17.71 19.94 20.39 20.48 19.48 21.27 22.44 26.13 20.35 16.71 16.58 16.00 16.71 16.24 14.84 13.29 11.48 10.79 9.20 5.38
16.35 17.48 17.42 9.04 7.68 8.52 9.54 10.73 11.39 13.12 16.84 13.62 10.42 9.15 9.31 13.10 12.26 12.48 15.86 12.51 2.91 6.48 10.60 16.71 19.67 9.45 12.54 9.50 8.69 12.12 13.62 12.96 14.62 14.03 14.76 17.71 16.84 20.13 15.67 17.14 16.16 15.16 14.63 14.63 25.82 21.15 11.96 10.69 10.76 10.44 8.88 8.56 7.96 4.12
14.50 15.13 10.29 3.55 8.25 11.36 12.10 11.35 9.80 6.42 10.16 12.35 12.65 10.85 10.97 11.24 13.24 9.05 9.35 6.16 8.55 14.62 18.41 13.95 11.21 8.35 13.77 9.49 15.32 11.55 9.89 15.14 18.21 19.04 16.20 17.67 18.25 12.69 6.71 9.39 10.91 10.33 9.43 9.67 9.83 9.95 24.71 13.12 13.83 10.90 12.00 8.01 5.84 4.16
15.12 11.41 9.45 8.46 10.97 7.76 5.87 4.68 2.36 8.67 2.33 -0.53 -2.07 5.58 9.00 5.84 10.29 10.65 10.56 13.76 13.83 7.99 7.43 15.93 15.88 8.52 11.05 9.89 5.40 5.48 14.00 11.59 13.80 15.30 15.92 11.34 9.02 6.82 6.01 4.98 3.87 3.65 5.46 6.71 6.13 6.57 5.87 3.72 3.31 2.92 2.93 0.61 -0.22 5.38
11.03 5.51 7.18 9.50 8.27 2.45 -1.50 -2.92 -5.20 -1.96 -4.82 -3.55 -0.50 -8.49 0.35 2.29 4.79 12.75 7.28 3.51 4.65 6.48 14.13 9.56 5.99 12.54 5.69 5.88 3.71 6.50 20.64 6.88 4.71 6.81 7.34 7.94 8.63 8.02 5.60 2.72 -0.22 2.89 4.13 3.84 2.88 2.63 1.60 1.34 0.07 -0.34 0.91 -1.86 -2.28 -1.60
-2.18 -3.30 -4.22 -1.89 3.19 3.37 1.07 0.41 -0.26 0.24 -3.74 -4.98 -1.73 -2.95 -3.41 3.72 9.39 12.61 3.56 -0.52 2.62 3.05 2.98 2.45 1.29 0.25 0.20 -0.63 0.53 2.06 10.21 0.26 5.46 19.20 21.23 21.86 21.48 14.65 2.62 1.95 3.99 5.00 5.46 3.84 0.94 0.15 -0.79 -1.57 -1.46 -2.33 -2.84 -2.77 -0.46 2.00

GFSWCAN_sfc_wetblb_075.txt.gz
Wetbulb
55.10 54.66 54.32 54.11 53.92 53.83 53.79 53.31 52.79 52.03 50.94 49.71 49.03 48.36 47.67 47.10 46.85 40.71 36.80 38.09 34.80 32.72 32.74 33.20 32.66 29.56 28.13 27.35 24.38 27.67 27.50 32.97 35.47 33.81 32.85 33.42 29.29 29.20 26.93 28.62 28.54 28.12 29.44 28.47 28.10 26.38 22.24 34.78 35.56 31.65 35.12 37.68 38.70 37.44
54.80 54.46 54.15 53.99 53.86 53.80 53.79 53.50 53.08 52.14 51.46 51.07 50.45 49.38 48.70 47.89 47.30 45.65 36.18 40.02 41.70 36.48 34.35 36.52 37.69 38.47 35.77 33.73 32.42 32.16 27.91 29.69 32.85 29.68 29.14 29.20 31.76 28.66 26.82 23.67 28.54 26.86 30.27 28.08 28.96 28.37 34.61 35.38 37.17 38.14 39.91 39.88 40.05 40.41
54.44 54.26 54.08 53.93 53.90 54.03 53.99 53.69 53.13 52.30 51.58 51.50 51.06 50.28 49.35 48.83 47.99 45.86 37.94 40.83 40.73 36.90 33.70 35.44 33.34 36.96 39.00 38.51 39.01 30.53 29.23 32.53 33.12 34.11 31.34 30.60 29.03 32.19 26.35 26.02 27.12 30.56 32.37 29.91 30.60 33.54 34.17 35.24 36.52 38.87 40.87 40.32 41.89 41.75
53.99 54.02 54.03 53.96 53.88 53.79 53.34 53.14 52.94 52.67 52.37 52.02 51.93 51.27 50.44 49.65 49.00 47.62 42.90 42.17 40.55 37.52 30.59 30.77 35.91 31.97 35.27 36.41 36.55 36.68 34.03 33.71 35.44 34.79 29.09 25.96 26.23 33.27 31.98 30.56 30.16 31.15 32.57 30.68 29.88 32.63 34.43 36.86 37.03 38.58 39.88 40.27 40.13 40.29
53.58 53.75 53.85 53.61 53.42 53.10 52.83 52.61 52.14 51.90 52.22 52.27 52.11 51.82 51.45 50.53 49.65 46.70 43.28 42.20 42.30 36.01 30.04 30.11 34.54 34.48 34.73 34.45 33.80 34.57 34.08 32.30 28.50 29.84 27.79 25.59 31.56 32.96 35.47 33.04 29.87 33.25 31.56 30.22 29.22 34.96 35.54 35.91 37.12 38.05 39.87 39.52 39.61 39.68
52.88 52.66 52.19 51.89 51.65 51.34 50.97 50.53 49.88 49.39 49.12 48.89 49.43 50.29 51.11 50.40 46.33 41.10 35.69 35.39 38.29 41.58 34.08 24.95 30.18 30.18 32.44 32.68 33.58 32.53 32.76 32.03 31.90 31.00 28.98 30.42 35.98 30.86 27.55 32.05 35.51 35.99 36.38 37.04 35.49 36.22 37.45 38.07 37.82 38.33 39.82 39.89 39.73 39.61
51.21 50.77 50.35 49.87 49.50 49.04 48.32 47.88 47.50 46.74 46.47 46.49 47.32 48.81 49.83 48.31 42.34 38.28 35.82 35.87 42.34 40.80 32.11 24.63 22.35 29.49 31.24 34.92 34.53 31.77 32.08 31.18 31.13 31.49 29.34 29.32 31.24 33.37 31.01 31.08 36.38 37.57 37.65 37.07 38.21 39.40 36.47 37.34 37.93 39.12 40.71 40.39 40.72 37.73
48.50 48.25 48.05 47.92 47.56 47.01 46.56 46.25 45.84 45.64 45.17 45.07 46.32 48.09 49.74 46.44 43.91 39.59 41.85 43.23 41.30 36.85 32.93 24.42 22.70 23.81 33.16 34.17 30.00 32.29 31.35 32.87 33.46 31.40 31.39 30.24 32.24 31.28 26.19 31.92 35.67 39.00 36.63 36.33 37.53 36.97 38.26 38.26 37.34 36.63 36.31 36.77 35.31 35.75
46.73 46.71 46.57 46.16 45.48 45.31 45.42 45.20 45.30 45.54 46.92 48.02 48.05 46.51 43.06 40.77 37.45 37.84 42.73 43.91 41.57 35.60 25.93 26.50 19.44 14.03 32.49 35.13 34.65 32.37 32.12 27.71 31.68 28.72 27.78 30.43 27.86 28.66 31.54 34.15 37.35 38.99 35.91 35.59 35.31 35.41 36.33 36.16 35.75 35.57 35.08 33.75 33.32 33.87
45.83 45.78 45.64 45.05 44.88 44.81 44.98 45.33 45.59 46.62 46.51 44.84 39.82 36.47 34.37 38.08 42.75 42.41 38.60 35.75 34.52 34.43 33.23 26.40 30.12 25.07 30.26 31.82 29.09 29.45 31.70 28.03 24.83 27.63 30.23 27.42 26.23 33.18 35.03 37.55 35.51 35.69 36.34 35.37 33.57 31.12 32.48 31.64 33.91 33.54 33.68 34.25 34.09 33.75
45.51 45.37 44.94 44.63 44.56 44.90 45.42 45.47 46.38 45.46 43.20 36.00 34.87 33.71 40.42 43.67 38.78 35.04 29.66 28.98 29.27 24.63 28.53 29.92 29.16 26.58 33.00 26.22 27.39 33.68 31.02 31.37 26.98 28.27 28.28 28.92 29.50 33.80 32.55 31.73 32.32 33.36 34.92 34.27 34.69 34.64 35.48 35.58 34.56 33.38 33.48 34.73 35.56 33.85
44.77 44.70 44.60 44.58 44.72 45.25 45.82 46.01 45.54 37.54 34.59 36.94 37.94 40.85 39.57 35.72 32.46 27.75 24.46 28.36 25.75 21.29 27.19 28.35 30.43 31.53 32.07 35.12 31.79 34.28 30.32 31.07 28.60 32.56 29.55 29.10 33.05 31.40 30.64 30.06 31.76 33.55 34.44 35.00 35.51 35.02 35.36 35.54 35.87 35.81 35.77 35.82 35.67 35.96
44.63 44.51 44.53 44.72 45.03 45.44 46.08 46.48 44.42 43.16 41.07 37.69 35.28 32.35 31.12 30.22 24.04 21.81 18.35 17.63 23.22 24.00 30.17 33.23 31.64 35.00 34.63 34.05 32.87 32.83 31.06 30.07 35.17 31.33 29.24 30.75 31.62 29.84 29.44 31.52 33.17 35.46 35.64 35.63 35.28 35.17 35.01 34.39 34.86 34.51 33.40 32.66 32.83 33.20
44.46 44.34 44.46 44.60 44.73 45.25 45.93 46.42 44.47 41.42 35.75 30.85 28.59 23.70 24.60 22.27 24.70 20.45 19.13 18.99 31.35 34.78 34.71 34.25 33.44 33.72 35.19 32.92 33.49 31.22 34.02 33.74 26.12 25.81 25.62 31.44 29.72 29.13 29.48 33.83 34.66 34.59 35.39 35.12 35.01 35.15 35.08 34.77 33.83 33.76 32.88 31.86 30.63 29.57
44.13 44.10 44.25 44.37 45.21 45.65 46.23 45.37 43.42 38.74 33.86 26.00 28.13 18.71 19.94 24.06 18.11 27.51 23.60 31.79 33.45 34.68 33.51 32.47 33.97 35.29 32.57 30.95 32.36 30.89 27.15 22.65 26.16 25.42 27.54 31.63 30.15 30.05 30.50 33.61 33.01 33.92 34.57 33.86 32.82 32.22 32.58 32.77 31.62 30.86 30.37 29.90 30.32 29.93
43.73 43.55 42.26 44.94 45.54 45.70 46.03 43.33 39.29 37.41 32.74 29.39 27.73 24.40 25.68 21.80 16.44 26.98 30.23 30.22 34.33 35.20 35.01 34.14 31.52 30.70 29.58 30.70 26.60 26.95 26.25 21.89 28.69 30.83 32.11 30.65 29.08 29.54 32.11 33.74 34.42 34.48 33.62 31.15 30.25 29.60 28.75 28.68 28.28 28.01 25.04 24.41 26.24 28.07
44.49 41.91 45.21 45.28 45.86 45.91 43.30 37.25 36.08 32.74 30.78 27.96 26.80 29.41 26.04 25.05 18.27 27.12 32.89 33.11 35.40 32.03 29.82 30.73 27.41 27.58 31.02 21.57 18.86 22.22 20.05 28.80 32.46 32.24 30.26 28.88 29.99 30.96 30.77 32.39 33.05 31.66 28.29 27.29 26.77 26.54 25.84 26.20 26.61 24.41 22.22 22.13 23.37 24.30
41.96 43.90 45.86 45.89 44.96 40.12 35.48 34.15 32.30 29.77 24.73 20.95 17.20 17.86 28.50 27.69 25.42 31.33 32.54 33.25 31.23 30.82 31.81 30.01 30.46 27.75 22.54 20.54 21.39 26.50 31.63 31.63 30.57 27.48 28.94 28.87 29.09 28.26 30.09 30.87 30.42 27.98 27.12 26.58 24.84 21.95 20.99 21.27 23.15 22.08 19.90 19.84 20.25 20.94
42.62 43.85 46.37 45.56 40.89 35.15 31.15 30.35 31.39 24.58 18.11 15.60 19.14 20.48 23.20 25.78 27.42 26.78 30.84 31.74 34.20 33.98 30.45 28.78 26.57 26.32 26.96 28.92 32.00 31.98 31.68 28.86 30.31 29.50 29.58 28.96 28.69 27.38 28.09 24.64 24.40 22.49 22.37 20.60 22.27 21.65 21.86 21.77 21.01 20.73 20.19 20.73 20.53 21.16
45.58 45.52 45.21 43.99 39.59 32.08 27.61 26.33 29.71 19.00 15.36 19.34 17.34 17.10 19.94 21.23 23.81 23.42 24.56 28.26 30.33 29.60 27.97 27.33 26.17 27.44 28.48 30.10 29.48 29.16 27.14 28.55 28.78 29.50 30.07 29.75 27.60 20.34 23.10 23.28 25.01 23.33 21.86 18.60 16.86 21.75 16.49 19.15 19.64 19.64 18.93 19.08 19.64 19.99
38.50 38.89 38.97 35.77 32.08 30.35 25.60 22.69 25.07 22.32 22.34 15.69 12.61 17.10 16.12 15.19 16.50 25.04 25.91 29.45 27.29 25.70 25.72 27.12 26.08 27.93 26.17 30.38 33.13 31.57 29.21 28.62 27.63 28.27 29.30 28.28 28.10 24.37 21.49 19.75 17.80 21.29 20.99 20.02 19.46 19.83 24.61 19.88 18.96 17.23 11.16 20.18 20.41 20.43
36.73 37.69 32.93 33.71 28.47 26.88 22.29 22.91 18.58 23.28 20.74 19.92 23.15 17.37 18.77 20.75 22.01 23.70 24.42 19.75 23.67 24.11 24.96 23.69 21.88 22.31 22.90 25.26 25.04 24.48 26.68 26.86 26.76 26.47 29.71 29.09 26.77 23.67 22.87 21.83 18.79 20.78 20.41 20.73 19.72 19.56 19.29 18.24 17.20 16.51 16.48 16.06 19.37 17.21
36.83 34.09 30.48 29.52 24.95 23.64 20.15 23.42 18.09 20.45 19.04 19.79 20.68 20.00 19.73 15.79 14.74 16.56 16.83 16.85 20.51 22.70 21.19 20.90 18.27 16.09 19.35 19.27 20.91 22.55 22.92 21.68 22.08 22.86 23.36 23.80 23.85 23.41 21.67 21.67 22.46 19.45 19.00 20.67 19.07 19.10 18.03 21.32 19.84 18.80 16.05 17.32 15.31 14.96
34.41 28.06 25.57 22.96 23.73 18.40 19.28 13.10 21.17 19.83 19.10 17.48 15.46 15.05 11.05 10.52 11.43 11.55 13.63 13.39 17.55 17.29 18.23 16.92 14.51 16.47 15.26 13.43 15.41 17.73 19.31 19.93 21.09 19.90 19.14 18.41 20.06 21.72 22.96 22.74 23.15 21.73 22.42 18.80 16.40 16.53 15.88 16.89 21.72 17.17 15.28 14.27 12.64 12.35
28.21 23.26 24.64 17.12 14.85 14.10 10.25 12.93 15.63 16.86 17.15 15.90 14.29 10.81 9.74 9.90 10.24 7.60 11.64 15.99 11.56 12.71 13.94 13.93 15.58 15.72 14.62 14.85 19.78 20.63 20.72 21.85 21.43 21.13 22.28 20.17 18.41 17.50 18.87 18.66 20.72 21.77 19.53 15.24 17.92 17.45 16.36 12.30 13.87 14.88 14.53 13.94 13.45 11.05
20.10 17.67 14.09 9.64 9.45 15.53 16.43 14.90 14.60 16.00 15.58 13.00 12.33 9.39 6.67 8.02 6.17 9.36 12.04 12.68 10.37 12.48 13.78 15.76 16.75 14.38 17.15 21.30 20.68 20.37 22.12 21.69 21.66 20.51 23.00 21.82 21.85 21.68 20.78 18.40 18.94 21.74 19.05 21.23 15.81 16.90 16.51 13.71 12.66 11.53 13.20 15.37 22.87 17.29
12.04 10.75 17.82 21.57 19.58 17.94 16.40 16.96 17.45 15.13 11.80 10.39 9.86 7.23 5.40 4.82 5.50 13.61 14.62 11.64 12.99 12.76 11.19 11.54 17.27 18.20 18.44 17.91 19.31 19.01 17.55 18.56 21.56 21.03 18.94 18.78 20.50 21.69 22.76 22.16 21.86 22.61 19.39 16.72 16.40 16.57 16.50 15.27 13.99 13.83 13.84 8.41 9.58 10.81
18.54 18.14 15.65 16.52 16.47 16.29 15.67 13.11 12.13 11.60 11.54 12.77 12.47 5.78 7.84 10.62 13.79 16.01 16.51 16.14 13.63 5.82 5.63 7.68 12.65 16.05 16.39 17.02 14.50 15.12 13.49 10.03 9.74 11.92 15.41 19.01 20.34 20.75 20.55 21.95 22.81 26.00 22.93 16.03 15.44 14.26 15.56 15.61 14.87 13.11 11.14 11.28 9.83 4.95
16.42 18.35 19.40 14.58 13.66 13.06 13.23 13.26 13.28 14.12 16.86 13.45 10.02 8.96 9.76 13.93 14.56 13.53 15.73 9.89 -0.57 5.71 10.28 12.56 17.02 3.84 7.92 6.53 7.49 11.22 11.60 10.56 12.81 12.78 13.48 16.70 15.18 18.57 12.03 12.68 12.69 12.22 12.62 14.82 25.35 25.09 14.63 12.30 11.67 10.68 8.89 8.10 6.43 1.74
14.94 16.54 12.66 7.87 12.43 13.53 13.42 11.48 10.43 8.10 11.21 12.91 13.42 13.25 13.16 13.30 13.54 8.14 9.39 5.33 7.67 11.19 10.86 9.09 6.62 5.51 13.23 8.12 14.07 11.95 7.01 12.56 17.06 19.24 17.23 17.60 17.05 10.00 4.42 8.04 9.99 8.37 6.72 6.84 8.26 9.49 25.66 14.62 13.92 7.94 5.97 4.27 4.69 4.53
15.10 10.67 9.00 8.70 9.88 7.82 5.14 4.54 4.70 9.83 6.02 2.12 0.65 7.19 9.29 6.54 10.29 8.10 4.43 3.30 3.61 1.25 4.77 6.13 6.93 0.81 5.29 7.70 1.63 2.53 11.55 8.60 7.55 11.07 12.34 7.63 7.37 7.00 8.12 6.11 3.96 2.21 3.19 5.39 5.84 6.83 6.24 3.90 2.50 2.65 3.63 3.71 2.07 5.15
12.56 8.04 11.05 12.54 11.70 6.89 2.55 -0.53 -2.92 0.06 -3.20 -3.55 -1.20 -8.68 -0.89 2.55 5.36 12.85 2.63 0.55 2.04 5.02 9.75 3.07 2.12 5.80 1.08 1.91 2.74 3.95 16.64 13.82 7.22 5.58 5.21 7.27 9.09 9.22 4.81 2.51 -1.65 0.33 2.17 2.61 1.90 1.57 0.37 0.95 0.44 0.46 0.82 -2.18 -3.75 -3.84
2.25 1.86 -0.45 2.74 6.36 6.40 4.02 1.63 1.80 1.76 -2.70 -4.42 -2.56 -4.88 -5.62 2.38 8.33 11.08 2.22 -2.50 1.81 2.10 0.57 -0.66 -0.56 0.03 0.73 -0.06 0.82 2.74 9.30 2.90 3.73 17.90 22.39 23.62 23.52 17.45 2.82 -1.47 1.00 3.40 4.84 3.60 0.96 -0.07 0.10 -1.54 -2.65 -3.35 -3.77 -4.22 -4.39 -3.06

GFSWCAN_sfc_wetblb_078.txt.gz
Wetbulb
55.76 55.28 54.63 53.90 53.45 53.26 53.13 52.70 52.08 51.49 50.50 49.40 48.79 48.02 47.46 47.28 46.38 39.22 35.89 36.99 33.93 28.74 30.13 32.41 31.64 28.18 28.14 26.96 26.28 28.37 26.88 31.25 31.40 30.22 31.89 31.15 29.75 30.64 27.70 28.65 27.87 28.64 26.83 27.97 28.44 26.75 22.31 33.87 34.43 30.51 33.74 36.35 37.21 37.08
55.35 54.84 54.14 53.50 53.27 53.17 53.19 52.87 52.40 51.69 51.14 50.34 49.64 48.92 48.24 47.59 47.24 42.86 35.00 38.98 39.73 36.15 33.16 35.48 35.62 36.28 34.79 33.70 31.91 32.39 26.80 27.24 29.58 27.52 27.87 28.15 29.71 30.93 28.65 24.53 28.21 26.84 29.87 27.92 28.46 28.18 33.98 34.55 36.34 37.59 37.86 38.29 38.66 37.73
54.72 54.40 53.79 53.34 53.16 53.23 53.29 53.07 52.77 52.17 51.51 51.13 50.95 50.04 49.29 48.63 47.92 44.23 36.47 38.94 40.56 36.79 35.17 31.91 31.69 35.71 37.71 37.26 37.15 30.82 31.22 31.17 30.93 33.59 27.40 29.35 25.62 30.05 28.44 27.99 27.84 28.93 31.38 29.18 30.33 32.77 33.16 34.54 35.15 36.87 39.16 38.96 39.54 42.49
54.09 53.83 53.50 53.25 53.12 53.18 53.21 53.05 52.94 52.39 51.73 51.49 51.56 50.89 50.24 49.49 49.07 47.09 41.77 42.93 40.76 37.38 31.36 29.71 35.40 31.81 34.30 36.26 36.50 36.68 32.23 34.11 34.23 34.31 29.76 27.90 25.37 31.53 28.23 30.22 30.64 30.50 30.47 29.75 28.96 31.94 32.93 35.89 35.86 36.79 38.16 39.85 38.96 38.83
53.55 53.37 53.18 53.10 53.06 53.05 53.13 53.08 52.75 52.23 52.00 51.85 51.61 51.61 51.27 50.51 50.00 46.35 43.57 42.78 42.60 37.10 30.77 29.00 32.94 32.65 33.52 33.32 34.51 35.04 33.95 31.56 29.68 28.92 27.03 24.08 28.70 29.14 31.39 32.97 30.45 32.77 30.69 29.12 28.74 33.83 34.47 34.95 36.99 37.20 38.79 39.28 39.49 39.12
53.17 53.03 52.90 52.84 52.97 53.03 52.77 52.24 52.06 51.70 51.15 50.64 50.50 50.78 51.01 50.67 47.16 42.46 37.37 37.54 40.57 41.54 34.48 25.01 29.96 28.48 30.59 31.81 31.68 31.34 32.39 31.37 32.64 28.48 27.03 28.12 31.50 30.76 25.30 26.01 35.66 36.30 36.17 35.19 33.18 34.70 35.16 36.27 36.55 37.12 37.84 38.66 38.87 39.23
52.86 52.82 52.75 52.77 52.47 51.81 51.10 50.46 50.05 49.16 48.44 48.04 47.99 48.48 49.19 47.95 43.10 39.09 36.74 35.77 41.56 41.12 30.84 24.72 22.28 28.39 29.44 32.38 32.29 30.97 31.20 32.14 30.28 30.15 28.73 26.51 29.08 33.24 28.69 25.86 33.59 37.57 35.71 36.21 36.45 37.35 34.60 36.29 36.82 36.97 38.54 40.50 40.33 36.84
52.32 51.96 51.53 51.03 50.43 49.69 49.04 48.39 47.37 46.68 46.43 46.25 46.81 47.55 48.70 45.94 44.07 39.55 42.50 43.70 41.89 36.32 32.68 24.67 21.24 23.05 30.04 33.31 30.70 34.89 29.91 31.52 32.45 30.21 30.80 28.08 28.55 28.28 23.21 28.43 32.45 34.79 35.56 37.51 36.70 36.85 36.91 36.74 36.86 35.79 35.77 36.47 35.11 34.87
50.22 49.87 49.29 48.67 48.23 47.86 47.39 46.44 46.16 45.75 46.25 46.30 47.81 45.94 42.75 40.49 37.59 38.32 44.20 43.50 41.63 33.83 24.25 26.18 16.79 14.42 30.56 31.00 34.54 32.94 33.49 27.18 32.43 29.41 29.16 30.15 26.29 24.35 27.08 29.55 31.45 34.14 36.88 35.85 36.01 35.66 35.66 35.30 35.15 34.71 34.52 33.74 33.63 33.73
47.45 47.12 46.98 46.77 46.66 46.47 45.98 45.87 46.42 48.08 47.91 46.27 40.60 35.49 34.25 38.15 44.33 42.87 38.99 35.62 33.78 34.48 33.49 25.93 28.98 24.78 29.26 29.45 26.46 30.50 30.69 25.51 20.82 27.34 30.55 26.86 23.45 29.39 31.87 34.51 36.75 35.95 35.13 36.28 34.42 31.96 32.48 31.42 34.13 32.59 32.55 33.84 33.87 33.43
45.88 45.88 45.90 45.92 45.88 45.92 46.27 45.97 47.15 46.39 42.33 36.79 34.64 33.58 39.79 43.54 38.80 34.30 27.12 27.51 29.79 24.18 28.68 29.05 27.97 25.57 32.02 26.26 26.61 33.11 26.01 27.77 23.76 27.45 25.62 25.79 26.82 31.74 30.70 30.26 32.92 32.85 34.48 33.86 34.84 34.50 35.78 36.08 35.00 33.73 33.09 33.17 34.24 34.32
45.50 45.50 45.61 45.87 46.06 46.10 45.95 47.01 45.66 37.84 36.09 36.57 38.21 40.76 39.37 35.75 32.22 27.71 25.51 27.50 24.31 21.71 25.14 23.90 26.72 31.17 31.55 34.49 30.45 31.97 29.78 30.60 25.40 30.45 27.08 26.82 32.44 32.00 31.62 29.72 31.09 33.28 34.54 34.33 34.66 34.18 34.50 34.98 35.17 35.19 35.45 35.50 35.31 35.69
45.18 45.28 45.45 45.84 45.87 45.91 46.18 45.97 43.36 43.22 40.78 36.32 34.51 32.28 30.22 30.15 23.05 21.20 17.55 21.41 23.28 22.71 24.21 32.69 31.87 34.44 34.68 33.19 31.39 31.81 29.76 29.85 33.39 28.03 28.66 31.27 32.96 31.60 31.18 32.90 34.02 35.15 35.50 34.30 34.39 34.74 34.96 34.46 35.03 34.68 32.60 32.24 32.82 31.95
44.97 44.85 44.91 45.17 45.85 46.31 46.55 45.14 44.32 41.21 35.21 29.88 26.61 23.36 24.28 23.05 24.67 20.53 18.29 17.66 25.23 31.67 33.04 32.53 32.33 32.12 35.02 32.61 33.21 29.54 33.86 33.60 24.44 21.41 24.94 30.17 31.13 29.21 30.44 34.27 34.92 34.74 35.40 35.30 35.17 35.63 35.25 34.53 33.64 32.93 31.95 31.32 30.76 29.36
44.11 44.67 44.89 45.08 45.85 46.38 46.40 44.84 43.11 37.08 31.26 27.02 26.77 19.50 21.85 23.29 18.79 25.27 19.86 25.73 30.18 33.80 32.81 32.21 32.20 33.75 32.34 30.67 31.89 30.96 25.81 20.77 25.71 26.44 28.13 31.81 31.93 29.92 30.90 33.88 32.73 33.97 34.40 33.88 33.68 33.87 33.86 33.64 32.03 30.74 28.98 28.83 29.26 28.65
44.36 44.22 42.15 45.07 45.28 46.54 46.24 42.97 39.35 36.59 32.52 28.13 27.74 24.15 25.32 24.64 14.36 22.53 26.05 29.21 32.74 34.50 34.88 33.86 30.28 30.13 29.56 30.54 26.62 24.39 24.31 22.26 27.37 31.26 32.58 31.60 29.93 29.92 32.05 33.09 33.41 34.65 34.08 31.99 30.53 30.04 29.59 29.66 29.12 27.92 24.28 23.63 25.79 26.74
43.59 40.12 44.64 45.01 45.68 45.89 43.14 37.77 36.60 32.72 30.88 29.06 27.68 30.02 25.29 25.65 18.40 19.27 27.54 28.40 32.86 32.44 28.62 29.90 26.81 25.03 31.10 23.73 21.94 26.05 26.31 29.27 31.94 32.19 30.47 28.16 29.98 31.11 31.98 32.93 33.49 33.64 30.35 28.14 27.23 26.81 25.88 26.38 26.05 23.97 21.55 21.64 22.90 23.52
41.38 43.66 44.71 45.21 44.55 41.03 36.10 34.64 32.93 31.66 26.67 26.57 23.79 21.70 28.45 29.47 24.52 29.14 32.30 32.71 32.07 30.25 30.42 28.33 30.07 26.77 25.38 17.76 21.80 27.81 31.13 31.54 31.31 29.49 28.28 27.97 28.57 29.16 30.03 32.12 32.98 30.91 28.04 27.15 25.67 22.48 20.63 20.72 23.05 21.98 19.54 19.40 19.59 20.31
42.65 43.56 45.52 45.24 40.96 35.66 32.28 30.96 32.20 24.94 21.38 19.17 21.30 21.23 23.32 24.89 27.11 26.59 31.78 32.83 33.36 33.80 30.83 28.32 25.86 24.93 25.66 25.35 30.32 32.19 31.71 30.68 29.95 31.99 30.61 29.79 28.50 27.75 28.49 25.43 26.51 23.59 22.62 20.73 22.53 22.56 21.65 21.67 21.15 20.46 20.21 20.01 19.79 20.48
45.61 45.81 45.68 43.96 40.41 32.55 27.72 26.74 29.41 21.86 19.34 21.51 20.11 21.04 19.30 20.37 23.00 24.84 26.97 28.24 30.29 29.26 27.10 25.31 26.29 25.68 26.11 27.02 27.38 27.83 29.53 29.78 28.80 28.16 30.02 31.15 28.78 23.95 25.64 24.65 25.49 24.44 23.29 19.71 17.60 22.33 16.98 19.84 19.99 19.81 19.34 19.18 18.61 19.14
39.51 42.88 43.96 36.74 32.40 30.70 24.56 22.72 23.64 22.08 21.58 17.78 18.73 16.05 15.82 15.23 13.59 13.81 17.66 27.32 26.90 25.57 23.46 25.49 27.18 27.02 25.11 25.17 32.94 33.26 31.83 29.25 28.22 28.27 28.14 26.49 27.96 24.63 23.88 24.55 20.15 21.87 22.36 22.00 20.58 20.75 24.95 20.44 19.60 16.98 12.78 20.12 20.08 20.18
36.63 38.10 33.45 34.21 28.81 27.06 22.36 23.99 21.23 24.23 18.24 17.76 22.19 14.90 8.97 9.40 9.43 11.95 17.90 20.76 23.57 19.99 23.17 23.99 22.23 22.51 22.82 24.87 25.31 23.66 26.28 26.43 26.53 26.54 29.41 28.65 26.47 22.75 22.12 21.67 20.59 20.75 21.50 22.15 21.41 21.42 20.70 19.74 17.54 16.53 16.44 16.46 19.49 16.20
37.01 34.36 30.89 30.19 25.41 22.72 19.97 24.46 19.25 17.43 15.32 17.96 18.14 18.17 19.50 19.59 13.30 14.41 8.17 12.10 15.86 19.62 20.15 20.39 19.35 17.46 19.72 19.34 20.15 22.48 22.34 19.85 21.01 21.45 21.99 22.50 23.08 23.33 21.24 22.12 22.70 21.45 22.65 23.33 21.49 22.20 20.59 23.00 20.82 19.98 16.17 17.28 15.02 14.71
34.75 28.59 26.27 24.09 23.67 18.19 21.28 14.08 19.61 14.55 12.19 12.53 8.27 7.54 7.37 7.43 9.98 7.59 9.79 13.20 16.42 16.02 16.71 16.66 15.35 17.38 15.65 12.24 14.98 16.57 17.86 18.19 18.62 16.91 17.48 16.38 17.96 21.20 23.20 22.82 22.97 22.26 22.87 21.32 19.17 19.96 17.20 16.94 22.44 18.08 15.92 14.50 13.27 13.65
28.36 23.61 25.10 17.08 17.70 15.93 10.64 10.04 8.12 12.20 8.43 10.80 9.44 8.03 5.91 6.79 5.46 2.69 9.74 15.24 10.67 11.79 14.96 14.13 15.23 15.61 13.24 9.47 15.27 16.77 16.91 19.92 19.57 17.92 17.57 17.69 16.57 16.84 19.52 21.11 22.48 22.81 21.30 18.43 18.52 17.48 16.53 12.86 13.17 14.62 14.52 14.18 14.00 12.04
13.70 16.60 16.14 12.60 11.32 10.99 11.13 5.84 6.30 7.53 8.96 6.46 10.54 5.25 4.41 7.72 6.61 10.62 13.22 12.45 12.14 14.55 14.95 17.45 18.72 13.87 15.59 17.84 15.70 15.14 17.77 18.09 19.02 18.58 20.10 19.34 19.04 17.41 17.62 19.02 20.11 22.54 20.78 21.57 17.36 17.89 16.77 13.83 12.61 11.42 13.01 15.50 23.12 17.17
11.83 14.61 17.10 20.79 17.35 15.74 13.16 14.59 15.93 11.37 8.74 10.56 9.44 9.92 8.07 6.98 7.36 14.41 15.85 14.60 16.48 16.97 15.05 14.60 17.30 18.16 20.31 15.78 15.97 15.70 14.17 14.98 19.40 19.00 16.70 16.32 18.61 20.28 21.08 20.49 20.28 22.07 19.43 18.19 17.87 17.63 16.86 15.92 15.19 13.38 12.82 8.04 9.34 10.93
16.05 15.92 12.81 12.45 11.79 12.12 12.45 11.39 10.86 12.22 14.11 13.79 13.56 8.59 9.90 10.71 13.71 17.54 18.15 15.80 11.80 6.38 6.47 8.03 8.90 11.96 11.54 11.51 10.71 12.63 11.10 7.48 7.58 11.21 15.11 17.96 19.25 19.88 19.17 21.49 22.28 25.85 22.69 17.06 16.77 15.44 15.97 15.55 14.29 12.92 10.82 11.23 8.91 4.87
11.61 15.42 16.04 8.61 12.53 13.14 12.96 12.38 13.53 15.40 17.41 14.89 12.84 11.09 11.62 14.51 14.65 13.93 16.20 11.93 2.96 7.32 13.02 13.25 12.68 1.10 4.93 3.58 4.81 7.65 6.19 7.13 10.04 11.47 13.90 18.16 12.91 18.97 8.06 9.63 9.95 9.99 10.86 12.15 22.86 24.11 17.18 14.55 13.29 12.22 10.76 9.40 6.86 0.26
11.02 13.46 13.65 13.25 12.98 13.84 15.64 14.39 13.41 10.45 12.83 13.75 13.56 13.11 13.56 14.39 14.03 8.86 8.89 5.06 7.93 9.04 6.62 4.05 0.64 3.12 5.68 3.99 8.41 10.71 5.02 7.30 11.98 15.15 14.36 15.24 13.05 7.63 2.34 6.06 8.02 7.34 5.59 6.88 8.86 10.20 24.22 17.36 15.96 8.23 6.75 5.09 4.64 4.35
15.70 14.24 12.20 11.27 13.97 11.79 9.54 7.40 6.64 10.09 6.31 3.44 2.70 7.49 11.65 9.81 11.56 7.30 3.54 -0.02 -1.98 -3.28 1.70 1.86 1.38 -3.43 1.21 1.41 -0.93 -0.25 10.15 4.97 1.31 3.08 6.30 11.17 12.13 9.00 8.61 8.44 7.14 2.04 2.19 5.00 5.72 6.71 8.93 10.43 3.80 2.19 3.24 3.24 4.69 6.03
12.39 7.40 10.52 9.66 9.74 5.88 4.02 2.95 3.40 6.16 4.62 5.79 5.86 -0.87 3.15 4.67 7.06 9.22 2.07 -2.75 -0.02 3.02 9.20 -0.28 0.72 4.93 -0.40 -1.97 -0.75 1.38 12.71 9.91 7.30 5.02 2.17 5.42 7.89 8.66 6.83 2.05 -1.37 -0.97 0.66 1.61 1.60 1.77 0.58 1.64 -0.19 0.76 0.96 -2.24 -3.54 -3.92
5.46 6.23 6.12 9.79 9.69 8.48 5.93 4.19 5.46 4.98 1.25 -0.93 -0.80 -4.65 -6.09 0.64 7.17 8.71 0.90 -4.27 0.95 2.03 1.16 -0.65 -0.54 0.33 0.88 -0.41 -0.52 1.27 7.41 2.35 3.29 16.84 20.12 22.01 24.11 20.95 12.26 0.13 -1.24 1.13 3.53 3.16 1.05 0.41 -0.23 -1.70 -3.14 -3.85 -4.19 -4.16 -5.28 -5.64

GFSWCAN_sfc_wetblb_081.txt.gz
Wetbulb
56.33 55.84 55.04 54.33 53.57 52.97 52.49 52.03 51.45 50.84 49.80 48.91 48.37 47.85 47.72 46.68 45.19 38.47 34.61 35.92 33.38 28.66 28.95 30.84 31.61 27.57 27.01 26.17 24.67 27.37 25.78 28.25 27.38 26.86 23.31 26.73 27.80 28.23 28.31 28.99 28.69 29.31 27.85 27.27 28.63 26.21 23.32 34.79 33.53 30.65 33.98 36.48 38.23 38.69
55.99 55.51 54.60 53.82 53.08 52.52 52.19 51.96 51.44 50.86 50.37 49.59 48.84 48.33 47.82 47.60 45.90 41.67 34.56 38.08 38.58 32.71 31.35 34.92 34.79 34.99 34.16 32.55 32.40 32.29 27.66 25.76 27.00 21.59 22.32 20.59 24.75 28.11 28.90 26.40 31.74 28.52 29.07 27.51 28.49 28.49 34.18 34.64 35.57 37.37 37.75 37.65 39.02 39.42
55.39 54.84 54.05 53.40 52.72 52.39 52.24 52.03 51.67 51.18 50.66 50.28 49.62 49.13 48.53 48.12 47.41 42.06 35.43 37.72 39.63 36.96 33.70 30.96 30.26 33.51 36.66 35.70 36.27 31.19 29.55 31.64 29.34 31.99 25.96 25.59 21.06 25.64 25.81 28.19 29.78 32.60 32.13 29.06 30.32 32.96 33.26 34.80 35.19 36.32 38.28 39.05 40.49 42.73
54.66 54.25 53.81 53.02 52.54 52.37 52.28 52.01 51.75 51.50 51.11 51.02 50.57 50.15 49.46 48.87 48.33 43.91 38.75 39.65 39.24 37.65 31.39 29.39 35.04 32.13 33.89 35.10 34.85 35.26 32.00 33.61 33.69 33.94 29.47 24.90 25.37 29.76 25.26 26.58 26.56 31.44 31.58 29.29 28.91 32.24 33.07 35.24 35.54 36.44 36.76 38.85 40.19 40.04
54.05 53.86 53.24 52.64 52.32 52.23 52.19 51.92 51.81 51.56 51.13 50.98 51.28 51.15 50.62 50.04 49.26 46.38 43.85 42.28 42.69 38.11 31.61 30.46 31.80 31.42 32.40 32.97 33.51 33.80 33.07 32.09 31.88 29.28 27.76 24.93 26.16 25.01 25.95 27.70 26.30 31.24 30.53 29.32 28.74 34.32 33.71 34.84 35.43 37.07 37.19 39.03 40.15 39.59
53.58 53.07 52.68 52.33 52.19 52.21 52.12 51.96 51.79 51.60 50.93 50.58 50.77 50.99 50.82 50.55 47.78 43.46 37.06 35.35 41.97 39.67 32.79 25.14 30.11 28.07 29.41 30.66 30.73 31.34 34.10 33.21 33.16 29.92 27.85 27.15 29.06 25.23 21.93 24.87 30.01 33.29 34.52 35.94 33.89 35.18 34.45 35.96 37.76 37.14 36.80 38.33 38.86 38.95
52.87 52.50 52.19 52.14 52.23 52.21 52.04 51.87 51.65 51.38 51.19 50.82 50.70 50.48 50.23 49.34 44.03 38.44 33.26 35.66 40.78 38.33 29.14 25.32 22.90 28.77 28.86 30.04 30.62 31.94 33.49 33.56 32.03 30.66 28.53 26.33 28.11 29.71 23.57 21.11 29.41 34.07 35.49 35.70 37.30 36.82 35.41 36.75 36.56 37.11 38.69 39.46 40.18 37.46
52.43 52.25 52.04 52.08 52.18 52.14 51.83 51.08 50.43 49.93 49.49 49.08 48.71 49.48 48.04 46.21 44.34 39.69 42.47 43.40 40.32 35.41 32.42 21.57 19.63 23.18 28.84 30.39 31.14 33.13 30.48 31.92 32.37 27.97 30.11 27.39 27.90 27.97 22.18 26.35 29.52 32.17 31.64 33.29 37.55 37.25 37.14 35.20 36.07 34.98 35.43 36.14 35.28 35.07
51.87 51.84 51.92 51.95 51.31 50.58 49.70 48.98 48.25 47.60 47.48 48.42 47.79 46.67 43.00 40.19 36.91 38.65 44.04 42.75 40.50 33.25 21.41 23.56 17.46 12.55 29.12 28.79 33.68 33.55 33.92 25.45 29.30 26.64 26.78 28.91 26.93 22.42 25.64 26.94 27.83 30.18 31.05 36.38 37.62 36.91 37.31 35.21 35.41 34.44 34.99 34.48 33.86 33.72
51.43 51.25 50.76 50.07 49.03 48.20 47.62 46.90 46.65 46.94 48.19 46.55 40.41 36.35 34.44 38.70 44.30 43.60 38.57 35.13 34.46 34.46 32.52 25.03 26.98 21.51 27.35 27.05 25.65 29.41 30.71 24.96 17.11 25.90 31.12 26.52 25.55 30.49 29.96 29.61 30.28 31.58 35.45 35.47 34.06 33.70 35.13 33.57 34.87 34.24 33.59 34.15 34.30 33.72
49.67 49.09 48.24 47.45 46.67 46.12 46.27 47.45 48.15 47.44 43.79 37.40 34.18 33.53 39.09 43.91 38.11 34.09 28.80 27.11 28.78 24.16 29.11 28.03 27.96 24.02 31.23 26.71 25.62 29.74 23.83 24.52 16.81 22.36 24.19 21.98 23.82 32.66 33.23 29.76 31.16 33.47 34.97 33.64 34.70 35.51 36.17 36.49 35.13 33.79 33.45 33.71 34.15 34.10
46.66 46.13 45.78 45.81 45.81 46.76 47.72 47.31 46.14 38.50 37.17 37.62 38.12 40.35 39.21 35.01 31.77 26.72 23.40 25.63 22.53 21.88 24.73 22.44 23.29 30.04 31.73 33.55 29.39 29.95 28.81 29.48 21.17 29.80 24.02 19.29 32.51 32.02 32.17 31.86 33.14 33.70 33.33 34.29 34.75 34.21 34.80 35.10 35.24 34.99 34.94 34.71 34.70 34.78
45.01 45.10 45.61 45.81 46.32 47.25 47.05 45.36 43.39 43.69 41.34 37.64 34.42 31.80 29.46 28.95 19.57 19.28 15.48 20.58 18.60 22.89 23.12 25.60 30.76 34.23 34.75 33.56 30.31 30.06 27.98 27.63 30.88 25.11 22.93 31.41 32.48 32.15 31.43 33.13 34.71 35.41 35.45 35.06 34.66 34.98 34.20 34.25 34.84 34.04 32.41 32.60 32.64 31.12
45.00 45.40 45.75 45.81 46.53 46.47 45.31 44.77 44.02 40.80 36.11 29.95 25.43 23.44 22.67 20.95 23.14 22.76 19.55 19.54 24.52 30.25 32.20 33.03 31.50 31.67 33.71 31.98 32.25 27.03 32.20 33.27 26.58 21.29 22.94 28.56 31.71 31.37 30.85 33.96 33.96 34.60 35.45 35.35 35.45 35.58 34.89 33.89 32.12 32.32 31.85 31.64 31.34 30.00
45.48 45.85 45.80 45.89 45.85 45.24 45.13 43.94 41.73 36.99 31.75 26.30 26.40 20.55 23.06 24.52 20.14 23.83 19.91 24.99 30.78 33.89 32.63 31.40 31.09 32.65 31.65 30.67 31.38 30.54 25.83 20.70 26.34 25.87 26.46 32.20 31.95 29.52 30.67 33.87 32.31 33.96 34.18 34.27 34.68 34.53 34.19 34.04 32.92 29.68 27.20 28.34 28.84 28.17
45.40 44.65 43.69 46.17 45.85 45.13 44.12 41.81 38.41 36.33 32.18 27.65 26.35 21.12 24.21 21.12 19.32 20.75 27.98 26.46 31.66 33.65 33.32 33.07 29.34 28.61 28.59 29.14 25.76 22.31 24.94 22.99 27.01 31.32 32.90 31.50 29.74 31.02 31.97 32.65 33.13 34.13 33.84 31.28 30.08 30.07 30.10 30.06 29.35 27.42 25.24 24.81 26.01 25.94
43.07 39.87 45.38 46.13 45.70 44.52 42.91 36.84 35.76 32.91 30.03 28.85 27.59 29.42 24.84 22.79 19.74 21.30 26.06 28.24 31.01 32.09 26.18 28.69 21.15 25.27 29.13 22.93 19.48 22.37 24.22 28.31 31.91 31.97 31.22 27.56 27.01 30.22 31.63 31.87 32.04 33.63 32.05 30.37 27.95 26.72 25.78 26.46 25.86 24.15 22.07 20.97 21.60 22.35
39.43 43.01 44.97 45.94 42.86 39.87 36.55 34.91 32.93 31.86 27.92 27.96 25.06 24.49 28.68 28.95 25.68 27.13 29.99 32.04 32.06 30.44 29.21 23.36 30.02 24.89 24.53 21.27 18.11 23.50 27.76 29.59 30.69 31.65 29.93 28.36 28.22 28.01 29.72 31.86 32.53 33.06 30.83 27.70 25.51 22.29 20.49 20.74 22.98 22.13 19.43 18.79 18.06 18.32
41.47 42.57 45.50 43.85 41.04 36.07 32.81 32.10 32.83 24.56 21.66 23.40 24.19 23.30 26.70 26.48 28.72 26.49 31.43 33.10 33.35 33.50 30.97 29.03 25.38 24.14 25.81 23.99 21.34 20.60 28.08 31.63 26.94 31.16 31.85 32.12 29.42 28.56 27.37 25.75 27.64 27.97 25.52 22.27 23.43 23.34 22.42 21.84 21.68 20.67 20.27 19.78 19.48 19.73
43.93 44.06 44.86 43.65 39.80 31.50 27.35 26.47 29.82 23.15 20.35 23.14 22.84 23.71 22.45 22.79 25.41 28.46 29.67 30.68 31.14 29.20 27.17 24.94 25.53 26.14 25.70 26.13 24.40 28.09 28.14 30.21 28.88 27.02 27.35 30.03 30.22 25.60 26.15 25.38 26.59 26.61 25.84 22.09 19.40 23.60 17.47 20.00 20.36 20.21 19.47 19.19 18.56 18.70
41.12 42.74 43.37 36.89 32.75 28.34 24.83 22.05 24.82 21.07 20.23 19.87 20.55 20.81 19.41 23.17 22.61 24.52 25.53 29.29 27.40 25.28 22.59 24.55 26.13 26.88 24.37 24.59 28.85 30.87 33.09 31.26 29.70 26.81 26.81 26.81 28.28 25.96 25.27 25.11 22.64 23.36 23.26 23.46 22.49 22.34 26.12 22.14 21.48 18.06 14.41 20.20 20.20 19.68
36.92 38.76 33.88 34.38 28.83 25.29 22.12 23.76 21.88 24.79 20.05 18.37 20.20 14.77 12.21 11.24 9.74 12.43 18.76 24.36 24.04 20.16 22.08 22.83 20.82 22.11 22.10 23.31 25.30 26.43 28.51 27.42 25.82 25.67 29.12 27.65 25.28 23.61 22.32 22.81 22.25 24.30 24.20 25.11 23.03 22.85 22.76 21.63 19.08 18.25 16.67 16.87 19.53 16.68
37.25 34.60 31.42 30.50 24.96 21.45 19.63 24.66 20.17 18.07 15.90 18.78 15.99 16.66 19.46 20.26 16.78 16.20 9.52 12.37 15.32 18.44 18.71 19.15 17.15 15.08 18.32 17.85 19.63 22.63 22.59 20.68 21.74 22.29 21.18 20.90 21.22 21.66 21.62 21.88 22.91 23.17 24.54 24.99 22.56 23.88 23.30 23.86 22.85 23.04 17.05 18.02 16.45 14.66
35.07 29.30 26.93 24.60 23.11 18.27 22.21 16.92 20.82 16.65 13.16 13.60 11.07 9.57 7.40 8.28 9.91 7.36 9.49 10.51 15.06 14.51 15.35 15.05 15.14 16.53 15.33 13.01 15.76 18.89 19.67 18.48 17.53 14.82 15.21 15.17 15.90 18.80 22.09 22.16 22.74 22.80 24.05 24.31 20.77 20.51 20.30 20.13 23.83 19.86 17.32 14.77 14.28 14.63
28.88 23.34 24.45 14.11 18.20 15.54 13.05 11.73 8.53 11.48 7.88 6.27 5.35 7.57 5.68 7.06 5.83 2.00 10.01 13.24 9.24 9.41 12.31 13.34 14.95 16.29 14.82 10.36 15.22 16.66 15.70 17.96 16.14 15.41 15.13 15.04 13.37 13.62 15.75 18.20 22.36 23.31 22.52 19.28 20.11 20.73 20.36 17.39 17.02 16.73 16.69 15.87 15.04 12.73
15.26 16.19 17.99 17.34 15.83 14.15 13.19 5.71 8.69 9.53 8.10 5.58 7.31 2.49 -0.79 2.44 1.64 7.62 10.66 11.62 12.14 13.35 14.62 16.93 18.71 14.52 15.63 18.92 16.57 15.13 17.36 17.05 16.58 14.88 15.68 16.52 16.35 14.61 12.33 14.34 17.91 21.38 20.25 21.01 19.60 19.80 19.13 17.41 16.32 15.02 15.21 16.18 22.90 18.28
10.47 12.61 17.50 20.67 17.04 14.88 12.38 13.40 14.44 9.56 3.73 6.63 5.37 3.88 4.64 4.31 4.26 13.12 15.74 14.51 15.76 16.02 14.00 13.85 17.87 16.43 16.96 16.00 16.64 16.37 12.37 12.57 16.56 15.13 13.22 12.71 15.58 17.72 18.65 18.12 17.49 20.16 18.43 17.59 17.13 17.41 16.86 17.03 15.90 14.98 14.39 10.45 11.87 13.23
15.96 15.20 12.59 10.74 10.95 10.38 9.33 8.11 6.43 8.81 10.50 13.04 11.99 6.63 8.75 10.66 12.83 16.41 17.19 14.94 11.74 7.60 7.30 7.39 5.93 8.18 9.93 13.36 11.34 12.45 11.61 5.12 5.03 7.95 11.70 15.11 16.79 16.07 14.72 19.24 20.68 25.25 20.76 16.49 16.52 14.45 15.45 16.11 15.74 14.69 12.65 13.11 12.33 9.01
11.47 14.49 15.59 5.47 6.64 8.38 9.16 10.94 11.37 13.30 16.05 13.98 12.85 11.51 13.37 14.87 14.33 13.32 14.37 9.49 3.00 9.09 12.25 10.11 9.25 0.87 2.43 2.09 1.39 2.02 2.71 4.78 9.09 9.12 9.04 13.63 9.61 13.95 5.39 4.70 5.88 6.38 7.56 9.53 21.96 23.32 17.25 15.42 14.21 13.24 11.23 10.78 8.01 2.43
10.49 10.92 9.33 4.36 7.96 9.17 8.69 9.66 9.52 8.19 12.59 13.73 13.58 13.09 13.75 14.03 12.10 7.64 8.29 7.19 8.94 8.59 6.41 3.80 0.41 -0.32 3.03 2.81 6.22 9.00 2.00 1.18 6.16 9.82 7.18 10.21 9.01 6.04 7.26 7.87 8.18 5.72 3.19 4.61 6.37 7.74 21.05 19.13 17.79 5.30 4.69 3.24 3.16 3.17
11.28 8.03 6.88 7.21 8.79 6.46 5.33 6.14 6.52 10.84 8.18 7.37 5.54 8.69 10.98 9.16 10.71 7.57 6.15 6.10 5.63 1.58 5.06 3.74 1.10 -4.96 0.63 0.30 -1.09 -0.33 7.94 2.01 -0.45 1.72 1.96 7.09 9.23 9.72 10.13 10.01 9.40 6.89 3.09 2.54 3.45 4.96 11.14 13.93 4.15 3.45 3.19 2.33 1.42 4.98
9.36 8.40 9.66 8.35 11.02 6.66 5.04 4.71 4.50 5.12 3.20 4.24 5.34 2.47 7.68 9.25 11.91 11.62 4.33 -1.71 4.20 6.74 9.60 0.02 1.08 4.69 -0.83 -2.56 -3.13 -0.82 11.72 8.10 5.40 5.30 1.68 4.70 5.70 7.52 8.98 9.40 4.45 0.84 0.70 1.77 0.83 1.22 1.82 3.71 1.33 3.15 4.52 0.63 -2.80 -3.25
0.25 0.90 1.10 4.66 6.99 8.31 6.80 7.36 8.58 8.73 6.95 5.42 4.58 -0.09 -2.19 3.27 8.64 8.44 2.88 -2.37 2.85 3.51 2.01 0.65 0.39 0.41 0.15 -1.01 -1.15 -0.61 6.73 -0.33 1.77 16.00 18.98 20.60 22.63 22.80 20.37 10.55 6.84 3.40 2.60 2.65 0.15 0.84 -1.76 -2.62 -3.62 -4.27 -3.13 -2.27 -4.65 -6.15

GFSWCAN_sfc_wetblb_084.txt.gz
Wetbulb
50.24 50.42 50.05 55.19 54.09 53.24 52.62 51.78 51.29 50.49 49.94 49.56 48.79 47.85 47.06 45.99 44.78 42.38 39.00 40.42 40.22 36.58 34.47 34.43 35.49 33.07 32.10 32.42 29.38 31.89 31.01 31.66 31.86 28.08 27.29 27.34 27.88 31.36 30.86 32.60 31.69 31.45 30.41 29.95 31.01 27.98 25.53 38.29 37.38 34.13 40.02 42.40 43.10 44.22
49.72 49.35 50.11 54.73 53.64 52.84 52.24 51.55 50.97 50.22 49.79 49.48 49.00 48.32 47.32 46.62 45.55 44.02 39.25 41.66 42.40 39.04 36.33 38.24 38.55 38.95 38.60 37.54 33.77 34.10 30.98 30.07 32.38 29.41 29.36 28.83 27.09 29.82 29.32 28.02 35.21 30.72 34.29 33.39 34.31 33.88 38.95 40.26 41.53 43.37 43.76 42.87 44.19 44.94
49.44 50.54 52.97 54.11 53.25 52.57 51.93 51.38 50.87 50.22 49.76 49.54 48.89 48.67 48.14 47.24 45.97 44.02 40.39 41.98 42.30 37.60 36.91 36.90 35.37 37.87 39.84 39.18 40.78 31.82 34.34 34.34 33.13 35.56 31.56 27.59 24.55 30.59 26.95 30.51 30.70 35.10 35.44 33.69 34.49 39.15 39.52 40.03 42.17 42.91 43.81 44.00 45.50 46.60
49.23 49.88 52.80 53.51 52.82 52.13 51.63 51.10 50.81 50.44 50.21 50.05 49.35 49.01 48.63 47.79 46.04 44.81 43.29 43.85 42.96 38.05 33.25 33.11 38.37 36.79 37.84 38.40 38.50 39.35 36.12 36.83 36.95 36.50 31.34 27.91 25.99 32.67 28.67 30.38 29.46 33.80 33.41 33.50 34.47 37.70 39.81 41.17 42.15 43.31 42.43 42.35 43.26 45.30
48.74 49.88 52.10 52.99 52.35 51.73 51.26 50.96 50.70 50.49 50.52 50.36 50.10 49.78 49.26 48.53 46.95 45.36 44.05 43.51 44.48 39.97 33.25 33.96 36.19 35.35 35.60 36.70 36.49 37.34 36.65 34.40 33.70 30.92 29.38 26.90 30.92 29.61 30.65 29.61 27.17 32.67 32.27 32.39 33.31 36.93 37.61 40.18 42.15 42.64 41.86 41.96 43.15 44.26
48.30 49.36 52.87 52.22 51.68 51.52 51.24 50.85 50.55 50.35 50.37 50.35 50.16 50.06 49.92 49.38 46.87 44.27 38.27 40.29 44.17 42.96 34.59 29.87 35.04 33.32 33.84 35.14 35.45 35.30 36.01 34.93 34.76 32.07 30.01 31.20 32.98 30.42 25.37 24.38 32.29 35.05 36.35 37.86 36.73 38.76 38.85 41.07 41.53 43.69 41.80 42.00 43.77 43.50
48.83 49.45 52.30 51.72 51.42 51.41 51.15 50.83 50.41 50.46 50.59 50.59 50.61 50.40 50.04 48.64 44.46 39.84 36.87 40.41 42.96 42.40 34.18 28.91 30.03 32.76 32.41 33.83 34.71 34.08 35.30 35.26 34.25 32.21 30.16 30.17 30.35 31.11 27.36 23.95 32.02 35.22 37.60 35.60 36.38 38.04 38.31 41.28 41.18 42.95 43.02 43.13 42.77 41.32
49.18 51.38 52.03 51.62 51.41 51.16 50.87 50.48 50.29 50.24 50.34 50.61 50.54 50.18 47.77 45.88 44.54 40.24 42.66 43.07 41.69 36.88 34.41 27.23 27.61 28.84 32.75 32.66 31.96 34.71 32.27 33.17 32.99 31.16 31.93 29.29 31.10 30.42 24.71 30.27 32.27 33.20 33.90 34.05 35.58 37.74 39.75 40.77 40.83 40.52 40.89 41.38 40.51 39.35
49.29 51.97 51.52 51.31 51.23 51.00 50.83 50.68 50.58 50.26 49.96 48.74 47.68 46.58 44.52 41.17 38.33 39.89 43.55 42.60 42.13 36.58 29.51 27.98 26.09 26.18 33.07 32.83 34.39 33.94 34.25 27.41 32.82 28.47 29.21 30.31 28.09 24.69 28.55 30.50 31.65 32.90 32.23 33.74 37.67 38.98 39.60 39.20 39.82 39.38 39.73 39.65 39.92 39.01
51.27 51.15 51.09 51.04 50.95 50.87 50.78 50.06 49.40 48.94 47.75 46.32 42.69 38.73 34.77 39.05 44.47 42.97 38.96 35.00 34.60 33.19 32.79 28.34 30.71 27.60 31.18 31.41 30.81 30.60 32.27 28.79 25.24 29.38 32.40 27.98 27.13 32.22 33.27 34.38 34.35 34.30 34.84 36.44 34.31 34.43 37.69 37.78 37.86 38.22 39.32 39.46 40.16 38.97
51.00 50.91 50.84 50.72 50.27 49.41 48.63 48.43 47.86 46.75 44.33 39.69 35.72 34.21 40.60 44.49 38.91 34.81 29.46 27.82 28.56 25.35 30.12 30.42 29.75 28.01 32.75 29.41 29.17 31.61 29.79 29.51 23.59 27.85 27.31 26.28 26.51 33.01 34.47 33.82 35.03 35.90 35.69 36.03 37.74 38.21 38.00 38.16 38.77 37.04 36.41 36.89 37.42 37.34
50.69 50.26 49.56 48.80 47.87 47.58 47.43 46.80 45.83 40.52 39.53 39.13 39.05 40.95 39.90 35.39 31.99 27.49 25.12 27.55 25.98 24.67 28.08 27.99 29.33 30.71 32.61 33.99 29.78 30.94 28.65 30.11 24.12 31.05 27.39 24.17 32.12 33.56 33.84 33.48 35.06 36.27 36.16 35.89 36.56 35.95 36.58 37.09 37.99 37.71 37.61 37.23 37.05 36.82
48.95 48.23 47.41 46.75 46.96 47.11 46.41 45.13 44.00 44.00 42.62 39.52 35.49 32.45 31.19 30.30 22.96 21.29 19.11 23.32 24.63 27.83 28.83 29.29 30.99 33.42 34.00 33.92 29.79 29.72 27.43 27.31 32.22 27.97 26.17 30.53 34.34 33.97 33.33 33.83 34.59 36.79 36.75 36.33 35.98 36.17 35.90 35.29 35.76 35.48 34.31 34.64 33.80 32.43
47.14 46.50 46.01 45.94 46.16 46.00 45.03 45.24 44.36 41.62 38.33 32.44 29.93 24.73 25.69 22.63 24.31 25.03 25.78 26.75 29.51 30.27 30.09 34.03 32.31 32.30 34.21 30.84 30.44 28.39 30.51 33.07 28.83 25.68 28.08 33.26 33.16 32.05 33.04 34.43 34.11 34.37 35.60 35.74 35.84 35.77 34.71 33.89 33.10 32.97 32.57 32.73 32.41 31.00
46.24 46.13 45.90 45.43 45.10 45.14 44.74 43.24 41.58 38.60 34.39 29.87 29.15 24.46 24.00 27.04 26.11 27.63 26.72 30.38 33.03 35.52 34.10 31.96 32.33 31.91 32.03 30.43 31.17 31.07 28.29 25.83 28.30 28.35 32.32 33.54 33.07 32.28 32.69 34.06 32.49 33.63 33.89 34.15 34.62 34.23 34.17 34.30 33.29 30.11 29.61 30.70 30.95 30.23
45.53 45.15 43.64 45.07 45.05 44.26 43.21 41.81 39.33 37.17 31.97 29.38 26.82 24.09 26.20 26.46 23.88 26.78 27.31 29.23 32.95 34.45 34.52 33.06 29.18 28.97 28.40 30.20 28.44 26.99 26.52 25.03 30.32 33.41 34.07 33.70 31.39 31.57 33.60 33.39 33.42 34.10 33.46 31.97 31.27 31.74 32.29 32.28 31.28 29.31 27.51 27.58 28.14 28.31
44.31 40.83 44.69 44.84 44.28 43.17 42.66 37.79 36.65 32.30 30.59 28.86 27.62 30.05 27.69 26.85 26.68 27.59 30.44 31.93 34.66 32.94 28.31 30.03 25.28 25.13 29.67 27.07 25.14 29.00 28.17 32.19 34.81 34.99 34.18 32.66 31.15 30.78 31.57 32.76 32.65 33.34 33.49 32.66 31.32 29.37 28.68 28.79 28.85 27.48 25.89 24.84 25.93 26.19
40.71 42.95 44.59 44.10 41.83 40.57 37.01 35.42 33.04 31.93 27.98 28.89 27.28 27.66 29.58 29.72 28.29 28.52 29.79 32.55 33.81 32.40 31.74 27.63 30.34 25.86 25.36 23.87 26.02 30.65 33.51 34.29 34.17 34.06 33.72 33.36 31.80 31.28 30.84 32.36 32.29 32.25 32.90 32.63 30.83 28.54 26.82 26.21 26.36 26.47 24.69 24.26 23.78 23.90
42.53 43.11 43.74 42.92 41.14 36.98 33.65 32.86 32.55 26.65 24.73 26.82 26.10 26.91 29.06 29.17 30.28 30.19 33.58 34.41 34.56 34.78 32.45 30.20 26.02 25.22 26.75 30.85 31.10 31.01 31.64 34.56 33.69 33.59 34.18 34.93 33.25 32.41 30.69 30.19 29.80 30.45 30.49 29.66 27.93 27.23 27.96 26.87 26.44 25.45 24.81 23.98 24.02 24.29
45.06 44.32 44.01 41.39 39.23 32.18 28.71 28.35 31.32 27.75 25.34 25.11 25.56 26.08 26.00 26.29 28.34 30.28 31.93 32.41 32.01 30.73 28.00 26.27 26.28 29.16 30.16 31.64 31.60 32.65 34.18 35.05 33.85 31.91 31.26 31.51 33.54 30.26 30.40 30.32 30.06 30.07 29.78 29.51 27.13 27.43 25.45 24.80 24.61 24.33 24.00 23.77 23.08 23.48
42.46 41.89 40.43 36.78 31.48 29.38 27.23 26.37 26.59 24.05 23.34 23.29 23.24 25.37 23.53 26.05 26.11 27.24 27.84 30.68 28.74 26.87 25.94 28.69 29.12 30.64 30.26 30.91 32.78 33.30 33.69 33.46 33.12 32.41 31.30 29.63 30.35 30.02 29.82 29.96 28.64 27.01 27.03 28.12 27.78 27.77 28.90 26.64 27.04 25.55 25.49 24.81 24.85 24.14
37.38 39.51 34.35 34.56 28.70 26.52 24.73 25.60 25.43 25.07 23.29 22.59 23.17 21.54 20.75 20.57 20.33 21.97 22.81 25.59 26.53 27.32 28.47 26.94 27.60 28.55 28.41 28.18 29.54 29.19 32.07 32.39 31.57 30.10 30.94 29.74 27.84 27.13 26.00 26.93 26.31 27.25 27.73 28.51 28.86 27.94 28.37 28.22 26.59 25.40 24.10 24.67 25.26 23.47
37.70 35.37 32.16 31.01 24.46 23.04 20.27 26.27 22.71 20.84 20.82 21.35 21.00 19.54 19.34 19.30 17.69 18.85 18.01 20.04 21.57 23.68 24.91 24.56 24.45 22.63 25.79 24.31 23.78 25.97 25.74 26.25 28.64 27.80 26.92 26.03 24.79 24.95 24.88 25.19 25.37 24.99 25.35 27.07 27.20 27.11 27.63 28.43 27.25 27.85 25.77 24.78 22.71 21.79
35.39 29.99 27.56 24.35 23.16 18.56 22.88 19.07 21.48 18.84 19.30 18.37 19.58 16.97 15.48 15.81 14.37 14.52 15.53 17.52 20.77 20.54 21.35 21.23 21.71 24.12 23.22 20.02 23.66 25.93 26.10 25.16 25.06 22.45 22.01 22.92 24.38 25.18 25.36 25.51 25.30 25.59 25.82 26.66 25.98 25.78 25.85 25.88 27.31 26.07 25.13 23.72 22.72 22.10
29.55 23.19 23.28 16.31 19.53 17.78 16.48 16.35 15.39 15.64 14.08 12.99 10.48 10.43 11.68 11.99 13.03 11.79 14.08 19.01 18.60 19.27 20.23 20.03 21.40 23.33 24.72 24.47 21.95 21.64 20.61 23.53 23.49 23.99 23.48 22.81 23.07 22.57 24.44 23.87 24.58 25.73 25.81 25.19 24.33 24.35 25.20 24.47 23.91 23.58 23.44 22.88 22.80 22.43
19.87 19.52 20.34 18.42 17.46 16.69 15.74 14.10 12.70 12.47 12.29 9.73 10.94 7.36 7.85 11.14 8.28 13.52 16.11 19.41 20.08 20.50 20.06 20.25 22.42 21.85 21.73 22.84 23.25 22.37 22.83 21.42 22.42 23.57 24.15 22.32 23.13 24.74 24.53 23.10 23.32 25.55 24.66 25.17 25.61 25.04 24.78 24.03 23.08 22.09 22.37 22.25 24.99 25.83
14.81 15.05 18.97 21.32 18.43 16.12 14.87 15.87 15.97 14.43 9.89 11.47 10.09 8.41 10.25 8.20 9.69 16.10 19.29 19.47 20.99 20.84 19.52 20.61 22.80 23.72 24.77 23.50 22.35 21.94 20.72 19.60 23.30 23.33 19.67 20.68 22.12 22.90 24.08 23.36 22.34 24.66 23.04 23.35 23.24 23.19 23.36 23.08 22.43 21.94 21.61 21.28 19.94 20.12
17.15 17.55 15.71 14.58 13.89 13.66 12.12 10.80 10.39 11.70 13.66 13.86 13.69 7.38 10.71 12.77 15.60 19.15 18.61 17.97 16.81 15.36 14.66 14.23 14.16 16.68 18.88 19.58 18.64 17.72 18.73 14.28 15.19 16.14 18.69 20.10 18.96 18.25 16.32 18.43 18.80 22.01 23.21 22.49 22.14 21.83 20.89 21.15 21.18 21.10 20.41 19.85 20.48 18.87
14.59 16.56 17.73 11.70 7.82 9.91 11.19 13.55 14.11 15.61 17.59 15.22 13.66 13.00 14.32 17.06 18.86 16.67 16.96 14.21 9.80 11.73 16.31 16.33 16.77 12.33 14.13 13.27 11.44 12.20 12.04 14.53 16.53 13.91 13.69 18.15 18.67 19.19 12.57 14.22 15.05 15.75 15.78 16.85 21.69 24.38 21.12 20.37 20.01 19.66 18.81 18.51 17.25 13.57
12.29 13.72 11.60 4.24 9.61 11.74 11.51 11.54 10.48 9.03 13.11 14.47 14.83 15.09 15.58 17.37 15.30 10.89 11.44 10.60 12.03 11.18 9.13 8.13 8.27 12.57 13.52 14.90 14.59 14.45 11.16 9.57 11.96 15.25 14.52 14.66 15.54 13.56 13.16 13.65 13.94 15.06 14.08 13.75 14.77 16.23 20.44 22.44 22.67 15.38 12.80 12.03 12.66 12.92
11.72 9.65 8.69 8.59 8.26 5.98 4.66 5.34 6.48 11.19 8.62 8.82 6.50 10.42 12.86 11.32 12.59 10.28 8.53 6.78 7.37 6.71 10.55 10.40 9.77 5.56 8.54 8.89 8.99 9.27 11.60 8.15 4.68 5.51 6.58 8.61 9.52 10.08 11.00 11.81 12.87 13.30 12.40 11.32 11.67 12.24 13.61 17.56 18.09 14.58 13.04 12.07 10.80 14.75
9.78 5.86 8.57 6.74 6.40 2.90 1.39 5.04 3.70 5.11 3.71 5.84 6.92 4.42 8.00 10.56 11.06 13.35 9.73 6.89 8.01 10.87 12.65 6.96 6.36 9.78 6.77 6.51 5.04 5.22 12.76 9.88 6.49 5.73 3.89 6.58 7.46 9.22 10.86 12.03 12.64 10.83 9.70 9.45 10.30 10.45 9.66 12.39 15.93 12.85 13.28 11.23 9.77 9.14
-1.00 -1.43 -0.74 5.43 6.54 6.88 4.97 5.46 4.14 3.53 4.24 5.94 7.67 5.98 6.34 6.33 8.44 10.56 5.97 2.51 7.71 9.35 8.43 7.38 6.18 4.66 3.83 2.02 2.75 3.22 8.78 4.35 3.35 15.78 17.80 18.90 20.63 22.54 23.09 21.10 15.19 12.95 10.23 10.44 10.59 9.08 7.10 6.03 7.83 8.11 8.18 8.48 6.55 5.19

GFSWCAN_sfc_wetblb_087.txt.gz
Wetbulb
47.28 47.15 48.02 49.18 50.61 54.40 53.49 52.25 51.52 50.93 50.69 49.75 49.36 48.44 47.36 46.52 45.76 45.19 41.01 43.22 43.80 40.62 37.39 37.69 38.14 35.48 34.92 35.35 32.82 34.15 33.21 33.46 33.82 28.68 28.22 29.75 29.16 31.25 30.20 33.51 32.67 31.51 30.43 30.76 31.74 28.62 25.70 40.89 39.27 34.59 40.46 43.81 44.09 44.85
46.36 46.77 47.47 49.12 50.19 51.79 52.71 51.74 50.86 50.46 50.23 49.61 49.11 47.94 47.16 46.40 45.98 45.81 40.67 43.03 46.40 42.22 38.51 40.51 40.89 41.18 39.99 38.98 36.87 35.29 33.40 31.75 34.25 31.76 31.58 30.80 29.37 31.50 30.06 28.22 36.91 30.34 34.56 32.78 34.81 34.26 40.35 41.86 42.27 44.17 44.73 44.00 44.68 46.09
46.03 46.11 46.89 49.94 50.42 50.24 52.34 51.34 50.57 50.34 49.97 49.43 48.98 47.91 47.39 46.98 46.22 45.07 42.38 43.79 44.35 41.17 38.91 39.03 37.48 40.01 42.15 41.13 42.80 34.54 35.98 35.86 34.54 37.00 33.30 30.67 26.12 31.57 27.72 30.57 32.19 35.67 36.16 34.33 35.48 39.06 40.70 42.41 43.51 44.28 45.43 44.77 46.25 46.94
45.68 45.61 47.47 49.36 50.44 52.58 51.78 50.76 50.21 50.21 49.99 49.75 48.82 48.26 47.83 47.24 46.60 46.22 44.31 45.47 44.40 41.47 36.89 35.04 40.62 38.61 40.08 40.78 40.58 40.68 37.62 38.34 38.15 37.43 32.26 29.44 27.11 33.88 30.38 31.85 30.42 34.22 35.14 34.42 35.04 38.78 40.70 42.76 43.21 43.71 44.29 45.15 44.48 45.46
45.34 46.05 48.51 49.44 50.94 52.10 51.09 50.23 49.91 49.87 50.01 49.89 49.39 48.80 47.70 47.57 46.93 45.92 45.46 45.28 46.42 42.57 35.87 34.69 38.05 37.51 37.99 38.51 37.82 39.15 37.91 34.96 34.09 31.88 30.13 28.10 31.28 30.35 32.27 31.31 28.90 34.64 32.63 30.68 31.63 38.53 38.69 40.55 42.42 43.61 43.02 43.24 44.41 44.11
45.71 46.61 48.80 49.20 50.61 51.40 50.50 50.01 49.60 49.49 49.62 49.39 49.21 48.58 47.72 47.38 47.84 45.70 39.27 44.50 45.66 45.03 38.46 32.34 37.11 34.94 35.98 37.82 37.27 36.69 37.00 34.80 35.21 32.81 31.25 32.52 34.14 30.96 26.10 26.63 33.72 35.79 36.90 37.04 34.17 37.71 38.27 40.61 43.20 44.75 43.75 44.08 44.25 45.34
45.82 46.64 48.14 49.07 51.76 50.94 50.18 49.74 49.42 49.61 49.73 49.41 49.43 49.09 47.57 47.06 44.34 40.40 37.76 42.25 44.68 44.50 37.29 31.90 31.92 34.29 35.19 36.83 36.38 35.75 36.53 35.34 34.51 33.09 30.90 30.80 30.61 31.47 28.41 25.05 33.50 35.50 36.26 35.79 37.55 36.29 35.75 41.59 40.40 42.62 43.39 44.35 44.60 43.88
46.24 46.87 48.39 49.67 51.12 50.47 49.94 49.61 49.58 49.57 49.76 49.88 49.74 49.30 46.83 45.35 45.07 40.66 42.14 43.03 43.81 38.83 37.58 31.23 30.50 31.50 35.30 34.14 32.64 36.21 32.91 33.46 32.89 31.98 32.70 29.66 31.37 30.96 25.37 31.75 34.13 35.38 35.87 35.00 35.90 37.46 39.00 39.07 41.85 42.33 42.41 42.95 41.88 40.90
46.33 47.69 48.77 51.04 50.66 50.18 49.91 49.78 49.63 49.55 49.83 49.76 47.69 46.64 45.28 42.57 38.84 39.80 43.15 43.56 43.37 38.63 32.84 32.36 30.92 29.08 34.65 34.89 34.46 33.79 34.19 27.98 33.93 28.94 29.41 30.43 28.49 25.97 30.46 32.41 33.09 34.38 34.34 34.13 36.34 38.43 39.92 39.10 40.47 41.30 41.12 41.24 42.06 41.30
47.05 47.89 48.73 50.56 50.07 49.84 49.67 49.75 49.75 49.75 47.69 47.12 44.54 39.79 35.71 40.03 43.80 43.07 39.62 35.93 35.54 34.27 35.74 32.12 33.90 30.33 34.00 33.57 31.05 30.83 32.37 29.48 26.55 29.44 32.78 27.86 27.97 34.32 35.29 35.71 34.98 35.05 35.35 36.81 33.47 34.43 35.53 34.13 39.21 40.08 40.28 41.52 42.24 41.33
47.11 48.29 50.14 50.05 49.61 49.30 49.33 49.66 48.83 47.53 46.07 41.67 36.80 35.19 40.73 43.88 39.25 35.22 30.71 29.24 29.41 27.51 32.05 33.21 32.84 31.33 35.04 30.52 30.60 32.94 30.05 30.01 24.07 29.30 27.47 26.96 27.91 32.94 35.55 34.82 35.46 36.26 37.38 36.74 36.91 37.29 38.36 37.90 37.87 39.39 38.20 38.64 39.28 39.45
47.96 49.18 50.04 49.57 49.06 49.17 49.17 48.26 46.95 42.93 41.40 40.45 39.70 41.06 40.09 35.46 31.86 28.61 27.24 28.28 27.29 27.06 30.79 30.64 31.72 34.05 33.36 35.60 31.01 31.26 28.45 30.37 24.19 31.75 27.54 25.76 33.29 34.07 33.55 33.19 34.86 36.39 37.26 37.42 38.04 37.06 36.74 37.16 38.42 38.74 38.48 38.28 37.85 37.93
49.12 49.92 49.57 49.31 49.42 48.85 47.65 46.84 45.00 44.55 43.23 41.04 37.18 33.02 32.72 30.59 24.54 23.31 21.48 24.83 26.74 30.33 31.35 31.61 30.41 33.17 33.77 34.00 30.04 30.06 27.00 27.45 33.43 28.01 27.02 32.26 34.31 34.63 33.47 33.92 34.44 36.10 37.15 37.26 36.69 36.67 36.12 35.32 36.01 36.13 35.22 35.62 35.14 33.87
49.83 49.48 49.17 48.64 47.57 46.45 45.80 45.17 44.79 42.97 41.61 35.92 33.08 25.49 29.14 24.44 25.68 27.28 28.95 30.76 32.91 33.86 32.64 34.98 33.19 33.09 34.08 30.43 30.75 28.09 31.16 32.60 27.86 26.78 28.34 34.25 33.82 33.89 34.47 34.63 34.83 34.16 35.29 35.72 35.75 35.75 34.93 34.55 33.82 33.94 33.84 34.10 33.34 31.79
48.93 48.30 47.22 45.71 45.41 45.00 44.76 44.22 42.32 40.94 37.60 31.93 33.01 28.77 26.05 28.98 29.37 30.94 31.94 32.70 34.44 37.05 35.78 33.10 32.91 32.51 31.53 30.02 31.33 31.23 28.00 26.82 29.22 29.46 33.93 35.06 34.61 33.65 33.42 34.26 32.76 33.63 33.71 33.56 34.28 34.21 34.00 34.19 32.61 30.42 30.91 31.76 31.96 31.47
47.13 45.46 43.46 44.92 44.69 44.31 43.55 42.41 40.56 38.63 33.56 31.52 28.78 26.36 28.38 28.91 26.30 28.91 31.76 32.17 36.77 36.19 35.88 34.43 30.34 28.24 28.21 29.44 27.46 26.94 26.77 26.46 31.82 34.44 36.20 34.99 34.23 33.82 33.52 33.61 34.06 34.21 33.73 32.58 31.33 31.02 32.19 32.94 32.11 30.59 29.21 28.83 29.17 29.29
44.39 40.65 44.07 43.94 44.03 43.63 42.79 39.17 37.75 32.48 31.66 29.89 28.60 30.49 30.48 31.66 29.91 30.22 33.33 33.69 37.10 33.98 29.12 30.30 25.73 26.28 30.68 27.23 26.50 31.46 29.83 34.52 36.34 35.64 35.80 35.10 34.55 33.20 32.77 32.99 32.92 34.04 34.07 33.42 33.28 32.18 29.68 29.60 30.09 29.10 27.42 26.99 27.22 27.38
39.74 42.35 43.60 43.96 42.91 40.46 37.98 36.27 32.90 32.06 29.02 29.88 28.66 29.15 30.77 31.74 31.33 31.66 33.38 35.42 34.81 33.47 33.03 29.30 31.89 26.42 25.47 24.89 28.16 34.10 35.56 35.05 36.29 36.22 36.39 36.04 34.98 34.12 32.66 32.67 33.23 32.35 32.44 32.42 32.73 31.77 28.98 28.60 27.75 27.78 26.94 26.29 25.57 25.33
40.95 41.96 43.77 43.42 41.14 36.81 32.66 32.21 32.95 28.39 27.06 29.17 29.12 31.19 31.52 31.37 32.18 33.91 34.17 35.79 36.05 36.62 32.95 30.23 27.23 26.12 28.13 32.93 34.25 35.15 35.66 36.48 35.60 35.98 36.41 37.10 36.75 35.33 33.41 31.70 31.50 31.94 31.54 31.38 31.51 30.98 30.92 29.00 28.33 27.53 26.75 25.66 25.08 25.80
43.38 42.57 41.22 40.52 39.80 33.81 30.75 30.69 33.31 30.36 27.81 27.83 29.58 28.90 28.87 29.02 30.77 33.22 33.54 33.63 33.58 33.19 29.98 27.89 27.67 30.48 32.06 34.34 35.36 35.52 36.47 36.85 35.95 34.76 34.59 34.26 35.30 33.11 32.59 31.92 31.69 31.73 30.87 31.34 31.14 31.77 29.03 27.37 27.00 26.65 25.99 25.56 24.68 24.88
40.99 40.02 39.28 36.54 32.96 31.87 30.30 29.74 27.26 27.71 27.68 25.82 27.77 28.35 25.43 28.91 28.82 29.71 30.18 32.59 30.81 29.09 28.09 30.82 31.82 33.96 34.63 34.52 35.44 36.09 36.05 36.29 35.25 35.32 34.36 33.62 33.65 32.35 32.13 31.93 31.19 29.40 28.42 28.80 29.25 30.22 31.04 29.08 29.47 28.10 28.68 26.69 26.48 26.03
38.17 39.72 35.80 35.20 30.79 29.23 27.28 28.34 28.12 27.44 25.90 25.05 25.66 26.36 24.26 23.94 24.26 25.57 25.79 27.90 28.19 30.34 31.46 31.38 31.96 32.82 32.27 31.15 32.31 32.27 34.00 35.17 35.50 34.92 33.70 32.75 31.35 30.67 28.89 28.89 28.02 28.61 29.29 29.39 29.37 28.82 29.10 30.05 29.08 28.28 27.22 27.23 27.76 26.22
38.70 36.85 33.84 32.88 27.56 26.56 23.28 28.28 25.10 24.42 23.52 22.88 24.51 23.12 22.64 22.61 21.10 22.55 22.73 25.97 27.65 29.37 30.13 28.87 28.71 27.70 28.92 29.00 27.60 28.71 29.18 29.38 31.00 32.55 32.66 31.96 29.85 27.98 28.01 28.31 28.02 27.83 27.82 29.03 29.31 28.49 28.59 30.06 29.34 28.91 28.58 27.77 26.35 24.89
35.98 30.83 28.16 25.50 25.44 20.88 24.77 21.75 23.28 22.24 23.22 22.23 22.61 20.08 19.39 19.93 18.85 19.32 19.44 23.43 26.12 25.82 25.03 25.22 25.46 26.75 26.53 23.76 26.12 28.78 29.82 29.23 29.63 29.10 28.50 27.42 27.39 27.54 27.41 27.63 27.81 28.02 28.09 27.67 27.38 27.51 27.58 27.37 28.65 27.78 27.39 26.71 26.28 25.22
30.33 24.61 25.84 19.56 22.15 20.95 19.75 19.79 19.66 20.77 19.34 18.57 18.28 17.01 16.00 16.47 17.84 17.41 18.44 24.58 25.31 25.44 26.02 25.46 26.02 27.32 28.56 29.91 28.36 26.60 25.14 28.99 28.90 28.52 27.89 26.52 26.83 25.77 26.86 26.24 26.10 26.85 27.63 28.09 27.17 26.87 27.62 27.35 26.52 26.00 25.91 25.72 25.59 25.92
22.05 21.11 22.76 21.54 20.28 21.39 19.97 18.31 18.03 18.25 17.84 16.10 16.83 13.09 14.10 16.94 15.54 17.90 22.17 25.80 26.67 27.46 27.05 26.34 27.70 27.26 26.77 27.37 27.33 27.53 26.63 25.78 26.66 26.67 28.17 26.48 26.50 27.54 27.63 25.28 24.83 25.91 26.21 26.50 26.71 26.51 26.82 26.85 25.57 22.98 24.35 24.47 26.86 26.62
19.67 19.85 20.77 22.41 21.03 19.31 18.22 19.08 19.61 19.43 16.96 16.71 15.35 12.61 14.66 13.74 16.32 21.49 24.67 25.03 26.09 24.92 23.87 25.29 27.86 28.58 28.21 27.98 26.91 25.61 24.58 23.92 25.00 24.10 22.08 23.85 25.16 25.67 26.06 24.53 23.30 24.92 24.05 23.99 24.09 24.32 24.31 24.61 24.14 23.74 23.48 23.82 23.11 22.25
20.75 20.82 19.01 18.79 18.27 19.01 17.59 17.75 17.57 17.55 19.49 18.34 17.66 13.27 13.90 17.48 20.46 23.95 23.66 21.82 20.86 20.37 20.99 20.12 19.78 20.91 22.24 23.11 21.78 21.14 23.10 20.36 20.74 21.40 22.77 23.40 22.70 21.58 18.49 20.16 19.58 21.80 21.48 21.15 22.83 23.26 23.24 23.02 22.68 22.57 21.95 21.42 21.49 21.67
20.22 20.11 21.48 14.64 16.14 17.52 18.64 19.16 19.64 20.31 20.41 18.97 19.58 18.28 18.32 20.28 22.15 21.94 20.95 19.32 17.46 19.38 23.19 23.10 21.77 19.81 21.46 19.34 18.19 18.87 18.30 19.43 20.46 17.81 18.78 21.26 23.05 20.42 17.61 17.81 18.24 18.77 19.08 18.89 21.72 23.81 22.84 21.89 21.95 22.34 21.63 21.08 20.91 18.17
18.04 20.84 17.43 14.39 15.35 17.50 18.52 16.21 17.69 15.75 17.22 18.22 17.59 18.66 18.92 20.65 19.52 16.13 17.05 18.54 20.40 20.13 17.47 16.85 15.75 18.68 18.41 18.23 18.76 18.86 16.81 14.87 15.60 17.46 17.56 17.57 18.16 15.41 14.00 14.28 14.85 15.79 16.52 16.83 16.47 17.09 20.99 21.66 22.13 19.59 18.81 16.13 16.00 15.67
17.68 18.29 16.85 17.54 16.16 13.95 12.30 11.05 12.75 14.38 14.21 14.88 12.51 17.19 18.36 16.32 17.89 15.17 14.96 14.20 14.84 15.23 18.65 17.53 16.92 14.71 15.35 15.91 15.34 14.90 16.41 12.66 7.74 7.70 8.79 11.37 11.65 11.72 12.51 13.66 14.90 15.58 15.34 14.67 13.93 14.16 14.91 15.47 16.80 18.74 18.53 15.05 13.55 16.80
16.68 15.00 15.42 12.83 12.88 10.59 9.53 12.92 13.68 15.17 13.24 15.54 14.72 12.49 15.74 16.88 16.20 18.57 14.04 14.04 16.60 19.13 18.91 14.89 14.75 16.54 13.64 12.61 11.27 10.92 14.83 12.61 10.75 10.13 7.21 9.22 10.63 12.33 13.53 14.62 15.43 15.71 14.83 13.90 13.52 13.45 12.93 11.04 12.39 16.60 16.17 13.36 12.80 11.60
10.29 10.69 10.53 11.83 11.93 12.45 11.90 13.11 12.69 11.47 12.92 13.59 13.09 10.43 10.98 11.29 12.71 16.51 12.10 10.68 16.06 16.89 16.15 15.32 14.12 12.18 9.71 7.12 8.34 9.40 12.15 10.25 7.96 15.98 18.71 19.63 20.75 21.19 21.19 21.19 21.45 18.66 15.51 13.70 13.19 13.40 11.85 10.89 9.74 9.98 10.11 10.34 10.17 8.56

GFSWCAN_sfc_wetblb_090.txt.gz
Wetbulb
47.42 47.10 46.64 47.58 47.38 48.19 50.79 51.11 53.19 52.05 51.29 50.97 50.50 49.97 49.71 49.92 47.74 45.52 41.04 43.17 42.11 36.75 35.23 38.00 38.19 33.64 32.86 32.22 28.87 31.28 30.25 31.65 30.71 27.73 27.16 27.96 26.94 28.08 26.08 29.25 29.64 28.77 27.32 27.67 29.08 25.00 24.54 36.91 36.83 30.90 36.35 39.10 40.24 40.87
46.81 46.47 45.91 47.22 46.85 48.54 49.96 52.01 52.36 51.09 50.78 50.32 49.73 49.21 48.71 47.83 47.25 47.18 39.80 42.93 44.88 39.13 35.51 40.16 39.63 39.95 38.86 37.65 34.40 32.77 30.62 30.47 31.51 27.88 27.37 25.35 24.14 24.66 25.68 21.32 32.71 27.42 31.89 30.30 33.67 31.90 37.54 38.05 37.50 39.84 40.50 39.09 40.30 41.83
46.69 46.04 45.83 46.62 46.47 48.59 49.50 52.68 51.48 50.73 50.05 49.63 49.25 48.60 48.11 47.58 47.54 45.91 41.65 43.31 43.55 38.45 36.47 36.25 35.64 38.80 41.28 39.85 40.62 31.70 32.51 34.73 32.80 33.31 28.33 26.31 21.33 26.09 20.04 23.09 26.86 30.69 34.35 32.16 31.97 36.32 37.64 39.00 39.54 40.05 40.48 40.17 41.43 43.33
46.19 45.58 45.57 46.52 45.82 46.79 49.28 51.29 50.81 50.10 49.99 49.89 49.43 48.36 48.37 47.57 47.28 46.75 43.88 45.03 43.16 40.77 33.15 32.24 39.83 36.42 38.70 39.70 39.50 39.05 35.85 36.56 35.88 33.71 29.46 28.28 25.09 30.37 25.10 26.84 25.37 28.69 29.64 30.81 30.56 33.80 37.63 39.20 38.25 39.49 40.18 41.27 40.74 41.06
45.57 45.59 45.90 45.72 46.19 48.27 49.63 51.40 50.42 49.77 49.64 49.53 49.10 48.75 48.03 48.08 47.76 45.78 44.74 44.74 44.89 40.86 32.75 31.51 35.71 35.83 37.03 36.99 37.02 37.59 36.21 34.55 33.27 31.24 27.78 24.81 30.35 27.61 28.09 27.77 24.53 29.21 27.80 25.13 25.02 32.31 33.88 35.52 36.26 40.66 40.53 41.10 41.15 40.22
45.09 45.53 45.54 45.76 46.98 49.19 49.55 50.79 49.62 49.06 49.00 48.89 48.57 48.62 48.34 47.94 48.06 45.05 38.38 43.26 44.65 43.51 35.20 28.06 33.99 32.29 34.59 36.60 35.58 35.22 36.05 34.47 34.11 32.18 30.82 31.42 33.36 28.60 24.74 22.63 30.52 31.89 33.22 33.50 29.96 32.69 33.16 34.96 39.06 40.31 39.77 40.78 41.63 41.64
44.63 45.34 45.17 46.45 47.76 49.09 50.92 49.84 49.15 48.94 49.02 48.63 48.53 48.10 46.61 45.91 43.43 39.24 38.10 41.60 44.45 42.76 35.22 28.23 28.06 31.37 34.08 35.07 34.51 34.32 35.65 34.73 34.03 32.58 30.63 30.17 30.48 28.82 26.82 22.02 30.92 32.98 33.41 33.77 33.38 32.65 32.78 36.04 34.72 37.71 41.03 41.21 41.66 39.98
45.29 45.17 45.38 46.79 48.42 50.12 49.81 49.28 49.10 48.90 48.72 48.85 47.88 47.18 46.64 46.21 45.01 39.86 41.43 43.45 43.29 37.39 36.76 28.30 26.44 27.28 33.25 32.46 30.99 35.56 32.53 32.86 32.34 31.54 32.26 29.42 30.15 29.01 23.84 28.36 31.84 34.47 35.15 34.32 34.15 32.82 33.44 37.20 38.57 39.81 40.96 40.34 39.30 38.07
45.56 45.52 45.66 46.88 48.56 50.19 49.39 49.19 48.89 48.50 48.52 47.71 47.25 47.34 44.46 41.86 38.60 39.09 43.71 44.15 42.01 37.30 29.87 29.93 24.28 22.21 32.33 33.31 34.19 32.68 33.66 27.36 33.14 28.41 29.51 30.38 27.62 24.64 27.42 30.24 33.59 35.25 34.36 34.73 34.38 34.75 35.42 36.42 37.71 39.51 38.92 38.90 38.59 38.31
45.49 45.93 46.51 47.29 49.33 49.29 49.09 48.82 48.60 48.56 47.56 47.07 43.79 39.32 35.43 39.26 43.47 42.88 39.34 35.11 33.80 33.10 33.57 29.61 31.19 25.93 31.51 31.57 30.77 31.11 31.76 29.14 25.77 28.81 32.10 27.21 26.43 31.08 33.20 35.75 35.37 35.35 35.07 34.74 31.83 31.21 32.03 31.36 34.43 37.58 37.87 38.44 38.69 38.46
45.70 46.27 46.43 47.94 49.09 48.79 48.72 48.53 48.82 47.61 46.56 40.41 36.67 35.03 40.04 43.87 38.75 35.11 30.19 29.43 28.57 26.29 30.21 30.05 30.26 26.57 32.29 29.09 29.31 32.22 28.84 29.61 23.01 27.59 26.61 26.31 24.89 28.38 34.74 33.79 33.67 35.75 36.55 35.67 34.94 35.07 36.13 35.12 36.66 37.38 37.67 37.00 37.32 37.13
45.93 46.06 47.35 49.22 48.83 48.63 48.53 48.68 47.87 43.83 41.20 39.93 39.04 40.77 39.90 35.56 31.91 29.23 27.32 28.11 26.27 25.44 28.73 27.46 27.48 32.08 31.19 33.21 29.94 30.61 27.37 28.84 22.88 30.65 26.50 23.59 27.62 33.71 33.52 32.67 33.05 35.73 36.42 36.80 36.99 36.15 36.18 36.48 37.49 38.32 37.89 36.93 36.70 37.03
45.67 46.98 48.79 48.99 48.56 48.67 48.38 47.94 46.45 44.50 43.25 40.59 36.19 32.44 32.55 29.93 25.91 24.32 21.10 23.81 25.30 28.80 28.42 27.85 28.64 32.41 31.85 32.72 29.62 28.72 26.15 25.91 31.07 26.79 24.53 26.66 32.96 33.89 33.41 33.43 33.44 36.01 36.32 37.11 36.86 36.63 36.07 34.77 34.85 34.97 33.91 34.01 33.95 32.79
45.74 47.03 49.01 48.52 48.43 48.12 47.48 45.30 45.33 43.80 40.35 34.65 31.57 25.40 29.01 25.33 28.15 27.51 28.48 29.07 31.17 30.74 30.48 31.67 30.66 29.99 33.30 28.96 30.56 26.92 28.09 30.97 24.85 23.75 25.57 31.42 30.87 31.42 33.62 34.82 34.38 33.86 34.89 35.30 35.41 35.02 34.29 34.45 34.00 34.33 34.67 34.52 33.36 31.57
47.05 48.46 48.56 48.03 47.56 45.83 45.32 45.15 43.77 40.57 36.94 31.88 33.55 27.80 27.23 29.05 29.35 30.11 31.15 31.13 32.43 33.62 34.07 29.96 30.93 31.70 30.15 29.18 30.41 29.48 26.90 23.07 24.58 23.52 30.71 33.02 30.72 30.28 30.36 33.53 32.82 33.27 33.09 33.06 34.16 34.22 34.32 34.07 31.64 30.05 29.36 29.42 29.61 29.52
48.77 48.24 46.66 46.43 45.41 44.87 44.43 43.13 40.43 38.21 33.42 31.46 30.12 26.58 28.94 27.59 25.50 28.12 31.32 30.78 34.73 34.32 32.63 30.85 26.78 26.73 26.34 27.71 25.91 24.91 24.64 19.05 23.84 32.19 33.67 32.16 30.45 30.10 29.74 33.01 33.67 32.42 31.28 30.86 29.48 29.68 29.81 29.92 29.48 28.57 27.91 26.90 27.06 27.07
47.30 43.54 45.13 44.60 44.46 44.53 43.70 38.68 36.96 32.37 31.57 30.50 27.67 30.81 30.29 30.28 27.49 29.76 32.78 33.05 36.33 30.79 26.49 27.44 24.76 19.40 28.48 25.47 25.07 27.08 26.46 26.52 33.26 27.28 29.25 32.55 32.66 29.93 28.26 29.02 33.15 33.64 31.77 31.47 32.32 33.16 31.92 29.29 28.31 27.48 25.33 24.93 24.24 24.94
41.25 43.16 44.06 44.16 42.74 41.44 36.69 35.51 32.76 32.04 28.33 29.54 28.07 28.45 30.60 30.87 30.32 32.01 33.51 34.10 32.88 30.18 27.32 25.43 26.66 24.99 24.28 22.71 21.26 25.55 27.82 33.40 29.11 28.11 29.07 31.57 31.24 31.10 29.59 28.71 32.27 32.60 32.49 32.13 31.57 30.96 29.13 28.16 27.37 26.35 25.17 23.53 22.06 21.83
42.32 43.05 44.12 43.88 41.08 36.04 32.66 31.67 32.62 25.81 26.23 28.60 29.84 30.39 30.86 30.58 31.54 31.00 33.07 34.52 33.41 32.50 27.58 27.30 22.07 23.11 23.31 25.20 25.01 27.69 26.05 26.92 29.05 30.43 31.46 33.17 32.78 31.70 30.26 26.67 26.90 27.17 30.87 31.30 31.23 31.70 31.57 31.30 30.24 28.84 25.79 24.52 22.90 23.42
43.34 42.82 42.36 41.71 39.95 33.42 30.55 29.96 33.09 29.42 26.64 27.17 29.94 28.34 28.24 28.48 30.78 31.75 32.98 30.74 28.50 26.71 22.78 22.46 24.52 26.34 26.47 27.93 27.00 27.09 27.98 31.17 30.65 29.22 29.61 30.56 30.87 24.07 25.94 25.16 26.83 26.35 26.66 25.47 26.26 31.63 26.40 28.00 28.04 28.06 26.27 24.81 23.31 23.08
40.62 39.73 39.26 36.04 32.46 31.35 29.66 29.46 26.05 27.76 27.77 25.69 28.14 27.74 26.13 29.50 29.34 29.50 29.39 31.11 24.65 24.35 25.19 26.99 27.53 28.80 28.53 27.87 31.17 30.98 31.97 32.24 31.00 31.11 29.36 25.08 28.07 25.21 24.27 23.56 22.11 25.79 23.61 23.54 23.59 25.34 29.01 27.26 26.54 24.80 22.66 24.81 24.50 24.14
37.96 39.70 34.14 34.84 30.53 29.40 26.70 27.93 26.98 27.64 25.96 25.64 24.39 25.18 24.21 23.84 25.35 25.38 26.33 28.12 24.94 26.95 26.82 27.50 25.31 25.48 25.22 26.30 27.36 27.31 29.46 29.98 30.58 30.53 32.66 30.75 26.64 23.39 22.66 21.78 20.69 18.63 21.10 24.99 23.31 23.67 24.50 24.20 24.30 23.62 22.98 23.24 25.42 23.01
38.89 36.57 32.51 31.74 27.18 26.24 22.58 28.03 23.96 23.84 19.74 21.19 18.82 16.10 19.85 21.62 18.03 20.36 18.03 22.01 24.90 24.49 23.57 22.49 20.77 20.29 21.70 22.21 23.83 24.81 25.54 22.90 25.20 26.90 28.30 27.83 26.88 23.08 20.66 21.24 21.16 18.08 20.05 23.31 23.44 21.80 21.75 27.29 26.20 24.85 23.00 23.49 22.23 21.10
35.86 29.43 26.77 25.10 25.36 20.77 25.02 20.51 23.60 21.67 20.33 19.34 16.58 12.85 15.62 14.61 16.18 14.77 14.82 19.77 21.16 20.80 19.52 17.92 18.12 19.12 19.08 16.39 18.28 21.20 23.32 24.40 22.69 20.78 20.39 20.20 18.82 22.20 23.48 23.47 23.66 22.64 23.94 23.07 20.29 20.20 20.71 21.40 25.90 21.23 20.34 19.74 19.18 18.93
27.98 23.97 25.53 19.62 22.20 20.98 19.34 18.90 18.91 18.91 14.13 15.52 12.15 10.26 11.88 13.31 12.04 11.40 14.06 18.39 19.23 18.37 17.87 17.93 18.97 19.58 18.84 19.32 20.26 19.72 18.74 21.31 20.40 19.71 20.05 19.81 17.56 16.60 17.86 19.72 22.79 23.18 22.29 18.44 20.06 20.32 19.87 17.41 17.42 16.74 17.05 17.07 16.33 15.44
20.96 21.00 21.42 20.63 19.88 20.46 19.97 17.37 16.55 16.14 15.68 12.27 11.44 10.73 11.30 12.63 9.79 11.65 16.76 17.15 16.89 17.44 16.33 15.77 16.96 18.34 19.23 20.11 18.90 17.79 17.94 18.23 18.89 18.21 17.64 16.52 17.12 17.25 16.43 17.00 16.48 18.92 21.19 20.63 17.51 17.60 19.13 18.70 17.44 14.58 14.43 16.53 24.28 17.03
19.75 19.26 20.65 22.60 20.83 19.92 18.29 18.84 19.30 17.53 12.22 11.51 12.17 11.36 10.44 8.08 10.23 16.99 18.25 17.86 17.95 15.98 15.36 15.81 17.58 18.86 18.36 18.24 18.16 16.86 15.77 13.69 14.55 15.05 15.16 15.50 17.15 17.82 17.52 16.38 15.92 18.56 17.68 16.23 16.36 17.78 18.16 18.39 17.74 15.90 16.46 14.25 12.63 13.46
20.79 20.73 18.78 18.67 17.90 17.75 16.31 15.00 14.05 12.87 14.87 16.81 16.67 9.90 12.31 13.93 15.44 17.39 16.43 14.88 13.33 12.66 12.83 12.91 12.11 12.27 12.37 12.35 11.20 12.55 11.95 10.52 10.47 10.80 13.95 15.38 14.42 13.09 12.15 13.51 13.80 22.19 17.02 14.28 14.46 13.86 15.71 19.84 19.77 17.68 15.17 15.32 14.93 10.51
19.75 20.80 21.15 14.48 14.98 15.48 15.47 15.77 16.19 17.48 18.55 16.89 14.77 13.73 13.95 17.30 15.46 15.19 15.09 12.60 10.46 11.05 13.40 13.31 11.81 9.19 9.58 8.51 8.59 9.36 8.68 10.24 13.06 12.20 12.22 12.73 13.04 11.02 6.95 7.52 7.32 7.59 7.71 8.77 19.07 20.50 16.20 15.44 16.22 16.28 16.26 15.91 13.63 7.88
17.92 20.66 15.90 11.50 13.14 13.99 13.26 12.56 12.59 11.98 15.13 15.12 15.81 15.00 15.36 15.15 13.47 11.41 11.60 10.08 10.17 10.83 7.79 6.00 4.76 5.53 5.60 5.74 6.35 6.89 5.19 4.98 5.50 8.45 6.96 7.20 6.99 5.01 3.44 3.85 5.88 6.43 5.31 6.22 9.90 10.98 18.41 13.37 14.18 10.22 11.22 12.56 8.35 5.92
18.78 17.79 13.80 13.70 11.24 9.19 8.27 9.26 10.71 13.44 11.12 9.15 8.76 11.07 11.96 9.68 12.52 10.83 9.17 7.83 6.76 5.08 5.98 4.87 4.30 2.13 4.92 4.34 2.95 2.84 4.66 2.56 -1.38 0.23 0.30 1.30 1.73 3.56 5.33 6.01 6.32 5.34 6.72 10.62 11.21 10.84 10.35 9.75 6.46 7.48 9.75 15.25 13.68 15.85
14.83 10.01 12.04 9.19 7.43 6.55 7.26 8.31 8.32 8.65 7.58 9.06 8.27 6.74 9.18 10.40 9.77 10.71 7.17 5.26 5.33 7.45 13.42 6.56 4.72 6.61 4.07 2.84 2.26 2.30 14.10 2.94 1.52 1.81 0.95 2.51 3.95 6.23 8.67 9.96 10.07 9.88 11.03 12.16 11.18 10.61 9.78 8.65 8.96 7.62 10.05 12.77 11.01 7.72
6.06 6.36 7.17 8.74 6.42 6.28 7.13 7.73 6.49 4.71 5.15 4.78 5.04 3.24 2.90 5.50 7.17 8.53 5.46 3.34 6.46 7.34 6.75 5.31 3.62 3.03 2.44 0.69 0.25 0.79 7.67 0.42 2.12 17.04 18.56 19.81 21.26 21.45 20.72 18.46 15.77 13.42 15.68 13.17 10.85 6.36 6.67 7.29 8.15 8.37 9.10 10.01 10.18 9.32

GFSWCAN_sfc_wetblb_093.txt.gz
Wetbulb
46.85 46.80 47.13 47.71 47.44 47.35 47.92 48.65 50.59 50.20 53.33 52.11 51.11 51.12 51.27 51.34 49.54 42.86 39.25 40.29 38.60 31.15 31.89 35.14 35.35 30.34 30.12 29.29 26.23 29.00 28.76 29.79 28.34 22.69 19.25 19.13 21.43 24.96 22.99 26.92 28.42 27.75 26.15 26.14 27.40 23.21 21.70 37.08 35.46 29.97 34.98 37.59 38.40 39.46
46.55 46.52 47.04 47.80 47.01 47.58 47.58 48.83 50.38 51.80 52.05 51.26 51.02 50.96 51.28 50.95 48.38 44.57 37.19 40.90 41.38 34.72 32.91 37.98 37.15 37.36 36.33 34.64 31.41 30.40 28.73 28.34 29.14 25.57 21.36 19.67 21.21 18.81 21.12 17.46 29.88 24.01 30.18 30.06 32.90 30.66 37.06 38.51 37.25 37.85 37.70 37.59 38.87 41.31
47.29 46.83 46.91 47.44 46.65 46.58 46.95 48.43 49.94 51.99 51.07 50.41 50.46 50.87 51.28 49.40 48.91 44.09 37.99 40.33 39.58 34.97 33.76 33.05 32.39 35.62 38.38 37.55 37.83 28.81 29.76 32.61 30.81 30.56 23.90 23.12 19.64 22.59 16.89 18.68 23.65 27.46 31.11 28.66 29.55 34.88 36.62 36.99 37.08 37.18 38.59 38.16 39.02 41.26
47.04 47.33 47.48 47.11 46.26 46.61 46.31 48.52 52.33 51.51 50.83 50.65 49.83 50.89 49.61 48.75 48.16 45.46 40.72 42.10 39.44 36.37 29.53 29.49 37.65 33.03 36.79 38.03 37.75 36.30 34.16 34.84 33.68 31.41 22.79 21.31 23.15 27.39 22.52 24.66 23.58 26.51 27.19 26.55 27.14 29.39 33.93 35.84 35.61 36.03 38.93 40.10 40.72 40.47
46.82 47.18 47.18 46.68 45.90 46.47 46.14 48.46 50.89 50.32 49.89 49.85 49.51 49.12 48.99 48.78 47.88 44.69 42.14 41.73 42.54 37.63 29.02 28.94 32.21 33.85 35.33 35.99 36.08 35.60 34.00 31.52 29.72 24.83 22.73 22.32 27.15 25.51 25.54 25.00 22.93 26.65 25.80 23.29 22.77 28.77 29.62 31.44 34.87 38.31 37.45 38.64 40.35 40.37
46.74 46.92 46.87 46.11 46.10 46.13 47.21 49.06 49.91 49.62 49.32 48.87 48.74 49.06 49.05 48.23 46.76 41.76 34.73 38.72 42.64 39.96 30.94 25.19 31.29 30.17 33.89 34.68 34.59 33.93 33.64 31.85 31.09 27.05 26.82 29.90 32.77 25.10 20.99 19.56 27.70 29.14 30.13 30.66 27.37 29.81 31.73 33.17 34.56 37.91 38.16 38.83 40.98 40.49
46.54 46.60 46.71 45.86 45.88 46.17 47.55 49.60 49.78 49.33 48.96 48.79 48.93 48.60 47.85 46.04 42.27 38.70 35.78 38.92 43.49 40.40 31.10 24.61 24.30 29.12 33.19 33.09 34.36 34.28 35.92 34.31 32.91 29.59 27.16 29.92 30.12 24.94 18.95 20.47 27.74 30.42 33.32 34.81 35.70 34.23 31.01 32.35 32.57 37.64 40.02 40.60 42.03 40.33
46.25 46.31 46.34 46.15 45.87 46.42 48.99 49.71 49.06 48.62 48.55 48.53 47.77 46.96 46.74 46.09 43.60 38.39 40.41 43.02 40.96 35.94 34.71 23.13 23.89 24.38 31.12 31.08 30.56 35.24 32.14 32.73 32.06 29.00 31.94 28.93 29.26 27.29 23.23 26.88 28.85 32.08 34.75 34.72 34.38 33.21 32.10 31.76 34.82 37.42 40.18 41.40 39.69 38.58
45.92 45.73 46.05 46.23 46.29 47.47 49.66 49.05 48.42 47.89 47.71 47.55 47.46 45.98 42.79 40.67 36.28 37.22 43.81 42.98 39.26 34.79 27.48 24.36 20.25 17.30 30.01 33.31 33.48 32.86 33.20 26.83 32.22 26.22 29.40 29.68 25.99 23.52 25.99 27.14 32.07 35.46 34.24 33.78 34.73 33.04 32.86 32.13 32.63 34.87 38.92 39.53 39.14 38.19
45.46 45.49 45.96 46.25 46.64 49.12 48.99 48.47 47.81 47.30 46.93 46.53 42.80 38.29 34.35 37.80 43.58 42.63 36.68 31.55 30.44 31.20 30.56 27.66 27.96 23.54 30.02 31.74 30.78 30.27 30.86 28.51 18.04 27.26 31.50 26.42 24.37 29.33 30.51 32.05 34.03 34.17 35.22 35.32 32.65 29.33 30.57 29.61 32.63 34.28 37.38 38.00 38.64 39.10
45.46 45.69 45.98 46.23 47.07 48.56 48.17 47.74 47.10 46.50 45.16 39.47 35.56 34.31 38.66 43.44 37.11 34.56 27.46 25.79 26.44 24.73 28.55 27.77 26.86 26.43 32.17 28.64 28.64 31.92 27.63 28.85 22.14 25.77 23.89 25.84 24.01 24.60 31.87 33.09 33.53 34.19 36.18 36.33 36.23 34.98 33.43 34.29 35.43 36.86 37.97 37.37 36.61 36.29
45.50 45.78 46.25 46.75 47.96 48.02 47.47 47.06 46.18 42.55 39.77 39.43 38.67 40.19 39.10 35.03 31.44 28.88 27.29 26.85 24.17 24.41 27.47 25.32 25.92 26.43 29.31 34.01 29.92 30.41 26.52 27.35 21.03 29.79 23.62 22.85 25.28 29.43 33.20 32.85 33.05 34.26 36.04 36.42 37.20 36.14 35.88 35.72 36.12 37.60 36.82 35.75 34.95 34.70
45.60 46.22 46.38 45.67 48.30 47.56 47.02 46.58 45.78 44.37 42.99 39.72 35.57 31.63 31.41 29.62 25.01 26.04 21.01 22.16 21.96 27.52 27.41 25.96 27.31 30.30 30.89 32.50 29.93 28.72 25.22 22.43 30.21 25.75 23.90 23.89 28.17 33.11 33.11 33.57 33.79 35.64 35.79 36.24 36.96 36.63 36.21 34.79 35.06 34.86 34.16 34.46 34.31 33.49
46.02 45.48 45.30 48.19 47.42 46.83 46.78 45.53 44.87 44.13 40.68 34.54 30.58 24.49 28.35 25.12 26.89 27.56 27.71 27.20 29.84 29.45 29.74 29.42 27.14 27.40 30.65 27.17 29.57 18.99 28.04 30.41 24.21 21.28 19.15 24.52 28.65 29.30 30.10 33.98 34.45 33.32 34.42 34.79 34.97 35.15 34.63 34.58 34.00 34.13 34.06 34.62 34.03 31.25
44.16 45.58 47.87 47.51 46.94 46.55 45.21 45.32 45.19 39.57 36.66 32.36 33.04 26.44 26.97 27.87 28.84 30.16 30.81 30.77 31.20 33.11 30.65 27.70 27.19 30.94 26.69 27.67 28.20 27.75 26.13 20.23 22.94 20.94 22.57 25.17 29.30 28.81 28.86 33.63 32.81 32.36 32.61 32.69 33.94 34.21 34.40 33.12 31.89 29.47 28.59 28.65 28.56 28.00
44.85 47.59 46.66 47.34 46.27 45.31 45.41 44.53 40.52 38.07 32.91 31.20 30.05 26.31 28.32 26.17 25.99 29.00 29.21 29.98 34.08 32.48 30.20 27.77 27.41 24.52 24.39 25.56 25.45 23.92 22.33 16.40 20.77 21.93 28.38 31.16 28.59 28.39 28.43 32.63 33.73 32.66 31.70 31.10 30.26 28.37 27.62 27.35 27.15 27.38 26.78 25.42 25.63 25.72
46.80 45.11 46.61 45.56 45.31 45.10 44.88 38.65 36.88 32.17 31.67 29.12 25.97 30.84 29.97 28.63 27.34 29.24 31.66 32.84 34.11 29.07 21.40 22.34 16.45 18.09 25.87 24.78 24.02 27.74 23.42 21.89 31.82 24.07 27.06 33.09 32.79 28.83 27.36 28.29 33.36 33.62 32.25 31.48 31.18 30.86 30.88 30.71 28.51 27.08 25.52 25.58 24.25 24.65
43.88 44.71 45.02 44.86 43.75 42.01 36.11 35.09 32.46 31.02 26.69 27.13 26.62 28.37 30.77 31.33 30.84 31.84 32.55 33.91 30.93 25.06 24.16 19.59 24.71 24.66 23.69 21.42 21.32 23.19 22.60 33.95 28.15 25.43 27.39 29.47 29.47 28.70 27.95 27.55 32.21 32.56 32.47 31.93 31.59 31.52 30.39 30.12 30.34 29.52 25.54 23.98 22.53 22.55
43.31 43.50 44.32 44.54 41.73 35.63 32.13 31.21 31.46 23.99 25.63 28.20 29.59 30.11 30.19 30.26 31.42 32.32 33.75 34.13 31.08 29.34 25.69 20.48 15.86 14.29 21.74 22.83 23.58 30.12 24.57 30.10 27.79 28.71 29.54 31.08 30.73 29.88 29.13 25.28 25.49 27.31 30.34 30.75 30.86 31.54 32.01 32.12 31.83 31.35 30.60 28.33 24.29 23.81
44.44 44.33 44.34 42.98 40.03 33.18 29.42 29.27 32.81 27.48 25.41 27.14 29.32 27.25 27.83 28.31 30.35 31.72 31.93 29.56 26.74 22.60 19.30 21.69 21.88 24.01 24.84 25.91 24.94 25.33 26.15 29.04 28.97 27.86 28.31 29.40 29.82 22.23 25.41 24.32 26.09 25.40 25.46 23.65 21.53 29.10 25.36 27.32 27.11 27.92 28.45 28.38 25.17 23.94
40.44 39.63 39.38 36.12 32.26 30.64 28.65 27.79 25.51 27.44 27.40 25.58 27.41 26.88 26.40 28.80 29.05 28.78 29.08 29.97 21.50 16.24 17.73 23.38 25.41 26.71 26.51 25.70 29.36 29.74 30.41 30.40 29.21 29.38 28.56 22.87 27.02 24.25 22.44 21.10 18.78 24.25 22.52 21.66 21.67 22.83 26.25 24.77 25.01 23.59 21.29 25.52 25.46 24.92
37.45 38.84 34.06 34.84 30.11 28.66 26.12 27.67 26.16 27.55 25.74 25.07 25.21 26.33 24.45 24.13 25.19 25.04 26.33 27.88 24.93 20.84 22.62 24.95 22.28 23.15 23.21 25.44 26.62 24.45 27.55 28.47 28.39 28.50 31.36 30.60 25.86 22.87 21.85 20.97 18.73 15.41 15.59 17.05 18.27 20.51 22.07 23.38 24.93 24.01 21.99 23.62 25.20 23.63
38.12 35.85 32.31 31.74 26.97 25.43 22.56 28.19 23.90 24.48 22.16 21.03 21.49 19.91 20.38 21.64 20.79 21.97 17.42 14.12 18.60 18.94 19.73 20.36 18.41 16.96 20.04 19.67 22.45 23.41 23.83 21.47 23.39 24.93 26.35 26.43 25.94 21.90 20.00 19.73 18.93 13.94 14.40 17.66 18.99 20.41 19.04 25.06 24.34 24.18 21.77 21.99 20.58 21.07
35.80 29.12 26.18 24.93 24.64 20.25 24.84 21.00 24.19 22.83 22.19 20.76 16.46 16.17 18.51 15.18 17.72 9.09 9.04 11.58 16.49 16.65 17.57 15.95 15.42 17.19 16.40 14.32 16.02 18.08 20.42 21.60 20.55 17.85 17.28 19.46 18.11 22.81 22.61 21.36 22.81 20.58 20.94 19.45 17.97 18.32 17.90 19.71 24.98 19.98 18.39 16.81 16.23 17.05
27.38 23.73 25.30 19.48 22.23 20.96 18.97 18.54 19.10 18.61 15.93 16.47 13.33 9.18 10.79 10.13 3.86 4.52 7.47 12.74 12.38 12.87 13.43 13.93 15.22 14.85 13.45 12.51 16.85 17.06 16.41 19.01 18.25 17.91 17.86 16.93 15.44 14.46 14.92 16.88 21.13 21.26 19.16 14.91 18.38 19.13 17.18 16.39 16.89 17.71 16.72 15.26 14.96 15.02
20.07 19.74 17.25 16.43 16.39 18.36 18.11 15.16 14.99 15.49 15.36 9.88 8.61 7.92 4.13 5.73 5.48 9.08 12.47 12.44 11.43 11.31 11.84 11.64 13.08 13.99 16.47 16.67 16.62 15.39 16.21 14.86 17.20 16.89 15.51 13.76 14.98 13.11 9.00 13.46 13.21 16.11 17.91 18.11 15.30 15.36 16.45 15.83 15.99 15.75 16.35 17.09 22.99 18.72
19.52 15.46 19.31 22.53 20.55 19.56 18.23 19.44 20.28 17.45 10.29 9.81 9.07 7.27 7.24 6.80 7.84 14.18 15.93 14.07 15.19 11.89 10.11 9.89 13.24 16.82 17.05 15.78 15.35 14.28 12.08 8.73 12.23 12.95 12.47 11.20 11.80 12.30 12.78 12.94 13.00 16.70 16.04 14.26 13.83 14.50 15.49 17.01 17.27 16.73 16.36 16.26 14.31 15.14
20.61 20.39 17.88 17.85 18.26 18.24 17.43 16.30 14.34 13.42 13.82 15.35 15.29 7.86 11.85 14.36 16.50 16.64 15.45 13.43 11.06 8.88 8.92 8.90 8.58 9.30 9.93 8.94 6.97 8.78 7.69 5.75 4.44 5.89 11.31 11.32 9.11 7.67 8.30 9.21 11.07 20.51 15.83 13.75 14.18 12.45 11.06 12.30 15.61 18.53 18.54 17.05 16.80 12.57
19.05 21.03 21.85 16.81 17.20 16.48 14.65 14.09 14.15 16.00 17.90 17.03 14.53 13.24 13.34 16.69 13.18 12.95 13.97 11.40 6.57 9.05 10.72 9.44 9.17 3.65 5.63 4.75 4.28 3.02 2.56 5.81 10.52 9.91 9.29 8.63 7.45 9.11 3.77 3.49 2.15 2.48 3.70 5.67 17.18 19.44 15.27 15.52 15.82 15.59 15.85 16.36 17.05 15.26
18.32 21.62 17.06 12.79 13.76 13.27 11.92 11.23 10.52 10.52 14.30 14.69 15.67 14.51 14.87 14.06 12.11 8.53 9.03 6.92 7.81 7.28 4.22 2.51 0.57 3.09 3.18 4.47 4.01 4.38 0.39 -0.54 2.35 6.89 5.08 4.63 4.99 2.02 0.64 3.24 6.02 6.75 5.00 4.67 7.75 8.88 16.78 11.92 10.46 5.47 6.21 6.72 8.02 11.05
19.32 17.52 13.77 12.80 9.60 7.64 6.95 7.48 8.73 13.02 9.53 7.23 6.38 11.05 11.30 8.33 10.58 8.28 6.31 4.45 1.81 0.60 3.90 2.78 1.45 -3.38 2.77 1.25 0.68 1.36 5.01 0.41 -2.96 -1.28 -1.32 -1.47 -1.58 0.57 3.40 4.92 5.49 5.05 3.65 4.55 8.36 8.74 8.65 8.26 4.39 4.33 4.70 3.71 5.05 14.96
15.49 10.68 13.27 10.65 7.93 7.68 6.14 6.23 6.36 6.11 6.49 7.71 7.47 5.48 7.79 8.84 9.77 9.06 5.77 3.33 3.32 5.82 12.03 4.08 3.87 6.53 1.08 -0.60 -1.17 -0.87 12.91 0.00 -1.09 -1.16 -1.84 0.93 3.93 6.60 8.27 9.14 8.78 7.83 6.71 8.70 10.17 10.50 9.08 7.62 7.26 6.16 6.30 4.42 4.11 5.86
9.54 9.31 8.15 7.99 6.12 5.86 7.88 8.17 6.56 4.87 4.79 2.53 4.00 2.41 2.51 6.83 10.58 9.58 5.39 2.36 6.96 7.34 6.56 3.73 0.34 0.03 0.09 -0.51 -1.07 -1.29 6.74 -2.64 2.71 16.38 18.71 19.80 21.77 21.78 20.77 14.89 14.72 14.48 12.47 11.38 9.16 3.90 0.33 0.95 3.11 3.59 3.56 3.82 4.38 6.45

GFSWCAN_sfc_wetblb_096.txt.gz
Wetbulb
46.72 46.74 47.98 48.02 48.03 47.59 48.08 47.94 48.26 48.57 49.50 50.96 53.03 52.14 51.16 51.98 49.22 42.75 39.01 41.11 38.08 32.02 32.23 34.69 34.28 29.68 29.24 27.96 25.69 28.19 27.57 28.16 27.61 22.01 18.78 18.87 20.34 23.22 21.41 25.46 26.32 26.42 22.71 21.82 25.77 20.94 20.81 36.27 35.03 28.93 32.03 35.02 37.89 39.17
46.29 46.58 47.37 48.26 47.97 47.88 48.06 47.89 47.74 47.61 50.06 50.55 52.77 51.74 50.89 51.94 48.49 44.37 38.39 41.22 40.08 34.47 33.47 37.36 36.40 35.61 34.68 33.22 30.32 29.17 27.30 26.92 28.67 24.66 19.57 19.09 20.99 15.48 19.35 16.19 26.83 27.12 28.74 28.45 29.06 26.29 35.69 37.06 35.90 36.48 37.63 36.75 36.75 37.53
45.91 46.19 46.73 48.07 47.70 47.65 47.99 47.42 47.20 47.43 49.19 51.98 51.91 51.39 51.28 51.88 48.92 43.92 39.65 40.72 38.32 33.89 32.96 32.91 32.52 35.39 36.91 36.11 36.76 28.71 28.90 31.42 29.86 28.85 22.64 22.45 19.56 21.89 16.51 17.89 21.22 24.89 29.24 27.29 28.66 31.37 33.61 35.25 38.31 38.62 37.88 37.24 38.81 39.68
45.88 45.90 46.25 47.29 47.55 47.89 47.59 47.08 47.04 48.06 48.85 52.11 51.80 51.36 51.36 50.36 48.65 45.81 41.41 42.12 38.06 35.34 28.66 29.42 36.66 32.94 35.91 36.79 36.38 35.25 33.17 33.53 32.42 29.43 21.58 20.39 23.50 26.04 22.10 23.44 22.45 25.02 25.76 24.57 25.65 27.23 31.20 32.54 32.89 36.71 38.34 38.21 38.59 39.77
46.40 46.32 46.15 47.03 47.36 47.88 47.16 46.98 47.15 47.38 51.74 51.30 51.00 51.19 49.85 48.72 47.46 44.21 42.51 42.12 42.19 37.29 28.72 28.23 31.68 33.93 34.85 35.32 34.52 34.62 33.18 30.79 27.69 24.52 22.16 21.78 26.33 24.57 24.00 23.75 21.43 25.32 24.69 22.63 22.08 27.44 27.35 28.61 32.16 35.22 36.70 38.10 38.69 39.00
46.45 46.43 46.17 46.99 47.30 47.50 46.67 46.72 46.91 51.32 50.58 50.18 49.97 49.04 48.83 48.01 46.19 41.24 35.52 38.45 41.84 38.41 30.56 24.58 30.38 31.36 33.41 33.98 33.13 32.75 32.49 30.79 29.17 26.19 25.34 26.85 29.55 24.18 19.17 18.77 26.09 27.38 28.94 30.24 27.15 30.43 30.29 31.35 33.05 34.15 36.41 37.82 39.73 39.73
46.54 46.38 46.57 46.90 47.42 46.71 46.49 46.24 50.24 50.24 49.93 49.31 48.93 48.43 47.79 46.58 42.28 37.70 34.66 38.17 42.85 38.66 29.68 23.40 24.26 30.23 32.15 32.19 33.43 33.44 34.98 30.64 28.64 26.39 24.73 26.23 26.71 23.41 17.76 19.96 26.48 28.76 30.54 34.05 35.01 35.23 30.90 31.40 29.97 32.94 34.14 38.41 40.52 41.00
46.23 46.24 46.66 46.90 47.25 47.00 46.61 46.54 48.92 49.16 48.96 48.78 48.18 47.39 46.57 45.38 43.29 37.74 39.92 42.94 40.26 36.20 33.05 21.76 22.74 25.04 30.62 30.29 29.42 34.99 31.68 32.29 30.88 26.56 29.27 27.55 27.10 26.24 21.99 25.49 27.17 29.81 34.64 34.77 34.19 33.36 33.45 32.58 32.56 34.83 35.30 38.98 40.26 39.93
45.86 46.12 46.55 46.88 46.90 47.09 46.97 47.22 48.88 48.59 48.29 47.63 47.04 46.34 42.96 39.79 36.38 37.18 43.34 41.58 38.14 34.17 26.34 22.74 19.47 15.77 29.12 33.15 31.37 32.83 32.75 21.69 30.62 23.70 28.18 27.19 24.74 21.71 25.46 25.79 28.58 33.00 33.75 34.48 34.72 34.15 31.26 30.92 31.10 33.48 34.29 38.28 39.06 39.72
45.63 46.05 46.44 46.45 46.68 46.98 46.65 48.98 48.22 47.36 46.65 46.27 42.90 37.76 33.38 36.99 43.48 41.85 35.60 31.46 30.45 29.74 29.91 25.62 27.04 24.25 29.56 31.03 29.99 26.22 27.82 25.01 14.84 25.41 29.97 25.09 23.39 28.43 28.68 30.24 31.22 32.34 34.48 35.46 32.83 30.97 30.19 29.57 32.77 35.13 35.83 38.20 38.21 40.01
45.87 46.04 45.99 46.09 46.39 46.16 48.54 47.59 46.95 46.33 45.15 39.01 35.70 33.60 38.28 43.45 36.77 32.27 25.58 25.64 25.15 24.12 28.22 27.51 26.04 25.52 31.32 23.98 23.52 27.64 20.27 23.95 21.52 22.46 23.03 24.91 20.97 23.98 29.54 30.72 33.52 33.93 34.70 36.04 36.20 36.38 35.50 34.83 35.46 36.17 37.57 37.16 36.57 36.51
45.82 45.61 45.69 46.00 46.56 47.92 47.34 46.82 46.05 41.85 39.60 39.17 38.50 39.95 38.90 33.90 28.00 25.14 20.85 23.53 23.31 23.57 26.55 25.34 25.20 26.63 28.36 31.88 25.60 29.68 22.75 24.67 21.70 28.32 23.61 22.18 24.20 23.17 29.22 33.04 33.30 33.70 35.09 35.82 37.05 36.43 36.11 35.74 35.41 35.81 36.27 35.40 35.16 35.36
45.42 45.78 46.00 44.88 46.37 47.68 46.70 45.96 45.93 44.36 42.90 39.92 36.21 32.55 32.26 27.82 19.94 20.50 19.91 18.47 18.10 25.41 26.59 26.84 26.10 29.92 28.03 30.31 29.28 28.19 23.63 19.00 28.88 24.91 23.28 22.15 25.39 29.93 26.93 31.06 31.73 35.47 35.51 35.90 36.59 36.88 36.49 35.57 35.51 34.96 34.64 34.48 34.67 33.91
45.73 45.04 45.68 46.67 47.36 46.68 46.19 45.68 45.01 44.95 40.23 34.55 29.93 25.52 26.42 21.89 23.98 25.46 26.26 24.78 26.48 27.64 28.73 28.34 28.14 27.52 29.51 24.91 28.47 20.89 26.42 28.92 23.44 21.08 17.71 22.71 27.53 28.94 29.14 33.30 34.51 32.78 33.78 34.41 34.78 35.29 34.91 34.84 34.08 34.32 34.36 34.40 34.02 32.64
45.39 45.27 45.45 46.76 46.21 46.10 45.38 45.60 45.11 40.44 37.23 32.62 30.30 22.59 24.83 26.75 28.36 26.84 29.10 28.85 28.42 32.38 29.47 27.16 25.22 26.90 21.15 21.75 24.67 26.68 24.99 18.35 21.48 19.61 22.18 24.81 28.26 27.84 27.92 32.11 32.86 32.11 32.09 32.04 33.32 34.11 34.47 33.72 32.52 30.80 28.61 27.95 27.68 28.54
44.88 45.59 45.87 46.35 45.85 45.65 45.34 43.70 40.70 38.00 32.98 30.91 26.55 24.27 28.19 25.95 27.21 28.72 29.72 29.61 31.79 30.59 27.37 26.89 21.51 17.89 19.02 21.38 19.16 18.10 17.39 14.10 19.57 20.69 24.02 27.25 27.34 27.19 27.51 31.72 34.05 33.23 32.18 31.65 31.42 27.79 27.49 26.43 25.46 25.78 26.97 25.78 25.06 25.52
45.40 43.47 46.10 45.54 45.68 44.77 42.86 38.64 36.90 32.29 31.10 26.14 24.23 29.95 28.18 28.76 28.44 30.15 31.71 31.16 32.54 27.72 21.03 20.69 15.73 16.14 21.11 15.20 17.75 22.54 18.69 20.81 22.26 25.19 24.36 29.79 29.05 27.86 26.54 27.30 32.80 33.93 32.64 31.64 31.31 30.97 30.32 31.01 29.31 27.89 25.41 26.49 25.68 25.25
42.03 45.13 45.40 45.70 43.44 39.49 35.98 34.68 32.06 30.10 26.20 26.93 26.25 28.02 30.87 31.53 31.37 31.78 32.68 33.10 29.93 25.51 24.31 19.75 24.07 23.15 15.81 15.52 19.00 22.93 25.63 28.02 26.75 25.24 26.35 28.54 28.04 27.60 27.30 27.14 32.11 32.28 32.66 31.96 31.54 31.39 31.09 30.37 30.38 31.07 30.52 28.22 26.20 25.24
44.22 44.47 45.40 44.76 41.02 35.63 32.05 30.89 30.81 21.37 24.00 28.34 29.48 30.13 30.63 31.15 31.95 32.41 33.10 32.62 30.88 29.26 24.38 17.78 14.84 14.68 21.71 23.45 20.09 23.99 28.50 32.94 31.65 28.33 28.39 29.17 29.32 28.47 28.25 24.43 25.82 30.17 30.57 29.96 27.97 29.19 31.08 31.26 31.45 31.51 30.89 29.81 28.72 28.97
45.27 45.20 44.89 42.28 39.70 33.08 29.19 29.07 32.14 27.65 25.30 27.30 28.76 27.47 28.51 29.07 30.88 31.51 31.26 30.23 27.65 22.39 18.57 17.95 20.97 23.51 24.64 25.43 24.10 25.54 28.11 29.46 27.51 27.17 27.74 28.37 28.61 21.38 25.43 24.82 26.36 25.04 24.72 22.48 20.58 27.25 23.58 25.87 25.75 26.03 25.92 26.59 26.74 27.38
41.27 40.03 39.15 36.17 32.18 30.42 28.50 26.82 25.74 27.07 27.37 25.40 27.06 27.54 26.65 29.24 29.33 29.37 29.29 29.91 22.77 15.54 17.92 23.08 24.77 26.24 25.66 24.67 28.19 28.84 29.19 29.06 28.43 28.79 28.08 23.17 26.65 24.01 21.20 19.58 17.69 23.42 22.24 20.86 20.49 21.49 24.97 23.33 23.09 21.85 19.65 25.57 25.98 25.05
37.82 38.78 33.89 34.69 29.70 28.27 26.14 27.85 26.41 27.65 25.80 25.27 25.54 26.78 25.15 25.06 25.62 25.30 26.26 27.82 22.75 21.20 23.03 24.87 22.26 23.19 23.09 25.54 26.35 23.66 27.04 28.00 27.68 27.86 30.56 29.82 24.89 21.56 21.23 21.24 18.35 15.76 15.45 15.73 16.62 17.99 19.32 19.65 20.16 20.50 20.29 22.48 24.79 23.03
38.46 35.98 32.46 31.76 27.10 26.15 23.12 28.43 24.40 25.49 22.95 21.39 23.07 21.24 21.20 21.69 21.33 23.56 24.88 24.59 20.26 19.59 19.96 20.28 17.46 15.30 19.07 17.90 21.98 22.78 23.06 21.04 23.12 24.49 25.65 25.80 25.40 21.24 19.32 19.46 18.73 13.19 13.07 16.09 17.03 17.39 15.62 23.18 21.85 20.72 19.77 20.36 19.40 19.70
36.04 29.08 26.38 25.27 24.90 20.73 25.16 22.08 25.16 23.50 23.14 22.04 19.57 17.39 17.74 18.28 20.30 15.30 14.50 14.39 16.81 16.69 17.90 16.72 15.17 16.60 16.38 14.56 15.94 17.06 18.34 19.49 19.13 16.28 15.48 17.60 17.24 20.47 23.28 22.10 21.87 18.94 18.54 17.60 15.47 15.19 15.09 16.47 21.66 17.78 16.65 16.25 16.52 15.81
28.02 23.81 25.60 20.37 23.46 21.67 20.23 19.72 20.32 20.41 18.58 19.10 16.14 14.01 13.92 15.19 9.27 11.09 11.60 14.13 11.45 11.99 12.35 11.62 13.33 13.50 13.09 10.60 14.97 15.33 14.61 16.85 16.90 16.91 15.60 14.61 14.44 13.56 14.14 15.61 20.15 19.25 17.29 12.68 15.81 16.06 14.31 12.73 14.12 14.49 14.91 14.75 15.37 15.87
20.36 20.24 21.65 19.57 19.75 21.08 20.51 18.85 18.81 17.87 18.42 15.70 13.40 11.77 10.63 8.58 7.21 11.53 14.46 13.32 11.47 11.03 10.32 14.66 15.10 12.85 15.13 15.11 15.31 15.06 15.35 12.90 15.19 16.13 14.35 11.75 13.51 13.27 8.42 11.84 12.04 13.70 15.19 15.28 12.11 13.08 13.34 12.36 12.07 12.46 14.80 15.50 20.99 17.85
20.01 17.05 19.58 22.95 21.08 20.16 18.86 20.19 20.89 19.61 16.70 14.23 11.99 10.79 11.16 9.97 11.91 15.21 14.87 12.60 13.32 10.63 8.68 9.05 12.58 15.06 17.01 15.58 13.96 12.43 9.74 5.56 9.95 10.94 10.10 8.40 8.66 9.04 9.52 9.98 9.76 13.54 13.34 11.24 11.34 11.98 11.44 12.92 13.69 13.66 13.94 14.90 12.45 12.46
20.82 19.92 18.09 18.22 18.14 18.64 18.17 17.95 18.48 18.67 16.93 16.28 16.10 11.13 14.71 16.45 16.93 15.82 13.96 11.81 9.06 6.37 8.18 8.07 7.52 9.84 11.77 8.27 5.43 7.49 5.98 1.41 2.30 5.27 9.08 9.59 5.61 3.66 3.62 4.08 7.31 18.91 9.99 8.37 8.56 7.57 8.62 9.60 11.51 12.29 12.98 14.98 16.44 14.08
18.89 21.48 22.47 17.63 18.37 18.32 17.15 17.94 17.13 16.91 18.48 18.17 16.30 14.49 14.22 15.87 12.42 11.91 13.22 10.44 5.97 12.42 12.61 12.68 8.34 1.83 5.42 2.82 2.38 0.76 -0.14 4.07 9.80 8.73 8.08 6.97 4.84 6.54 -0.20 -0.37 -0.18 0.37 0.37 1.94 15.65 17.58 12.69 15.25 17.28 17.14 17.34 14.05 13.51 13.36
18.88 22.27 19.02 16.55 16.69 15.00 13.42 12.77 14.30 13.23 15.17 15.10 16.15 14.72 14.86 13.73 10.99 8.29 9.36 7.97 9.56 9.75 4.28 2.04 -0.31 2.84 4.78 4.92 4.11 4.19 -0.80 -3.26 0.94 7.30 5.46 4.08 4.32 1.19 -2.89 -0.79 2.26 3.23 -0.04 0.28 3.66 5.33 15.72 11.18 9.92 3.46 3.99 3.92 3.61 5.29
20.56 20.09 16.42 14.22 12.16 10.64 9.62 9.71 11.04 13.62 11.74 10.36 9.46 13.15 12.25 9.51 11.68 8.68 5.81 2.56 1.99 3.56 5.86 2.33 0.01 -5.37 2.96 0.48 0.83 2.34 5.44 0.05 -4.01 -2.44 -2.54 -2.40 -3.77 -3.16 1.11 3.40 4.72 2.11 0.46 2.59 5.01 6.95 7.10 6.03 1.53 2.32 3.56 2.87 2.57 7.64
17.70 15.41 15.75 12.71 10.50 7.51 7.22 7.20 6.26 7.29 8.28 9.20 8.40 6.48 9.42 10.19 9.95 7.88 4.12 1.89 1.72 5.13 9.88 3.63 4.48 6.23 0.36 -2.10 -2.83 -1.92 12.63 -0.72 -1.83 -2.02 -2.63 -1.17 0.70 4.82 6.63 7.40 6.12 3.01 2.14 6.73 5.83 5.01 3.43 2.26 3.82 3.97 4.72 3.00 2.12 1.63
12.48 12.30 10.48 10.13 8.36 6.87 8.88 8.54 7.16 6.63 6.29 4.67 5.16 2.33 1.26 5.96 9.90 7.93 2.72 -0.72 4.55 5.40 5.57 2.50 -0.98 -1.12 -0.11 -0.59 -1.53 -1.92 5.52 -3.65 2.18 16.02 18.00 19.53 21.43 21.39 17.03 9.68 11.86 11.73 9.82 7.51 6.12 3.98 0.16 -1.23 1.17 1.40 1.26 1.11 1.47 2.91

GFSWCAN_sfc_wetblb_099.txt.gz
Wetbulb
47.25 46.80 46.81 46.91 47.31 47.47 48.15 47.37 47.91 48.58 48.68 48.66 50.65 51.85 52.22 51.64 50.56 41.73 39.15 40.90 37.77 31.50 32.78 34.55 33.46 29.16 28.21 27.70 25.59 27.32 26.89 27.05 26.90 21.83 18.73 18.45 19.62 22.68 20.41 22.78 22.78 22.92 23.13 22.98 23.02 19.86 16.88 34.92 34.05 28.62 32.63 35.61 35.67 36.95
47.47 46.96 46.65 46.73 46.65 46.98 48.16 47.35 48.19 48.66 48.53 48.47 49.76 52.60 52.13 51.95 47.82 44.21 37.46 40.61 40.98 34.93 33.13 36.55 35.35 35.22 33.47 32.29 29.27 27.94 25.84 26.24 28.04 23.78 18.95 18.19 20.66 14.53 18.38 15.50 25.07 23.50 27.94 25.97 24.79 24.58 33.50 34.32 33.87 35.31 36.38 35.24 35.61 36.29
47.22 47.33 46.59 46.48 46.53 46.88 47.83 47.54 48.28 48.85 48.68 48.07 49.13 52.58 51.60 51.76 50.76 44.18 38.92 39.61 38.72 33.49 33.01 33.51 31.86 34.55 35.53 34.42 35.53 28.52 28.19 30.80 28.99 27.43 22.16 22.26 20.11 21.65 15.63 16.87 19.30 23.16 27.61 27.93 27.92 28.94 29.53 33.27 35.59 37.92 38.99 37.87 37.42 37.80
46.81 46.90 46.87 46.43 46.56 46.70 47.80 48.10 48.44 48.21 47.93 47.90 49.40 53.01 51.49 51.67 50.86 45.32 40.60 41.02 38.62 34.56 29.52 30.28 36.04 32.65 35.26 35.48 35.40 34.22 32.36 32.46 30.97 27.92 21.67 20.72 23.13 25.18 21.08 22.24 21.58 23.92 24.25 23.62 24.06 25.93 30.04 31.47 30.76 30.97 32.49 36.87 38.11 38.93
46.83 46.94 46.95 46.75 46.51 46.61 47.91 47.97 48.34 47.97 47.99 49.03 50.10 51.76 50.82 50.51 47.98 44.14 42.42 42.21 41.13 36.77 28.89 28.33 31.60 33.04 34.65 34.08 33.61 33.71 32.47 29.42 26.63 23.68 21.80 21.36 25.72 23.90 22.88 22.76 20.46 24.27 24.01 22.22 21.47 26.20 26.13 27.50 29.82 33.62 32.93 34.39 37.70 38.73
46.83 47.06 47.01 46.80 46.21 46.71 47.77 47.77 48.26 48.16 47.77 47.68 51.42 50.87 49.81 48.34 47.18 41.48 36.08 40.07 41.07 37.30 31.23 25.14 30.71 31.21 32.48 33.26 33.20 32.76 32.03 29.41 27.36 25.78 24.62 25.94 28.08 23.83 18.75 18.18 24.89 26.13 27.13 28.79 26.74 28.63 30.41 31.69 32.41 33.43 32.56 34.21 36.39 38.31
46.57 46.82 46.89 46.68 45.97 46.74 47.73 47.69 47.97 47.45 47.63 51.20 50.56 49.77 48.46 47.63 42.21 36.94 33.91 38.76 42.09 38.71 29.91 24.26 25.14 31.28 31.12 31.15 31.40 31.16 31.71 28.96 27.68 25.49 24.33 25.33 25.46 22.50 17.93 19.59 25.36 27.38 28.62 30.88 34.58 33.79 31.66 30.75 29.66 32.84 32.81 32.69 36.46 38.24
46.62 46.46 46.72 46.66 46.46 47.07 47.57 47.54 47.10 47.40 50.59 49.31 48.47 47.64 47.00 46.05 43.79 37.87 40.23 43.39 41.13 35.05 31.99 21.41 23.37 28.47 30.97 28.23 27.92 34.33 29.12 28.21 26.92 25.95 26.42 25.27 26.40 25.39 21.31 24.44 25.95 27.17 31.34 33.61 34.11 34.93 33.60 32.05 31.27 33.33 34.75 34.36 36.43 37.86
46.71 46.29 46.49 46.50 46.74 47.26 47.51 46.75 48.82 49.20 48.26 47.61 46.84 46.67 43.44 40.26 36.61 36.84 43.30 41.17 38.77 35.07 25.78 22.29 20.79 17.64 29.33 30.60 29.05 31.07 28.73 19.41 28.21 22.99 25.07 25.72 23.72 20.58 25.03 25.03 26.00 30.60 31.26 32.55 34.80 34.66 32.51 29.79 30.36 33.89 34.53 34.88 37.19 38.46
46.58 45.89 46.19 46.38 46.79 47.18 46.97 45.51 48.20 47.41 46.80 46.41 43.46 37.70 32.79 37.72 43.51 42.38 36.84 32.98 31.99 29.67 28.53 23.54 26.43 24.02 28.42 28.27 26.64 25.71 26.32 22.75 16.25 24.27 27.33 24.43 22.95 27.39 27.83 27.92 29.80 31.05 32.54 34.38 33.16 31.31 30.48 29.11 30.65 34.49 36.26 37.43 38.15 38.15
45.79 45.89 45.96 46.36 46.60 46.72 45.18 48.04 47.12 46.62 45.81 39.42 34.82 33.30 39.47 43.36 37.90 33.58 28.49 27.01 24.95 24.08 27.85 26.48 25.79 24.95 29.39 23.36 24.33 26.21 19.03 23.02 20.49 19.56 19.75 14.99 19.28 23.16 27.37 28.65 30.86 33.26 34.30 35.09 36.19 35.87 36.03 34.86 35.09 35.28 36.46 36.46 36.53 36.65
45.59 45.73 46.15 46.32 46.30 45.74 47.24 46.82 46.35 42.04 39.63 38.79 37.65 39.68 38.60 34.35 31.09 28.11 23.70 23.85 23.53 23.44 25.96 24.57 24.49 26.41 28.28 29.97 25.65 27.82 17.24 20.75 13.91 24.99 22.57 16.93 21.89 22.26 28.02 29.71 31.26 32.41 34.36 35.26 36.49 36.41 36.56 36.08 35.52 35.55 35.45 35.18 35.23 35.45
45.87 46.11 46.22 46.33 45.12 45.65 46.82 46.28 45.59 44.34 42.80 40.48 37.14 33.21 32.76 28.86 21.64 22.50 19.15 17.06 19.84 24.64 27.26 27.44 26.12 27.76 28.41 28.29 25.34 23.80 22.61 19.10 27.67 24.23 19.60 20.13 24.14 26.49 25.49 29.52 31.42 34.64 34.65 35.59 36.09 37.05 36.50 36.07 36.04 35.12 34.65 34.83 34.83 34.07
45.91 45.94 46.13 43.77 45.82 46.51 46.37 45.54 44.87 44.84 40.21 34.02 31.56 26.17 27.06 18.89 23.25 23.70 24.93 24.61 25.40 27.49 28.40 28.01 26.71 26.44 28.43 23.99 25.91 14.71 23.37 27.97 22.12 17.48 16.48 20.87 25.36 28.13 27.91 31.88 33.72 32.55 33.48 34.12 34.71 35.08 34.96 34.84 33.76 32.83 32.82 31.96 32.13 29.51
45.54 45.84 44.90 44.79 46.54 46.19 45.26 45.50 45.36 40.50 37.32 31.87 30.84 26.36 24.95 26.38 28.76 26.32 22.68 26.10 26.74 31.62 29.19 27.58 26.43 26.68 23.55 21.19 22.66 23.69 24.34 20.30 20.84 17.95 21.12 22.67 26.36 27.07 27.63 31.21 32.92 32.20 32.11 31.76 32.50 33.37 34.35 33.71 32.48 31.33 28.70 25.94 25.84 26.93
43.76 44.94 41.28 44.13 46.49 45.66 45.96 43.77 40.90 38.09 33.01 29.76 24.89 25.67 28.46 27.65 27.45 22.74 24.92 28.10 31.40 30.88 28.45 27.75 21.88 17.18 17.16 20.16 19.92 18.34 15.09 13.49 18.63 20.58 22.77 25.28 26.37 26.51 27.14 30.23 33.75 33.18 32.33 31.83 31.63 29.03 27.99 25.34 24.24 24.25 24.49 24.52 23.69 24.41
44.04 39.53 45.10 46.47 45.80 45.73 43.89 38.69 37.15 32.19 30.14 25.97 26.84 29.52 27.84 28.05 26.62 26.21 30.21 29.96 31.97 28.04 21.70 20.50 15.94 16.50 20.36 12.66 14.10 19.52 16.44 19.68 20.92 25.30 24.98 26.97 27.22 26.65 26.58 27.55 31.82 33.94 32.74 31.92 31.72 31.35 30.64 30.60 31.52 30.54 27.09 25.48 24.99 24.46
39.71 44.99 45.78 45.60 43.83 39.99 35.75 34.42 31.95 29.98 25.81 27.27 26.21 28.28 29.91 30.64 30.32 30.49 30.57 31.92 29.03 23.96 23.10 18.08 22.77 15.83 15.40 14.46 16.49 21.27 22.67 19.54 22.90 24.71 26.08 27.96 27.46 26.55 27.34 27.54 29.21 32.87 32.64 32.05 31.41 31.00 30.35 30.42 30.34 30.78 31.15 30.40 29.04 28.43
44.24 44.65 45.05 44.78 41.55 35.52 31.89 30.73 30.85 23.05 23.68 28.16 29.46 30.18 31.06 31.43 32.69 32.33 32.58 30.46 28.93 27.98 23.77 18.03 15.08 13.95 20.47 22.60 19.84 14.91 25.46 23.56 30.27 27.37 27.72 27.75 28.20 27.92 27.70 23.70 28.21 31.37 30.73 26.13 26.24 28.43 29.11 29.33 29.88 29.57 29.29 29.19 28.27 28.01
45.46 44.97 44.63 43.50 40.26 32.68 29.07 28.61 31.88 25.39 24.07 26.68 28.97 27.94 29.05 29.35 30.74 30.36 29.13 28.52 26.10 20.22 18.66 15.57 20.21 22.59 24.08 25.10 23.36 24.37 30.24 30.46 27.28 26.81 27.14 27.46 27.51 20.42 24.78 24.15 25.99 25.82 25.34 23.78 22.69 27.41 23.56 23.59 24.16 24.72 24.61 24.53 24.17 24.73
41.00 39.91 39.45 36.17 32.21 30.73 28.25 26.22 24.63 25.78 27.15 25.43 27.16 28.34 27.33 29.75 29.59 29.54 27.27 28.07 24.21 17.36 18.38 22.34 24.26 25.47 24.69 24.26 27.62 28.27 28.12 27.67 27.44 27.90 27.55 22.72 26.75 23.43 20.39 18.78 17.45 23.07 22.96 20.75 20.15 20.57 25.16 22.43 21.89 19.75 14.70 23.27 24.85 25.34
38.06 39.00 34.12 34.92 29.68 28.29 26.13 27.68 25.81 27.53 25.93 25.30 25.76 27.28 26.01 25.68 25.96 25.62 26.62 26.91 21.76 21.46 22.27 24.32 21.96 22.75 22.96 25.08 25.73 22.70 27.18 27.59 26.94 28.28 30.12 29.32 24.38 20.45 20.17 20.86 19.09 18.15 16.79 16.62 16.39 17.11 18.07 18.36 18.49 18.39 18.05 18.49 21.61 19.79
39.04 36.60 32.83 31.84 27.44 26.09 23.29 28.56 24.73 25.85 23.43 21.58 24.04 22.53 21.92 22.19 21.69 23.96 23.35 24.54 22.67 19.18 19.75 20.12 17.43 14.61 18.74 16.96 22.01 22.26 22.57 20.53 22.95 24.37 25.61 25.21 24.31 20.01 18.57 19.37 18.70 13.97 12.79 15.92 15.85 15.95 14.05 21.83 20.12 18.84 16.54 16.82 16.09 16.46
36.29 29.44 27.02 25.53 25.24 20.74 25.70 22.56 25.59 23.74 23.63 22.33 20.63 17.83 18.56 19.13 21.52 18.75 18.80 20.28 18.55 17.10 18.40 16.77 15.09 17.21 16.08 14.77 15.86 16.52 17.49 19.00 18.35 15.86 14.52 17.44 16.73 19.51 22.77 21.83 22.69 18.66 17.47 16.05 14.29 14.15 13.62 14.99 19.77 14.38 12.93 11.92 12.28 13.48
29.31 24.57 25.81 20.80 23.72 22.23 20.07 19.99 20.74 21.71 19.33 19.52 17.40 15.74 16.10 18.15 16.76 15.16 17.06 19.99 14.67 14.30 13.78 12.80 14.88 14.07 14.17 10.29 14.18 14.67 14.09 16.43 17.26 16.66 14.09 13.30 13.11 12.78 13.61 15.48 19.20 18.15 16.00 12.01 15.00 14.99 13.14 10.61 10.85 10.78 11.43 11.46 11.70 13.87
20.96 20.70 22.74 21.90 20.86 22.09 21.34 19.61 19.96 19.32 19.33 17.61 15.33 13.67 15.03 15.72 14.32 15.78 17.80 16.55 14.33 13.80 12.83 16.83 16.02 13.92 15.29 14.26 15.01 14.66 15.87 12.64 14.88 15.34 12.70 10.29 12.40 13.05 9.88 11.87 11.14 12.87 13.51 13.57 10.81 11.83 11.71 10.46 10.17 9.19 11.60 13.27 19.04 14.38
20.18 17.70 19.72 23.17 21.72 21.20 20.13 21.49 22.01 21.35 19.01 16.96 14.05 13.16 15.35 15.04 13.31 17.01 16.34 14.73 14.32 10.76 8.81 13.26 15.65 16.98 18.12 14.53 13.80 13.27 9.51 6.05 8.52 10.06 9.09 7.65 7.22 6.73 8.09 9.04 8.72 12.32 11.62 9.33 9.17 9.95 9.33 9.55 9.17 8.65 9.17 9.40 9.56 10.47
20.90 19.79 17.37 18.36 18.77 19.16 18.92 19.28 19.61 19.69 18.60 17.65 17.50 14.43 15.57 16.13 17.93 16.81 14.17 10.41 8.31 8.82 10.17 8.66 8.62 12.96 14.95 10.13 8.41 11.39 5.48 2.46 5.40 6.17 9.48 8.01 3.45 0.64 1.07 2.73 6.58 18.62 7.37 6.08 6.27 5.25 6.72 7.53 8.10 9.06 8.97 9.58 11.24 8.10
19.63 21.91 23.06 18.35 18.91 19.22 18.43 19.94 19.21 17.89 18.96 18.77 17.55 15.89 15.74 16.33 12.94 11.67 12.58 10.22 6.91 11.93 14.19 13.01 8.10 7.23 7.06 5.52 4.63 1.92 1.05 7.46 9.49 8.09 7.68 6.64 3.95 5.89 -1.22 -1.77 -1.52 -1.18 -1.28 0.66 14.90 16.49 11.63 14.97 16.77 17.87 16.33 11.39 8.84 5.34
20.09 23.41 20.24 18.78 19.23 16.54 13.78 13.19 15.21 15.35 16.55 16.34 16.99 15.18 14.88 13.78 11.09 8.99 9.55 8.41 11.31 10.43 7.93 8.57 8.67 7.06 8.33 9.85 4.99 3.87 -1.82 -3.97 0.26 8.03 6.40 4.31 4.40 0.89 -3.48 -2.40 0.26 0.10 -2.23 -0.49 2.16 2.31 15.23 10.05 8.97 2.81 3.91 3.32 2.32 3.19
21.74 21.17 17.08 15.35 12.39 11.57 11.40 11.42 12.92 14.18 12.82 11.40 10.62 12.92 12.26 10.63 12.25 10.88 8.52 6.45 5.82 6.49 9.09 5.39 -0.26 -4.88 5.58 1.25 2.02 4.04 5.94 -0.19 -4.55 -3.19 -3.64 -2.74 -3.92 -3.68 -1.96 0.48 1.50 -0.36 -0.95 1.15 2.80 3.86 3.84 2.08 -0.04 1.10 2.31 1.09 1.02 5.15
18.74 15.99 16.16 13.21 11.53 11.25 10.69 11.18 11.41 11.14 10.64 11.18 9.82 8.36 9.29 11.29 11.89 11.33 6.07 4.75 3.58 5.28 10.75 7.88 9.82 7.63 0.33 -3.21 -3.34 -1.99 13.60 0.03 -2.28 -2.25 -2.23 -1.64 -0.73 3.35 5.39 5.36 2.41 3.72 4.23 5.57 6.57 2.47 -0.04 -2.00 -1.69 -0.91 1.89 0.09 -0.34 -0.53
13.54 12.71 9.33 12.03 11.15 7.65 9.19 9.75 8.56 8.36 8.08 5.44 4.75 2.07 1.43 7.05 11.44 10.55 4.14 1.30 6.04 8.62 8.64 5.31 -0.66 1.91 1.96 -0.09 -1.13 -0.54 5.52 -4.01 2.61 15.59 17.89 19.50 21.52 20.79 15.75 7.92 6.98 7.31 7.00 5.42 1.76 0.25 -0.91 -3.01 -2.29 -1.36 -0.97 -1.42 -0.80 0.04

GFSWCAN_sfc_wetblb_102.txt.gz
Wetbulb
46.27 46.51 47.01 47.39 47.17 47.37 47.46 47.55 47.97 48.70 48.66 49.28 49.12 48.68 51.52 52.05 52.31 43.67 38.08 40.24 37.46 32.10 32.05 33.46 33.18 28.81 28.46 27.64 25.20 26.30 26.38 26.92 26.31 21.61 18.98 18.15 19.01 22.09 19.58 21.28 21.28 21.55 20.83 22.26 21.21 18.77 14.83 33.25 32.47 27.93 31.41 34.17 34.95 35.61
45.80 46.24 46.95 47.48 46.97 47.16 47.34 47.36 47.73 48.83 48.65 49.19 49.06 48.55 49.84 52.43 52.15 44.70 36.84 40.34 40.70 34.91 32.67 35.50 34.37 34.30 33.55 31.72 28.49 26.81 24.87 25.73 27.72 22.95 18.65 18.39 20.55 13.76 17.75 15.45 23.67 21.56 24.59 22.45 23.53 23.17 30.70 36.17 31.79 33.69 34.96 34.63 34.85 35.40
46.64 46.30 46.93 47.68 47.36 47.17 47.12 47.35 47.58 48.46 48.60 49.18 48.61 48.59 50.19 52.73 49.89 44.51 38.13 39.14 38.40 33.95 32.49 32.54 31.34 34.51 35.25 33.65 34.59 27.90 27.21 29.77 28.52 25.49 21.65 21.82 20.12 21.74 15.93 16.68 17.31 21.56 26.77 26.71 27.22 27.77 28.48 30.95 34.29 35.08 32.70 33.41 36.27 37.76
46.76 47.18 47.44 47.58 47.23 47.24 47.08 47.17 47.26 48.04 48.69 48.52 48.57 49.01 52.31 52.15 49.79 44.78 39.64 40.22 38.24 35.04 28.71 28.88 35.45 32.27 34.93 34.14 34.15 33.27 31.42 31.25 29.44 26.81 21.09 20.07 22.35 24.34 20.12 21.41 21.02 23.26 24.69 23.80 23.37 25.08 28.11 30.28 28.90 29.73 32.07 32.97 33.82 36.46
46.79 47.07 47.38 47.53 47.54 47.53 47.26 47.60 47.54 48.15 48.69 48.67 48.60 48.74 52.33 51.04 48.76 44.04 41.96 41.10 40.27 36.62 27.88 27.59 31.09 32.84 33.63 33.72 33.31 33.10 31.42 28.46 26.10 23.46 21.53 21.00 24.93 23.29 21.81 21.86 19.67 23.49 23.60 22.31 21.38 25.27 25.40 26.65 28.80 32.35 32.15 32.35 32.67 34.14
47.02 46.96 47.19 47.27 47.30 47.25 47.40 47.46 47.67 48.24 48.30 48.60 48.14 48.21 51.80 50.40 48.00 41.71 36.89 39.28 39.88 37.29 31.01 24.81 30.51 31.47 32.21 32.85 32.64 31.93 31.15 28.48 26.84 25.34 24.14 25.12 27.08 23.21 18.56 17.72 24.05 25.04 25.73 26.53 25.67 27.49 29.63 30.76 31.78 31.88 30.73 32.22 32.77 32.25
46.53 46.61 46.79 46.77 46.92 46.99 47.36 47.37 47.54 48.16 48.29 48.44 48.41 48.46 51.20 50.08 45.85 39.12 35.63 38.82 41.16 38.71 30.32 25.08 26.80 31.64 31.02 30.81 30.75 30.13 30.19 28.18 27.14 25.02 24.01 24.33 24.89 21.66 17.64 18.81 24.57 25.80 28.64 29.06 32.63 31.25 28.09 29.13 28.78 31.31 31.97 33.12 34.49 35.04
46.67 46.87 46.98 46.96 46.93 47.10 47.28 47.23 47.40 48.07 48.19 48.02 47.13 49.43 48.33 47.00 44.08 39.10 39.72 43.12 40.82 34.20 32.62 24.14 23.74 28.54 30.77 27.78 26.43 30.55 26.68 26.28 26.13 25.63 25.75 24.61 25.92 24.47 20.73 23.82 24.27 26.84 30.08 30.23 33.41 34.67 34.09 33.32 30.19 30.95 33.95 35.24 34.23 36.62
47.04 47.20 47.30 47.27 46.88 47.19 47.33 47.20 47.60 47.78 47.39 47.81 48.74 47.26 44.16 40.77 37.68 37.64 42.61 41.15 38.90 35.85 28.16 23.89 23.14 19.94 29.65 29.12 28.58 28.46 27.00 19.85 27.97 22.88 24.62 25.44 23.27 20.87 24.63 24.39 24.96 26.88 29.54 30.34 33.95 34.45 33.33 31.66 29.22 31.24 34.60 36.65 36.82 37.47
46.95 47.11 47.09 47.28 46.57 46.88 46.96 47.37 47.80 45.82 48.34 46.79 44.44 38.03 33.92 38.50 43.93 43.04 37.44 34.24 33.35 32.18 29.50 25.69 27.50 24.17 28.36 26.84 24.34 24.42 26.32 21.31 16.06 23.77 26.61 24.05 22.43 26.62 26.71 26.68 27.09 29.87 31.06 32.39 32.85 31.40 31.52 31.64 30.59 34.00 35.63 36.90 36.65 36.72
47.75 47.24 46.96 46.39 46.36 46.46 46.72 47.33 46.46 47.55 46.83 39.78 34.53 33.31 39.29 43.75 38.76 33.93 29.70 29.43 27.98 26.06 27.89 26.28 25.56 25.40 28.36 22.39 22.54 25.88 20.66 22.68 9.70 18.44 18.21 13.73 17.65 22.27 26.25 26.67 28.76 30.73 31.84 33.80 35.05 35.96 35.50 35.33 34.76 35.04 35.46 36.00 35.91 35.90
46.78 46.45 46.18 46.18 46.23 46.30 44.38 46.74 47.33 42.70 40.01 38.54 38.66 40.35 39.18 35.95 32.08 29.07 26.62 25.40 24.02 23.12 25.00 23.79 24.04 25.51 27.60 29.33 25.69 27.30 17.58 17.99 11.15 23.15 22.37 17.21 20.40 21.03 25.73 28.04 29.50 29.90 31.26 33.09 34.69 36.13 36.55 36.40 35.78 35.31 35.44 34.66 34.63 35.36
46.01 45.97 46.01 46.14 45.76 43.41 47.73 47.27 45.43 44.13 43.42 41.06 36.71 32.76 32.92 28.43 19.71 19.77 16.55 16.60 17.21 24.86 26.67 27.06 25.55 27.20 27.83 27.23 24.88 23.08 17.41 19.10 24.79 23.43 20.06 18.50 22.89 24.35 23.36 28.28 29.56 32.65 32.60 34.68 35.27 37.03 36.67 36.11 36.15 35.09 34.44 34.76 34.76 33.76
45.76 45.88 45.97 45.34 43.38 44.28 47.53 45.72 45.01 44.76 40.02 34.00 30.57 26.07 26.10 20.78 21.87 22.66 23.52 24.47 27.61 28.31 27.97 27.34 26.28 25.74 27.71 22.91 23.93 15.97 22.70 25.56 20.78 16.01 15.70 19.39 24.06 26.07 26.32 29.87 31.18 31.70 33.38 34.14 34.82 35.22 35.09 34.98 33.88 32.84 32.33 30.45 30.86 28.99
45.92 45.72 44.65 43.51 45.62 46.94 45.95 45.57 45.20 40.68 36.97 31.63 30.03 22.35 23.76 25.71 27.94 23.82 24.79 28.53 28.70 31.01 28.62 26.53 25.47 26.28 22.43 20.23 22.88 22.82 22.93 20.54 19.71 16.82 20.39 21.39 24.93 26.70 27.19 32.39 32.40 32.51 32.58 32.36 32.83 33.47 34.43 33.60 32.02 29.85 28.41 25.05 23.67 24.09
45.26 43.73 41.57 45.71 46.94 46.09 45.49 44.03 40.86 38.20 32.87 28.02 23.79 24.66 28.36 26.42 26.23 20.11 26.10 28.16 31.00 30.23 28.16 27.13 21.34 17.15 17.57 21.86 22.35 16.10 15.15 13.50 18.16 19.96 21.80 22.58 25.20 26.37 27.04 32.22 31.67 32.28 32.43 32.11 31.68 30.52 28.25 25.00 23.64 24.82 25.83 23.73 23.43 23.27
42.43 37.69 45.69 46.38 46.09 45.61 43.52 38.91 36.88 31.68 29.50 26.41 26.65 29.59 25.77 25.85 27.55 27.46 29.46 29.01 32.85 27.83 21.47 21.00 16.21 17.30 21.04 14.04 15.01 19.54 15.95 19.25 20.25 19.86 26.15 25.95 27.59 26.59 26.68 27.86 33.07 31.39 31.79 32.11 31.94 31.49 30.96 30.26 30.38 30.98 30.12 28.90 26.72 27.22
38.09 41.95 43.63 45.70 43.35 39.95 35.46 34.23 31.91 29.71 25.35 26.93 25.73 28.21 30.03 30.71 29.92 29.56 28.71 31.23 28.03 23.89 23.28 18.74 22.65 14.67 15.93 14.52 16.50 21.11 19.67 18.88 22.21 24.59 25.67 26.96 26.54 26.00 27.55 27.76 31.35 33.02 32.47 31.84 31.44 30.87 30.47 29.92 30.19 30.62 30.66 30.57 30.25 29.94
43.07 43.40 45.36 44.25 41.10 35.57 31.71 30.51 31.16 24.01 23.79 27.66 29.16 30.26 31.37 31.84 31.73 31.87 31.81 29.65 28.63 28.46 24.77 20.71 17.55 14.03 19.59 21.35 19.90 14.34 26.10 26.04 29.92 27.15 26.96 26.60 26.97 26.86 27.29 24.04 27.91 32.09 31.98 28.11 28.76 29.34 29.29 29.11 28.75 29.07 28.27 27.34 26.53 27.50
46.06 44.90 44.50 43.23 39.83 32.37 28.58 28.10 31.64 26.20 23.63 26.74 29.28 28.37 29.38 29.50 30.27 29.59 28.97 28.44 27.45 24.14 21.39 18.29 20.57 22.20 23.43 24.54 22.75 23.50 25.40 26.83 27.56 26.55 26.61 26.66 26.26 19.76 24.20 24.36 28.00 29.94 29.12 27.07 25.57 27.48 25.33 23.26 22.97 23.40 23.54 23.75 22.91 23.59
41.17 40.60 39.33 36.31 32.22 30.78 28.00 26.18 25.12 26.05 27.04 25.47 27.35 28.85 27.81 30.13 30.11 27.44 25.81 27.82 25.70 18.67 20.08 21.77 23.93 24.87 23.22 23.36 26.96 28.13 28.06 27.50 27.13 27.87 27.89 22.75 26.55 22.82 19.40 18.60 17.34 23.78 22.88 22.20 20.49 20.11 24.78 21.87 20.92 18.37 13.49 21.94 23.17 23.57
38.25 39.57 34.65 35.21 29.69 28.35 26.36 27.30 24.14 27.34 25.76 25.23 26.01 27.51 26.73 26.07 26.45 26.86 25.18 22.33 20.54 23.33 23.43 25.04 22.42 22.44 22.29 24.76 25.39 21.69 26.67 26.83 26.64 28.32 30.33 29.39 24.54 21.50 24.93 22.62 22.95 18.69 19.31 18.26 16.63 16.63 16.96 17.05 17.19 17.17 16.72 17.54 20.76 18.24
39.22 36.70 32.94 31.85 27.34 26.22 23.03 28.40 24.02 26.00 24.25 22.00 24.77 23.42 22.42 22.70 21.42 24.34 20.86 21.26 23.60 22.63 22.16 21.20 18.00 14.90 19.01 16.69 22.20 22.47 22.82 21.66 23.62 24.74 25.96 24.61 23.32 19.21 17.43 18.94 18.70 16.11 14.99 16.98 15.40 15.07 13.26 21.09 18.99 17.31 14.85 15.10 14.26 14.55
36.24 29.94 27.55 25.75 25.31 20.26 25.31 22.59 25.71 24.00 23.99 22.71 20.79 18.15 19.43 20.64 22.63 20.96 19.15 21.43 23.41 19.11 19.98 18.14 18.70 18.64 17.30 15.77 15.87 16.17 16.88 18.04 17.65 14.58 13.30 17.97 17.16 19.31 22.18 21.71 22.35 19.98 18.23 15.35 13.40 13.61 12.71 14.19 18.90 13.40 11.52 10.44 10.17 10.52
30.47 24.89 25.95 21.09 24.08 21.57 20.30 20.09 21.45 21.96 19.27 20.07 18.34 17.02 17.73 19.74 19.84 16.41 18.90 23.50 16.86 14.44 16.56 15.99 16.47 17.56 19.69 12.06 13.47 13.74 12.65 15.44 16.83 16.21 13.05 12.57 12.21 12.14 13.01 15.14 18.30 17.02 15.34 11.82 14.41 14.08 11.66 9.55 9.60 9.43 9.68 9.36 9.18 10.73
21.42 20.73 22.83 22.05 20.33 20.82 20.38 18.82 19.40 19.74 19.84 18.33 16.48 15.41 16.82 17.96 17.93 18.30 20.35 19.89 15.90 16.90 15.72 20.51 19.18 16.47 16.27 15.52 15.64 13.27 14.71 11.61 15.19 17.15 12.52 10.14 12.19 12.80 10.42 12.90 11.45 12.59 12.77 12.15 10.07 11.00 10.43 9.04 8.44 6.22 8.67 10.48 16.86 10.86
19.56 16.07 19.90 23.60 22.57 21.71 20.51 21.78 22.85 22.23 19.98 17.62 15.53 14.33 16.96 18.02 17.92 19.59 19.11 18.17 17.33 15.91 15.15 16.78 18.29 21.17 19.72 14.98 13.89 12.18 9.59 6.95 10.52 12.50 9.56 7.18 5.85 5.31 8.14 9.53 8.71 11.80 10.21 7.92 8.30 9.11 8.59 8.16 6.95 6.01 6.25 6.37 5.36 6.99
20.57 19.56 17.70 18.67 19.65 20.39 19.90 20.23 20.88 21.73 20.50 19.37 19.29 16.87 18.18 19.38 19.78 18.29 16.89 13.65 10.72 10.55 11.66 10.72 11.13 16.40 16.31 12.46 13.07 11.41 7.73 5.31 7.73 6.63 8.73 8.19 4.22 0.66 0.67 2.86 7.12 18.20 5.10 4.75 4.71 4.07 5.61 5.66 5.41 7.55 8.03 8.78 9.78 5.13
18.01 21.36 22.79 18.80 19.68 19.73 19.04 20.41 20.40 18.70 19.71 19.84 20.57 18.24 17.28 16.64 14.40 14.25 14.17 13.00 11.84 14.51 15.59 13.44 8.23 9.00 8.97 7.19 5.63 4.35 10.01 9.72 9.65 7.77 7.76 6.80 4.17 5.68 -2.06 -2.23 -1.69 -1.81 -2.25 0.49 15.22 15.84 9.70 13.93 15.66 17.82 12.32 9.03 7.90 3.64
18.99 23.33 20.30 19.56 19.72 17.31 14.40 14.24 15.73 16.17 17.12 17.36 17.91 15.82 15.82 15.22 13.04 11.64 12.38 12.29 13.64 13.88 10.38 12.23 9.73 11.11 12.46 12.63 7.69 5.38 0.48 -2.82 0.37 8.16 7.59 5.29 5.43 1.05 -3.96 -2.45 -1.20 -2.50 -3.24 -0.97 0.21 0.75 15.28 8.85 7.59 1.34 1.81 2.30 2.22 3.16
22.76 21.46 17.29 15.76 12.90 12.42 12.47 12.90 14.89 16.06 15.51 14.94 14.41 16.43 15.12 13.61 13.92 12.10 11.44 10.09 9.34 9.32 11.41 8.58 4.46 2.77 10.19 8.54 5.66 6.74 5.97 0.16 -5.58 -3.87 0.12 -1.65 -3.89 -2.90 -2.22 -2.04 -1.85 -1.66 -0.51 0.45 1.02 1.74 1.40 -0.12 -2.11 -2.42 -0.07 -1.79 -1.33 2.48
18.93 16.97 16.70 13.81 12.38 12.49 13.38 14.56 13.94 13.85 13.30 13.88 12.08 11.63 12.05 13.90 14.46 14.08 9.68 8.93 9.67 10.43 12.97 11.40 11.20 8.99 1.01 -3.01 -2.50 1.47 15.19 5.02 -0.05 -2.42 -2.01 -1.41 -0.63 0.62 0.86 1.25 -0.30 0.55 2.84 2.86 2.06 0.01 -2.01 -3.24 -3.37 -2.91 -1.12 -3.31 -2.72 -1.86
13.96 13.21 11.81 12.66 12.46 11.75 11.86 13.89 11.48 11.40 11.74 11.60 10.53 7.57 8.34 10.86 13.97 13.76 6.04 4.29 7.30 9.15 10.02 5.79 -0.12 5.46 3.26 2.58 2.64 5.77 6.61 -2.64 1.08 15.14 17.53 19.09 20.91 18.90 13.71 9.12 3.83 4.47 3.57 2.64 1.35 -0.94 -3.09 -5.96 -5.88 -6.85 -6.05 -4.89 -2.31 -0.22

GFSWCAN_sfc_wetblb_105.txt.gz
Wetbulb
50.29 49.07 47.73 46.71 46.76 47.10 47.67 47.74 47.74 47.80 47.75 48.31 48.81 48.97 49.56 50.58 50.34 45.34 39.38 40.39 37.10 30.56 30.73 32.44 32.28 27.85 28.87 27.99 25.11 26.03 26.37 26.54 25.88 22.25 19.04 18.22 18.80 21.80 19.52 20.49 20.35 19.68 16.97 17.74 21.22 18.52 14.47 32.69 31.94 28.25 31.33 34.71 35.38 35.92
49.42 48.13 47.12 46.68 46.62 46.80 46.93 47.52 47.71 48.17 47.83 47.92 48.65 49.15 49.14 50.09 48.89 44.74 37.96 40.10 40.16 34.07 31.06 34.46 33.31 33.59 32.72 31.26 28.11 26.42 24.62 25.46 27.61 22.92 18.69 18.52 20.51 13.58 17.70 15.27 22.65 20.62 23.69 21.84 23.05 22.89 29.09 34.52 32.94 34.24 35.16 34.95 35.11 35.34
48.15 46.99 46.44 46.52 46.72 46.78 47.02 47.35 47.62 47.81 47.65 47.81 48.53 48.41 49.08 49.88 51.38 44.50 38.82 39.01 37.52 33.15 30.62 30.93 30.49 33.90 35.18 33.43 33.67 27.90 26.85 28.82 28.06 24.94 21.28 21.77 19.80 21.53 15.80 16.90 17.93 22.20 26.83 26.67 27.11 27.40 29.81 30.58 34.57 35.79 31.86 31.67 32.97 34.92
46.70 45.96 46.13 46.39 46.86 46.96 47.15 47.21 47.36 47.53 47.36 47.77 48.56 48.40 49.08 49.40 52.51 44.91 39.18 40.06 37.77 34.45 28.32 29.10 35.33 32.08 34.95 34.20 33.96 32.37 30.65 29.98 28.45 26.22 20.32 20.28 21.76 24.01 19.88 20.84 20.91 23.25 25.92 24.68 24.15 25.86 26.85 30.59 30.38 30.18 31.52 32.86 32.82 33.40
46.06 45.95 46.16 46.47 47.15 47.44 47.06 47.23 47.55 47.78 47.51 47.71 48.44 49.11 48.74 49.81 49.38 44.31 42.13 40.71 40.48 36.81 28.46 28.71 31.50 33.34 33.43 33.68 32.80 32.11 30.66 27.92 25.86 23.14 21.27 20.66 24.42 23.00 21.06 21.32 19.37 23.15 23.81 23.10 22.48 25.59 25.79 27.00 28.67 32.14 31.59 31.60 32.15 31.77
46.12 46.82 47.14 47.35 47.52 47.76 47.57 47.59 47.93 47.95 47.97 48.13 48.66 49.05 48.25 49.96 46.77 42.13 36.93 39.53 39.64 37.85 30.71 25.78 30.50 30.68 32.02 31.87 31.48 30.72 29.79 27.93 26.66 25.09 23.73 24.30 26.28 22.65 18.45 17.73 23.94 24.22 25.49 26.41 25.12 26.31 28.48 30.12 31.21 31.48 30.68 31.58 32.24 32.19
46.79 46.98 47.14 47.31 47.36 47.37 47.38 47.05 47.72 47.90 47.83 48.05 48.59 48.82 48.38 49.51 44.65 38.75 36.26 38.64 40.79 38.36 30.86 25.47 26.42 30.16 30.22 30.34 29.64 29.15 28.89 27.64 26.96 24.77 23.69 23.65 24.21 21.16 17.11 18.32 24.51 25.07 26.11 28.79 30.88 30.77 27.58 29.21 27.95 30.32 30.88 31.98 34.13 34.04
46.74 46.76 46.88 47.01 47.20 47.38 47.45 47.19 47.52 47.71 47.87 48.26 48.66 48.42 47.60 48.79 44.50 39.53 39.78 43.08 39.84 34.38 32.91 23.51 24.87 26.33 30.54 27.39 25.76 29.02 26.02 25.78 25.96 25.73 25.14 24.11 25.23 23.65 20.33 23.41 23.14 25.43 28.49 29.66 31.13 33.60 32.02 30.94 29.01 30.79 32.34 34.70 36.15 36.41
46.17 46.51 46.83 47.04 47.30 47.56 47.49 47.19 47.42 47.56 47.69 48.27 47.71 46.37 46.91 42.41 38.41 39.45 43.32 41.31 38.52 35.69 26.39 24.42 23.18 22.76 30.47 27.80 28.32 27.04 26.41 19.89 27.62 22.91 24.45 25.04 22.69 20.38 24.39 23.89 24.09 26.37 28.83 29.57 31.74 33.55 32.95 31.58 29.55 30.39 33.80 36.58 36.43 36.90
46.36 46.73 47.08 47.32 47.46 47.48 47.48 47.27 47.35 47.44 47.57 47.30 45.65 39.04 33.54 38.78 44.52 43.59 38.75 35.08 33.76 32.23 28.54 24.56 27.15 24.57 28.11 26.43 24.97 23.25 26.28 20.80 15.29 23.38 26.00 23.46 21.82 25.92 25.87 26.13 26.30 26.84 29.87 31.66 30.65 29.16 31.19 31.16 31.87 33.73 35.40 36.66 36.38 36.15
46.89 46.96 47.22 47.20 47.08 47.31 47.26 47.13 47.35 47.24 46.61 42.24 33.99 32.92 39.58 44.43 39.02 34.94 31.13 30.52 30.25 27.29 27.22 26.08 25.30 25.23 29.02 22.90 21.98 25.19 21.29 20.91 8.87 17.75 17.87 13.47 16.81 21.34 24.90 25.83 27.21 29.59 30.94 31.56 32.04 34.25 35.15 34.96 33.60 33.56 35.25 36.00 35.78 35.65
47.12 47.45 47.77 47.80 47.13 47.15 46.98 47.06 47.09 44.35 41.75 38.60 38.30 40.88 39.62 36.12 32.26 29.70 28.27 25.40 25.46 25.26 24.79 23.87 24.44 26.45 27.75 28.71 24.55 25.35 17.01 17.38 11.46 22.52 21.27 16.38 19.84 19.93 23.26 25.55 27.62 29.11 30.19 31.31 33.97 35.06 35.21 36.41 36.02 35.42 35.49 35.07 34.79 35.14
46.73 47.07 47.30 47.26 47.18 47.00 46.85 46.84 46.54 45.48 43.60 41.70 37.21 33.06 33.53 30.58 25.36 23.75 19.15 17.85 17.37 23.91 25.24 26.37 26.15 27.91 26.92 25.88 24.68 21.59 15.31 16.71 24.31 21.64 19.34 18.77 21.43 23.12 21.39 26.97 27.77 30.01 31.82 32.51 34.41 35.34 36.18 36.31 36.42 35.53 34.84 35.13 34.84 33.38
46.01 46.22 46.45 46.36 46.38 46.46 46.43 46.47 45.60 44.72 40.74 34.48 31.12 26.85 27.55 23.49 24.85 22.46 23.10 22.65 25.35 27.55 28.17 29.07 26.83 25.29 27.27 22.61 23.60 15.60 22.15 24.90 20.08 15.44 15.23 18.53 22.87 24.52 25.44 28.75 32.37 29.64 32.33 33.52 33.78 34.63 34.97 35.58 34.87 33.70 31.31 30.86 28.61 25.76
45.83 45.78 45.66 45.49 45.88 45.93 46.16 45.87 46.18 42.45 37.45 30.05 30.11 24.68 25.20 25.06 25.59 20.57 21.60 27.16 29.28 31.48 29.81 27.42 25.79 25.55 20.55 19.99 22.64 24.10 21.29 18.38 18.97 16.36 19.99 20.30 23.74 26.39 26.44 31.11 29.32 31.68 32.54 32.79 34.11 34.26 34.30 33.86 31.00 28.81 25.72 23.96 23.28 22.98
44.91 44.35 42.93 45.85 46.03 46.21 45.80 45.17 41.12 38.31 32.47 27.42 24.90 24.42 27.79 25.74 25.00 21.99 25.80 27.95 31.95 31.23 28.23 27.83 21.70 17.56 17.26 20.96 20.95 16.11 14.84 13.53 18.36 20.06 21.18 20.93 24.99 26.97 27.69 33.13 30.96 31.92 32.68 32.59 31.71 29.23 27.35 24.42 23.10 24.44 26.81 26.41 23.52 22.82
42.51 38.75 45.17 46.07 46.02 44.81 43.23 38.73 36.84 31.81 29.99 26.27 26.12 29.02 25.51 24.93 24.97 26.10 29.94 29.89 33.68 30.15 23.88 21.75 17.63 17.73 20.97 14.98 14.41 19.96 16.56 19.66 20.02 19.39 21.67 24.71 27.14 26.92 29.03 32.27 29.75 29.98 30.78 32.59 32.19 30.44 29.95 30.02 26.65 28.89 29.69 30.79 30.68 29.92
38.21 42.33 46.09 45.72 42.82 39.77 35.51 34.13 31.83 29.65 25.37 25.10 27.33 28.10 30.55 29.64 28.61 29.26 29.33 32.39 30.12 25.30 24.74 20.72 23.04 17.73 17.31 16.04 16.89 21.61 20.24 21.17 21.32 27.25 24.14 25.99 26.09 25.90 28.82 30.02 32.40 31.78 26.81 31.46 32.37 30.94 30.20 29.82 29.17 28.82 26.75 28.83 26.57 24.80
41.71 44.29 44.51 44.33 40.81 35.20 31.58 30.19 31.24 23.34 24.01 28.05 29.55 30.68 31.67 30.95 30.99 30.42 30.94 28.38 27.71 27.78 24.24 18.72 16.38 16.96 20.52 21.76 19.72 15.80 25.04 29.54 28.36 26.49 25.81 25.52 26.04 26.89 27.45 27.53 31.70 32.47 32.42 31.36 29.29 29.19 29.32 29.64 28.97 27.90 26.09 25.29 23.70 22.64
45.41 44.71 44.13 42.55 39.54 32.44 28.53 27.99 31.65 25.19 24.33 26.95 28.97 28.47 29.44 29.16 29.33 29.92 28.59 27.96 27.32 22.98 20.58 18.01 21.62 23.45 23.59 24.32 23.11 23.52 29.31 27.71 28.87 26.61 26.15 25.50 25.03 21.06 24.29 25.52 30.62 30.96 30.45 28.98 27.31 28.54 26.30 24.28 22.43 22.70 22.77 23.03 21.97 22.20
42.17 40.80 40.16 36.29 32.24 30.71 27.89 26.45 25.56 26.59 26.93 25.59 27.48 29.07 27.84 30.44 29.51 28.83 28.24 28.98 27.50 19.96 21.51 23.35 24.42 24.89 23.27 23.87 27.29 27.89 27.49 28.23 27.58 28.14 27.17 25.36 25.54 22.37 19.22 17.43 25.27 27.37 26.70 23.26 20.97 20.66 25.28 20.86 20.60 18.08 15.71 21.24 22.05 21.87
39.19 41.03 34.93 35.15 29.47 28.37 26.00 25.94 23.42 26.53 24.80 25.35 26.32 28.11 27.25 26.55 27.52 27.99 26.88 27.23 23.36 26.54 25.57 26.07 24.53 23.49 23.72 25.50 25.76 22.51 26.88 26.83 26.72 28.67 30.95 30.23 26.26 25.95 25.71 23.49 23.46 23.70 20.42 18.57 17.71 18.15 16.95 16.57 16.50 16.11 15.81 16.00 18.79 16.34
39.43 36.74 32.85 31.76 27.24 25.77 22.69 27.62 22.26 25.86 24.67 22.75 25.12 23.78 22.63 22.41 23.16 25.82 28.12 26.78 26.54 26.04 25.47 24.16 20.65 18.78 22.44 19.03 23.75 23.99 24.01 23.92 24.85 24.99 25.30 23.53 22.21 18.76 17.72 22.37 23.76 19.75 14.89 16.89 16.10 15.81 13.06 20.64 19.33 15.83 13.57 13.82 12.88 12.71
36.44 30.29 28.15 26.22 25.35 19.03 25.83 22.66 25.16 23.24 24.28 22.97 20.95 17.81 19.52 21.42 23.91 23.97 21.80 24.41 26.48 22.98 22.84 21.10 22.84 21.18 20.91 20.61 19.66 18.05 18.02 19.44 18.57 15.20 13.29 20.42 18.08 18.85 21.61 21.37 20.94 17.99 20.42 20.35 19.07 13.72 12.28 13.16 18.07 12.32 10.58 9.84 9.11 9.34
30.62 25.07 26.13 21.10 22.32 21.80 18.21 19.11 20.27 21.37 18.89 20.41 18.55 16.40 18.15 21.06 21.12 18.54 20.34 24.53 21.07 21.15 21.92 21.16 22.63 23.45 24.85 18.95 15.51 15.47 13.72 16.41 19.30 17.28 12.18 11.45 12.34 11.62 13.64 15.38 16.74 15.25 14.19 11.60 13.77 13.21 10.62 8.96 8.94 8.70 8.63 8.08 7.53 7.94
20.96 17.94 20.65 21.74 20.28 19.65 19.54 17.53 17.99 18.86 19.54 17.92 16.42 16.33 18.15 19.73 18.65 18.95 21.26 22.63 19.14 19.16 20.89 22.81 22.63 21.07 19.45 18.25 17.90 15.25 15.88 11.49 15.69 16.58 11.37 11.37 12.80 15.11 10.69 12.08 10.37 11.52 11.48 11.28 10.49 10.58 9.36 7.85 7.26 4.76 6.54 8.34 15.38 7.58
19.09 16.54 20.27 23.94 22.23 21.65 19.97 21.00 22.64 22.56 20.36 17.99 16.09 15.54 18.28 19.46 20.05 20.48 18.52 18.39 19.54 17.94 19.05 22.27 22.54 24.38 21.04 15.04 13.58 11.54 9.01 7.08 10.75 12.92 10.62 8.74 6.03 5.20 8.87 10.37 9.59 11.39 9.47 7.70 8.38 8.68 7.80 7.27 6.21 5.04 4.42 3.95 3.62 4.91
20.23 20.23 18.74 19.40 19.93 20.07 19.66 19.72 20.51 22.33 21.23 20.43 20.40 18.21 20.43 22.35 19.95 14.83 13.38 13.07 13.36 13.12 13.85 13.01 14.96 19.56 17.83 15.09 13.22 11.41 9.05 9.11 8.65 9.60 10.65 9.17 4.00 1.00 1.36 6.15 9.41 17.62 4.59 4.22 4.49 3.19 5.30 5.17 5.00 5.95 5.77 6.62 7.11 3.80
18.94 21.77 23.59 19.11 19.56 19.47 18.65 20.84 20.79 19.30 20.58 21.85 22.39 20.12 19.89 16.39 11.99 10.96 12.73 13.51 12.85 14.92 16.53 14.38 10.66 12.47 11.05 9.05 7.89 10.56 11.66 12.87 13.16 9.79 8.45 6.72 4.05 5.64 -2.91 -2.68 -1.94 -2.39 -2.53 1.03 15.97 13.98 10.33 12.74 14.38 14.05 5.99 3.55 2.43 -0.29
20.59 23.67 20.91 19.98 19.98 17.04 13.57 14.15 15.63 16.47 17.46 18.47 18.86 16.85 16.02 14.46 12.22 11.61 12.70 12.52 14.49 16.13 16.16 16.57 13.81 16.70 14.48 14.22 10.15 7.25 2.45 0.70 2.04 10.62 10.10 6.98 8.11 2.30 -3.81 -2.05 -0.95 -2.98 -4.03 -1.28 0.20 0.14 15.33 6.16 6.00 -0.37 -0.95 -0.75 -1.00 -0.13
22.32 20.44 16.44 15.15 12.23 12.29 12.63 13.92 16.01 17.14 16.44 15.32 15.00 16.08 14.08 11.65 12.83 11.81 11.70 12.48 13.28 13.77 14.50 13.03 11.78 13.82 15.92 14.86 13.92 11.94 9.52 4.32 -3.75 -2.79 4.05 6.07 3.35 1.31 -0.71 -2.42 -2.48 -2.91 -2.31 -1.01 -0.70 -0.28 -0.88 -1.62 -3.92 -5.36 -4.29 -5.07 -3.70 0.48
18.26 17.05 16.46 13.38 12.00 13.02 14.17 15.74 15.53 15.29 14.66 15.21 13.46 13.48 12.09 13.66 13.69 13.04 10.81 11.55 13.09 14.48 17.70 15.96 15.63 12.98 7.91 6.07 6.77 6.78 18.43 7.97 3.22 4.12 6.67 5.17 2.05 0.42 -0.10 -1.12 -2.85 -0.25 0.31 0.49 -0.66 -1.82 -3.98 -5.54 -5.65 -6.21 -5.05 -7.37 -4.61 -2.96
15.44 15.02 14.09 14.00 12.98 13.17 14.11 15.78 13.55 13.49 13.92 13.31 11.52 9.64 9.63 12.06 15.20 14.65 8.34 8.92 13.43 15.88 16.12 12.72 9.41 9.02 7.74 7.02 8.19 11.51 10.45 6.00 9.49 16.52 18.48 18.63 19.27 14.53 5.34 3.20 2.91 3.37 2.20 1.15 -1.82 -3.52 -5.45 -7.50 -7.79 -9.22 -8.49 -7.17 -3.92 -2.00

GFSWCAN_sfc_wetblb_108.txt.gz
Wetbulb
53.39 53.40 52.27 51.18 49.73 48.34 47.39 47.41 47.57 47.71 48.02 48.15 48.08 48.94 49.70 50.06 51.33 48.00 42.09 43.35 40.81 36.11 34.66 34.57 34.50 33.05 33.46 34.07 32.18 31.90 31.86 31.60 32.08 29.90 30.18 30.25 28.87 29.77 27.60 28.55 26.88 26.54 24.97 25.10 24.88 22.98 22.67 35.61 36.24 32.22 36.03 38.25 38.25 38.67
53.04 52.90 51.87 50.54 49.31 47.93 47.29 47.40 47.39 47.65 47.87 48.02 47.96 48.55 49.46 49.41 49.66 46.40 40.47 42.53 43.24 38.58 34.95 36.80 36.17 36.41 35.35 34.80 34.23 32.45 31.35 32.59 35.45 32.36 30.15 30.66 28.89 27.15 28.35 27.46 30.28 26.70 30.63 30.47 30.13 31.33 34.88 39.13 37.92 38.94 39.22 38.27 37.21 36.56
52.47 52.22 51.13 50.29 48.62 47.36 47.21 47.07 47.27 47.61 47.79 47.87 47.90 48.42 48.79 48.79 49.98 45.38 41.79 42.22 41.75 37.12 35.58 35.18 33.91 36.70 38.02 36.88 37.54 34.93 33.79 34.81 33.65 34.23 33.28 32.62 29.23 31.40 27.84 28.26 29.32 30.92 32.91 31.69 31.33 34.68 34.78 36.87 38.76 39.81 37.32 35.69 36.03 36.89
51.74 51.08 50.54 49.42 47.75 46.94 47.16 47.08 47.23 47.58 47.77 47.92 47.93 48.36 49.18 48.89 49.13 45.12 42.33 42.74 42.01 38.33 33.61 32.38 37.70 35.31 37.98 37.51 36.90 36.54 35.50 34.84 34.45 34.98 33.66 32.67 30.12 31.06 30.43 28.63 29.33 32.69 32.52 32.63 32.51 34.22 33.53 35.33 37.00 37.14 35.10 36.10 36.06 36.91
50.60 50.21 49.38 48.07 46.90 46.78 46.99 47.15 47.78 47.66 47.75 47.90 48.10 48.50 49.50 49.20 49.52 45.26 43.73 43.45 43.83 40.81 33.85 31.99 34.54 36.18 36.86 36.74 35.55 36.31 35.92 34.90 34.75 32.96 32.74 31.75 31.65 29.81 29.26 28.57 28.17 31.37 32.86 31.62 32.47 34.71 34.35 34.74 35.47 35.35 34.53 34.63 35.54 35.27
49.81 49.09 47.82 46.98 47.03 47.05 47.27 47.67 47.84 47.84 48.14 48.25 48.31 48.50 48.90 47.58 49.49 44.10 38.28 43.67 43.50 42.22 35.43 30.18 34.28 33.99 35.37 35.75 35.31 34.56 34.60 33.79 34.21 34.01 32.50 31.67 31.10 30.61 27.88 27.65 33.44 32.52 33.46 34.46 33.70 33.79 34.04 35.03 35.47 35.38 33.98 34.84 35.77 36.05
48.43 47.44 46.80 47.00 47.36 47.57 47.42 47.88 47.93 48.19 48.13 48.31 48.34 48.53 48.10 48.32 46.23 41.26 37.98 42.20 43.00 41.90 35.58 28.48 29.70 33.76 34.44 34.55 34.68 34.68 34.49 33.80 34.53 32.65 31.29 31.20 30.80 31.11 28.58 26.79 32.99 32.21 33.32 33.05 34.93 35.22 32.90 33.75 33.01 34.56 34.67 35.67 37.25 38.39
46.70 46.50 46.85 47.22 47.49 47.68 47.75 47.85 47.79 47.86 47.75 48.12 48.36 48.67 47.82 47.46 44.60 40.56 41.13 43.17 42.37 38.47 36.70 29.21 27.69 30.04 34.50 31.50 31.01 34.05 32.55 32.95 32.32 31.98 31.32 29.86 29.66 29.02 25.08 31.07 30.32 31.25 32.36 33.80 34.86 36.02 35.40 35.57 34.45 34.51 35.72 36.94 36.72 38.08
46.15 46.67 47.04 47.32 47.40 47.51 47.45 47.58 47.62 47.66 47.66 47.99 48.07 48.14 44.85 42.95 39.33 39.90 43.72 43.09 42.04 39.43 33.33 30.72 28.55 28.20 33.22 31.31 32.76 32.52 32.14 29.26 31.69 29.38 29.53 29.60 28.11 24.95 30.44 31.43 30.29 30.75 32.38 33.63 34.75 35.68 35.40 34.43 33.49 34.12 35.62 36.02 36.51 36.88
46.31 46.50 46.39 46.48 46.65 46.95 47.31 47.45 47.65 47.68 47.44 47.61 45.45 39.49 33.01 39.13 45.48 43.87 40.22 37.87 38.07 36.95 34.01 30.95 31.59 27.78 31.83 30.60 28.89 29.63 30.34 28.62 25.99 28.49 30.32 26.76 26.92 31.81 31.58 32.23 33.08 32.78 34.42 35.34 33.05 31.78 33.52 32.80 33.32 34.12 35.24 36.40 36.67 36.46
45.85 45.89 46.27 46.66 46.80 46.51 46.96 47.63 47.79 47.43 47.09 42.70 37.31 34.01 39.53 45.42 40.30 36.51 33.15 33.60 34.62 32.02 31.95 30.61 30.59 27.35 31.76 28.62 28.65 30.07 26.70 26.92 22.98 26.48 25.55 24.74 24.13 28.87 31.24 31.82 31.99 34.03 35.56 36.15 36.70 36.31 36.40 35.99 34.85 34.33 34.59 36.47 36.46 36.26
46.10 46.54 46.94 47.17 47.25 47.41 47.54 47.53 47.65 45.14 42.31 38.75 38.56 41.18 40.47 37.24 32.92 30.94 30.26 32.61 31.15 29.88 28.05 28.37 28.89 31.67 30.06 33.05 29.74 27.27 25.53 23.41 22.60 27.56 23.93 21.77 27.91 28.21 28.66 31.05 31.42 33.42 34.86 35.41 36.64 36.55 36.73 36.90 37.15 35.52 34.47 34.90 34.58 35.47
46.76 46.78 47.06 47.47 47.75 47.82 47.62 47.73 47.56 45.64 43.78 41.54 37.99 32.37 31.33 32.12 28.31 27.39 24.03 25.61 28.19 27.79 27.69 28.91 28.42 29.68 30.03 32.02 28.81 27.14 23.50 22.75 27.87 23.45 22.87 27.14 28.39 27.92 28.58 31.12 32.38 34.57 35.06 35.42 35.21 35.80 36.40 36.38 36.32 35.88 34.42 35.19 35.02 33.70
46.52 47.00 47.26 47.54 47.95 48.12 47.52 47.52 46.54 44.64 41.22 34.07 30.95 28.06 28.95 26.73 28.52 29.30 29.30 27.58 29.51 29.96 29.60 32.30 28.65 30.66 30.34 28.92 27.89 24.69 26.40 26.15 21.54 19.34 21.85 29.20 29.36 29.30 29.52 32.11 32.82 33.01 34.83 35.02 35.02 35.52 35.52 35.89 35.84 35.95 34.86 33.62 30.75 28.53
46.32 46.75 47.05 47.02 47.30 47.24 47.07 46.43 45.71 43.22 37.59 32.09 31.75 28.72 28.63 29.76 27.54 27.25 29.18 29.60 30.52 32.79 32.60 29.75 30.15 30.09 27.37 25.49 27.03 25.36 22.09 20.65 22.07 23.59 28.89 30.25 29.34 29.89 30.60 32.79 32.81 34.02 34.44 34.26 34.89 33.80 34.03 35.22 33.39 33.06 30.11 29.13 28.60 27.76
45.96 45.83 43.84 46.46 46.61 46.54 46.11 45.34 42.22 38.78 32.80 30.28 27.88 26.57 28.26 26.83 25.20 27.08 28.80 29.34 33.17 33.81 33.51 32.84 27.67 25.28 24.94 26.14 22.83 22.18 21.57 20.21 27.29 29.06 30.90 28.91 29.95 31.40 32.48 33.31 32.92 34.26 34.50 34.62 34.74 33.90 33.18 31.55 29.25 28.61 30.48 31.65 30.95 28.13
43.17 40.39 45.74 45.83 45.73 46.04 45.40 39.43 37.17 32.75 31.86 28.50 27.44 30.36 28.83 28.74 27.83 27.98 30.75 30.88 34.90 32.90 29.62 27.33 24.38 25.07 25.81 22.84 21.82 25.19 22.90 29.38 29.89 28.96 28.51 30.54 31.36 31.76 33.48 34.16 33.58 33.96 34.04 34.47 34.29 32.07 31.29 30.92 30.31 30.34 30.44 32.64 32.85 32.52
39.67 43.85 46.01 46.24 45.14 41.39 35.37 34.16 32.28 30.97 26.37 28.39 27.20 28.83 30.90 30.59 29.54 30.46 31.29 33.40 32.80 29.84 29.58 28.39 26.99 22.23 22.90 21.74 23.45 28.10 28.45 26.92 26.34 29.10 28.93 30.04 32.11 33.02 33.65 33.28 32.74 33.04 32.96 33.83 33.01 33.15 32.34 31.68 31.33 32.03 30.23 29.85 29.28 28.53
42.56 44.16 45.57 44.84 41.85 35.91 31.67 30.96 31.75 26.03 27.14 29.54 30.86 32.30 31.70 30.74 31.07 31.59 33.20 32.89 30.72 30.92 28.01 27.42 25.62 24.79 24.96 27.32 28.52 26.01 27.37 29.79 28.18 28.87 29.23 30.45 31.79 32.23 32.11 32.81 33.11 32.19 31.76 32.95 32.65 32.16 32.18 31.77 30.83 30.31 30.09 28.64 27.36 27.59
44.97 44.83 44.54 43.15 40.08 33.22 29.55 28.83 32.04 27.98 26.87 28.31 30.42 29.67 30.05 29.50 29.99 30.73 30.64 29.90 30.19 29.63 27.05 25.25 26.27 27.09 27.73 28.62 27.83 28.13 31.28 31.69 30.17 28.88 28.34 28.96 30.27 29.62 30.77 31.47 31.96 33.05 32.84 31.94 30.74 31.06 29.14 27.79 27.12 27.14 27.01 26.72 25.41 26.23
42.75 41.11 39.45 36.63 32.41 31.22 28.85 27.79 27.57 28.34 28.68 27.46 29.09 30.07 28.78 31.10 29.39 29.66 29.96 30.33 29.36 26.80 26.59 26.67 27.26 27.17 26.61 27.48 29.21 31.30 31.11 32.01 32.84 32.82 31.05 28.55 28.35 29.52 27.78 30.27 31.23 30.49 29.41 28.49 27.59 27.54 28.57 26.45 26.08 25.52 25.65 25.27 25.63 25.58
39.27 40.30 34.82 35.08 30.13 28.90 26.37 27.47 27.16 28.80 26.65 27.11 27.72 29.64 28.27 27.83 28.64 29.97 30.27 30.57 27.85 30.06 28.75 27.87 27.53 27.74 28.34 28.60 28.61 29.24 30.71 30.18 30.57 32.92 32.85 31.24 27.90 27.27 26.55 26.80 27.69 27.52 27.70 27.74 27.63 27.73 26.30 25.17 24.33 23.73 24.00 24.18 23.50 22.92
39.68 36.79 32.50 31.85 27.55 26.70 23.48 27.86 23.77 27.21 26.09 24.56 27.06 24.85 24.35 25.86 27.04 27.96 30.14 30.85 30.35 29.12 27.75 26.95 25.36 25.12 26.46 25.27 27.25 27.20 28.02 29.38 29.25 29.61 29.85 28.96 29.21 28.51 29.50 27.77 28.61 27.90 26.03 26.25 25.61 25.77 24.42 23.82 25.91 23.41 21.56 21.20 20.51 20.50
37.19 30.99 29.13 26.72 25.82 21.44 26.41 21.23 25.51 24.50 25.55 24.08 22.68 20.14 21.65 23.62 25.38 26.83 26.69 27.38 29.34 26.74 26.22 24.71 26.32 24.93 26.01 27.34 26.78 25.36 24.02 25.95 24.18 23.29 24.96 27.18 25.81 24.68 25.73 25.98 26.25 24.74 24.63 23.41 23.84 23.14 21.90 22.01 22.70 20.59 18.86 18.59 18.13 17.66
29.71 26.28 26.87 21.34 22.97 19.59 17.56 20.03 21.07 21.04 19.95 21.95 19.88 18.88 20.06 22.30 23.32 22.74 23.63 27.42 25.32 25.87 26.18 26.29 28.99 30.96 30.10 25.13 22.60 22.16 19.46 25.28 26.87 24.92 20.24 21.98 21.39 20.80 20.40 20.25 19.74 18.84 19.40 22.55 21.32 20.82 19.23 17.91 17.51 17.15 16.40 16.41 16.42 16.67
22.53 22.01 24.08 18.42 21.53 17.91 18.57 18.14 20.54 19.85 20.26 19.94 19.80 19.19 19.69 21.34 20.78 21.92 23.24 24.73 23.23 24.84 24.92 27.08 28.35 26.14 25.06 25.92 23.86 22.28 23.06 20.53 24.44 23.91 19.93 20.03 22.77 25.23 22.59 21.97 20.90 19.35 16.75 18.69 20.41 19.15 17.23 15.77 15.51 13.77 15.23 14.47 16.43 13.42
19.46 15.31 20.27 24.21 21.98 21.58 20.23 21.79 23.31 22.61 20.85 18.46 17.57 16.79 18.96 19.82 21.49 22.73 19.75 19.51 21.08 21.10 25.91 28.90 28.99 30.30 26.76 20.38 18.23 17.48 17.08 17.96 21.34 20.43 15.45 13.35 12.76 14.86 21.22 22.07 19.50 18.84 15.63 16.38 17.27 17.40 16.27 15.09 14.51 13.84 13.44 13.65 13.32 12.63
18.15 18.12 17.47 18.66 18.01 18.86 18.65 20.26 21.32 21.89 22.66 21.62 20.73 18.61 21.10 23.74 23.12 17.89 16.81 15.45 15.62 17.61 18.52 18.34 21.22 23.76 21.83 19.37 16.65 14.52 13.19 13.41 13.42 13.81 14.59 13.86 10.48 10.50 12.78 16.15 17.21 18.63 14.35 14.34 14.42 14.17 14.84 14.65 14.14 13.53 12.76 12.60 12.23 11.45
16.20 20.87 22.48 16.95 18.86 18.69 17.36 20.16 21.30 20.50 21.40 22.42 23.73 21.49 21.09 16.45 13.59 14.04 14.22 14.60 16.14 19.51 19.13 16.84 15.15 15.95 14.83 14.28 14.85 15.76 15.83 17.82 19.71 18.64 17.10 15.33 14.45 13.94 8.36 10.35 10.55 10.20 11.69 14.59 19.27 16.10 13.70 14.37 14.99 14.58 10.90 9.70 8.69 7.14
21.14 24.27 22.16 20.68 19.58 16.21 13.69 14.45 16.24 17.33 18.64 19.36 19.99 17.98 17.05 15.47 13.27 12.90 14.49 15.87 18.57 19.70 19.38 18.29 17.59 19.81 17.49 16.70 13.23 12.73 10.97 10.61 13.27 20.73 18.61 16.33 16.42 12.68 8.74 9.36 9.73 8.01 7.97 10.87 11.74 11.70 18.21 11.75 11.88 7.61 6.75 6.82 7.20 8.82
22.94 21.15 17.18 15.59 12.73 12.95 13.84 15.22 17.45 18.34 18.00 17.32 17.54 18.41 15.96 15.07 14.54 13.73 14.88 15.49 16.53 17.26 17.38 17.28 18.28 19.63 18.36 17.66 18.14 16.80 16.03 12.15 7.64 7.04 10.70 11.98 10.91 10.05 9.35 9.29 8.81 7.23 7.88 9.09 9.43 9.87 8.90 7.34 5.95 5.21 4.71 3.15 2.77 4.86
19.02 17.29 16.34 13.35 12.45 13.87 14.70 16.48 17.00 16.71 16.73 17.30 15.68 15.56 15.05 16.82 16.89 14.90 13.16 15.27 16.78 17.45 20.42 19.28 18.39 16.76 17.17 16.86 16.42 18.23 21.37 11.77 10.38 12.31 11.34 11.14 11.57 10.34 9.18 7.57 5.59 7.41 8.19 8.04 7.85 6.94 4.08 4.28 4.53 3.94 4.41 2.53 1.90 2.40
16.29 15.89 15.43 14.13 12.69 12.78 14.70 16.51 16.07 15.63 16.53 16.02 14.35 12.53 13.17 14.93 17.22 15.82 10.75 11.65 16.04 18.67 17.99 16.32 14.34 13.37 12.95 13.07 13.50 15.07 14.65 10.81 13.16 19.74 21.21 20.10 18.32 13.44 8.41 7.86 8.00 8.39 7.85 7.83 6.42 4.72 2.89 0.99 2.62 1.14 0.46 -0.93 1.31 2.43

GFSWCAN_sfc_wetblb_111.txt.gz
Wetbulb
53.48 53.68 53.85 53.81 53.24 52.00 50.62 49.34 47.69 47.85 47.93 48.01 48.40 49.02 48.59 49.69 50.29 49.65 45.89 48.38 45.09 39.38 38.76 37.44 37.68 36.26 36.70 37.03 34.62 35.06 34.51 34.32 33.91 31.24 32.38 33.23 31.21 32.62 30.03 32.19 29.45 29.05 27.10 27.35 28.52 25.41 24.22 39.07 37.50 33.35 37.81 40.12 40.38 39.74
53.16 53.41 53.51 53.38 52.84 51.75 50.52 49.17 47.84 47.75 48.32 47.99 48.31 48.38 48.45 49.29 48.35 47.62 42.34 47.69 48.55 42.46 38.58 39.50 38.74 38.67 37.41 37.46 38.08 36.87 35.35 35.55 37.79 34.88 34.62 35.14 32.04 32.50 31.23 29.19 33.84 28.07 32.96 32.61 32.07 32.97 38.15 40.72 40.26 41.41 40.94 39.86 40.03 38.43
52.78 53.06 53.21 53.10 52.47 51.58 50.10 48.73 47.74 48.05 48.28 48.10 48.30 48.25 48.44 49.09 50.10 46.35 45.31 45.15 43.70 40.85 38.84 37.46 36.38 38.82 40.09 39.48 40.40 37.34 37.95 38.55 37.09 38.66 37.96 36.25 31.35 34.94 30.43 31.26 32.23 33.89 36.70 32.28 32.91 37.28 37.14 39.57 41.24 41.25 41.36 39.11 38.29 38.29
52.28 52.57 52.76 52.74 52.11 51.26 49.95 48.54 47.70 47.78 47.53 48.00 48.36 48.43 48.57 49.00 49.09 47.29 45.30 45.97 46.30 43.12 37.65 36.10 39.85 37.45 39.97 39.79 39.09 39.46 38.19 38.29 38.58 38.90 37.39 35.77 32.68 35.45 33.58 31.79 31.75 35.63 34.83 33.71 34.15 37.31 36.81 38.04 39.39 40.60 38.39 37.80 37.63 38.29
51.89 52.11 52.30 52.28 51.55 50.59 49.23 48.13 48.06 48.16 47.67 48.02 48.35 48.87 48.92 49.54 49.84 49.28 46.70 45.66 46.81 42.60 37.23 35.32 36.95 37.93 39.07 39.12 38.33 38.77 38.66 37.97 37.93 35.50 34.72 33.73 35.47 32.66 33.52 31.51 30.81 35.23 34.77 32.88 33.74 38.97 37.76 37.65 39.62 38.17 36.86 36.69 37.12 36.37
51.69 51.76 51.85 51.60 50.76 49.97 48.42 47.92 48.00 48.03 48.12 48.24 48.52 48.78 48.80 49.49 48.33 45.70 40.81 44.58 46.04 46.11 39.49 33.35 36.71 35.68 37.19 38.74 37.99 37.42 37.96 37.64 38.32 37.05 36.17 35.73 34.16 33.23 30.74 30.30 37.05 38.31 38.38 40.32 37.31 38.12 37.55 37.56 37.78 37.86 36.30 35.91 36.76 36.86
51.43 51.49 51.39 50.79 50.01 49.00 47.81 47.84 48.02 48.15 48.11 48.29 48.47 48.59 48.69 48.07 47.74 42.77 40.02 44.31 46.46 46.25 38.99 33.06 32.63 35.55 36.57 36.79 37.38 37.14 37.40 37.41 37.73 36.81 33.87 34.73 33.17 33.04 31.54 29.00 37.18 37.38 37.30 37.05 37.74 37.20 35.01 36.15 35.65 36.66 36.22 36.76 37.77 38.64
51.16 51.24 50.74 49.89 49.03 47.87 47.53 47.78 48.00 48.12 47.97 48.03 48.58 48.53 48.67 47.43 44.88 42.05 42.99 44.64 45.60 42.63 39.76 34.22 31.58 31.72 36.32 33.71 33.82 37.12 35.43 35.93 35.38 35.55 34.08 31.98 32.24 31.59 27.42 33.82 35.86 35.78 36.62 36.13 37.04 38.36 37.93 37.88 36.60 36.02 37.11 37.20 36.23 37.18
50.63 50.27 49.55 48.74 47.72 47.42 47.63 47.87 48.03 48.06 48.25 48.26 48.27 48.01 46.00 43.38 39.75 40.41 43.71 43.86 44.02 41.55 37.29 34.33 31.70 30.83 34.93 34.28 35.58 34.11 35.49 31.81 34.66 31.93 31.88 32.19 30.87 27.57 32.47 34.65 35.53 34.28 34.08 35.18 37.09 37.18 36.95 35.90 35.17 35.58 36.32 36.58 35.43 36.54
49.25 48.65 47.87 47.10 46.94 47.25 47.69 47.94 48.05 48.03 47.95 47.74 45.66 40.49 35.48 40.22 44.41 43.66 39.14 36.23 37.95 39.19 37.03 32.98 36.30 30.01 34.03 32.95 32.13 32.45 33.20 31.96 28.87 31.62 32.93 28.51 29.04 34.97 36.72 36.87 37.27 35.88 36.67 37.49 34.30 33.29 34.50 34.59 34.30 35.12 35.81 36.65 36.18 36.67
47.60 46.86 46.45 46.52 46.84 47.10 47.37 47.59 47.76 47.65 46.98 43.40 38.89 36.01 42.75 45.12 41.81 38.56 32.15 31.62 33.99 33.27 35.83 35.51 35.21 29.84 34.22 31.28 31.56 33.59 30.86 30.94 26.03 29.95 27.74 28.83 27.88 33.12 35.38 35.74 36.03 36.80 37.64 37.88 38.66 38.41 38.17 37.45 36.05 35.67 35.61 36.03 36.38 36.61
46.19 46.23 46.40 46.69 46.72 46.68 46.82 47.11 47.46 45.33 42.97 41.79 39.78 42.47 41.19 37.74 35.54 31.56 30.34 33.47 32.63 30.69 34.37 32.90 31.75 34.35 32.41 35.60 32.17 29.49 29.45 26.30 25.49 30.58 26.37 24.76 32.87 32.05 31.93 34.22 34.71 36.64 37.48 37.77 38.17 37.59 37.83 37.53 37.68 36.98 35.76 35.03 35.18 35.23
46.12 46.37 46.44 46.33 46.44 46.84 47.17 47.35 47.29 46.78 44.28 41.85 38.99 33.34 31.95 31.96 27.63 27.88 26.87 30.56 30.59 34.05 32.50 32.38 30.54 31.33 31.95 34.94 31.15 29.78 26.34 25.88 29.95 25.23 25.03 30.43 33.07 30.73 31.56 33.92 34.19 36.90 37.54 37.30 37.38 38.16 37.86 37.48 36.96 35.91 34.69 35.46 35.25 34.40
45.86 45.67 45.93 46.35 46.86 47.23 47.48 47.55 47.33 45.89 41.01 34.67 31.55 28.70 28.60 29.41 30.00 32.72 34.41 35.31 35.60 34.64 32.19 34.55 30.82 32.64 32.57 31.26 30.68 28.39 29.62 28.20 23.83 21.94 24.77 33.71 34.33 31.63 32.20 34.13 34.35 34.55 35.96 36.61 36.15 36.29 36.32 36.41 35.79 36.45 36.35 36.13 34.93 31.61
45.44 46.05 46.63 46.58 46.86 47.14 47.37 47.46 47.28 43.67 38.20 32.07 31.91 28.69 30.26 34.10 32.27 33.08 34.91 33.52 34.13 35.11 34.51 32.52 32.91 32.94 30.71 28.46 30.48 27.30 22.98 22.29 25.10 26.51 34.08 35.62 33.30 31.84 32.29 34.35 34.38 35.51 36.16 35.86 36.18 35.68 35.54 35.26 35.33 34.89 34.54 32.53 31.01 29.96
46.37 46.30 45.45 46.61 47.11 47.55 47.44 47.14 45.32 40.56 33.57 32.36 31.56 29.59 31.19 31.70 29.48 29.73 32.02 32.86 35.67 35.69 35.79 35.56 31.22 29.63 29.22 31.00 24.71 25.24 24.35 23.24 30.32 33.22 35.66 32.83 31.99 32.18 33.00 34.68 35.24 36.50 36.19 35.82 35.83 34.58 33.95 33.62 33.24 33.72 31.64 32.15 32.64 30.68
46.05 41.91 45.42 46.88 47.43 47.73 47.50 41.77 35.14 32.00 32.05 30.43 29.79 32.25 32.66 33.07 33.77 32.64 33.05 33.09 37.12 34.60 31.87 32.92 28.08 29.30 30.06 26.96 25.30 29.70 27.47 32.47 36.34 33.48 32.97 33.58 33.01 32.91 34.40 34.58 35.39 35.74 35.61 35.37 34.83 34.40 34.13 33.46 31.87 31.46 30.67 32.55 33.69 33.45
41.88 45.23 46.48 47.22 45.54 40.54 35.35 34.29 32.09 31.85 29.01 30.97 29.98 31.08 31.67 33.21 32.38 31.88 33.63 34.75 34.69 34.53 32.40 32.86 30.72 25.19 26.81 25.03 27.02 31.54 31.90 31.45 32.25 32.52 32.01 33.60 34.71 35.06 34.82 34.53 34.66 34.75 34.44 34.40 33.78 33.64 33.50 32.79 31.81 32.49 32.69 31.42 30.68 30.25
44.47 45.87 46.19 45.15 41.21 35.91 32.14 31.64 32.72 29.37 29.65 31.49 31.89 32.52 32.22 32.50 33.94 34.96 33.71 35.01 33.30 33.30 31.97 30.82 30.33 29.98 29.33 31.55 34.16 33.09 32.43 32.12 29.62 30.62 31.87 34.64 35.43 34.89 34.66 33.13 33.27 33.70 33.59 33.62 33.26 33.28 33.57 33.48 33.23 32.50 31.80 30.85 29.04 29.21
45.93 45.96 43.70 43.67 41.87 35.07 30.99 29.90 34.48 31.17 28.40 30.26 31.65 30.85 31.71 31.40 32.27 33.38 32.88 32.74 31.40 32.06 30.10 29.43 30.83 31.59 31.35 32.19 32.48 32.11 33.35 33.32 30.84 29.11 29.66 32.51 34.51 33.05 33.04 33.03 33.25 33.50 33.63 33.43 32.70 33.18 31.58 30.04 29.53 29.40 29.18 28.67 27.14 27.09
44.27 43.73 41.61 37.37 33.20 33.30 31.92 30.69 30.06 31.20 30.00 29.49 31.33 31.00 30.50 31.80 30.41 30.22 30.08 31.86 30.44 31.23 31.16 31.45 30.55 29.37 29.10 29.81 31.11 34.12 33.09 33.15 32.87 32.85 30.75 29.98 32.04 32.26 31.95 33.11 33.72 33.49 32.35 31.45 29.56 29.33 29.74 28.10 28.73 27.63 28.59 27.62 27.36 26.89
37.46 39.81 35.19 36.04 31.78 29.96 28.26 30.05 29.97 30.77 30.12 30.20 29.33 31.16 29.35 28.81 28.82 30.18 31.26 30.08 30.77 32.75 32.15 30.56 29.99 29.45 29.33 29.63 30.71 32.67 32.74 32.95 33.51 34.11 34.15 32.34 29.88 29.68 29.96 30.93 30.80 30.39 30.32 30.02 29.33 29.31 29.77 29.00 27.60 26.31 25.87 26.27 25.39 24.57
39.52 37.10 33.73 32.32 28.64 28.27 25.17 30.13 27.48 28.48 27.08 26.35 28.71 27.18 27.21 28.97 29.63 31.79 29.96 32.16 33.32 32.10 30.20 29.46 29.18 30.12 29.60 28.64 30.04 30.34 31.48 32.71 32.58 32.27 32.27 31.94 31.60 30.81 30.28 29.66 31.00 29.98 28.52 28.69 29.85 29.78 29.09 26.23 26.90 25.64 24.54 23.59 22.77 22.60
37.41 32.39 31.06 28.94 27.97 23.88 28.02 25.43 27.63 27.02 28.15 26.75 25.52 22.69 24.50 25.61 26.70 28.91 28.63 30.45 32.16 28.71 27.79 27.21 28.91 28.07 29.23 30.73 30.29 28.81 27.83 30.11 28.78 29.50 30.25 29.80 28.73 28.71 30.12 29.12 29.74 30.29 28.68 29.79 28.33 26.76 25.33 24.81 25.73 23.25 21.83 21.46 20.87 19.98
30.33 27.33 29.05 22.96 26.24 23.53 21.87 22.88 23.93 24.52 22.72 24.01 22.91 21.55 22.52 24.55 25.71 26.39 26.04 29.78 28.66 29.05 29.20 29.41 30.83 31.95 31.79 29.64 26.72 25.19 24.24 30.03 29.93 27.33 24.75 28.94 25.61 25.25 24.61 24.41 23.53 23.25 23.61 25.59 24.04 24.06 22.35 21.74 21.20 20.42 19.07 18.91 17.93 18.09
24.89 24.68 25.31 24.64 23.21 23.70 22.77 21.03 21.48 21.60 22.39 21.81 22.18 22.03 23.07 23.80 23.26 24.22 27.05 29.55 28.99 30.54 29.26 30.12 31.65 30.72 29.58 30.17 26.87 25.54 25.42 26.08 29.64 26.54 22.88 26.75 28.12 28.01 25.33 23.53 22.50 20.85 20.53 23.03 24.61 22.55 20.42 19.62 18.20 16.52 17.27 16.42 17.59 14.95
20.91 20.96 23.46 25.79 25.05 24.02 23.10 24.29 25.19 24.62 20.83 19.40 20.08 19.20 21.47 20.98 22.78 26.56 21.94 21.65 23.80 24.71 30.63 33.30 33.53 32.96 28.66 24.55 22.46 22.20 22.34 22.54 25.20 23.82 20.44 19.13 19.02 21.24 27.38 26.33 24.35 20.75 20.16 21.44 21.71 21.45 19.16 17.94 17.07 16.65 15.95 16.24 15.51 14.32
22.65 22.09 20.96 22.60 22.19 23.44 21.13 22.29 22.38 22.24 24.36 23.55 22.75 20.80 22.11 24.82 26.13 19.72 18.69 17.64 18.50 21.64 23.81 24.49 28.15 30.01 28.12 24.21 20.06 18.00 16.76 17.22 17.07 17.32 17.96 17.34 16.04 17.60 19.28 19.40 19.70 21.59 18.95 18.59 18.42 18.42 18.34 17.70 16.70 15.91 14.64 14.34 13.25 12.75
21.36 23.46 23.75 18.61 19.17 20.20 19.67 22.07 23.74 22.81 23.07 23.97 25.80 23.98 23.06 17.65 16.48 16.96 16.67 17.10 19.29 21.86 21.60 20.59 19.04 20.35 19.46 19.53 19.27 19.05 19.43 21.54 23.07 21.98 21.32 17.84 17.16 15.80 15.49 16.62 16.26 17.35 19.49 19.51 21.29 18.11 14.60 16.37 16.59 14.97 11.63 11.64 10.73 10.34
22.60 25.88 23.25 18.71 14.57 16.00 15.92 16.34 18.27 19.23 20.01 20.59 20.67 19.19 18.23 16.60 15.46 15.56 16.61 18.04 20.50 22.57 22.55 21.01 19.92 21.51 19.21 18.66 15.75 15.93 15.56 16.87 20.40 25.47 22.76 20.43 21.28 15.20 13.98 14.33 13.98 13.63 15.68 16.59 15.87 17.87 20.02 15.12 14.58 10.72 10.13 10.09 10.80 10.97
24.37 22.74 17.85 16.61 13.98 14.64 15.85 17.18 19.45 19.85 19.75 19.14 20.11 20.17 17.84 17.19 16.48 16.13 17.44 18.47 19.43 20.79 21.20 21.69 22.28 22.75 21.25 19.29 19.83 18.28 17.51 15.76 14.40 15.63 18.07 17.41 15.49 14.64 14.59 14.32 13.43 13.29 14.06 14.01 13.96 13.94 12.50 10.35 9.75 8.70 7.28 5.11 4.15 7.16
21.05 19.59 17.47 14.98 13.89 15.49 16.65 18.95 19.32 19.05 19.25 19.79 17.66 18.25 16.82 18.84 19.32 17.09 16.07 18.48 19.59 20.44 22.82 22.54 21.28 21.08 23.76 23.49 22.93 24.13 23.78 15.23 15.88 16.92 16.35 15.88 15.07 14.15 12.92 11.68 11.24 12.58 12.76 12.38 11.63 9.48 7.77 7.92 7.96 7.61 6.54 3.46 2.19 1.99
18.17 17.60 17.00 15.85 14.75 14.91 16.90 19.47 19.08 17.92 19.28 18.44 16.78 16.33 16.84 17.97 19.02 17.71 13.75 14.56 19.49 22.49 21.10 20.84 19.27 19.70 19.22 19.33 18.84 18.76 18.42 16.16 18.34 22.31 22.31 20.87 19.15 16.17 12.49 11.78 12.22 12.23 11.35 11.09 9.61 7.60 5.55 4.16 4.82 2.72 1.09 -0.97 0.07 1.20

GFSWCAN_sfc_wetblb_114.txt.gz
Wetbulb
53.32 53.60 53.79 53.90 54.01 54.16 53.49 52.03 50.97 48.73 48.00 48.00 48.00 48.81 49.32 49.26 49.94 47.33 45.33 47.71 43.79 38.46 37.84 37.58 38.05 34.13 34.14 33.38 30.36 32.24 30.78 30.90 29.25 26.80 26.96 26.02 23.77 26.67 23.37 27.56 24.63 24.37 20.38 19.61 22.08 19.01 16.59 35.88 34.94 30.21 33.89 36.64 38.29 37.59
53.01 53.33 53.44 53.53 53.66 53.75 53.23 52.23 51.05 49.32 48.44 47.97 47.89 48.33 48.78 49.01 49.68 47.90 42.87 47.90 47.68 42.04 36.83 39.07 38.58 38.37 37.08 36.17 34.18 33.42 31.90 32.33 33.21 29.32 28.97 28.71 26.08 24.91 24.96 19.36 28.77 22.40 27.50 26.13 26.63 26.74 34.34 37.09 35.94 37.73 38.01 36.74 36.84 35.49
52.66 53.02 53.18 53.25 53.36 53.54 53.08 52.16 50.99 49.43 48.72 48.07 47.78 48.21 48.51 48.56 49.49 48.93 44.19 46.35 45.00 40.19 38.25 35.51 34.90 37.62 38.93 38.19 38.53 32.79 33.73 35.89 33.78 34.21 31.42 30.09 26.19 28.20 21.19 23.18 26.20 28.96 31.97 26.93 28.52 31.82 33.32 36.24 37.74 38.11 38.46 35.72 35.97 35.78
52.20 52.55 52.80 52.91 53.06 53.17 52.56 51.81 50.64 49.27 48.23 47.67 47.90 48.32 48.76 48.99 49.20 48.53 44.63 45.49 44.27 41.89 35.37 32.90 39.07 35.66 38.60 38.35 37.80 37.60 35.68 36.20 35.62 33.96 30.95 29.09 26.89 30.58 26.27 27.02 25.92 29.23 30.24 28.47 28.58 31.90 32.62 34.53 35.96 37.37 36.13 36.04 35.44 35.42
51.84 52.13 52.36 52.53 52.71 52.78 52.15 51.12 50.08 48.98 48.28 48.03 48.05 48.63 49.15 49.14 49.21 48.85 47.69 45.39 45.36 40.08 34.15 32.49 35.53 37.00 37.67 37.44 36.93 37.11 35.87 34.57 32.39 29.50 28.64 27.51 29.68 27.16 27.68 25.78 24.14 30.32 29.11 27.02 26.12 33.48 32.64 32.78 35.61 36.93 35.11 34.77 34.73 33.42
51.64 51.81 51.95 52.13 52.33 52.45 51.72 50.41 49.38 48.69 48.59 48.50 48.45 48.67 48.89 48.90 48.67 45.78 40.12 45.06 45.31 42.37 38.88 31.32 34.65 33.59 34.89 36.22 35.91 35.45 35.75 33.87 33.34 32.36 31.17 30.49 31.42 27.93 24.08 23.24 31.52 32.39 33.25 34.30 31.73 33.34 33.64 34.53 34.80 35.26 34.29 34.07 34.51 33.40
51.40 51.49 51.62 51.82 51.99 52.07 51.18 49.69 48.72 48.46 48.46 48.37 48.43 48.60 48.64 48.88 46.62 42.44 40.09 42.32 45.45 44.28 36.99 32.64 29.84 33.00 34.16 33.79 34.27 33.89 34.28 33.50 32.94 32.13 29.31 29.66 28.87 27.91 24.85 24.01 32.07 33.55 33.57 33.00 33.71 33.94 31.47 33.15 32.06 34.07 33.98 34.85 36.28 35.80
51.15 51.31 51.48 51.61 51.75 51.57 50.49 49.00 48.36 48.25 48.27 47.99 48.34 48.61 48.51 48.17 45.73 42.22 43.42 45.03 45.26 40.43 38.87 32.31 28.62 28.33 33.72 30.25 29.90 34.28 31.83 32.17 31.92 30.87 30.08 27.92 27.89 27.44 24.04 29.77 31.29 31.92 33.07 32.62 32.98 34.25 34.24 34.22 33.38 33.23 34.51 34.95 34.55 35.46
50.75 50.96 51.18 51.37 51.49 50.93 49.76 48.51 48.14 48.22 48.26 48.34 48.41 48.23 46.25 43.69 39.38 41.21 43.49 43.32 42.27 40.25 33.63 32.23 27.24 24.47 32.43 31.43 32.13 30.74 32.11 27.12 31.20 27.65 28.62 29.36 26.65 23.04 27.33 29.39 31.18 31.34 31.54 31.83 33.65 34.41 33.85 32.63 32.19 33.02 33.63 34.11 34.86 35.80
50.27 50.50 50.75 50.96 50.91 49.96 48.79 48.08 48.14 48.23 48.27 48.14 45.29 40.65 35.86 40.35 44.72 43.95 39.62 35.27 35.25 36.31 35.16 30.40 32.89 26.81 30.44 29.90 28.67 28.69 29.79 28.02 22.73 27.96 29.35 25.86 25.52 31.77 32.90 33.44 33.13 33.05 33.03 34.14 32.17 30.73 31.89 31.63 31.43 32.18 32.76 34.13 35.70 35.92
50.06 50.18 50.35 50.49 49.69 48.53 47.79 47.77 48.17 48.24 47.42 42.73 38.82 36.08 42.03 45.11 41.30 37.89 32.32 29.89 31.17 30.43 33.38 32.48 31.80 26.93 31.61 27.15 28.12 30.79 24.67 26.38 17.31 24.92 22.75 22.88 24.04 27.39 31.83 33.87 33.27 33.74 34.26 35.15 34.59 34.93 34.65 34.07 32.79 32.41 33.33 35.35 36.19 36.30
49.83 49.90 49.97 49.40 48.26 47.53 47.22 47.77 48.13 45.22 42.46 41.43 40.39 42.51 40.64 36.94 35.08 30.81 30.12 30.39 30.15 28.03 32.22 31.70 30.42 30.75 29.98 32.94 29.43 27.90 23.98 22.63 18.64 27.24 20.25 19.14 26.83 27.46 28.96 30.81 31.76 32.96 33.61 34.55 35.38 34.94 35.10 35.21 34.48 33.91 33.90 35.04 35.42 35.31
49.63 49.67 48.95 48.00 47.35 46.99 47.27 47.73 47.80 46.21 44.45 42.16 38.48 33.59 32.61 31.88 27.09 27.07 23.61 26.43 28.31 31.31 29.32 29.55 27.06 29.04 30.25 31.47 30.36 28.92 24.64 21.27 27.23 20.25 20.54 24.54 29.57 28.72 25.26 30.22 30.96 33.25 34.37 34.67 34.86 35.28 34.89 34.68 35.31 34.78 34.77 35.30 35.23 34.59
49.22 48.30 47.46 46.89 46.53 46.67 47.10 47.40 47.01 45.16 41.22 33.65 31.34 26.87 27.28 25.86 26.85 27.92 27.17 29.40 31.57 31.10 31.05 32.59 27.91 29.50 31.51 29.22 29.95 26.11 28.58 25.34 18.40 17.43 20.36 27.19 30.21 28.42 28.98 30.60 31.96 32.60 34.16 34.30 34.60 34.64 34.35 34.07 34.97 35.45 35.43 35.60 34.66 32.12
47.62 46.87 46.40 46.01 46.37 46.60 46.67 46.86 46.42 44.01 37.55 31.44 31.91 26.73 27.47 29.31 28.79 29.99 28.98 29.55 30.94 33.89 33.41 30.26 29.22 30.40 29.35 28.08 29.60 27.59 20.81 16.78 21.39 21.31 28.53 29.78 28.66 29.05 29.47 31.13 31.39 32.92 33.82 33.61 33.58 33.12 33.49 33.61 33.79 35.03 33.27 31.05 28.42 26.84
46.51 45.92 44.48 46.02 46.26 46.39 46.42 46.09 44.65 42.27 34.66 32.15 31.39 30.40 31.88 29.54 28.92 24.39 25.94 27.59 32.42 33.89 34.21 31.81 28.88 28.37 26.49 29.47 23.70 19.77 17.77 16.72 23.04 29.24 32.52 28.36 28.16 29.16 30.12 31.57 32.39 34.04 33.78 33.27 32.81 33.05 32.22 33.35 33.09 33.33 28.79 27.94 27.64 26.45
45.23 41.19 44.87 45.65 46.14 46.42 46.27 43.38 41.58 34.70 30.55 30.39 29.39 31.69 30.86 29.59 30.49 28.78 31.08 31.42 35.37 33.59 28.69 29.03 26.02 23.92 26.18 19.84 19.25 24.66 21.55 27.21 31.31 31.20 30.29 29.10 28.58 29.66 31.86 32.51 33.89 34.06 33.21 32.46 32.37 33.13 33.80 33.96 33.33 27.85 26.47 27.70 29.14 29.47
41.23 43.75 45.97 46.39 46.12 44.70 42.48 34.47 32.49 31.42 28.98 31.60 29.84 30.53 30.57 30.65 30.44 30.64 32.39 34.09 34.40 30.81 31.17 29.81 26.98 20.25 21.38 19.34 20.82 26.03 29.44 29.85 30.04 30.01 29.66 30.04 29.36 31.34 32.90 32.34 33.16 33.16 32.11 31.89 32.88 32.53 30.25 26.36 26.68 27.38 26.86 27.27 26.86 24.22
43.38 44.09 46.21 46.57 43.33 35.84 31.98 30.24 31.95 29.09 30.43 31.68 31.94 32.42 32.27 30.17 30.90 31.91 32.65 33.69 35.37 33.22 28.33 30.28 28.87 25.09 24.55 25.55 27.59 31.43 31.19 29.44 28.88 29.16 30.79 31.73 32.12 31.99 32.09 31.50 31.89 31.54 30.96 29.82 29.57 29.65 29.39 28.85 28.62 28.52 27.98 26.50 24.44 23.32
45.77 46.12 45.76 44.78 42.48 33.82 30.22 29.44 32.51 30.45 27.50 30.09 31.75 30.46 29.88 27.31 30.26 31.96 31.55 32.76 33.01 31.10 29.47 26.90 28.41 28.82 27.22 27.92 28.48 29.54 31.38 31.35 30.18 29.04 30.35 32.08 32.61 30.07 30.96 31.36 31.25 30.91 30.82 29.46 29.95 32.37 27.84 26.94 26.65 26.71 26.23 26.27 24.41 23.15
43.99 43.91 43.51 37.49 32.82 33.14 31.76 30.51 30.36 31.06 29.43 27.13 30.77 28.18 27.33 29.52 29.22 30.47 29.54 32.80 29.22 28.99 29.71 28.46 27.64 27.00 27.94 27.14 29.16 31.47 31.82 31.77 30.72 30.77 31.01 31.12 32.10 30.57 29.54 29.26 30.59 30.75 30.01 30.40 29.98 29.92 29.39 26.51 24.49 23.17 19.12 24.88 24.52 23.50
39.89 40.79 35.37 35.92 31.25 29.99 28.51 29.01 29.58 30.20 28.79 29.36 28.67 27.58 25.64 24.53 24.32 28.80 30.30 28.24 29.09 31.38 31.23 29.10 27.39 28.14 28.02 27.90 29.25 30.59 31.38 31.85 31.54 32.82 34.51 33.81 30.60 30.81 30.25 30.68 30.53 29.13 29.13 30.34 29.77 28.93 28.76 27.53 22.07 21.89 20.56 19.61 21.69 19.24
39.63 37.38 32.52 31.93 28.84 26.07 24.79 27.68 22.76 25.03 21.46 26.21 27.38 23.60 25.51 26.29 27.42 30.30 27.40 29.41 30.39 32.15 29.30 28.93 28.46 28.25 27.66 26.85 28.98 29.43 30.88 31.33 30.90 31.20 32.12 31.38 31.61 31.34 31.42 31.28 31.42 30.55 28.81 28.20 28.76 24.48 20.47 25.21 25.24 20.63 19.75 18.03 17.06 16.60
37.71 33.06 31.18 29.14 26.46 22.24 26.12 22.44 25.66 21.80 25.05 22.51 22.50 20.39 21.67 22.20 26.68 26.06 26.39 27.20 28.59 28.86 28.94 28.62 28.85 27.47 27.69 27.99 27.18 26.12 26.12 30.10 30.14 29.71 30.96 30.31 29.08 28.90 30.18 29.76 30.00 29.94 28.57 27.68 23.35 20.79 19.98 20.07 24.10 18.19 16.25 14.59 13.07 12.80
29.75 27.59 29.03 23.31 24.52 19.68 14.57 20.44 22.70 24.46 22.80 25.30 22.52 19.87 19.92 24.71 23.09 24.98 24.13 27.86 28.17 27.92 29.44 30.34 30.51 31.02 30.18 29.09 25.72 24.31 22.95 29.28 29.25 27.18 24.42 29.94 27.49 26.54 25.43 24.74 24.56 23.45 24.50 26.05 23.82 20.50 17.26 16.77 16.07 14.58 13.29 12.71 11.01 9.09
24.52 24.34 25.53 18.65 21.14 19.60 19.60 17.13 17.78 22.20 23.12 22.41 23.75 23.10 22.64 22.74 22.35 22.56 24.15 27.94 29.90 29.76 28.46 29.68 30.93 30.78 30.54 29.82 27.34 25.17 25.20 26.97 29.21 24.90 23.40 27.00 28.52 27.97 25.27 23.66 22.36 21.44 20.75 21.26 21.65 17.75 16.00 14.48 13.27 11.20 10.31 12.14 18.44 6.13
21.31 19.55 22.51 25.84 23.80 23.05 21.95 23.00 23.86 22.50 19.76 18.40 19.06 18.35 18.54 19.14 20.65 22.66 19.84 19.99 22.46 23.50 29.88 32.98 33.59 32.93 30.85 26.12 23.60 22.11 20.73 23.20 24.97 23.00 20.55 19.97 20.47 23.60 27.10 25.92 24.31 20.76 19.37 19.62 18.73 17.86 15.03 13.06 12.11 11.07 9.20 6.46 5.63 5.29
22.22 22.93 16.18 20.95 19.25 19.61 17.92 18.03 18.11 18.27 18.09 20.18 21.54 16.30 17.45 18.78 20.12 17.44 17.13 16.33 17.13 21.50 24.56 27.16 32.85 31.37 27.89 25.51 21.97 19.55 18.48 19.06 18.70 19.15 19.52 18.44 17.90 19.71 20.15 20.80 21.32 23.44 17.79 15.55 15.25 14.07 13.98 13.29 11.12 9.71 7.98 5.64 3.39 2.80
19.60 22.18 21.18 13.85 17.01 18.60 17.09 18.02 18.25 18.56 20.53 20.98 18.33 18.52 18.21 16.26 14.66 15.36 15.70 16.73 19.26 22.45 23.41 22.38 20.88 21.76 20.74 20.08 20.45 20.94 21.89 23.45 24.28 23.15 20.97 17.27 16.65 15.90 17.01 18.79 18.76 17.95 17.95 18.37 22.24 15.98 11.87 11.82 10.52 8.38 5.52 5.34 2.40 0.79
21.62 23.44 17.38 14.98 13.38 16.34 14.98 15.44 16.80 17.27 18.86 18.10 18.16 16.69 15.77 14.25 13.81 14.45 15.94 16.83 19.25 22.09 22.80 22.20 21.86 22.55 20.46 20.08 18.16 18.75 17.72 19.41 23.00 26.73 23.04 20.41 19.91 15.77 15.26 15.33 14.86 14.51 14.83 14.20 15.76 20.38 22.59 11.20 11.03 2.78 2.43 1.27 1.64 0.83
21.97 19.65 15.41 12.84 10.18 13.00 15.79 16.83 18.48 19.95 18.31 16.43 17.78 15.21 14.15 13.92 14.65 15.17 16.27 18.18 20.50 21.38 21.33 21.80 22.62 23.40 21.96 20.74 21.37 20.35 19.45 17.51 16.81 20.29 21.43 18.26 16.89 15.34 14.39 12.94 12.71 11.47 12.08 13.12 12.76 10.60 9.37 3.96 2.09 1.11 0.57 -1.84 -0.33 0.32
17.65 12.52 12.46 9.01 8.09 13.08 12.76 18.66 19.61 18.98 19.53 16.78 15.83 17.77 16.87 18.80 18.72 15.46 15.59 17.88 19.95 21.43 24.38 23.66 22.55 21.84 24.63 24.79 23.94 24.82 25.71 16.79 17.90 19.21 18.02 16.65 15.13 14.08 12.71 12.11 11.59 12.57 11.72 9.77 7.70 5.82 4.58 2.92 1.88 0.38 -0.46 -5.56 -6.22 -5.24
15.65 14.18 11.68 11.57 10.70 12.23 15.67 18.87 18.76 15.94 17.06 14.56 12.66 14.44 16.87 17.45 18.98 16.01 14.54 15.02 18.54 22.26 22.15 21.93 21.91 22.60 22.16 20.82 19.38 19.54 19.54 17.73 19.90 22.68 22.48 20.92 19.24 16.12 12.67 12.19 12.20 11.22 9.14 7.46 5.28 3.91 2.21 1.12 -0.91 -4.36 -4.62 -6.09 -6.05 -6.00

GFSWCAN_sfc_wetblb_117.txt.gz
Wetbulb
53.90 53.88 53.90 53.74 53.82 54.13 54.34 54.47 53.29 51.34 49.70 49.36 48.94 49.01 49.07 49.28 49.48 45.42 40.99 44.40 40.93 37.48 36.11 34.96 35.39 31.47 31.68 30.04 26.60 29.79 29.00 28.87 26.65 24.65 23.06 22.10 21.28 24.48 21.24 24.38 22.98 22.37 17.89 17.14 19.14 16.32 14.85 34.55 33.87 28.20 31.28 35.57 37.09 36.93
53.57 53.62 53.55 53.39 53.57 53.83 53.97 54.12 53.12 51.31 49.86 49.25 49.09 48.56 48.83 48.93 49.63 47.56 43.14 47.20 47.04 40.66 37.00 37.40 36.98 36.79 35.87 34.71 32.13 30.67 30.01 29.46 29.86 27.07 24.28 23.48 23.91 18.83 21.42 16.97 26.83 21.54 25.78 24.04 24.01 23.62 30.96 34.94 33.58 35.98 36.22 35.23 35.97 36.08
53.15 53.27 53.23 53.09 53.33 53.58 53.74 53.82 53.02 51.33 49.98 49.26 48.56 48.42 48.70 48.77 48.98 48.84 43.97 46.31 45.12 40.40 39.26 34.10 33.74 35.89 37.16 36.26 36.86 30.50 30.99 33.42 31.92 32.84 26.87 27.03 24.45 25.45 19.79 20.65 22.52 26.20 29.70 26.23 27.05 27.63 31.92 34.93 36.08 37.04 37.59 35.34 34.87 34.61
52.62 52.74 52.79 52.82 52.96 53.21 53.33 53.42 52.85 51.59 50.12 48.81 48.48 48.45 48.78 49.05 49.36 49.61 42.41 45.08 44.25 40.89 31.96 32.29 37.22 33.56 36.82 36.81 36.27 35.87 34.17 34.54 33.50 31.97 25.30 24.11 24.44 28.26 23.93 25.39 24.44 27.09 28.91 26.75 26.20 29.18 31.11 33.48 35.22 36.14 34.77 34.81 34.58 34.88
52.21 52.27 52.35 52.49 52.66 52.77 52.92 53.02 52.56 51.43 50.11 49.33 48.73 48.93 49.36 49.50 49.83 48.64 47.00 45.41 46.20 39.29 30.85 30.58 33.57 35.09 35.81 35.38 35.38 35.63 34.43 32.34 29.77 27.00 25.11 26.10 28.02 26.51 24.77 24.26 21.90 27.91 27.85 26.04 25.22 30.19 30.39 30.94 33.59 35.66 33.68 33.73 34.20 33.44
52.03 51.99 51.95 52.08 52.31 52.51 52.60 52.65 52.04 50.88 49.52 48.87 48.54 48.90 49.23 49.25 49.64 45.60 40.35 45.02 45.44 42.69 33.57 25.98 32.85 32.08 33.92 34.67 33.90 33.82 33.74 32.21 30.75 29.50 28.99 29.05 30.52 26.45 21.70 21.14 28.46 28.83 30.75 32.23 30.93 31.39 32.30 32.76 33.63 34.26 33.57 33.49 33.35 33.12
51.74 51.67 51.65 51.77 52.01 52.15 52.28 52.26 51.50 50.28 49.30 48.81 48.77 48.77 48.96 49.01 43.38 41.98 40.06 42.35 44.80 43.35 36.12 31.74 27.43 31.04 32.90 32.87 32.28 31.81 32.31 31.44 31.00 29.42 27.87 27.50 27.36 26.72 20.67 21.80 29.56 31.67 32.86 31.68 32.01 32.65 29.98 31.76 31.63 33.18 33.15 33.44 36.26 34.50
51.44 51.44 51.47 51.52 51.72 51.87 51.96 51.93 50.97 49.74 49.05 48.95 48.78 48.64 48.80 48.89 45.65 40.21 43.68 46.04 44.46 39.84 38.57 31.64 26.04 26.41 31.50 27.77 27.72 32.08 29.04 29.40 29.42 29.26 29.34 27.12 27.08 26.16 23.21 27.07 30.94 30.69 31.13 30.65 32.11 32.24 32.36 32.76 32.17 31.67 32.78 33.51 33.28 33.53
50.98 51.05 51.17 51.28 51.40 51.60 51.83 51.53 50.32 49.11 48.63 48.61 48.65 48.58 45.55 42.65 38.42 36.85 44.42 43.50 42.30 39.44 33.55 32.28 24.00 19.89 30.33 28.89 29.38 28.79 29.85 23.56 29.34 26.03 27.61 28.00 25.13 22.30 27.24 28.45 29.02 30.98 30.74 30.93 31.79 32.55 31.99 32.08 30.88 31.38 32.19 32.85 32.50 33.52
50.45 50.61 50.73 50.89 51.03 51.25 51.52 50.86 49.48 48.43 48.27 48.40 45.26 40.41 35.50 39.71 45.16 42.96 36.75 35.56 35.49 36.09 35.78 30.35 29.12 24.95 28.46 27.66 25.60 25.84 27.55 24.91 18.96 26.86 28.58 25.77 25.22 31.05 31.19 32.01 32.52 31.70 32.83 32.32 30.15 28.92 29.78 29.41 30.24 31.22 31.74 33.18 33.65 34.28
50.20 50.27 50.36 50.45 50.48 50.70 50.97 49.67 48.33 48.00 47.88 42.27 38.47 35.74 40.96 44.99 40.20 35.58 32.78 31.63 32.00 29.23 32.34 32.45 31.30 25.82 29.97 24.24 24.41 28.57 21.31 21.25 11.81 21.92 23.01 19.10 22.40 28.16 31.29 32.76 34.59 32.12 33.12 33.78 33.46 34.70 33.80 32.70 31.71 31.63 31.59 33.03 33.66 35.56
49.93 49.93 49.98 50.11 50.27 50.52 49.87 48.19 47.44 45.27 42.27 40.72 40.32 41.89 40.66 37.14 33.86 30.02 28.75 30.26 28.79 26.69 31.59 30.22 30.51 28.79 28.50 31.27 26.85 27.18 23.34 22.58 17.76 25.53 19.08 15.16 25.28 30.26 29.25 30.79 30.34 31.69 32.79 33.03 33.42 33.67 33.64 33.70 33.24 32.70 32.74 33.41 34.31 36.14
49.68 49.68 49.79 49.95 50.19 50.42 48.48 46.98 46.99 45.98 44.57 42.12 37.32 32.76 32.02 31.46 26.55 25.00 23.18 26.68 27.76 30.01 32.04 27.84 25.14 28.67 29.48 28.00 26.89 24.84 22.59 22.00 25.31 15.34 18.35 20.98 28.95 31.33 27.15 29.22 29.25 30.71 33.30 33.79 33.34 34.20 34.24 33.32 33.20 33.49 32.98 33.57 35.38 35.07
49.45 49.43 49.52 49.72 49.92 48.72 46.85 46.80 46.73 44.70 40.33 33.05 31.08 25.94 26.84 25.48 26.29 27.52 24.95 26.95 31.68 29.48 29.76 31.95 25.54 26.99 29.45 29.17 27.78 25.12 25.63 23.66 14.09 14.07 16.67 24.80 31.08 33.39 28.82 29.36 29.91 30.48 32.79 33.60 33.29 33.19 32.94 33.19 32.58 33.00 33.11 33.98 35.13 34.11
49.31 49.27 49.27 49.19 48.61 46.76 46.37 46.78 45.74 42.92 36.73 31.71 31.41 25.64 27.25 27.15 23.25 26.01 27.02 28.32 29.96 33.43 32.37 28.46 26.70 27.49 24.55 28.01 26.77 23.67 17.36 15.72 19.17 18.29 24.70 32.76 32.17 30.44 28.26 29.49 29.54 31.70 32.79 33.12 33.06 32.87 32.61 32.65 32.35 31.92 32.87 33.71 32.96 31.47
49.20 48.90 48.15 48.43 46.80 46.25 46.42 45.55 43.36 40.39 33.43 31.69 30.87 28.10 27.84 27.15 26.36 24.98 21.23 25.86 31.70 34.33 32.22 29.16 24.27 26.82 27.75 26.75 22.45 19.37 15.75 14.65 19.70 23.85 28.54 30.29 29.42 29.21 28.50 30.21 31.09 33.17 33.51 32.93 33.14 32.81 31.88 31.69 31.56 32.13 30.52 27.93 26.51 25.38
48.13 41.58 46.94 46.41 46.03 45.75 45.96 41.68 38.94 32.06 31.62 30.18 28.98 32.74 26.71 25.10 29.06 25.42 29.05 30.85 34.86 33.15 26.19 24.54 22.99 23.70 25.96 23.44 20.69 22.00 17.30 21.81 25.40 27.64 29.59 30.79 30.41 29.91 29.77 29.87 32.15 32.99 32.73 32.45 32.29 32.27 32.24 32.29 32.16 31.99 27.51 26.61 27.14 26.24
40.19 44.82 45.98 45.73 44.54 43.04 41.31 37.42 32.96 31.59 27.72 29.03 25.51 27.33 30.27 28.24 29.12 29.08 29.68 32.50 31.96 29.08 26.66 23.89 28.08 22.00 20.17 14.74 17.03 22.71 24.78 26.27 25.91 29.08 29.84 30.37 30.09 31.15 32.08 31.22 32.55 32.53 31.60 31.70 31.38 30.28 29.44 29.56 31.57 28.78 25.62 25.61 24.81 24.33
42.88 44.75 45.34 44.33 41.65 34.68 31.90 30.64 31.84 28.00 27.61 26.28 23.25 29.72 29.31 28.47 29.62 31.09 32.54 33.87 30.93 30.31 28.07 23.07 23.58 22.92 22.68 23.30 23.16 24.45 26.64 28.09 31.39 28.38 29.54 30.80 31.08 32.16 32.20 31.91 31.75 30.59 30.68 30.67 31.14 31.59 32.18 29.75 27.76 27.59 27.40 26.40 24.73 22.71
45.32 44.97 44.07 43.72 41.03 32.93 29.88 28.38 32.63 29.90 24.59 26.64 27.42 29.70 27.64 25.84 27.59 27.66 29.56 31.88 28.86 24.36 24.51 25.14 25.32 27.77 27.55 28.09 26.69 28.44 29.57 28.64 27.66 27.03 29.09 30.47 32.51 32.15 32.13 32.26 32.13 30.89 29.33 27.36 27.63 29.91 26.52 26.36 26.76 27.08 26.97 26.52 24.90 23.69
42.90 42.24 43.04 41.73 32.87 32.15 31.29 28.70 29.58 30.95 29.51 25.07 30.16 29.04 27.43 26.75 27.55 24.46 22.88 29.00 31.07 28.61 28.21 28.44 31.34 31.07 27.08 26.71 29.34 28.95 30.30 30.48 30.10 30.59 30.50 30.58 31.52 32.41 31.56 31.30 31.13 31.18 30.15 29.25 28.04 27.42 28.79 26.37 25.47 24.69 22.02 25.30 24.02 23.09
40.65 42.20 33.50 35.68 30.46 29.84 28.01 29.95 28.26 28.86 28.02 27.94 29.42 28.41 25.80 25.17 27.27 29.28 30.67 29.74 28.47 28.50 28.60 29.82 31.29 33.69 27.32 28.18 28.99 30.23 31.09 30.67 30.25 31.50 34.62 34.10 30.76 30.20 30.21 30.81 30.58 29.71 29.70 29.30 29.06 28.94 25.42 24.26 22.73 23.15 22.43 21.24 21.84 18.79
40.26 37.26 32.54 31.84 27.77 26.59 23.82 29.45 26.22 23.92 24.94 26.23 27.62 24.77 23.14 22.13 22.05 28.97 27.15 26.10 25.50 25.94 30.20 26.86 25.54 25.40 28.19 25.30 27.81 28.90 30.43 30.30 30.05 31.11 32.79 31.73 31.81 31.85 31.52 31.26 31.23 29.59 28.72 28.76 29.02 28.92 28.50 28.76 27.23 22.45 22.29 19.05 17.55 15.93
38.37 32.35 30.16 28.31 25.27 21.08 26.17 23.94 24.91 23.49 25.53 24.56 22.95 20.26 20.52 25.73 28.57 25.57 23.03 19.55 27.23 26.79 28.51 28.69 28.92 26.90 26.17 27.16 27.69 27.87 28.40 30.18 30.46 30.63 31.74 31.23 30.61 30.73 31.44 30.85 30.94 30.65 30.02 29.11 28.26 24.88 23.82 23.73 25.64 21.18 18.75 16.69 13.33 12.84
30.07 27.93 28.19 22.88 22.77 20.32 20.05 20.27 19.69 14.99 13.60 14.00 9.97 16.68 22.02 22.37 20.10 20.50 15.72 20.04 26.87 29.37 31.01 30.59 30.65 32.47 31.46 30.60 29.04 27.35 25.39 30.56 30.18 29.27 30.69 31.99 30.07 29.03 28.04 27.65 26.65 25.97 28.58 26.45 23.97 22.88 21.82 20.34 19.11 17.48 15.68 14.22 12.12 8.39
23.15 23.83 23.04 22.01 21.44 16.98 16.07 15.73 12.94 12.08 12.51 10.03 11.89 12.00 15.20 17.59 17.12 16.36 19.45 24.02 28.22 29.45 30.91 31.17 31.49 32.14 32.34 32.54 29.85 28.16 28.21 28.41 30.59 28.97 27.25 30.27 30.37 29.38 27.32 25.40 24.08 22.93 22.39 26.94 24.15 21.66 19.89 18.42 16.38 13.92 13.17 16.47 19.88 6.95
20.23 19.56 22.03 25.03 23.06 21.39 20.01 18.95 19.29 16.28 11.35 13.84 15.12 15.41 20.20 19.28 15.88 20.66 20.28 18.45 19.47 22.09 24.27 32.97 33.81 33.80 33.40 31.33 28.70 26.71 27.09 30.17 28.43 25.24 22.94 23.11 24.44 28.08 30.31 27.94 26.68 25.59 22.79 24.96 23.88 21.80 18.95 16.78 14.20 12.98 9.04 6.37 5.24 4.48
23.16 21.04 18.59 20.16 15.84 14.98 14.46 14.43 13.92 16.17 17.56 18.15 18.37 15.32 14.58 15.35 20.53 18.95 17.04 14.47 13.45 19.59 24.39 31.41 33.64 33.27 29.25 27.21 23.45 21.94 20.55 20.80 20.49 21.56 21.96 20.62 19.92 21.35 22.51 23.23 24.27 26.66 23.22 22.32 20.90 19.40 17.98 16.04 13.34 10.88 9.22 7.43 2.42 -0.15
15.89 21.40 19.76 12.04 10.62 10.89 12.59 16.27 15.53 15.57 19.21 19.48 16.20 14.87 16.26 16.25 12.60 10.78 13.12 14.41 17.84 20.92 23.93 23.80 23.08 24.26 22.79 22.69 23.12 23.25 23.42 25.46 25.95 25.48 23.28 19.74 19.52 17.90 20.96 22.67 21.47 21.66 22.09 21.46 23.40 17.45 12.34 12.94 11.94 10.40 7.37 5.88 2.28 -1.94
16.43 19.01 14.08 5.17 9.76 10.37 9.32 11.29 10.36 14.07 16.37 16.38 16.80 13.11 12.90 11.42 11.43 11.89 14.29 16.80 18.90 21.41 22.72 23.17 23.50 24.00 22.23 21.79 19.85 20.21 19.27 20.69 24.68 28.44 24.50 22.76 21.91 17.46 18.89 18.92 18.82 19.49 19.61 19.30 18.86 20.36 23.47 16.21 14.24 3.58 3.39 2.35 1.10 0.14
18.44 14.49 9.68 7.77 5.42 8.43 10.47 12.40 15.83 18.05 15.38 11.16 11.34 11.37 10.76 9.37 12.59 13.92 14.33 16.65 19.65 21.91 22.16 22.47 23.92 24.94 24.40 23.17 23.56 22.71 21.93 18.96 20.87 23.63 23.25 20.44 18.87 18.20 18.18 18.22 18.38 18.53 18.89 18.14 15.42 12.70 11.71 5.56 4.93 3.52 2.83 1.47 2.68 1.03
16.60 10.81 7.79 5.61 6.13 10.26 14.65 16.65 17.92 16.16 16.95 18.88 17.70 17.16 10.76 11.50 14.33 13.92 14.45 15.00 17.90 20.81 23.83 23.95 23.46 24.02 26.95 28.01 28.16 27.45 28.95 19.54 22.09 21.50 20.35 19.04 17.55 16.77 16.04 15.89 15.92 15.70 14.42 12.47 10.93 7.97 6.66 5.32 3.14 2.28 1.13 -1.40 -4.02 -6.03
14.83 13.00 11.88 10.39 13.14 10.77 14.07 13.35 16.35 14.37 18.16 17.58 14.51 13.11 15.84 13.26 14.72 14.21 13.91 15.10 18.32 21.44 23.25 24.12 24.64 25.13 25.09 24.47 23.11 22.79 22.69 20.62 22.03 24.15 24.09 22.37 20.86 18.63 15.63 14.67 14.31 13.15 11.28 9.24 7.28 6.48 4.53 1.94 0.91 -1.28 -1.36 -2.44 -5.49 -7.81

GFSWCAN_sfc_wetblb_120.txt.gz
Wetbulb
54.56 54.50 54.36 53.98 53.73 53.98 54.01 54.06 54.30 53.53 51.74 50.22 49.88 49.73 49.38 49.43 49.84 43.78 39.22 42.78 38.95 33.84 34.37 35.18 35.33 31.58 30.78 29.04 26.35 28.83 27.44 28.19 26.03 24.30 22.29 20.97 20.19 23.19 21.35 22.47 22.12 21.35 17.31 16.06 18.43 15.47 15.08 33.27 33.02 26.84 29.60 33.39 36.09 35.72
54.21 54.26 54.13 53.82 53.65 53.70 53.72 53.78 53.84 53.55 51.60 50.31 49.94 49.77 49.20 49.28 49.62 46.54 39.44 44.48 44.75 38.58 35.62 37.21 36.69 36.92 36.13 35.11 31.81 29.18 28.39 28.45 28.86 26.14 22.99 21.73 23.85 16.90 20.13 16.55 24.59 21.25 24.76 22.61 23.17 23.06 29.41 34.67 32.32 34.95 35.80 35.60 35.48 35.67
53.72 53.87 53.90 53.72 53.55 53.50 53.52 53.59 53.66 53.55 51.45 50.39 49.96 49.14 48.97 49.25 49.29 47.38 44.02 45.54 44.91 40.91 37.64 35.30 35.85 36.54 36.56 36.18 36.42 30.18 29.34 32.06 30.77 31.30 25.01 25.84 24.32 24.73 19.42 19.69 19.84 25.39 27.75 25.67 26.43 26.25 29.23 33.20 35.51 35.63 35.88 35.46 35.87 35.93
53.18 53.37 53.49 53.43 53.28 53.08 53.15 53.28 53.38 53.52 51.93 50.68 49.76 49.07 49.42 49.47 49.49 49.37 44.24 43.87 44.43 40.31 29.97 32.53 36.39 33.54 35.89 35.81 35.61 35.19 33.79 33.43 32.93 30.96 25.32 23.31 23.30 27.36 23.37 24.40 23.62 26.24 27.56 25.81 25.01 28.11 28.41 31.44 33.39 35.57 36.06 34.97 33.89 33.65
52.74 52.90 53.03 53.07 53.00 52.66 52.68 52.86 52.96 53.21 52.32 50.90 49.93 49.46 49.46 49.59 49.71 47.54 46.29 45.74 46.86 38.53 29.79 30.96 33.36 34.41 34.65 34.55 34.44 34.62 33.54 31.42 29.01 26.56 25.65 26.44 27.92 26.19 24.19 23.62 21.77 26.98 27.16 25.39 25.53 30.02 29.87 29.25 31.91 35.53 33.88 33.40 33.74 33.05
52.49 52.56 52.65 52.64 52.66 52.48 52.37 52.48 52.54 52.74 51.96 50.50 49.38 49.09 49.35 49.52 49.66 45.03 40.77 45.38 46.43 43.39 36.42 28.40 32.72 31.21 32.50 32.93 32.53 32.26 32.45 30.95 29.74 29.14 28.72 28.51 30.27 26.38 21.12 21.30 27.62 27.96 29.93 31.71 30.77 30.03 30.93 31.12 32.16 33.92 33.82 33.41 33.43 32.74
52.17 52.20 52.26 52.27 52.32 52.23 52.08 52.19 52.25 52.44 51.82 50.27 49.15 48.88 49.16 49.30 45.19 41.08 38.73 40.55 45.64 44.50 36.57 31.89 29.06 30.55 31.91 31.92 31.08 30.88 31.27 30.00 29.63 27.99 27.33 28.01 27.60 27.61 21.27 23.70 28.65 31.06 32.37 32.03 31.00 31.98 29.38 31.65 32.23 33.26 33.66 33.34 36.07 32.40
51.84 51.93 52.00 52.00 52.03 51.96 51.83 51.91 51.99 52.22 51.58 50.06 49.05 48.96 49.05 49.14 46.18 41.40 44.58 47.16 44.48 40.66 38.05 31.96 27.32 26.58 31.08 27.63 27.16 30.36 27.99 28.24 28.28 28.14 27.88 26.74 27.14 25.62 22.39 28.01 29.77 33.75 32.04 30.17 30.20 33.70 32.61 32.66 31.68 31.48 31.81 32.33 31.40 31.84
51.32 51.48 51.66 51.73 51.74 51.73 51.71 51.80 51.80 51.83 50.59 49.32 48.74 48.48 46.43 43.29 38.96 38.95 44.98 45.78 43.06 39.35 33.08 32.63 27.58 21.21 29.64 28.15 28.60 27.93 28.56 24.37 28.24 25.25 26.28 27.62 24.51 21.67 27.66 30.16 30.71 31.66 30.91 31.64 30.28 31.54 30.99 31.56 31.35 30.75 30.96 31.49 31.03 31.92
50.75 50.95 51.14 51.23 51.31 51.32 51.44 51.62 51.70 51.23 49.19 48.10 45.29 40.12 35.99 40.47 45.06 43.78 37.84 36.16 36.59 36.86 35.56 31.61 29.28 25.35 28.71 28.51 27.53 25.13 26.82 24.58 17.98 26.28 27.73 25.27 24.27 28.47 31.77 33.46 34.80 34.82 32.44 30.93 29.03 28.37 28.59 28.75 30.23 30.36 31.15 32.34 32.63 33.14
50.57 50.60 50.70 50.77 50.76 50.78 50.98 51.33 51.52 49.08 47.12 42.17 38.33 35.67 41.40 45.03 40.05 36.57 32.28 31.27 32.66 29.44 32.18 32.89 31.40 27.21 29.98 27.22 27.25 28.75 20.43 20.18 10.82 20.93 21.25 18.40 19.46 26.08 33.89 34.90 36.10 35.23 33.84 32.89 34.95 35.04 34.54 32.74 31.57 31.06 30.52 31.96 32.77 33.30
50.33 50.34 50.34 50.43 50.49 50.58 50.80 51.17 49.32 45.08 41.93 40.63 40.48 41.94 40.75 37.20 32.59 29.64 28.57 29.91 28.64 27.34 30.45 30.43 28.67 30.48 29.11 31.55 29.16 27.87 21.01 21.78 17.06 24.29 18.57 16.02 20.99 28.74 30.84 32.80 31.46 30.60 32.30 32.41 33.44 32.70 32.93 32.11 32.68 32.42 32.01 32.41 33.24 33.70
50.10 50.07 50.16 50.24 50.33 50.60 50.73 50.52 47.47 46.08 44.59 41.53 35.54 31.78 31.74 31.14 26.95 24.39 20.66 24.60 26.46 29.79 32.35 30.63 28.44 31.22 30.39 31.68 29.08 26.68 22.53 20.74 24.60 20.07 19.42 19.81 24.50 28.93 30.75 32.32 30.52 30.23 31.15 31.91 31.81 32.64 33.05 32.14 32.18 32.45 31.97 33.16 33.68 33.54
49.87 49.87 49.86 49.93 50.00 50.19 50.45 48.31 46.57 44.38 39.61 32.12 30.74 26.14 27.05 25.23 26.37 24.82 24.45 26.43 30.52 30.18 31.99 32.84 28.16 28.89 30.42 28.72 28.71 23.64 24.74 23.33 15.90 15.72 14.88 21.31 26.87 31.63 32.34 31.13 30.36 29.17 30.25 31.71 32.38 32.55 32.35 32.11 31.37 32.05 33.19 33.95 33.67 32.55
49.70 49.65 49.56 49.38 49.54 49.75 49.41 47.13 45.42 42.91 34.11 31.07 31.03 25.11 26.46 26.07 22.06 27.85 29.14 30.08 29.85 34.34 33.56 29.92 29.63 28.75 26.61 28.14 26.22 23.63 19.66 15.90 19.26 18.14 22.41 27.09 29.66 30.30 30.47 30.39 30.42 30.64 31.38 32.35 32.55 32.10 31.77 31.46 31.20 30.75 32.18 32.33 32.13 32.02
49.49 49.22 48.64 49.27 49.35 49.66 47.30 45.22 42.84 37.86 31.83 31.17 30.25 27.87 27.65 27.25 26.37 27.10 26.45 31.24 32.85 34.83 33.61 31.35 27.51 24.45 24.94 24.13 22.80 19.21 15.43 14.84 19.98 21.97 26.19 25.70 29.55 29.32 29.33 30.52 30.29 32.15 32.96 32.91 32.87 32.28 31.54 31.44 31.05 30.83 29.69 29.88 30.11 31.58
48.91 46.77 48.66 48.90 49.08 47.93 45.67 39.84 33.99 31.65 31.50 29.85 28.93 30.42 27.80 28.02 28.19 28.54 31.21 32.16 36.04 33.68 29.40 28.27 21.96 21.62 24.36 22.53 21.36 21.59 17.05 22.44 25.53 25.70 25.62 28.65 29.75 29.24 28.60 30.50 32.16 32.73 33.18 32.88 32.77 32.16 31.67 31.50 31.64 30.20 27.52 26.79 26.64 25.94
46.08 46.41 48.45 48.83 47.52 43.40 38.61 32.44 32.03 31.36 28.27 30.55 28.42 30.43 28.11 28.29 30.19 29.65 31.20 34.21 34.25 32.47 29.80 27.00 26.25 16.76 19.14 17.50 17.07 22.73 23.98 24.69 25.73 27.55 29.55 30.15 29.03 28.82 29.22 29.28 31.53 32.63 32.38 32.40 32.92 31.86 31.17 30.41 30.19 29.66 26.89 25.28 24.43 23.57
44.21 47.39 48.45 47.47 41.32 34.91 31.70 30.32 31.85 28.95 25.37 30.34 26.72 31.55 29.91 28.60 30.88 35.15 33.39 35.39 33.44 33.05 30.07 23.57 22.16 18.44 21.82 22.80 23.70 23.73 23.40 24.88 28.22 28.38 27.75 28.20 29.12 28.59 28.87 28.34 30.16 30.48 32.05 31.33 31.48 32.13 32.03 31.02 30.51 28.76 26.88 25.93 25.54 24.88
47.30 47.98 46.88 43.06 41.33 32.88 29.39 27.74 32.24 28.71 27.07 27.62 26.30 28.71 28.82 28.74 30.58 32.44 32.84 33.65 32.11 29.30 23.02 23.37 27.97 26.58 27.09 28.60 29.02 31.43 30.01 28.46 28.06 27.15 27.75 27.67 28.04 25.23 27.76 29.89 31.58 31.23 31.45 29.22 30.37 31.70 29.11 27.59 26.94 26.39 26.23 26.51 25.41 24.45
45.80 45.67 43.25 40.01 32.15 31.95 30.69 28.35 30.88 30.39 29.58 27.93 27.40 30.25 26.72 28.45 28.51 28.05 29.61 32.61 30.37 23.79 24.61 27.61 30.42 32.75 33.54 30.61 28.81 28.69 28.08 28.18 27.63 28.68 28.18 23.97 28.87 31.00 27.96 29.08 31.66 31.63 30.98 30.80 30.28 29.61 30.96 28.60 26.90 26.31 28.09 26.28 24.98 23.83
38.88 39.94 34.00 34.66 30.29 29.83 28.66 30.02 26.62 29.09 27.24 28.77 29.29 27.75 27.03 27.27 27.25 27.09 26.62 29.22 29.13 31.17 30.28 32.89 33.65 34.13 32.79 25.98 27.30 26.91 29.55 28.18 28.42 28.54 32.75 32.86 29.27 30.10 30.58 31.02 31.26 30.84 31.13 31.02 30.45 30.19 28.33 27.03 26.12 24.95 24.57 22.97 23.79 22.03
38.47 35.90 32.09 31.69 27.20 26.55 23.92 29.39 24.42 25.59 24.70 26.57 28.82 24.01 22.69 23.20 26.76 31.20 27.81 29.91 30.46 27.81 34.75 33.41 32.42 30.51 33.24 31.53 27.42 27.20 27.22 27.76 27.77 28.62 30.48 31.82 31.27 30.64 31.69 31.99 32.59 31.79 30.54 30.04 30.72 28.88 27.25 28.22 28.74 24.02 24.11 21.43 21.00 21.27
38.32 32.34 29.61 27.11 25.56 21.16 26.10 23.59 25.32 24.81 26.60 25.12 24.18 21.62 19.81 24.86 27.80 25.48 21.78 18.24 27.86 32.83 32.50 30.67 31.86 25.25 23.77 20.98 26.97 29.29 28.18 29.92 29.66 28.03 32.14 31.34 30.05 30.47 31.83 31.83 32.01 32.15 31.24 29.51 28.90 27.93 27.71 24.17 26.71 23.28 21.12 19.96 19.32 17.42
30.30 28.16 27.32 22.03 24.33 20.03 17.85 18.56 19.72 19.97 19.93 20.46 18.13 17.49 21.14 26.16 23.49 20.13 14.85 18.67 26.52 28.82 29.68 30.66 31.34 30.83 30.74 31.50 31.17 28.58 25.56 30.38 29.69 29.49 30.82 31.63 31.26 30.63 29.60 29.41 28.54 28.62 29.96 27.66 25.94 25.83 24.77 22.88 21.42 20.51 19.28 18.23 16.03 12.44
22.50 24.00 24.08 20.84 18.09 16.28 16.50 15.72 16.86 17.37 21.12 18.88 15.16 15.18 10.14 18.27 14.37 15.23 15.96 17.92 26.00 26.44 29.36 30.17 29.95 29.25 30.32 32.71 31.58 28.36 28.47 31.36 31.86 29.76 30.62 31.85 31.11 30.43 27.83 26.88 25.84 24.81 25.10 28.63 25.85 23.54 21.64 21.01 19.88 18.33 17.49 19.50 20.97 8.85
20.22 17.34 21.70 24.51 21.02 20.19 19.79 21.18 21.18 20.40 16.23 15.13 19.42 17.53 13.99 12.50 12.66 18.10 15.58 11.69 11.93 14.96 18.66 21.12 26.51 30.99 31.29 32.04 31.22 32.55 31.60 32.54 32.47 30.30 29.10 30.37 30.65 32.19 31.74 29.65 28.36 27.57 25.69 26.49 25.86 24.05 21.37 19.84 18.44 17.66 14.82 11.77 9.32 8.38
22.75 18.52 18.25 18.52 18.45 18.83 19.25 19.33 18.82 16.85 15.27 16.95 18.98 16.45 16.16 17.30 18.74 15.60 12.91 10.47 9.89 11.93 16.94 24.64 26.89 32.18 32.23 31.93 29.51 26.53 23.28 23.47 23.22 23.71 23.91 22.82 22.47 24.60 26.31 26.89 26.31 28.99 26.90 26.24 25.18 23.55 21.55 19.33 16.93 14.37 11.72 8.27 3.00 1.41
18.57 21.39 21.94 17.48 16.20 16.34 16.61 18.74 19.95 18.99 21.30 22.27 20.39 15.84 15.59 15.63 9.19 8.23 10.50 9.27 8.87 11.99 22.76 24.49 23.73 25.60 25.15 25.65 26.04 26.10 24.09 25.94 25.77 24.68 25.10 20.91 21.43 20.34 25.62 27.06 26.42 25.41 25.94 25.16 26.12 21.81 17.78 16.23 14.27 12.07 8.96 7.82 5.43 3.60
20.16 20.02 16.15 11.28 15.01 14.36 12.06 13.09 14.49 12.66 16.30 15.43 15.36 12.41 12.17 9.91 8.05 7.29 8.28 7.47 9.32 15.13 22.52 23.47 23.58 23.95 22.47 22.25 21.31 21.77 22.41 28.36 30.44 29.49 25.57 24.41 24.17 20.59 22.47 22.99 22.70 22.58 22.46 21.61 21.09 21.98 24.84 18.43 16.01 9.47 6.65 5.50 4.94 3.26
18.66 15.93 12.75 11.11 9.73 10.01 10.59 12.02 13.81 15.71 9.93 6.79 6.03 8.20 9.35 7.26 9.83 8.51 7.85 8.35 11.46 16.48 19.42 22.03 23.76 24.66 23.75 22.88 23.35 23.01 22.15 21.80 27.16 26.28 25.04 22.44 21.99 21.43 21.76 21.67 21.57 21.48 21.22 20.90 18.19 15.39 13.91 9.51 8.01 6.05 4.71 3.73 5.16 3.85
13.71 6.86 9.47 6.36 6.76 11.93 12.73 9.98 14.91 12.01 12.08 8.81 8.04 4.71 6.61 9.87 10.29 9.46 8.52 9.85 14.69 16.92 22.07 24.06 23.60 23.99 26.38 27.76 28.42 29.30 28.26 23.64 24.79 23.11 22.70 21.79 21.14 20.81 20.53 20.84 20.88 19.68 17.62 15.82 12.90 10.15 10.01 7.90 6.23 5.42 3.91 1.65 0.54 -0.18
8.81 5.55 2.73 4.95 11.09 9.03 9.92 8.11 11.40 7.58 9.36 9.44 9.00 7.98 9.51 13.95 13.97 11.97 9.53 10.04 13.66 16.68 20.79 23.74 25.28 26.59 26.71 25.78 25.13 24.83 24.69 22.91 25.01 26.81 26.28 24.61 23.15 21.37 19.26 18.49 17.52 15.84 13.79 11.97 10.58 8.78 7.18 5.08 3.93 2.38 0.68 -0.37 -1.68 -4.36